<?xml version="1.0" encoding="UTF-8" standalone="no" ?>
<gpx xmlns="http://www.topografix.com/GPX/1/1" xmlns:xsi="http://www.w3.org/2001/XMLSchema-instance" xsi:schemaLocation="http://www.topografix.com/GPX/1/1 http://www.topografix.com/GPX/1/1/gpx.xsd" version="1.1" creator="VisuGPX - https://www.visugpx.com">
  <metadata>
    <name>Vélo dans l'après-midi</name>
  </metadata>
  <trk>
    <name><![CDATA[Vélo dans l'après-midi_1]]></name>
    <trkseg>
      <trkpt lat="44.4806" lon="1.6502">
        <ele>171.8</ele>
        <time>2022-05-07T12:57:27Z</time>
      </trkpt>
      <trkpt lat="44.48061" lon="1.6502">
        <ele>171.8</ele>
        <time>2022-05-07T12:57:28Z</time>
      </trkpt>
      <trkpt lat="44.48061" lon="1.65021">
        <ele>171.9</ele>
        <time>2022-05-07T12:57:29Z</time>
      </trkpt>
      <trkpt lat="44.48062" lon="1.65021">
        <ele>171.9</ele>
        <time>2022-05-07T12:57:30Z</time>
      </trkpt>
      <trkpt lat="44.48062" lon="1.65022">
        <ele>172</ele>
        <time>2022-05-07T12:57:31Z</time>
      </trkpt>
      <trkpt lat="44.48063" lon="1.65022">
        <ele>172.1</ele>
        <time>2022-05-07T12:57:32Z</time>
      </trkpt>
      <trkpt lat="44.48064" lon="1.65023">
        <ele>172.2</ele>
        <time>2022-05-07T12:57:33Z</time>
      </trkpt>
      <trkpt lat="44.48065" lon="1.65024">
        <ele>172.3</ele>
        <time>2022-05-07T12:57:34Z</time>
      </trkpt>
      <trkpt lat="44.48065" lon="1.65024">
        <ele>172.3</ele>
        <time>2022-05-07T12:57:35Z</time>
      </trkpt>
      <trkpt lat="44.48065" lon="1.65025">
        <ele>172.4</ele>
        <time>2022-05-07T12:57:37Z</time>
      </trkpt>
      <trkpt lat="44.48066" lon="1.65024">
        <ele>172.5</ele>
        <time>2022-05-07T12:58:02Z</time>
      </trkpt>
      <trkpt lat="44.48068" lon="1.65023">
        <ele>172.7</ele>
        <time>2022-05-07T12:58:03Z</time>
      </trkpt>
      <trkpt lat="44.48072" lon="1.65022">
        <ele>173.2</ele>
        <time>2022-05-07T12:58:05Z</time>
      </trkpt>
      <trkpt lat="44.48077" lon="1.6502">
        <ele>173.8</ele>
        <time>2022-05-07T12:58:06Z</time>
      </trkpt>
      <trkpt lat="44.48081" lon="1.65017">
        <ele>174.2</ele>
        <time>2022-05-07T12:58:07Z</time>
      </trkpt>
      <trkpt lat="44.48087" lon="1.65012">
        <ele>174.9</ele>
        <time>2022-05-07T12:58:09Z</time>
      </trkpt>
      <trkpt lat="44.48091" lon="1.65009">
        <ele>175.4</ele>
        <time>2022-05-07T12:58:10Z</time>
      </trkpt>
      <trkpt lat="44.48096" lon="1.65007">
        <ele>176</ele>
        <time>2022-05-07T12:58:11Z</time>
      </trkpt>
      <trkpt lat="44.48101" lon="1.65004">
        <ele>176.6</ele>
        <time>2022-05-07T12:58:12Z</time>
      </trkpt>
      <trkpt lat="44.48104" lon="1.65">
        <ele>177</ele>
        <time>2022-05-07T12:58:13Z</time>
      </trkpt>
      <trkpt lat="44.48108" lon="1.64998">
        <ele>177.5</ele>
        <time>2022-05-07T12:58:14Z</time>
      </trkpt>
      <trkpt lat="44.48113" lon="1.64994">
        <ele>178.1</ele>
        <time>2022-05-07T12:58:16Z</time>
      </trkpt>
      <trkpt lat="44.48119" lon="1.64991">
        <ele>178.7</ele>
        <time>2022-05-07T12:58:17Z</time>
      </trkpt>
      <trkpt lat="44.48123" lon="1.64989">
        <ele>179.1</ele>
        <time>2022-05-07T12:58:18Z</time>
      </trkpt>
      <trkpt lat="44.48126" lon="1.64988">
        <ele>179.6</ele>
        <time>2022-05-07T12:58:19Z</time>
      </trkpt>
      <trkpt lat="44.48129" lon="1.64987">
        <ele>179.9</ele>
        <time>2022-05-07T12:58:20Z</time>
      </trkpt>
      <trkpt lat="44.48133" lon="1.64983">
        <ele>180.4</ele>
        <time>2022-05-07T12:58:22Z</time>
      </trkpt>
      <trkpt lat="44.48135" lon="1.64982">
        <ele>180.6</ele>
        <time>2022-05-07T12:58:23Z</time>
      </trkpt>
      <trkpt lat="44.48136" lon="1.6498">
        <ele>180.8</ele>
        <time>2022-05-07T12:58:24Z</time>
      </trkpt>
      <trkpt lat="44.48139" lon="1.6498">
        <ele>181.1</ele>
        <time>2022-05-07T12:58:25Z</time>
      </trkpt>
      <trkpt lat="44.48142" lon="1.64978">
        <ele>181.4</ele>
        <time>2022-05-07T12:58:26Z</time>
      </trkpt>
      <trkpt lat="44.48144" lon="1.64978">
        <ele>181.6</ele>
        <time>2022-05-07T12:58:27Z</time>
      </trkpt>
      <trkpt lat="44.48144" lon="1.64979">
        <ele>181.7</ele>
        <time>2022-05-07T12:58:28Z</time>
      </trkpt>
      <trkpt lat="44.48148" lon="1.64977">
        <ele>182</ele>
        <time>2022-05-07T12:58:30Z</time>
      </trkpt>
      <trkpt lat="44.48151" lon="1.64976">
        <ele>182.4</ele>
        <time>2022-05-07T12:58:31Z</time>
      </trkpt>
      <trkpt lat="44.48152" lon="1.64975">
        <ele>182.6</ele>
        <time>2022-05-07T12:58:32Z</time>
      </trkpt>
      <trkpt lat="44.48155" lon="1.64973">
        <ele>182.9</ele>
        <time>2022-05-07T12:58:33Z</time>
      </trkpt>
      <trkpt lat="44.48156" lon="1.64972">
        <ele>183.1</ele>
        <time>2022-05-07T12:58:35Z</time>
      </trkpt>
      <trkpt lat="44.48158" lon="1.64974">
        <ele>183.3</ele>
        <time>2022-05-07T12:58:36Z</time>
      </trkpt>
      <trkpt lat="44.48156" lon="1.64978">
        <ele>183.6</ele>
        <time>2022-05-07T12:58:37Z</time>
      </trkpt>
      <trkpt lat="44.48156" lon="1.64979">
        <ele>183.7</ele>
        <time>2022-05-07T12:58:38Z</time>
      </trkpt>
      <trkpt lat="44.48156" lon="1.64982">
        <ele>184</ele>
        <time>2022-05-07T12:58:39Z</time>
      </trkpt>
      <trkpt lat="44.48156" lon="1.64986">
        <ele>184.2</ele>
        <time>2022-05-07T12:58:41Z</time>
      </trkpt>
      <trkpt lat="44.48157" lon="1.64991">
        <ele>184.6</ele>
        <time>2022-05-07T12:58:42Z</time>
      </trkpt>
      <trkpt lat="44.48157" lon="1.64992">
        <ele>184.7</ele>
        <time>2022-05-07T12:58:43Z</time>
      </trkpt>
      <trkpt lat="44.48157" lon="1.64995">
        <ele>185</ele>
        <time>2022-05-07T12:58:44Z</time>
      </trkpt>
      <trkpt lat="44.48158" lon="1.64997">
        <ele>185.1</ele>
        <time>2022-05-07T12:58:45Z</time>
      </trkpt>
      <trkpt lat="44.48157" lon="1.64996">
        <ele>185.2</ele>
        <time>2022-05-07T12:58:46Z</time>
      </trkpt>
      <trkpt lat="44.48156" lon="1.64994">
        <ele>185.4</ele>
        <time>2022-05-07T12:58:47Z</time>
      </trkpt>
      <trkpt lat="44.48156" lon="1.64993">
        <ele>185.5</ele>
        <time>2022-05-07T12:58:48Z</time>
      </trkpt>
      <trkpt lat="44.48158" lon="1.64992">
        <ele>185.7</ele>
        <time>2022-05-07T12:58:49Z</time>
      </trkpt>
      <trkpt lat="44.48158" lon="1.64992">
        <ele>185.7</ele>
        <time>2022-05-07T12:58:50Z</time>
      </trkpt>
      <trkpt lat="44.48158" lon="1.64992">
        <ele>185.7</ele>
        <time>2022-05-07T12:58:51Z</time>
      </trkpt>
      <trkpt lat="44.48157" lon="1.64992">
        <ele>185.8</ele>
        <time>2022-05-07T12:58:52Z</time>
      </trkpt>
      <trkpt lat="44.48157" lon="1.64992">
        <ele>185.8</ele>
        <time>2022-05-07T12:58:53Z</time>
      </trkpt>
      <trkpt lat="44.48156" lon="1.64993">
        <ele>185.9</ele>
        <time>2022-05-07T12:58:55Z</time>
      </trkpt>
      <trkpt lat="44.48156" lon="1.64992">
        <ele>185.9</ele>
        <time>2022-05-07T12:58:56Z</time>
      </trkpt>
      <trkpt lat="44.48156" lon="1.64992">
        <ele>185.9</ele>
        <time>2022-05-07T12:58:57Z</time>
      </trkpt>
      <trkpt lat="44.48156" lon="1.64992">
        <ele>185.9</ele>
        <time>2022-05-07T12:58:58Z</time>
      </trkpt>
      <trkpt lat="44.48156" lon="1.64992">
        <ele>185.9</ele>
        <time>2022-05-07T12:58:59Z</time>
      </trkpt>
      <trkpt lat="44.48156" lon="1.64992">
        <ele>185.9</ele>
        <time>2022-05-07T12:59:00Z</time>
      </trkpt>
      <trkpt lat="44.48156" lon="1.64992">
        <ele>185.9</ele>
        <time>2022-05-07T12:59:01Z</time>
      </trkpt>
      <trkpt lat="44.48156" lon="1.64992">
        <ele>186</ele>
        <time>2022-05-07T12:59:02Z</time>
      </trkpt>
      <trkpt lat="44.48156" lon="1.64991">
        <ele>186</ele>
        <time>2022-05-07T12:59:03Z</time>
      </trkpt>
      <trkpt lat="44.48156" lon="1.6499">
        <ele>186.1</ele>
        <time>2022-05-07T12:59:04Z</time>
      </trkpt>
      <trkpt lat="44.48155" lon="1.64989">
        <ele>186.2</ele>
        <time>2022-05-07T12:59:05Z</time>
      </trkpt>
      <trkpt lat="44.48155" lon="1.64988">
        <ele>186.3</ele>
        <time>2022-05-07T12:59:06Z</time>
      </trkpt>
      <trkpt lat="44.48155" lon="1.64986">
        <ele>186.5</ele>
        <time>2022-05-07T12:59:07Z</time>
      </trkpt>
      <trkpt lat="44.48155" lon="1.6498">
        <ele>186.9</ele>
        <time>2022-05-07T12:59:09Z</time>
      </trkpt>
      <trkpt lat="44.48156" lon="1.64976">
        <ele>187.2</ele>
        <time>2022-05-07T12:59:10Z</time>
      </trkpt>
      <trkpt lat="44.48157" lon="1.64973">
        <ele>187.5</ele>
        <time>2022-05-07T12:59:11Z</time>
      </trkpt>
      <trkpt lat="44.48162" lon="1.64969">
        <ele>188.1</ele>
        <time>2022-05-07T12:59:13Z</time>
      </trkpt>
      <trkpt lat="44.48165" lon="1.64966">
        <ele>188.5</ele>
        <time>2022-05-07T12:59:14Z</time>
      </trkpt>
      <trkpt lat="44.48166" lon="1.64966">
        <ele>188.6</ele>
        <time>2022-05-07T12:59:15Z</time>
      </trkpt>
      <trkpt lat="44.48168" lon="1.64964">
        <ele>188.9</ele>
        <time>2022-05-07T12:59:16Z</time>
      </trkpt>
      <trkpt lat="44.48169" lon="1.64964">
        <ele>189</ele>
        <time>2022-05-07T12:59:17Z</time>
      </trkpt>
      <trkpt lat="44.48172" lon="1.64962">
        <ele>189.3</ele>
        <time>2022-05-07T12:59:19Z</time>
      </trkpt>
      <trkpt lat="44.48173" lon="1.64961">
        <ele>189.4</ele>
        <time>2022-05-07T12:59:20Z</time>
      </trkpt>
      <trkpt lat="44.48175" lon="1.64959">
        <ele>189.7</ele>
        <time>2022-05-07T12:59:21Z</time>
      </trkpt>
      <trkpt lat="44.48176" lon="1.64958">
        <ele>189.8</ele>
        <time>2022-05-07T12:59:22Z</time>
      </trkpt>
      <trkpt lat="44.48177" lon="1.64957">
        <ele>190</ele>
        <time>2022-05-07T12:59:23Z</time>
      </trkpt>
      <trkpt lat="44.48179" lon="1.64956">
        <ele>190.2</ele>
        <time>2022-05-07T12:59:25Z</time>
      </trkpt>
      <trkpt lat="44.4818" lon="1.64955">
        <ele>190.3</ele>
        <time>2022-05-07T12:59:26Z</time>
      </trkpt>
      <trkpt lat="44.48181" lon="1.64953">
        <ele>190.5</ele>
        <time>2022-05-07T12:59:27Z</time>
      </trkpt>
      <trkpt lat="44.48185" lon="1.6495">
        <ele>190.9</ele>
        <time>2022-05-07T12:59:28Z</time>
      </trkpt>
      <trkpt lat="44.48186" lon="1.64949">
        <ele>191.1</ele>
        <time>2022-05-07T12:59:29Z</time>
      </trkpt>
      <trkpt lat="44.48187" lon="1.64948">
        <ele>191.3</ele>
        <time>2022-05-07T12:59:30Z</time>
      </trkpt>
      <trkpt lat="44.48189" lon="1.64946">
        <ele>191.5</ele>
        <time>2022-05-07T12:59:32Z</time>
      </trkpt>
      <trkpt lat="44.48193" lon="1.64943">
        <ele>192</ele>
        <time>2022-05-07T12:59:33Z</time>
      </trkpt>
      <trkpt lat="44.48194" lon="1.64942">
        <ele>192.2</ele>
        <time>2022-05-07T12:59:34Z</time>
      </trkpt>
      <trkpt lat="44.48197" lon="1.64941">
        <ele>192.5</ele>
        <time>2022-05-07T12:59:35Z</time>
      </trkpt>
      <trkpt lat="44.48199" lon="1.6494">
        <ele>192.6</ele>
        <time>2022-05-07T12:59:36Z</time>
      </trkpt>
      <trkpt lat="44.482" lon="1.6494">
        <ele>192.8</ele>
        <time>2022-05-07T12:59:38Z</time>
      </trkpt>
      <trkpt lat="44.48202" lon="1.64939">
        <ele>193</ele>
        <time>2022-05-07T12:59:39Z</time>
      </trkpt>
      <trkpt lat="44.48205" lon="1.64937">
        <ele>193.3</ele>
        <time>2022-05-07T12:59:40Z</time>
      </trkpt>
      <trkpt lat="44.48206" lon="1.64937">
        <ele>193.5</ele>
        <time>2022-05-07T12:59:41Z</time>
      </trkpt>
      <trkpt lat="44.48209" lon="1.64936">
        <ele>193.8</ele>
        <time>2022-05-07T12:59:42Z</time>
      </trkpt>
      <trkpt lat="44.4821" lon="1.64936">
        <ele>194</ele>
        <time>2022-05-07T12:59:43Z</time>
      </trkpt>
      <trkpt lat="44.48213" lon="1.64935">
        <ele>194.2</ele>
        <time>2022-05-07T12:59:44Z</time>
      </trkpt>
      <trkpt lat="44.48214" lon="1.64934">
        <ele>194.3</ele>
        <time>2022-05-07T12:59:45Z</time>
      </trkpt>
      <trkpt lat="44.48215" lon="1.64934">
        <ele>194.4</ele>
        <time>2022-05-07T12:59:46Z</time>
      </trkpt>
      <trkpt lat="44.48216" lon="1.64934">
        <ele>194.6</ele>
        <time>2022-05-07T12:59:47Z</time>
      </trkpt>
      <trkpt lat="44.48217" lon="1.64933">
        <ele>194.7</ele>
        <time>2022-05-07T12:59:48Z</time>
      </trkpt>
      <trkpt lat="44.48219" lon="1.64931">
        <ele>194.9</ele>
        <time>2022-05-07T12:59:49Z</time>
      </trkpt>
      <trkpt lat="44.4822" lon="1.64931">
        <ele>195.1</ele>
        <time>2022-05-07T12:59:51Z</time>
      </trkpt>
      <trkpt lat="44.48221" lon="1.6493">
        <ele>195.3</ele>
        <time>2022-05-07T12:59:52Z</time>
      </trkpt>
      <trkpt lat="44.48223" lon="1.64931">
        <ele>195.4</ele>
        <time>2022-05-07T12:59:53Z</time>
      </trkpt>
      <trkpt lat="44.48225" lon="1.6493">
        <ele>195.6</ele>
        <time>2022-05-07T12:59:54Z</time>
      </trkpt>
      <trkpt lat="44.48226" lon="1.6493">
        <ele>195.8</ele>
        <time>2022-05-07T12:59:55Z</time>
      </trkpt>
      <trkpt lat="44.48229" lon="1.64928">
        <ele>196.1</ele>
        <time>2022-05-07T12:59:56Z</time>
      </trkpt>
      <trkpt lat="44.4823" lon="1.64927">
        <ele>196.2</ele>
        <time>2022-05-07T12:59:58Z</time>
      </trkpt>
      <trkpt lat="44.48231" lon="1.64926">
        <ele>196.3</ele>
        <time>2022-05-07T12:59:59Z</time>
      </trkpt>
      <trkpt lat="44.48232" lon="1.64925">
        <ele>196.5</ele>
        <time>2022-05-07T13:00:00Z</time>
      </trkpt>
      <trkpt lat="44.48233" lon="1.64924">
        <ele>196.6</ele>
        <time>2022-05-07T13:00:01Z</time>
      </trkpt>
      <trkpt lat="44.48234" lon="1.64923">
        <ele>196.8</ele>
        <time>2022-05-07T13:00:02Z</time>
      </trkpt>
      <trkpt lat="44.48237" lon="1.6492">
        <ele>197.1</ele>
        <time>2022-05-07T13:00:04Z</time>
      </trkpt>
      <trkpt lat="44.48238" lon="1.6492">
        <ele>197.2</ele>
        <time>2022-05-07T13:00:05Z</time>
      </trkpt>
      <trkpt lat="44.48241" lon="1.64919">
        <ele>197.6</ele>
        <time>2022-05-07T13:00:07Z</time>
      </trkpt>
      <trkpt lat="44.48241" lon="1.64919">
        <ele>197.7</ele>
        <time>2022-05-07T13:00:08Z</time>
      </trkpt>
      <trkpt lat="44.48243" lon="1.64918">
        <ele>197.8</ele>
        <time>2022-05-07T13:00:09Z</time>
      </trkpt>
      <trkpt lat="44.48244" lon="1.64917">
        <ele>197.9</ele>
        <time>2022-05-07T13:00:10Z</time>
      </trkpt>
      <trkpt lat="44.48247" lon="1.64915">
        <ele>198.3</ele>
        <time>2022-05-07T13:00:12Z</time>
      </trkpt>
      <trkpt lat="44.48248" lon="1.64915">
        <ele>198.4</ele>
        <time>2022-05-07T13:00:13Z</time>
      </trkpt>
      <trkpt lat="44.4825" lon="1.64913">
        <ele>198.7</ele>
        <time>2022-05-07T13:00:14Z</time>
      </trkpt>
      <trkpt lat="44.48251" lon="1.64912">
        <ele>198.8</ele>
        <time>2022-05-07T13:00:15Z</time>
      </trkpt>
      <trkpt lat="44.48253" lon="1.6491">
        <ele>199.1</ele>
        <time>2022-05-07T13:00:17Z</time>
      </trkpt>
      <trkpt lat="44.48254" lon="1.64909">
        <ele>199.2</ele>
        <time>2022-05-07T13:00:18Z</time>
      </trkpt>
      <trkpt lat="44.48257" lon="1.64907">
        <ele>199.6</ele>
        <time>2022-05-07T13:00:19Z</time>
      </trkpt>
      <trkpt lat="44.48258" lon="1.64906">
        <ele>199.6</ele>
        <time>2022-05-07T13:00:20Z</time>
      </trkpt>
      <trkpt lat="44.48259" lon="1.64906">
        <ele>199.8</ele>
        <time>2022-05-07T13:00:21Z</time>
      </trkpt>
      <trkpt lat="44.48262" lon="1.64905">
        <ele>200.1</ele>
        <time>2022-05-07T13:00:23Z</time>
      </trkpt>
      <trkpt lat="44.48265" lon="1.64902">
        <ele>200.4</ele>
        <time>2022-05-07T13:00:24Z</time>
      </trkpt>
      <trkpt lat="44.48265" lon="1.64902">
        <ele>200.5</ele>
        <time>2022-05-07T13:00:25Z</time>
      </trkpt>
      <trkpt lat="44.48267" lon="1.649">
        <ele>200.7</ele>
        <time>2022-05-07T13:00:26Z</time>
      </trkpt>
      <trkpt lat="44.48268" lon="1.64899">
        <ele>200.9</ele>
        <time>2022-05-07T13:00:27Z</time>
      </trkpt>
      <trkpt lat="44.48269" lon="1.64899">
        <ele>201</ele>
        <time>2022-05-07T13:00:28Z</time>
      </trkpt>
      <trkpt lat="44.48271" lon="1.64897">
        <ele>201.3</ele>
        <time>2022-05-07T13:00:30Z</time>
      </trkpt>
      <trkpt lat="44.48272" lon="1.64895">
        <ele>201.4</ele>
        <time>2022-05-07T13:00:31Z</time>
      </trkpt>
      <trkpt lat="44.48274" lon="1.64895">
        <ele>201.6</ele>
        <time>2022-05-07T13:00:32Z</time>
      </trkpt>
      <trkpt lat="44.48276" lon="1.64893">
        <ele>201.9</ele>
        <time>2022-05-07T13:00:33Z</time>
      </trkpt>
      <trkpt lat="44.48277" lon="1.64893">
        <ele>202</ele>
        <time>2022-05-07T13:00:34Z</time>
      </trkpt>
      <trkpt lat="44.48279" lon="1.64892">
        <ele>202.2</ele>
        <time>2022-05-07T13:00:35Z</time>
      </trkpt>
      <trkpt lat="44.4828" lon="1.64891">
        <ele>202.3</ele>
        <time>2022-05-07T13:00:36Z</time>
      </trkpt>
      <trkpt lat="44.48281" lon="1.6489">
        <ele>202.5</ele>
        <time>2022-05-07T13:00:38Z</time>
      </trkpt>
      <trkpt lat="44.48282" lon="1.64887">
        <ele>202.7</ele>
        <time>2022-05-07T13:00:39Z</time>
      </trkpt>
      <trkpt lat="44.48284" lon="1.64887">
        <ele>202.9</ele>
        <time>2022-05-07T13:00:40Z</time>
      </trkpt>
      <trkpt lat="44.48286" lon="1.64885">
        <ele>203.2</ele>
        <time>2022-05-07T13:00:42Z</time>
      </trkpt>
      <trkpt lat="44.48287" lon="1.64884">
        <ele>203.3</ele>
        <time>2022-05-07T13:00:43Z</time>
      </trkpt>
      <trkpt lat="44.48288" lon="1.64883">
        <ele>203.5</ele>
        <time>2022-05-07T13:00:44Z</time>
      </trkpt>
      <trkpt lat="44.4829" lon="1.64881">
        <ele>203.7</ele>
        <time>2022-05-07T13:00:45Z</time>
      </trkpt>
      <trkpt lat="44.48292" lon="1.6488">
        <ele>203.9</ele>
        <time>2022-05-07T13:00:46Z</time>
      </trkpt>
      <trkpt lat="44.48293" lon="1.64878">
        <ele>204.1</ele>
        <time>2022-05-07T13:00:48Z</time>
      </trkpt>
      <trkpt lat="44.48296" lon="1.64876">
        <ele>204.4</ele>
        <time>2022-05-07T13:00:49Z</time>
      </trkpt>
      <trkpt lat="44.48297" lon="1.64875">
        <ele>204.6</ele>
        <time>2022-05-07T13:00:50Z</time>
      </trkpt>
      <trkpt lat="44.483" lon="1.64873">
        <ele>204.9</ele>
        <time>2022-05-07T13:00:52Z</time>
      </trkpt>
      <trkpt lat="44.48302" lon="1.6487">
        <ele>205.2</ele>
        <time>2022-05-07T13:00:53Z</time>
      </trkpt>
      <trkpt lat="44.48303" lon="1.6487">
        <ele>205.4</ele>
        <time>2022-05-07T13:00:54Z</time>
      </trkpt>
      <trkpt lat="44.48307" lon="1.64868">
        <ele>205.7</ele>
        <time>2022-05-07T13:00:55Z</time>
      </trkpt>
      <trkpt lat="44.48308" lon="1.64867">
        <ele>205.8</ele>
        <time>2022-05-07T13:00:56Z</time>
      </trkpt>
      <trkpt lat="44.48312" lon="1.64865">
        <ele>206.3</ele>
        <time>2022-05-07T13:00:58Z</time>
      </trkpt>
      <trkpt lat="44.48313" lon="1.64864">
        <ele>206.5</ele>
        <time>2022-05-07T13:00:59Z</time>
      </trkpt>
      <trkpt lat="44.48314" lon="1.64862">
        <ele>206.7</ele>
        <time>2022-05-07T13:01:00Z</time>
      </trkpt>
      <trkpt lat="44.48318" lon="1.64862">
        <ele>207</ele>
        <time>2022-05-07T13:01:02Z</time>
      </trkpt>
      <trkpt lat="44.48319" lon="1.64861">
        <ele>207.1</ele>
        <time>2022-05-07T13:01:03Z</time>
      </trkpt>
      <trkpt lat="44.48321" lon="1.6486">
        <ele>207.4</ele>
        <time>2022-05-07T13:01:04Z</time>
      </trkpt>
      <trkpt lat="44.48322" lon="1.6486">
        <ele>207.5</ele>
        <time>2022-05-07T13:01:05Z</time>
      </trkpt>
      <trkpt lat="44.48325" lon="1.64858">
        <ele>207.9</ele>
        <time>2022-05-07T13:01:06Z</time>
      </trkpt>
      <trkpt lat="44.48326" lon="1.64857">
        <ele>208</ele>
        <time>2022-05-07T13:01:07Z</time>
      </trkpt>
      <trkpt lat="44.4833" lon="1.64853">
        <ele>208.5</ele>
        <time>2022-05-07T13:01:09Z</time>
      </trkpt>
      <trkpt lat="44.4833" lon="1.64852">
        <ele>208.6</ele>
        <time>2022-05-07T13:01:10Z</time>
      </trkpt>
      <trkpt lat="44.48331" lon="1.6485">
        <ele>208.7</ele>
        <time>2022-05-07T13:01:11Z</time>
      </trkpt>
      <trkpt lat="44.48333" lon="1.64849">
        <ele>209</ele>
        <time>2022-05-07T13:01:12Z</time>
      </trkpt>
      <trkpt lat="44.48335" lon="1.64847">
        <ele>209.2</ele>
        <time>2022-05-07T13:01:14Z</time>
      </trkpt>
      <trkpt lat="44.48338" lon="1.64844">
        <ele>209.6</ele>
        <time>2022-05-07T13:01:15Z</time>
      </trkpt>
      <trkpt lat="44.4834" lon="1.64841">
        <ele>210</ele>
        <time>2022-05-07T13:01:16Z</time>
      </trkpt>
      <trkpt lat="44.48341" lon="1.6484">
        <ele>210.1</ele>
        <time>2022-05-07T13:01:17Z</time>
      </trkpt>
      <trkpt lat="44.48344" lon="1.64837">
        <ele>210.4</ele>
        <time>2022-05-07T13:01:18Z</time>
      </trkpt>
      <trkpt lat="44.48345" lon="1.64837">
        <ele>210.5</ele>
        <time>2022-05-07T13:01:19Z</time>
      </trkpt>
      <trkpt lat="44.48348" lon="1.64832">
        <ele>211</ele>
        <time>2022-05-07T13:01:21Z</time>
      </trkpt>
      <trkpt lat="44.48349" lon="1.6483">
        <ele>211.2</ele>
        <time>2022-05-07T13:01:22Z</time>
      </trkpt>
      <trkpt lat="44.4835" lon="1.64829">
        <ele>211.4</ele>
        <time>2022-05-07T13:01:23Z</time>
      </trkpt>
      <trkpt lat="44.48352" lon="1.64825">
        <ele>211.7</ele>
        <time>2022-05-07T13:01:24Z</time>
      </trkpt>
      <trkpt lat="44.48354" lon="1.64823">
        <ele>212</ele>
        <time>2022-05-07T13:01:25Z</time>
      </trkpt>
      <trkpt lat="44.48355" lon="1.64823">
        <ele>212</ele>
        <time>2022-05-07T13:01:26Z</time>
      </trkpt>
      <trkpt lat="44.48355" lon="1.64822">
        <ele>212.1</ele>
        <time>2022-05-07T13:01:27Z</time>
      </trkpt>
      <trkpt lat="44.48356" lon="1.6482">
        <ele>212.3</ele>
        <time>2022-05-07T13:01:28Z</time>
      </trkpt>
      <trkpt lat="44.48358" lon="1.64818">
        <ele>212.6</ele>
        <time>2022-05-07T13:01:30Z</time>
      </trkpt>
      <trkpt lat="44.48361" lon="1.64815">
        <ele>213</ele>
        <time>2022-05-07T13:01:31Z</time>
      </trkpt>
      <trkpt lat="44.48362" lon="1.64815">
        <ele>213.1</ele>
        <time>2022-05-07T13:01:32Z</time>
      </trkpt>
      <trkpt lat="44.48365" lon="1.64811">
        <ele>213.5</ele>
        <time>2022-05-07T13:01:34Z</time>
      </trkpt>
      <trkpt lat="44.48366" lon="1.6481">
        <ele>213.6</ele>
        <time>2022-05-07T13:01:35Z</time>
      </trkpt>
      <trkpt lat="44.48369" lon="1.64809">
        <ele>214</ele>
        <time>2022-05-07T13:01:36Z</time>
      </trkpt>
      <trkpt lat="44.48369" lon="1.64809">
        <ele>214</ele>
        <time>2022-05-07T13:01:37Z</time>
      </trkpt>
      <trkpt lat="44.48372" lon="1.64806">
        <ele>214.3</ele>
        <time>2022-05-07T13:01:38Z</time>
      </trkpt>
      <trkpt lat="44.48373" lon="1.64805">
        <ele>214.5</ele>
        <time>2022-05-07T13:01:40Z</time>
      </trkpt>
      <trkpt lat="44.48374" lon="1.64804">
        <ele>214.6</ele>
        <time>2022-05-07T13:01:41Z</time>
      </trkpt>
      <trkpt lat="44.48375" lon="1.64803">
        <ele>214.8</ele>
        <time>2022-05-07T13:01:42Z</time>
      </trkpt>
      <trkpt lat="44.48377" lon="1.648">
        <ele>215.1</ele>
        <time>2022-05-07T13:01:43Z</time>
      </trkpt>
      <trkpt lat="44.4838" lon="1.64798">
        <ele>215.4</ele>
        <time>2022-05-07T13:01:44Z</time>
      </trkpt>
      <trkpt lat="44.48381" lon="1.64798">
        <ele>215.5</ele>
        <time>2022-05-07T13:01:45Z</time>
      </trkpt>
      <trkpt lat="44.48382" lon="1.64797">
        <ele>215.7</ele>
        <time>2022-05-07T13:01:46Z</time>
      </trkpt>
      <trkpt lat="44.48385" lon="1.64793">
        <ele>216</ele>
        <time>2022-05-07T13:01:48Z</time>
      </trkpt>
      <trkpt lat="44.48387" lon="1.6479">
        <ele>216.3</ele>
        <time>2022-05-07T13:01:49Z</time>
      </trkpt>
      <trkpt lat="44.48388" lon="1.64788">
        <ele>216.6</ele>
        <time>2022-05-07T13:01:50Z</time>
      </trkpt>
      <trkpt lat="44.4839" lon="1.64784">
        <ele>217</ele>
        <time>2022-05-07T13:01:52Z</time>
      </trkpt>
      <trkpt lat="44.48392" lon="1.6478">
        <ele>217.4</ele>
        <time>2022-05-07T13:01:53Z</time>
      </trkpt>
      <trkpt lat="44.48393" lon="1.64779">
        <ele>217.5</ele>
        <time>2022-05-07T13:01:54Z</time>
      </trkpt>
      <trkpt lat="44.48395" lon="1.64778">
        <ele>217.6</ele>
        <time>2022-05-07T13:01:55Z</time>
      </trkpt>
      <trkpt lat="44.48396" lon="1.64778">
        <ele>217.8</ele>
        <time>2022-05-07T13:01:56Z</time>
      </trkpt>
      <trkpt lat="44.48398" lon="1.64779">
        <ele>218</ele>
        <time>2022-05-07T13:01:57Z</time>
      </trkpt>
      <trkpt lat="44.48399" lon="1.64781">
        <ele>218.3</ele>
        <time>2022-05-07T13:01:59Z</time>
      </trkpt>
      <trkpt lat="44.48401" lon="1.64783">
        <ele>218.5</ele>
        <time>2022-05-07T13:02:00Z</time>
      </trkpt>
      <trkpt lat="44.484" lon="1.64785">
        <ele>218.6</ele>
        <time>2022-05-07T13:02:01Z</time>
      </trkpt>
      <trkpt lat="44.48399" lon="1.64787">
        <ele>218.8</ele>
        <time>2022-05-07T13:02:02Z</time>
      </trkpt>
      <trkpt lat="44.48399" lon="1.64789">
        <ele>219</ele>
        <time>2022-05-07T13:02:03Z</time>
      </trkpt>
      <trkpt lat="44.48399" lon="1.64793">
        <ele>219.3</ele>
        <time>2022-05-07T13:02:05Z</time>
      </trkpt>
      <trkpt lat="44.48398" lon="1.64794">
        <ele>219.4</ele>
        <time>2022-05-07T13:02:06Z</time>
      </trkpt>
      <trkpt lat="44.48398" lon="1.64797">
        <ele>219.6</ele>
        <time>2022-05-07T13:02:07Z</time>
      </trkpt>
      <trkpt lat="44.48398" lon="1.64799">
        <ele>219.7</ele>
        <time>2022-05-07T13:02:09Z</time>
      </trkpt>
      <trkpt lat="44.48399" lon="1.64798">
        <ele>219.9</ele>
        <time>2022-05-07T13:02:10Z</time>
      </trkpt>
      <trkpt lat="44.484" lon="1.64798">
        <ele>220</ele>
        <time>2022-05-07T13:02:11Z</time>
      </trkpt>
      <trkpt lat="44.484" lon="1.64798">
        <ele>220</ele>
        <time>2022-05-07T13:02:12Z</time>
      </trkpt>
      <trkpt lat="44.484" lon="1.64798">
        <ele>220</ele>
        <time>2022-05-07T13:02:13Z</time>
      </trkpt>
      <trkpt lat="44.484" lon="1.64798">
        <ele>220</ele>
        <time>2022-05-07T13:02:14Z</time>
      </trkpt>
      <trkpt lat="44.484" lon="1.64797">
        <ele>220.1</ele>
        <time>2022-05-07T13:02:15Z</time>
      </trkpt>
      <trkpt lat="44.48399" lon="1.64796">
        <ele>220.2</ele>
        <time>2022-05-07T13:02:16Z</time>
      </trkpt>
      <trkpt lat="44.48399" lon="1.64796">
        <ele>220.3</ele>
        <time>2022-05-07T13:02:18Z</time>
      </trkpt>
      <trkpt lat="44.48399" lon="1.64795">
        <ele>220.3</ele>
        <time>2022-05-07T13:02:19Z</time>
      </trkpt>
      <trkpt lat="44.48399" lon="1.64795">
        <ele>220.3</ele>
        <time>2022-05-07T13:02:20Z</time>
      </trkpt>
      <trkpt lat="44.48399" lon="1.64795">
        <ele>220.3</ele>
        <time>2022-05-07T13:02:21Z</time>
      </trkpt>
      <trkpt lat="44.48399" lon="1.64795">
        <ele>220.3</ele>
        <time>2022-05-07T13:02:22Z</time>
      </trkpt>
      <trkpt lat="44.48399" lon="1.64795">
        <ele>220.3</ele>
        <time>2022-05-07T13:02:23Z</time>
      </trkpt>
      <trkpt lat="44.48399" lon="1.64795">
        <ele>220.3</ele>
        <time>2022-05-07T13:02:24Z</time>
      </trkpt>
      <trkpt lat="44.48398" lon="1.648">
        <ele>220.7</ele>
        <time>2022-05-07T13:02:34Z</time>
      </trkpt>
      <trkpt lat="44.48398" lon="1.64803">
        <ele>221</ele>
        <time>2022-05-07T13:02:35Z</time>
      </trkpt>
      <trkpt lat="44.48399" lon="1.64807">
        <ele>221.3</ele>
        <time>2022-05-07T13:02:37Z</time>
      </trkpt>
      <trkpt lat="44.48398" lon="1.64812">
        <ele>221.7</ele>
        <time>2022-05-07T13:02:38Z</time>
      </trkpt>
      <trkpt lat="44.48398" lon="1.64814">
        <ele>221.8</ele>
        <time>2022-05-07T13:02:39Z</time>
      </trkpt>
      <trkpt lat="44.48398" lon="1.64818">
        <ele>222.1</ele>
        <time>2022-05-07T13:02:40Z</time>
      </trkpt>
      <trkpt lat="44.48397" lon="1.6482">
        <ele>222.3</ele>
        <time>2022-05-07T13:02:41Z</time>
      </trkpt>
      <trkpt lat="44.48397" lon="1.64821">
        <ele>222.4</ele>
        <time>2022-05-07T13:02:43Z</time>
      </trkpt>
      <trkpt lat="44.48397" lon="1.64822">
        <ele>222.4</ele>
        <time>2022-05-07T13:02:44Z</time>
      </trkpt>
      <trkpt lat="44.48397" lon="1.64822">
        <ele>222.5</ele>
        <time>2022-05-07T13:02:45Z</time>
      </trkpt>
      <trkpt lat="44.48397" lon="1.64823">
        <ele>222.5</ele>
        <time>2022-05-07T13:02:46Z</time>
      </trkpt>
      <trkpt lat="44.48397" lon="1.64823">
        <ele>222.6</ele>
        <time>2022-05-07T13:02:48Z</time>
      </trkpt>
      <trkpt lat="44.48397" lon="1.64824">
        <ele>222.6</ele>
        <time>2022-05-07T13:02:49Z</time>
      </trkpt>
      <trkpt lat="44.48397" lon="1.64825">
        <ele>222.7</ele>
        <time>2022-05-07T13:02:50Z</time>
      </trkpt>
      <trkpt lat="44.48396" lon="1.64825">
        <ele>222.7</ele>
        <time>2022-05-07T13:02:51Z</time>
      </trkpt>
      <trkpt lat="44.48396" lon="1.64826">
        <ele>222.8</ele>
        <time>2022-05-07T13:02:53Z</time>
      </trkpt>
      <trkpt lat="44.48396" lon="1.64827">
        <ele>222.8</ele>
        <time>2022-05-07T13:02:54Z</time>
      </trkpt>
      <trkpt lat="44.48396" lon="1.64827">
        <ele>222.9</ele>
        <time>2022-05-07T13:02:56Z</time>
      </trkpt>
      <trkpt lat="44.48396" lon="1.64828">
        <ele>222.9</ele>
        <time>2022-05-07T13:02:59Z</time>
      </trkpt>
      <trkpt lat="44.48396" lon="1.64828">
        <ele>223</ele>
        <time>2022-05-07T13:03:00Z</time>
      </trkpt>
      <trkpt lat="44.48396" lon="1.64829">
        <ele>223</ele>
        <time>2022-05-07T13:03:01Z</time>
      </trkpt>
      <trkpt lat="44.48395" lon="1.64832">
        <ele>223.2</ele>
        <time>2022-05-07T13:03:02Z</time>
      </trkpt>
      <trkpt lat="44.48395" lon="1.64834">
        <ele>223.4</ele>
        <time>2022-05-07T13:03:04Z</time>
      </trkpt>
      <trkpt lat="44.48394" lon="1.64839">
        <ele>223.8</ele>
        <time>2022-05-07T13:03:05Z</time>
      </trkpt>
      <trkpt lat="44.48394" lon="1.64841">
        <ele>223.9</ele>
        <time>2022-05-07T13:03:06Z</time>
      </trkpt>
      <trkpt lat="44.48394" lon="1.64843">
        <ele>224.1</ele>
        <time>2022-05-07T13:03:07Z</time>
      </trkpt>
      <trkpt lat="44.48394" lon="1.64846">
        <ele>224.3</ele>
        <time>2022-05-07T13:03:08Z</time>
      </trkpt>
      <trkpt lat="44.48393" lon="1.6485">
        <ele>224.7</ele>
        <time>2022-05-07T13:03:10Z</time>
      </trkpt>
      <trkpt lat="44.48393" lon="1.64852">
        <ele>224.8</ele>
        <time>2022-05-07T13:03:11Z</time>
      </trkpt>
      <trkpt lat="44.48391" lon="1.64856">
        <ele>225.2</ele>
        <time>2022-05-07T13:03:13Z</time>
      </trkpt>
      <trkpt lat="44.48391" lon="1.64857">
        <ele>225.2</ele>
        <time>2022-05-07T13:03:14Z</time>
      </trkpt>
      <trkpt lat="44.48391" lon="1.64858">
        <ele>225.3</ele>
        <time>2022-05-07T13:03:15Z</time>
      </trkpt>
      <trkpt lat="44.4839" lon="1.64859">
        <ele>225.4</ele>
        <time>2022-05-07T13:03:16Z</time>
      </trkpt>
      <trkpt lat="44.4839" lon="1.64859">
        <ele>225.4</ele>
        <time>2022-05-07T13:03:18Z</time>
      </trkpt>
      <trkpt lat="44.4839" lon="1.6486">
        <ele>225.5</ele>
        <time>2022-05-07T13:03:19Z</time>
      </trkpt>
      <trkpt lat="44.4839" lon="1.64861">
        <ele>225.6</ele>
        <time>2022-05-07T13:03:20Z</time>
      </trkpt>
      <trkpt lat="44.48389" lon="1.64862">
        <ele>225.6</ele>
        <time>2022-05-07T13:03:21Z</time>
      </trkpt>
      <trkpt lat="44.48389" lon="1.64863">
        <ele>225.7</ele>
        <time>2022-05-07T13:03:23Z</time>
      </trkpt>
      <trkpt lat="44.48389" lon="1.64863">
        <ele>225.8</ele>
        <time>2022-05-07T13:03:24Z</time>
      </trkpt>
      <trkpt lat="44.48389" lon="1.64866">
        <ele>225.9</ele>
        <time>2022-05-07T13:03:25Z</time>
      </trkpt>
      <trkpt lat="44.48389" lon="1.64868">
        <ele>226.1</ele>
        <time>2022-05-07T13:03:26Z</time>
      </trkpt>
      <trkpt lat="44.48388" lon="1.64871">
        <ele>226.3</ele>
        <time>2022-05-07T13:03:27Z</time>
      </trkpt>
      <trkpt lat="44.48388" lon="1.64872">
        <ele>226.5</ele>
        <time>2022-05-07T13:03:28Z</time>
      </trkpt>
      <trkpt lat="44.48387" lon="1.64878">
        <ele>226.9</ele>
        <time>2022-05-07T13:03:30Z</time>
      </trkpt>
      <trkpt lat="44.48387" lon="1.64879">
        <ele>227</ele>
        <time>2022-05-07T13:03:31Z</time>
      </trkpt>
      <trkpt lat="44.48387" lon="1.64884">
        <ele>227.3</ele>
        <time>2022-05-07T13:03:32Z</time>
      </trkpt>
      <trkpt lat="44.48387" lon="1.64885">
        <ele>227.4</ele>
        <time>2022-05-07T13:03:33Z</time>
      </trkpt>
      <trkpt lat="44.48388" lon="1.64889">
        <ele>227.7</ele>
        <time>2022-05-07T13:03:34Z</time>
      </trkpt>
      <trkpt lat="44.48389" lon="1.64891">
        <ele>227.9</ele>
        <time>2022-05-07T13:03:36Z</time>
      </trkpt>
      <trkpt lat="44.4839" lon="1.64892">
        <ele>228.1</ele>
        <time>2022-05-07T13:03:37Z</time>
      </trkpt>
      <trkpt lat="44.4839" lon="1.64894">
        <ele>228.2</ele>
        <time>2022-05-07T13:03:38Z</time>
      </trkpt>
      <trkpt lat="44.48393" lon="1.64896">
        <ele>228.6</ele>
        <time>2022-05-07T13:03:39Z</time>
      </trkpt>
      <trkpt lat="44.48394" lon="1.64896">
        <ele>228.7</ele>
        <time>2022-05-07T13:03:40Z</time>
      </trkpt>
      <trkpt lat="44.48399" lon="1.64895">
        <ele>229.1</ele>
        <time>2022-05-07T13:03:42Z</time>
      </trkpt>
      <trkpt lat="44.484" lon="1.64894">
        <ele>229.3</ele>
        <time>2022-05-07T13:03:43Z</time>
      </trkpt>
      <trkpt lat="44.48401" lon="1.64893">
        <ele>229.5</ele>
        <time>2022-05-07T13:03:44Z</time>
      </trkpt>
      <trkpt lat="44.48403" lon="1.64891">
        <ele>229.6</ele>
        <time>2022-05-07T13:03:45Z</time>
      </trkpt>
      <trkpt lat="44.48404" lon="1.6489">
        <ele>229.8</ele>
        <time>2022-05-07T13:03:46Z</time>
      </trkpt>
      <trkpt lat="44.48405" lon="1.64889">
        <ele>229.9</ele>
        <time>2022-05-07T13:03:47Z</time>
      </trkpt>
      <trkpt lat="44.48406" lon="1.64888">
        <ele>230.1</ele>
        <time>2022-05-07T13:03:48Z</time>
      </trkpt>
      <trkpt lat="44.48409" lon="1.64886">
        <ele>230.4</ele>
        <time>2022-05-07T13:03:50Z</time>
      </trkpt>
      <trkpt lat="44.48409" lon="1.64886">
        <ele>230.5</ele>
        <time>2022-05-07T13:03:51Z</time>
      </trkpt>
      <trkpt lat="44.48411" lon="1.64885">
        <ele>230.7</ele>
        <time>2022-05-07T13:03:52Z</time>
      </trkpt>
      <trkpt lat="44.48413" lon="1.64884">
        <ele>230.9</ele>
        <time>2022-05-07T13:03:53Z</time>
      </trkpt>
      <trkpt lat="44.48414" lon="1.64883">
        <ele>231</ele>
        <time>2022-05-07T13:03:54Z</time>
      </trkpt>
      <trkpt lat="44.48416" lon="1.64881">
        <ele>231.3</ele>
        <time>2022-05-07T13:03:56Z</time>
      </trkpt>
      <trkpt lat="44.48417" lon="1.6488">
        <ele>231.4</ele>
        <time>2022-05-07T13:03:57Z</time>
      </trkpt>
      <trkpt lat="44.48419" lon="1.6488">
        <ele>231.6</ele>
        <time>2022-05-07T13:03:58Z</time>
      </trkpt>
      <trkpt lat="44.4842" lon="1.64879">
        <ele>231.8</ele>
        <time>2022-05-07T13:03:59Z</time>
      </trkpt>
      <trkpt lat="44.48422" lon="1.64878">
        <ele>232</ele>
        <time>2022-05-07T13:04:01Z</time>
      </trkpt>
      <trkpt lat="44.48423" lon="1.64877">
        <ele>232.1</ele>
        <time>2022-05-07T13:04:02Z</time>
      </trkpt>
      <trkpt lat="44.48424" lon="1.64876">
        <ele>232.3</ele>
        <time>2022-05-07T13:04:03Z</time>
      </trkpt>
      <trkpt lat="44.48426" lon="1.64873">
        <ele>232.6</ele>
        <time>2022-05-07T13:04:04Z</time>
      </trkpt>
      <trkpt lat="44.48427" lon="1.64872">
        <ele>232.7</ele>
        <time>2022-05-07T13:04:05Z</time>
      </trkpt>
      <trkpt lat="44.48428" lon="1.64871">
        <ele>232.9</ele>
        <time>2022-05-07T13:04:06Z</time>
      </trkpt>
      <trkpt lat="44.48429" lon="1.64869">
        <ele>233.1</ele>
        <time>2022-05-07T13:04:08Z</time>
      </trkpt>
      <trkpt lat="44.48432" lon="1.64866">
        <ele>233.4</ele>
        <time>2022-05-07T13:04:09Z</time>
      </trkpt>
      <trkpt lat="44.48432" lon="1.64865">
        <ele>233.5</ele>
        <time>2022-05-07T13:04:10Z</time>
      </trkpt>
      <trkpt lat="44.48434" lon="1.64864">
        <ele>233.7</ele>
        <time>2022-05-07T13:04:11Z</time>
      </trkpt>
      <trkpt lat="44.48435" lon="1.64863">
        <ele>233.8</ele>
        <time>2022-05-07T13:04:12Z</time>
      </trkpt>
      <trkpt lat="44.48438" lon="1.64863">
        <ele>234.1</ele>
        <time>2022-05-07T13:04:13Z</time>
      </trkpt>
      <trkpt lat="44.48439" lon="1.64863">
        <ele>234.2</ele>
        <time>2022-05-07T13:04:14Z</time>
      </trkpt>
      <trkpt lat="44.48444" lon="1.64864">
        <ele>234.7</ele>
        <time>2022-05-07T13:04:16Z</time>
      </trkpt>
      <trkpt lat="44.48445" lon="1.64865">
        <ele>234.9</ele>
        <time>2022-05-07T13:04:17Z</time>
      </trkpt>
      <trkpt lat="44.48446" lon="1.64865">
        <ele>235</ele>
        <time>2022-05-07T13:04:18Z</time>
      </trkpt>
      <trkpt lat="44.48448" lon="1.64865">
        <ele>235.2</ele>
        <time>2022-05-07T13:04:19Z</time>
      </trkpt>
      <trkpt lat="44.48449" lon="1.64865">
        <ele>235.3</ele>
        <time>2022-05-07T13:04:20Z</time>
      </trkpt>
      <trkpt lat="44.48451" lon="1.64865">
        <ele>235.6</ele>
        <time>2022-05-07T13:04:21Z</time>
      </trkpt>
      <trkpt lat="44.48452" lon="1.64866">
        <ele>235.7</ele>
        <time>2022-05-07T13:04:22Z</time>
      </trkpt>
      <trkpt lat="44.48453" lon="1.64866">
        <ele>235.7</ele>
        <time>2022-05-07T13:04:23Z</time>
      </trkpt>
      <trkpt lat="44.48454" lon="1.64865">
        <ele>235.9</ele>
        <time>2022-05-07T13:04:24Z</time>
      </trkpt>
      <trkpt lat="44.48456" lon="1.64865">
        <ele>236.1</ele>
        <time>2022-05-07T13:04:25Z</time>
      </trkpt>
      <trkpt lat="44.48458" lon="1.64865">
        <ele>236.3</ele>
        <time>2022-05-07T13:04:26Z</time>
      </trkpt>
      <trkpt lat="44.48459" lon="1.64864">
        <ele>236.4</ele>
        <time>2022-05-07T13:04:28Z</time>
      </trkpt>
      <trkpt lat="44.4846" lon="1.64863">
        <ele>236.5</ele>
        <time>2022-05-07T13:04:29Z</time>
      </trkpt>
      <trkpt lat="44.48462" lon="1.64863">
        <ele>236.7</ele>
        <time>2022-05-07T13:04:30Z</time>
      </trkpt>
      <trkpt lat="44.48463" lon="1.64863">
        <ele>236.9</ele>
        <time>2022-05-07T13:04:31Z</time>
      </trkpt>
      <trkpt lat="44.48465" lon="1.64863">
        <ele>237.1</ele>
        <time>2022-05-07T13:04:33Z</time>
      </trkpt>
      <trkpt lat="44.48466" lon="1.64862">
        <ele>237.2</ele>
        <time>2022-05-07T13:04:34Z</time>
      </trkpt>
      <trkpt lat="44.48466" lon="1.64861">
        <ele>237.3</ele>
        <time>2022-05-07T13:04:35Z</time>
      </trkpt>
      <trkpt lat="44.48467" lon="1.6486">
        <ele>237.4</ele>
        <time>2022-05-07T13:04:36Z</time>
      </trkpt>
      <trkpt lat="44.48468" lon="1.6486">
        <ele>237.5</ele>
        <time>2022-05-07T13:04:37Z</time>
      </trkpt>
      <trkpt lat="44.48469" lon="1.64859">
        <ele>237.6</ele>
        <time>2022-05-07T13:04:38Z</time>
      </trkpt>
      <trkpt lat="44.4847" lon="1.64858">
        <ele>237.7</ele>
        <time>2022-05-07T13:04:39Z</time>
      </trkpt>
      <trkpt lat="44.48471" lon="1.64858">
        <ele>237.9</ele>
        <time>2022-05-07T13:04:40Z</time>
      </trkpt>
      <trkpt lat="44.48473" lon="1.64859">
        <ele>238.1</ele>
        <time>2022-05-07T13:04:42Z</time>
      </trkpt>
      <trkpt lat="44.48475" lon="1.64859">
        <ele>238.2</ele>
        <time>2022-05-07T13:04:43Z</time>
      </trkpt>
      <trkpt lat="44.48476" lon="1.64859">
        <ele>238.4</ele>
        <time>2022-05-07T13:04:44Z</time>
      </trkpt>
      <trkpt lat="44.48477" lon="1.64859">
        <ele>238.5</ele>
        <time>2022-05-07T13:04:45Z</time>
      </trkpt>
      <trkpt lat="44.48478" lon="1.64859">
        <ele>238.6</ele>
        <time>2022-05-07T13:04:46Z</time>
      </trkpt>
      <trkpt lat="44.4848" lon="1.64859">
        <ele>238.8</ele>
        <time>2022-05-07T13:04:47Z</time>
      </trkpt>
      <trkpt lat="44.48482" lon="1.64858">
        <ele>239</ele>
        <time>2022-05-07T13:04:48Z</time>
      </trkpt>
      <trkpt lat="44.48483" lon="1.64858">
        <ele>239.1</ele>
        <time>2022-05-07T13:04:49Z</time>
      </trkpt>
      <trkpt lat="44.48483" lon="1.64857">
        <ele>239.2</ele>
        <time>2022-05-07T13:04:50Z</time>
      </trkpt>
      <trkpt lat="44.48485" lon="1.64855">
        <ele>239.4</ele>
        <time>2022-05-07T13:04:52Z</time>
      </trkpt>
      <trkpt lat="44.48485" lon="1.64854">
        <ele>239.5</ele>
        <time>2022-05-07T13:04:53Z</time>
      </trkpt>
      <trkpt lat="44.48486" lon="1.64853">
        <ele>239.6</ele>
        <time>2022-05-07T13:04:54Z</time>
      </trkpt>
      <trkpt lat="44.48486" lon="1.64852">
        <ele>239.7</ele>
        <time>2022-05-07T13:04:55Z</time>
      </trkpt>
      <trkpt lat="44.48485" lon="1.64851">
        <ele>239.8</ele>
        <time>2022-05-07T13:04:56Z</time>
      </trkpt>
      <trkpt lat="44.48485" lon="1.64851">
        <ele>239.9</ele>
        <time>2022-05-07T13:04:57Z</time>
      </trkpt>
      <trkpt lat="44.48486" lon="1.6485">
        <ele>239.9</ele>
        <time>2022-05-07T13:04:58Z</time>
      </trkpt>
      <trkpt lat="44.48487" lon="1.6485">
        <ele>240</ele>
        <time>2022-05-07T13:05:00Z</time>
      </trkpt>
      <trkpt lat="44.48487" lon="1.6485">
        <ele>240</ele>
        <time>2022-05-07T13:05:01Z</time>
      </trkpt>
      <trkpt lat="44.48487" lon="1.6485">
        <ele>240.1</ele>
        <time>2022-05-07T13:05:02Z</time>
      </trkpt>
      <trkpt lat="44.48487" lon="1.6485">
        <ele>240.1</ele>
        <time>2022-05-07T13:05:03Z</time>
      </trkpt>
      <trkpt lat="44.48487" lon="1.64851">
        <ele>240.2</ele>
        <time>2022-05-07T13:05:05Z</time>
      </trkpt>
      <trkpt lat="44.48487" lon="1.64851">
        <ele>240.2</ele>
        <time>2022-05-07T13:05:06Z</time>
      </trkpt>
      <trkpt lat="44.48487" lon="1.64852">
        <ele>240.3</ele>
        <time>2022-05-07T13:05:07Z</time>
      </trkpt>
      <trkpt lat="44.48486" lon="1.64852">
        <ele>240.3</ele>
        <time>2022-05-07T13:05:08Z</time>
      </trkpt>
      <trkpt lat="44.48486" lon="1.64852">
        <ele>240.3</ele>
        <time>2022-05-07T13:05:09Z</time>
      </trkpt>
      <trkpt lat="44.48486" lon="1.64852">
        <ele>240.3</ele>
        <time>2022-05-07T13:05:10Z</time>
      </trkpt>
      <trkpt lat="44.48486" lon="1.64852">
        <ele>240.3</ele>
        <time>2022-05-07T13:05:11Z</time>
      </trkpt>
      <trkpt lat="44.48486" lon="1.64852">
        <ele>240.4</ele>
        <time>2022-05-07T13:05:12Z</time>
      </trkpt>
      <trkpt lat="44.48486" lon="1.64852">
        <ele>240.4</ele>
        <time>2022-05-07T13:05:13Z</time>
      </trkpt>
      <trkpt lat="44.48486" lon="1.64852">
        <ele>240.4</ele>
        <time>2022-05-07T13:05:14Z</time>
      </trkpt>
      <trkpt lat="44.48485" lon="1.64852">
        <ele>240.4</ele>
        <time>2022-05-07T13:05:15Z</time>
      </trkpt>
      <trkpt lat="44.48489" lon="1.64846">
        <ele>241</ele>
        <time>2022-05-07T13:05:35Z</time>
      </trkpt>
      <trkpt lat="44.48491" lon="1.64844">
        <ele>241.2</ele>
        <time>2022-05-07T13:05:36Z</time>
      </trkpt>
      <trkpt lat="44.48492" lon="1.64843">
        <ele>241.4</ele>
        <time>2022-05-07T13:05:38Z</time>
      </trkpt>
      <trkpt lat="44.48495" lon="1.6484">
        <ele>241.8</ele>
        <time>2022-05-07T13:05:39Z</time>
      </trkpt>
      <trkpt lat="44.48496" lon="1.64839">
        <ele>241.9</ele>
        <time>2022-05-07T13:05:40Z</time>
      </trkpt>
      <trkpt lat="44.48498" lon="1.64836">
        <ele>242.3</ele>
        <time>2022-05-07T13:05:42Z</time>
      </trkpt>
      <trkpt lat="44.48499" lon="1.64835">
        <ele>242.4</ele>
        <time>2022-05-07T13:05:43Z</time>
      </trkpt>
      <trkpt lat="44.485" lon="1.64831">
        <ele>242.7</ele>
        <time>2022-05-07T13:05:45Z</time>
      </trkpt>
      <trkpt lat="44.48501" lon="1.64829">
        <ele>242.9</ele>
        <time>2022-05-07T13:05:47Z</time>
      </trkpt>
      <trkpt lat="44.48502" lon="1.64827">
        <ele>243.1</ele>
        <time>2022-05-07T13:05:48Z</time>
      </trkpt>
      <trkpt lat="44.48502" lon="1.64824">
        <ele>243.3</ele>
        <time>2022-05-07T13:05:49Z</time>
      </trkpt>
      <trkpt lat="44.48504" lon="1.64821">
        <ele>243.6</ele>
        <time>2022-05-07T13:05:51Z</time>
      </trkpt>
      <trkpt lat="44.48504" lon="1.6482">
        <ele>243.7</ele>
        <time>2022-05-07T13:05:52Z</time>
      </trkpt>
      <trkpt lat="44.48506" lon="1.64816">
        <ele>244</ele>
        <time>2022-05-07T13:05:53Z</time>
      </trkpt>
      <trkpt lat="44.48506" lon="1.64815">
        <ele>244.1</ele>
        <time>2022-05-07T13:05:54Z</time>
      </trkpt>
      <trkpt lat="44.48507" lon="1.64813">
        <ele>244.3</ele>
        <time>2022-05-07T13:05:55Z</time>
      </trkpt>
      <trkpt lat="44.48508" lon="1.64812">
        <ele>244.4</ele>
        <time>2022-05-07T13:05:56Z</time>
      </trkpt>
      <trkpt lat="44.48509" lon="1.6481">
        <ele>244.6</ele>
        <time>2022-05-07T13:05:57Z</time>
      </trkpt>
      <trkpt lat="44.48511" lon="1.64808">
        <ele>244.9</ele>
        <time>2022-05-07T13:05:59Z</time>
      </trkpt>
      <trkpt lat="44.48512" lon="1.64807">
        <ele>245</ele>
        <time>2022-05-07T13:06:00Z</time>
      </trkpt>
      <trkpt lat="44.48514" lon="1.64806">
        <ele>245.2</ele>
        <time>2022-05-07T13:06:02Z</time>
      </trkpt>
      <trkpt lat="44.48515" lon="1.64806">
        <ele>245.3</ele>
        <time>2022-05-07T13:06:03Z</time>
      </trkpt>
      <trkpt lat="44.48517" lon="1.64805">
        <ele>245.5</ele>
        <time>2022-05-07T13:06:05Z</time>
      </trkpt>
      <trkpt lat="44.48518" lon="1.64807">
        <ele>245.7</ele>
        <time>2022-05-07T13:06:06Z</time>
      </trkpt>
      <trkpt lat="44.48519" lon="1.64809">
        <ele>245.9</ele>
        <time>2022-05-07T13:06:08Z</time>
      </trkpt>
      <trkpt lat="44.4852" lon="1.6481">
        <ele>246</ele>
        <time>2022-05-07T13:06:09Z</time>
      </trkpt>
      <trkpt lat="44.48519" lon="1.64812">
        <ele>246.1</ele>
        <time>2022-05-07T13:06:11Z</time>
      </trkpt>
      <trkpt lat="44.48519" lon="1.64814">
        <ele>246.3</ele>
        <time>2022-05-07T13:06:13Z</time>
      </trkpt>
      <trkpt lat="44.48519" lon="1.64816">
        <ele>246.4</ele>
        <time>2022-05-07T13:06:14Z</time>
      </trkpt>
      <trkpt lat="44.48519" lon="1.64817">
        <ele>246.5</ele>
        <time>2022-05-07T13:06:15Z</time>
      </trkpt>
      <trkpt lat="44.4852" lon="1.64818">
        <ele>246.7</ele>
        <time>2022-05-07T13:06:16Z</time>
      </trkpt>
      <trkpt lat="44.48521" lon="1.64821">
        <ele>246.9</ele>
        <time>2022-05-07T13:06:18Z</time>
      </trkpt>
      <trkpt lat="44.48521" lon="1.64822">
        <ele>247</ele>
        <time>2022-05-07T13:06:19Z</time>
      </trkpt>
      <trkpt lat="44.48522" lon="1.64824">
        <ele>247.2</ele>
        <time>2022-05-07T13:06:20Z</time>
      </trkpt>
      <trkpt lat="44.48523" lon="1.64827">
        <ele>247.4</ele>
        <time>2022-05-07T13:06:22Z</time>
      </trkpt>
      <trkpt lat="44.48524" lon="1.64829">
        <ele>247.6</ele>
        <time>2022-05-07T13:06:23Z</time>
      </trkpt>
      <trkpt lat="44.48525" lon="1.6483">
        <ele>247.7</ele>
        <time>2022-05-07T13:06:24Z</time>
      </trkpt>
      <trkpt lat="44.48525" lon="1.64833">
        <ele>247.9</ele>
        <time>2022-05-07T13:06:26Z</time>
      </trkpt>
      <trkpt lat="44.48526" lon="1.64835">
        <ele>248.1</ele>
        <time>2022-05-07T13:06:27Z</time>
      </trkpt>
      <trkpt lat="44.48527" lon="1.64836">
        <ele>248.2</ele>
        <time>2022-05-07T13:06:28Z</time>
      </trkpt>
      <trkpt lat="44.48528" lon="1.64836">
        <ele>248.3</ele>
        <time>2022-05-07T13:06:29Z</time>
      </trkpt>
      <trkpt lat="44.48529" lon="1.64837">
        <ele>248.4</ele>
        <time>2022-05-07T13:06:31Z</time>
      </trkpt>
      <trkpt lat="44.4853" lon="1.64838">
        <ele>248.6</ele>
        <time>2022-05-07T13:06:32Z</time>
      </trkpt>
      <trkpt lat="44.48532" lon="1.64839">
        <ele>248.7</ele>
        <time>2022-05-07T13:06:33Z</time>
      </trkpt>
      <trkpt lat="44.48533" lon="1.6484">
        <ele>248.9</ele>
        <time>2022-05-07T13:06:34Z</time>
      </trkpt>
      <trkpt lat="44.48534" lon="1.6484">
        <ele>249.1</ele>
        <time>2022-05-07T13:06:35Z</time>
      </trkpt>
      <trkpt lat="44.48536" lon="1.6484">
        <ele>249.2</ele>
        <time>2022-05-07T13:06:37Z</time>
      </trkpt>
      <trkpt lat="44.48537" lon="1.6484">
        <ele>249.3</ele>
        <time>2022-05-07T13:06:38Z</time>
      </trkpt>
      <trkpt lat="44.48538" lon="1.64841">
        <ele>249.5</ele>
        <time>2022-05-07T13:06:39Z</time>
      </trkpt>
      <trkpt lat="44.48539" lon="1.64841">
        <ele>249.6</ele>
        <time>2022-05-07T13:06:40Z</time>
      </trkpt>
      <trkpt lat="44.48541" lon="1.64841">
        <ele>249.7</ele>
        <time>2022-05-07T13:06:41Z</time>
      </trkpt>
      <trkpt lat="44.48541" lon="1.64842">
        <ele>249.8</ele>
        <time>2022-05-07T13:06:42Z</time>
      </trkpt>
      <trkpt lat="44.48542" lon="1.64843">
        <ele>250</ele>
        <time>2022-05-07T13:06:43Z</time>
      </trkpt>
      <trkpt lat="44.48543" lon="1.64843">
        <ele>250.1</ele>
        <time>2022-05-07T13:06:44Z</time>
      </trkpt>
      <trkpt lat="44.48545" lon="1.64843">
        <ele>250.2</ele>
        <time>2022-05-07T13:06:45Z</time>
      </trkpt>
      <trkpt lat="44.48546" lon="1.64844">
        <ele>250.3</ele>
        <time>2022-05-07T13:06:46Z</time>
      </trkpt>
      <trkpt lat="44.48547" lon="1.64844">
        <ele>250.4</ele>
        <time>2022-05-07T13:06:47Z</time>
      </trkpt>
      <trkpt lat="44.48549" lon="1.64844">
        <ele>250.7</ele>
        <time>2022-05-07T13:06:48Z</time>
      </trkpt>
      <trkpt lat="44.4855" lon="1.64844">
        <ele>250.8</ele>
        <time>2022-05-07T13:06:50Z</time>
      </trkpt>
      <trkpt lat="44.48551" lon="1.64844">
        <ele>250.9</ele>
        <time>2022-05-07T13:06:51Z</time>
      </trkpt>
      <trkpt lat="44.48552" lon="1.64844">
        <ele>251</ele>
        <time>2022-05-07T13:06:52Z</time>
      </trkpt>
      <trkpt lat="44.48554" lon="1.64843">
        <ele>251.2</ele>
        <time>2022-05-07T13:06:53Z</time>
      </trkpt>
      <trkpt lat="44.48555" lon="1.64841">
        <ele>251.4</ele>
        <time>2022-05-07T13:06:54Z</time>
      </trkpt>
      <trkpt lat="44.48555" lon="1.6484">
        <ele>251.5</ele>
        <time>2022-05-07T13:06:55Z</time>
      </trkpt>
      <trkpt lat="44.48557" lon="1.64839">
        <ele>251.7</ele>
        <time>2022-05-07T13:06:57Z</time>
      </trkpt>
      <trkpt lat="44.48558" lon="1.64837">
        <ele>251.9</ele>
        <time>2022-05-07T13:06:58Z</time>
      </trkpt>
      <trkpt lat="44.48558" lon="1.64834">
        <ele>252.1</ele>
        <time>2022-05-07T13:06:59Z</time>
      </trkpt>
      <trkpt lat="44.48558" lon="1.64833">
        <ele>252.2</ele>
        <time>2022-05-07T13:07:00Z</time>
      </trkpt>
      <trkpt lat="44.48558" lon="1.64832">
        <ele>252.2</ele>
        <time>2022-05-07T13:07:01Z</time>
      </trkpt>
      <trkpt lat="44.48557" lon="1.6483">
        <ele>252.4</ele>
        <time>2022-05-07T13:07:02Z</time>
      </trkpt>
      <trkpt lat="44.48558" lon="1.64829">
        <ele>252.5</ele>
        <time>2022-05-07T13:07:03Z</time>
      </trkpt>
      <trkpt lat="44.48558" lon="1.64826">
        <ele>252.7</ele>
        <time>2022-05-07T13:07:05Z</time>
      </trkpt>
      <trkpt lat="44.48559" lon="1.64822">
        <ele>253</ele>
        <time>2022-05-07T13:07:06Z</time>
      </trkpt>
      <trkpt lat="44.4856" lon="1.64821">
        <ele>253.1</ele>
        <time>2022-05-07T13:07:07Z</time>
      </trkpt>
      <trkpt lat="44.48561" lon="1.64819">
        <ele>253.3</ele>
        <time>2022-05-07T13:07:08Z</time>
      </trkpt>
      <trkpt lat="44.48561" lon="1.64818">
        <ele>253.4</ele>
        <time>2022-05-07T13:07:09Z</time>
      </trkpt>
      <trkpt lat="44.48562" lon="1.64817">
        <ele>253.5</ele>
        <time>2022-05-07T13:07:10Z</time>
      </trkpt>
      <trkpt lat="44.48563" lon="1.64815">
        <ele>253.7</ele>
        <time>2022-05-07T13:07:11Z</time>
      </trkpt>
      <trkpt lat="44.48563" lon="1.64814">
        <ele>253.8</ele>
        <time>2022-05-07T13:07:12Z</time>
      </trkpt>
      <trkpt lat="44.48565" lon="1.64811">
        <ele>254.1</ele>
        <time>2022-05-07T13:07:13Z</time>
      </trkpt>
      <trkpt lat="44.48565" lon="1.6481">
        <ele>254.2</ele>
        <time>2022-05-07T13:07:15Z</time>
      </trkpt>
      <trkpt lat="44.48566" lon="1.64808">
        <ele>254.3</ele>
        <time>2022-05-07T13:07:16Z</time>
      </trkpt>
      <trkpt lat="44.48567" lon="1.64806">
        <ele>254.5</ele>
        <time>2022-05-07T13:07:18Z</time>
      </trkpt>
      <trkpt lat="44.48568" lon="1.64804">
        <ele>254.7</ele>
        <time>2022-05-07T13:07:19Z</time>
      </trkpt>
      <trkpt lat="44.48569" lon="1.64803">
        <ele>254.8</ele>
        <time>2022-05-07T13:07:20Z</time>
      </trkpt>
      <trkpt lat="44.48569" lon="1.64801">
        <ele>255</ele>
        <time>2022-05-07T13:07:21Z</time>
      </trkpt>
      <trkpt lat="44.48571" lon="1.64799">
        <ele>255.2</ele>
        <time>2022-05-07T13:07:23Z</time>
      </trkpt>
      <trkpt lat="44.48572" lon="1.64798">
        <ele>255.3</ele>
        <time>2022-05-07T13:07:24Z</time>
      </trkpt>
      <trkpt lat="44.48573" lon="1.64796">
        <ele>255.6</ele>
        <time>2022-05-07T13:07:25Z</time>
      </trkpt>
      <trkpt lat="44.48574" lon="1.64795">
        <ele>255.7</ele>
        <time>2022-05-07T13:07:26Z</time>
      </trkpt>
      <trkpt lat="44.48576" lon="1.64793">
        <ele>255.9</ele>
        <time>2022-05-07T13:07:28Z</time>
      </trkpt>
      <trkpt lat="44.48577" lon="1.64791">
        <ele>256.1</ele>
        <time>2022-05-07T13:07:29Z</time>
      </trkpt>
      <trkpt lat="44.48578" lon="1.6479">
        <ele>256.3</ele>
        <time>2022-05-07T13:07:30Z</time>
      </trkpt>
      <trkpt lat="44.48579" lon="1.64789">
        <ele>256.4</ele>
        <time>2022-05-07T13:07:31Z</time>
      </trkpt>
      <trkpt lat="44.4858" lon="1.64788">
        <ele>256.5</ele>
        <time>2022-05-07T13:07:32Z</time>
      </trkpt>
      <trkpt lat="44.48581" lon="1.64787">
        <ele>256.6</ele>
        <time>2022-05-07T13:07:33Z</time>
      </trkpt>
      <trkpt lat="44.48582" lon="1.64786">
        <ele>256.8</ele>
        <time>2022-05-07T13:07:35Z</time>
      </trkpt>
      <trkpt lat="44.48583" lon="1.64785">
        <ele>257</ele>
        <time>2022-05-07T13:07:36Z</time>
      </trkpt>
      <trkpt lat="44.48585" lon="1.64783">
        <ele>257.2</ele>
        <time>2022-05-07T13:07:37Z</time>
      </trkpt>
      <trkpt lat="44.48586" lon="1.64782">
        <ele>257.3</ele>
        <time>2022-05-07T13:07:38Z</time>
      </trkpt>
      <trkpt lat="44.48587" lon="1.64781">
        <ele>257.4</ele>
        <time>2022-05-07T13:07:39Z</time>
      </trkpt>
      <trkpt lat="44.48588" lon="1.64779">
        <ele>257.6</ele>
        <time>2022-05-07T13:07:41Z</time>
      </trkpt>
      <trkpt lat="44.4859" lon="1.64778">
        <ele>257.8</ele>
        <time>2022-05-07T13:07:42Z</time>
      </trkpt>
      <trkpt lat="44.48591" lon="1.64777">
        <ele>258</ele>
        <time>2022-05-07T13:07:43Z</time>
      </trkpt>
      <trkpt lat="44.48593" lon="1.64777">
        <ele>258.2</ele>
        <time>2022-05-07T13:07:44Z</time>
      </trkpt>
      <trkpt lat="44.48594" lon="1.64776">
        <ele>258.4</ele>
        <time>2022-05-07T13:07:45Z</time>
      </trkpt>
      <trkpt lat="44.48596" lon="1.64776">
        <ele>258.5</ele>
        <time>2022-05-07T13:07:46Z</time>
      </trkpt>
      <trkpt lat="44.48598" lon="1.64775">
        <ele>258.7</ele>
        <time>2022-05-07T13:07:48Z</time>
      </trkpt>
      <trkpt lat="44.48599" lon="1.64774">
        <ele>258.9</ele>
        <time>2022-05-07T13:07:49Z</time>
      </trkpt>
      <trkpt lat="44.48601" lon="1.64773">
        <ele>259.1</ele>
        <time>2022-05-07T13:07:50Z</time>
      </trkpt>
      <trkpt lat="44.48602" lon="1.64773">
        <ele>259.2</ele>
        <time>2022-05-07T13:07:51Z</time>
      </trkpt>
      <trkpt lat="44.48603" lon="1.64771">
        <ele>259.3</ele>
        <time>2022-05-07T13:07:52Z</time>
      </trkpt>
      <trkpt lat="44.48604" lon="1.64771">
        <ele>259.4</ele>
        <time>2022-05-07T13:07:53Z</time>
      </trkpt>
      <trkpt lat="44.48605" lon="1.6477">
        <ele>259.5</ele>
        <time>2022-05-07T13:07:54Z</time>
      </trkpt>
      <trkpt lat="44.48606" lon="1.6477">
        <ele>259.8</ele>
        <time>2022-05-07T13:07:56Z</time>
      </trkpt>
      <trkpt lat="44.48608" lon="1.6477">
        <ele>259.9</ele>
        <time>2022-05-07T13:07:57Z</time>
      </trkpt>
      <trkpt lat="44.48609" lon="1.6477">
        <ele>260.1</ele>
        <time>2022-05-07T13:07:58Z</time>
      </trkpt>
      <trkpt lat="44.48611" lon="1.6477">
        <ele>260.3</ele>
        <time>2022-05-07T13:07:59Z</time>
      </trkpt>
      <trkpt lat="44.48612" lon="1.6477">
        <ele>260.4</ele>
        <time>2022-05-07T13:08:01Z</time>
      </trkpt>
      <trkpt lat="44.48614" lon="1.64771">
        <ele>260.5</ele>
        <time>2022-05-07T13:08:02Z</time>
      </trkpt>
      <trkpt lat="44.48615" lon="1.64771">
        <ele>260.7</ele>
        <time>2022-05-07T13:08:03Z</time>
      </trkpt>
      <trkpt lat="44.48616" lon="1.64771">
        <ele>260.8</ele>
        <time>2022-05-07T13:08:04Z</time>
      </trkpt>
      <trkpt lat="44.48618" lon="1.64772">
        <ele>261</ele>
        <time>2022-05-07T13:08:06Z</time>
      </trkpt>
      <trkpt lat="44.48619" lon="1.64773">
        <ele>261.2</ele>
        <time>2022-05-07T13:08:07Z</time>
      </trkpt>
      <trkpt lat="44.48621" lon="1.64773">
        <ele>261.3</ele>
        <time>2022-05-07T13:08:08Z</time>
      </trkpt>
      <trkpt lat="44.48622" lon="1.64774">
        <ele>261.5</ele>
        <time>2022-05-07T13:08:09Z</time>
      </trkpt>
      <trkpt lat="44.48624" lon="1.64774">
        <ele>261.6</ele>
        <time>2022-05-07T13:08:10Z</time>
      </trkpt>
      <trkpt lat="44.48625" lon="1.64775">
        <ele>261.8</ele>
        <time>2022-05-07T13:08:11Z</time>
      </trkpt>
      <trkpt lat="44.48626" lon="1.64776">
        <ele>262</ele>
        <time>2022-05-07T13:08:12Z</time>
      </trkpt>
      <trkpt lat="44.48628" lon="1.64777">
        <ele>262.2</ele>
        <time>2022-05-07T13:08:14Z</time>
      </trkpt>
      <trkpt lat="44.48629" lon="1.64777">
        <ele>262.3</ele>
        <time>2022-05-07T13:08:15Z</time>
      </trkpt>
      <trkpt lat="44.48631" lon="1.64777">
        <ele>262.5</ele>
        <time>2022-05-07T13:08:16Z</time>
      </trkpt>
      <trkpt lat="44.48633" lon="1.64778">
        <ele>262.7</ele>
        <time>2022-05-07T13:08:17Z</time>
      </trkpt>
      <trkpt lat="44.48635" lon="1.64779">
        <ele>262.9</ele>
        <time>2022-05-07T13:08:19Z</time>
      </trkpt>
      <trkpt lat="44.48635" lon="1.64779">
        <ele>263</ele>
        <time>2022-05-07T13:08:20Z</time>
      </trkpt>
      <trkpt lat="44.48636" lon="1.6478">
        <ele>263.1</ele>
        <time>2022-05-07T13:08:21Z</time>
      </trkpt>
      <trkpt lat="44.48638" lon="1.6478">
        <ele>263.2</ele>
        <time>2022-05-07T13:08:22Z</time>
      </trkpt>
      <trkpt lat="44.48639" lon="1.64781">
        <ele>263.4</ele>
        <time>2022-05-07T13:08:23Z</time>
      </trkpt>
      <trkpt lat="44.48641" lon="1.6478">
        <ele>263.6</ele>
        <time>2022-05-07T13:08:25Z</time>
      </trkpt>
      <trkpt lat="44.48643" lon="1.64781">
        <ele>263.8</ele>
        <time>2022-05-07T13:08:27Z</time>
      </trkpt>
      <trkpt lat="44.48645" lon="1.64782">
        <ele>264.1</ele>
        <time>2022-05-07T13:08:28Z</time>
      </trkpt>
      <trkpt lat="44.48646" lon="1.64782">
        <ele>264.2</ele>
        <time>2022-05-07T13:08:29Z</time>
      </trkpt>
      <trkpt lat="44.48647" lon="1.64783">
        <ele>264.3</ele>
        <time>2022-05-07T13:08:30Z</time>
      </trkpt>
      <trkpt lat="44.48648" lon="1.64784">
        <ele>264.4</ele>
        <time>2022-05-07T13:08:32Z</time>
      </trkpt>
      <trkpt lat="44.4865" lon="1.64785">
        <ele>264.6</ele>
        <time>2022-05-07T13:08:33Z</time>
      </trkpt>
      <trkpt lat="44.48651" lon="1.64786">
        <ele>264.8</ele>
        <time>2022-05-07T13:08:34Z</time>
      </trkpt>
      <trkpt lat="44.48652" lon="1.64787">
        <ele>264.9</ele>
        <time>2022-05-07T13:08:35Z</time>
      </trkpt>
      <trkpt lat="44.48655" lon="1.64787">
        <ele>265.3</ele>
        <time>2022-05-07T13:08:36Z</time>
      </trkpt>
      <trkpt lat="44.48656" lon="1.64787">
        <ele>265.4</ele>
        <time>2022-05-07T13:08:38Z</time>
      </trkpt>
      <trkpt lat="44.48657" lon="1.64787">
        <ele>265.5</ele>
        <time>2022-05-07T13:08:39Z</time>
      </trkpt>
      <trkpt lat="44.48658" lon="1.64787">
        <ele>265.6</ele>
        <time>2022-05-07T13:08:40Z</time>
      </trkpt>
      <trkpt lat="44.4866" lon="1.64788">
        <ele>265.8</ele>
        <time>2022-05-07T13:08:41Z</time>
      </trkpt>
      <trkpt lat="44.48661" lon="1.64788">
        <ele>265.9</ele>
        <time>2022-05-07T13:08:42Z</time>
      </trkpt>
      <trkpt lat="44.48662" lon="1.64789">
        <ele>266.1</ele>
        <time>2022-05-07T13:08:43Z</time>
      </trkpt>
      <trkpt lat="44.48664" lon="1.64789">
        <ele>266.2</ele>
        <time>2022-05-07T13:08:45Z</time>
      </trkpt>
      <trkpt lat="44.48665" lon="1.64789">
        <ele>266.4</ele>
        <time>2022-05-07T13:08:46Z</time>
      </trkpt>
      <trkpt lat="44.48667" lon="1.6479">
        <ele>266.5</ele>
        <time>2022-05-07T13:08:47Z</time>
      </trkpt>
      <trkpt lat="44.48668" lon="1.64791">
        <ele>266.7</ele>
        <time>2022-05-07T13:08:48Z</time>
      </trkpt>
      <trkpt lat="44.4867" lon="1.64791">
        <ele>266.8</ele>
        <time>2022-05-07T13:08:49Z</time>
      </trkpt>
      <trkpt lat="44.48671" lon="1.64792">
        <ele>267</ele>
        <time>2022-05-07T13:08:51Z</time>
      </trkpt>
      <trkpt lat="44.48672" lon="1.64792">
        <ele>267.1</ele>
        <time>2022-05-07T13:08:52Z</time>
      </trkpt>
      <trkpt lat="44.48674" lon="1.64792">
        <ele>267.3</ele>
        <time>2022-05-07T13:08:53Z</time>
      </trkpt>
      <trkpt lat="44.48675" lon="1.64792">
        <ele>267.4</ele>
        <time>2022-05-07T13:08:54Z</time>
      </trkpt>
      <trkpt lat="44.48676" lon="1.64792">
        <ele>267.4</ele>
        <time>2022-05-07T13:08:55Z</time>
      </trkpt>
      <trkpt lat="44.48677" lon="1.64793">
        <ele>267.6</ele>
        <time>2022-05-07T13:08:56Z</time>
      </trkpt>
      <trkpt lat="44.48679" lon="1.64792">
        <ele>267.7</ele>
        <time>2022-05-07T13:08:57Z</time>
      </trkpt>
      <trkpt lat="44.48681" lon="1.64792">
        <ele>267.9</ele>
        <time>2022-05-07T13:08:59Z</time>
      </trkpt>
      <trkpt lat="44.48682" lon="1.64791">
        <ele>268</ele>
        <time>2022-05-07T13:09:00Z</time>
      </trkpt>
      <trkpt lat="44.48684" lon="1.64791">
        <ele>268.1</ele>
        <time>2022-05-07T13:09:01Z</time>
      </trkpt>
      <trkpt lat="44.48685" lon="1.64791">
        <ele>268.2</ele>
        <time>2022-05-07T13:09:02Z</time>
      </trkpt>
      <trkpt lat="44.48687" lon="1.64792">
        <ele>268.4</ele>
        <time>2022-05-07T13:09:04Z</time>
      </trkpt>
      <trkpt lat="44.48688" lon="1.64792">
        <ele>268.5</ele>
        <time>2022-05-07T13:09:05Z</time>
      </trkpt>
      <trkpt lat="44.4869" lon="1.64792">
        <ele>268.6</ele>
        <time>2022-05-07T13:09:06Z</time>
      </trkpt>
      <trkpt lat="44.48691" lon="1.64793">
        <ele>268.7</ele>
        <time>2022-05-07T13:09:07Z</time>
      </trkpt>
      <trkpt lat="44.48692" lon="1.64794">
        <ele>268.9</ele>
        <time>2022-05-07T13:09:08Z</time>
      </trkpt>
      <trkpt lat="44.48694" lon="1.64794">
        <ele>269</ele>
        <time>2022-05-07T13:09:09Z</time>
      </trkpt>
      <trkpt lat="44.48696" lon="1.64795">
        <ele>269.2</ele>
        <time>2022-05-07T13:09:10Z</time>
      </trkpt>
      <trkpt lat="44.48697" lon="1.64795">
        <ele>269.3</ele>
        <time>2022-05-07T13:09:12Z</time>
      </trkpt>
      <trkpt lat="44.48698" lon="1.64795">
        <ele>269.4</ele>
        <time>2022-05-07T13:09:13Z</time>
      </trkpt>
      <trkpt lat="44.487" lon="1.64794">
        <ele>269.5</ele>
        <time>2022-05-07T13:09:14Z</time>
      </trkpt>
      <trkpt lat="44.48701" lon="1.64794">
        <ele>269.6</ele>
        <time>2022-05-07T13:09:15Z</time>
      </trkpt>
      <trkpt lat="44.48703" lon="1.64794">
        <ele>269.8</ele>
        <time>2022-05-07T13:09:17Z</time>
      </trkpt>
      <trkpt lat="44.48704" lon="1.64794">
        <ele>269.9</ele>
        <time>2022-05-07T13:09:18Z</time>
      </trkpt>
      <trkpt lat="44.48705" lon="1.64794">
        <ele>269.9</ele>
        <time>2022-05-07T13:09:19Z</time>
      </trkpt>
      <trkpt lat="44.48706" lon="1.64794">
        <ele>270</ele>
        <time>2022-05-07T13:09:20Z</time>
      </trkpt>
      <trkpt lat="44.48707" lon="1.64794">
        <ele>270.1</ele>
        <time>2022-05-07T13:09:21Z</time>
      </trkpt>
      <trkpt lat="44.48708" lon="1.64795">
        <ele>270.2</ele>
        <time>2022-05-07T13:09:22Z</time>
      </trkpt>
      <trkpt lat="44.48709" lon="1.64795">
        <ele>270.4</ele>
        <time>2022-05-07T13:09:24Z</time>
      </trkpt>
      <trkpt lat="44.48711" lon="1.64796">
        <ele>270.5</ele>
        <time>2022-05-07T13:09:25Z</time>
      </trkpt>
      <trkpt lat="44.48713" lon="1.64796">
        <ele>270.7</ele>
        <time>2022-05-07T13:09:26Z</time>
      </trkpt>
      <trkpt lat="44.48714" lon="1.64796">
        <ele>270.8</ele>
        <time>2022-05-07T13:09:27Z</time>
      </trkpt>
      <trkpt lat="44.48717" lon="1.64795">
        <ele>271.1</ele>
        <time>2022-05-07T13:09:29Z</time>
      </trkpt>
      <trkpt lat="44.48718" lon="1.64795">
        <ele>271.2</ele>
        <time>2022-05-07T13:09:30Z</time>
      </trkpt>
      <trkpt lat="44.4872" lon="1.64794">
        <ele>271.3</ele>
        <time>2022-05-07T13:09:31Z</time>
      </trkpt>
      <trkpt lat="44.48721" lon="1.64795">
        <ele>271.5</ele>
        <time>2022-05-07T13:09:32Z</time>
      </trkpt>
      <trkpt lat="44.48722" lon="1.64795">
        <ele>271.6</ele>
        <time>2022-05-07T13:09:33Z</time>
      </trkpt>
      <trkpt lat="44.48723" lon="1.64795">
        <ele>271.6</ele>
        <time>2022-05-07T13:09:34Z</time>
      </trkpt>
      <trkpt lat="44.48724" lon="1.64795">
        <ele>271.7</ele>
        <time>2022-05-07T13:09:35Z</time>
      </trkpt>
      <trkpt lat="44.48725" lon="1.64796">
        <ele>271.8</ele>
        <time>2022-05-07T13:09:36Z</time>
      </trkpt>
      <trkpt lat="44.48727" lon="1.64796">
        <ele>272</ele>
        <time>2022-05-07T13:09:38Z</time>
      </trkpt>
      <trkpt lat="44.48729" lon="1.64796">
        <ele>272.1</ele>
        <time>2022-05-07T13:09:39Z</time>
      </trkpt>
      <trkpt lat="44.4873" lon="1.64797">
        <ele>272.3</ele>
        <time>2022-05-07T13:09:40Z</time>
      </trkpt>
      <trkpt lat="44.48733" lon="1.64796">
        <ele>272.6</ele>
        <time>2022-05-07T13:09:42Z</time>
      </trkpt>
      <trkpt lat="44.48734" lon="1.64796">
        <ele>272.7</ele>
        <time>2022-05-07T13:09:43Z</time>
      </trkpt>
      <trkpt lat="44.48736" lon="1.64795">
        <ele>272.8</ele>
        <time>2022-05-07T13:09:44Z</time>
      </trkpt>
      <trkpt lat="44.48738" lon="1.64795">
        <ele>272.9</ele>
        <time>2022-05-07T13:09:45Z</time>
      </trkpt>
      <trkpt lat="44.48739" lon="1.64795">
        <ele>273</ele>
        <time>2022-05-07T13:09:46Z</time>
      </trkpt>
      <trkpt lat="44.4874" lon="1.64795">
        <ele>273.2</ele>
        <time>2022-05-07T13:09:48Z</time>
      </trkpt>
      <trkpt lat="44.48741" lon="1.64795">
        <ele>273.2</ele>
        <time>2022-05-07T13:09:49Z</time>
      </trkpt>
      <trkpt lat="44.48743" lon="1.64796">
        <ele>273.4</ele>
        <time>2022-05-07T13:09:50Z</time>
      </trkpt>
      <trkpt lat="44.48744" lon="1.64797">
        <ele>273.5</ele>
        <time>2022-05-07T13:09:51Z</time>
      </trkpt>
      <trkpt lat="44.48745" lon="1.64797">
        <ele>273.6</ele>
        <time>2022-05-07T13:09:52Z</time>
      </trkpt>
      <trkpt lat="44.48747" lon="1.64797">
        <ele>273.7</ele>
        <time>2022-05-07T13:09:53Z</time>
      </trkpt>
      <trkpt lat="44.48747" lon="1.64797">
        <ele>273.7</ele>
        <time>2022-05-07T13:09:54Z</time>
      </trkpt>
      <trkpt lat="44.48748" lon="1.64797">
        <ele>273.8</ele>
        <time>2022-05-07T13:09:55Z</time>
      </trkpt>
      <trkpt lat="44.48749" lon="1.64796">
        <ele>273.9</ele>
        <time>2022-05-07T13:09:56Z</time>
      </trkpt>
      <trkpt lat="44.48751" lon="1.64797">
        <ele>274</ele>
        <time>2022-05-07T13:09:57Z</time>
      </trkpt>
      <trkpt lat="44.48752" lon="1.64797">
        <ele>274.1</ele>
        <time>2022-05-07T13:09:58Z</time>
      </trkpt>
      <trkpt lat="44.48753" lon="1.64798">
        <ele>274.1</ele>
        <time>2022-05-07T13:09:59Z</time>
      </trkpt>
      <trkpt lat="44.48756" lon="1.64799">
        <ele>274.4</ele>
        <time>2022-05-07T13:10:01Z</time>
      </trkpt>
      <trkpt lat="44.48757" lon="1.64799">
        <ele>274.4</ele>
        <time>2022-05-07T13:10:02Z</time>
      </trkpt>
      <trkpt lat="44.48761" lon="1.648">
        <ele>274.7</ele>
        <time>2022-05-07T13:10:04Z</time>
      </trkpt>
      <trkpt lat="44.48762" lon="1.648">
        <ele>274.7</ele>
        <time>2022-05-07T13:10:05Z</time>
      </trkpt>
      <trkpt lat="44.48765" lon="1.64802">
        <ele>274.9</ele>
        <time>2022-05-07T13:10:06Z</time>
      </trkpt>
      <trkpt lat="44.48766" lon="1.64802">
        <ele>274.9</ele>
        <time>2022-05-07T13:10:07Z</time>
      </trkpt>
      <trkpt lat="44.48767" lon="1.64803">
        <ele>275</ele>
        <time>2022-05-07T13:10:08Z</time>
      </trkpt>
      <trkpt lat="44.48769" lon="1.64803">
        <ele>275.1</ele>
        <time>2022-05-07T13:10:10Z</time>
      </trkpt>
      <trkpt lat="44.48773" lon="1.64804">
        <ele>275.3</ele>
        <time>2022-05-07T13:10:11Z</time>
      </trkpt>
      <trkpt lat="44.48774" lon="1.64805">
        <ele>275.3</ele>
        <time>2022-05-07T13:10:12Z</time>
      </trkpt>
      <trkpt lat="44.48776" lon="1.64806">
        <ele>275.4</ele>
        <time>2022-05-07T13:10:14Z</time>
      </trkpt>
      <trkpt lat="44.48777" lon="1.64807">
        <ele>275.4</ele>
        <time>2022-05-07T13:10:15Z</time>
      </trkpt>
      <trkpt lat="44.4878" lon="1.64808">
        <ele>275.5</ele>
        <time>2022-05-07T13:10:16Z</time>
      </trkpt>
      <trkpt lat="44.48781" lon="1.64809">
        <ele>275.6</ele>
        <time>2022-05-07T13:10:17Z</time>
      </trkpt>
      <trkpt lat="44.48784" lon="1.6481">
        <ele>275.6</ele>
        <time>2022-05-07T13:10:18Z</time>
      </trkpt>
      <trkpt lat="44.48785" lon="1.6481">
        <ele>275.7</ele>
        <time>2022-05-07T13:10:19Z</time>
      </trkpt>
      <trkpt lat="44.48786" lon="1.64811">
        <ele>275.7</ele>
        <time>2022-05-07T13:10:20Z</time>
      </trkpt>
      <trkpt lat="44.48789" lon="1.64813">
        <ele>275.8</ele>
        <time>2022-05-07T13:10:22Z</time>
      </trkpt>
      <trkpt lat="44.48792" lon="1.64814">
        <ele>275.8</ele>
        <time>2022-05-07T13:10:23Z</time>
      </trkpt>
      <trkpt lat="44.48793" lon="1.64815">
        <ele>275.9</ele>
        <time>2022-05-07T13:10:24Z</time>
      </trkpt>
      <trkpt lat="44.48795" lon="1.64816">
        <ele>275.9</ele>
        <time>2022-05-07T13:10:25Z</time>
      </trkpt>
      <trkpt lat="44.48797" lon="1.64817">
        <ele>276</ele>
        <time>2022-05-07T13:10:27Z</time>
      </trkpt>
      <trkpt lat="44.488" lon="1.6482">
        <ele>276</ele>
        <time>2022-05-07T13:10:28Z</time>
      </trkpt>
      <trkpt lat="44.48801" lon="1.6482">
        <ele>276</ele>
        <time>2022-05-07T13:10:29Z</time>
      </trkpt>
      <trkpt lat="44.48805" lon="1.64824">
        <ele>276.1</ele>
        <time>2022-05-07T13:10:30Z</time>
      </trkpt>
      <trkpt lat="44.48806" lon="1.64825">
        <ele>276.1</ele>
        <time>2022-05-07T13:10:31Z</time>
      </trkpt>
      <trkpt lat="44.48809" lon="1.64828">
        <ele>276.2</ele>
        <time>2022-05-07T13:10:33Z</time>
      </trkpt>
      <trkpt lat="44.4881" lon="1.64829">
        <ele>276.2</ele>
        <time>2022-05-07T13:10:34Z</time>
      </trkpt>
      <trkpt lat="44.48813" lon="1.64831">
        <ele>276.3</ele>
        <time>2022-05-07T13:10:35Z</time>
      </trkpt>
      <trkpt lat="44.48816" lon="1.64833">
        <ele>276.3</ele>
        <time>2022-05-07T13:10:36Z</time>
      </trkpt>
      <trkpt lat="44.48817" lon="1.64834">
        <ele>276.4</ele>
        <time>2022-05-07T13:10:37Z</time>
      </trkpt>
      <trkpt lat="44.4882" lon="1.64836">
        <ele>276.5</ele>
        <time>2022-05-07T13:10:39Z</time>
      </trkpt>
      <trkpt lat="44.48823" lon="1.6484">
        <ele>276.5</ele>
        <time>2022-05-07T13:10:40Z</time>
      </trkpt>
      <trkpt lat="44.48825" lon="1.64842">
        <ele>276.6</ele>
        <time>2022-05-07T13:10:41Z</time>
      </trkpt>
      <trkpt lat="44.48828" lon="1.64843">
        <ele>276.7</ele>
        <time>2022-05-07T13:10:42Z</time>
      </trkpt>
      <trkpt lat="44.4883" lon="1.64844">
        <ele>276.8</ele>
        <time>2022-05-07T13:10:43Z</time>
      </trkpt>
      <trkpt lat="44.48833" lon="1.64846">
        <ele>276.9</ele>
        <time>2022-05-07T13:10:44Z</time>
      </trkpt>
      <trkpt lat="44.48838" lon="1.64847">
        <ele>277.1</ele>
        <time>2022-05-07T13:10:46Z</time>
      </trkpt>
      <trkpt lat="44.48841" lon="1.64848">
        <ele>277.3</ele>
        <time>2022-05-07T13:10:47Z</time>
      </trkpt>
      <trkpt lat="44.48845" lon="1.64851">
        <ele>277.5</ele>
        <time>2022-05-07T13:10:49Z</time>
      </trkpt>
      <trkpt lat="44.48849" lon="1.64853">
        <ele>277.7</ele>
        <time>2022-05-07T13:10:50Z</time>
      </trkpt>
      <trkpt lat="44.48853" lon="1.64855">
        <ele>277.8</ele>
        <time>2022-05-07T13:10:52Z</time>
      </trkpt>
      <trkpt lat="44.48854" lon="1.64856">
        <ele>277.9</ele>
        <time>2022-05-07T13:10:53Z</time>
      </trkpt>
      <trkpt lat="44.48858" lon="1.64857">
        <ele>278.1</ele>
        <time>2022-05-07T13:10:54Z</time>
      </trkpt>
      <trkpt lat="44.48859" lon="1.64857">
        <ele>278.2</ele>
        <time>2022-05-07T13:10:55Z</time>
      </trkpt>
      <trkpt lat="44.48863" lon="1.64858">
        <ele>278.3</ele>
        <time>2022-05-07T13:10:56Z</time>
      </trkpt>
      <trkpt lat="44.48864" lon="1.64858">
        <ele>278.4</ele>
        <time>2022-05-07T13:10:57Z</time>
      </trkpt>
      <trkpt lat="44.48868" lon="1.64859">
        <ele>278.5</ele>
        <time>2022-05-07T13:10:59Z</time>
      </trkpt>
      <trkpt lat="44.48872" lon="1.6486">
        <ele>278.7</ele>
        <time>2022-05-07T13:11:00Z</time>
      </trkpt>
      <trkpt lat="44.48873" lon="1.6486">
        <ele>278.7</ele>
        <time>2022-05-07T13:11:01Z</time>
      </trkpt>
      <trkpt lat="44.48876" lon="1.64861">
        <ele>278.8</ele>
        <time>2022-05-07T13:11:02Z</time>
      </trkpt>
      <trkpt lat="44.48877" lon="1.64861">
        <ele>278.9</ele>
        <time>2022-05-07T13:11:03Z</time>
      </trkpt>
      <trkpt lat="44.48882" lon="1.64862">
        <ele>279</ele>
        <time>2022-05-07T13:11:05Z</time>
      </trkpt>
      <trkpt lat="44.48885" lon="1.64863">
        <ele>279.1</ele>
        <time>2022-05-07T13:11:06Z</time>
      </trkpt>
      <trkpt lat="44.48887" lon="1.64863">
        <ele>279.1</ele>
        <time>2022-05-07T13:11:07Z</time>
      </trkpt>
      <trkpt lat="44.48891" lon="1.64864">
        <ele>279.1</ele>
        <time>2022-05-07T13:11:08Z</time>
      </trkpt>
      <trkpt lat="44.48892" lon="1.64865">
        <ele>279.2</ele>
        <time>2022-05-07T13:11:09Z</time>
      </trkpt>
      <trkpt lat="44.48894" lon="1.64866">
        <ele>279.2</ele>
        <time>2022-05-07T13:11:11Z</time>
      </trkpt>
      <trkpt lat="44.48898" lon="1.64868">
        <ele>279.2</ele>
        <time>2022-05-07T13:11:12Z</time>
      </trkpt>
      <trkpt lat="44.48902" lon="1.6487">
        <ele>279.3</ele>
        <time>2022-05-07T13:11:13Z</time>
      </trkpt>
      <trkpt lat="44.48903" lon="1.6487">
        <ele>279.3</ele>
        <time>2022-05-07T13:11:14Z</time>
      </trkpt>
      <trkpt lat="44.48907" lon="1.64872">
        <ele>279.3</ele>
        <time>2022-05-07T13:11:15Z</time>
      </trkpt>
      <trkpt lat="44.48908" lon="1.64872">
        <ele>279.3</ele>
        <time>2022-05-07T13:11:16Z</time>
      </trkpt>
      <trkpt lat="44.48911" lon="1.64873">
        <ele>279.3</ele>
        <time>2022-05-07T13:11:18Z</time>
      </trkpt>
      <trkpt lat="44.48914" lon="1.64874">
        <ele>279.3</ele>
        <time>2022-05-07T13:11:19Z</time>
      </trkpt>
      <trkpt lat="44.48917" lon="1.64875">
        <ele>279.4</ele>
        <time>2022-05-07T13:11:20Z</time>
      </trkpt>
      <trkpt lat="44.48922" lon="1.64875">
        <ele>279.4</ele>
        <time>2022-05-07T13:11:21Z</time>
      </trkpt>
      <trkpt lat="44.48924" lon="1.64876">
        <ele>279.4</ele>
        <time>2022-05-07T13:11:22Z</time>
      </trkpt>
      <trkpt lat="44.48928" lon="1.64875">
        <ele>279.4</ele>
        <time>2022-05-07T13:11:24Z</time>
      </trkpt>
      <trkpt lat="44.48932" lon="1.64875">
        <ele>279.4</ele>
        <time>2022-05-07T13:11:25Z</time>
      </trkpt>
      <trkpt lat="44.48935" lon="1.64875">
        <ele>279.4</ele>
        <time>2022-05-07T13:11:26Z</time>
      </trkpt>
      <trkpt lat="44.48938" lon="1.64875">
        <ele>279.4</ele>
        <time>2022-05-07T13:11:27Z</time>
      </trkpt>
      <trkpt lat="44.48942" lon="1.64875">
        <ele>279.4</ele>
        <time>2022-05-07T13:11:28Z</time>
      </trkpt>
      <trkpt lat="44.48943" lon="1.64875">
        <ele>279.4</ele>
        <time>2022-05-07T13:11:29Z</time>
      </trkpt>
      <trkpt lat="44.48947" lon="1.64874">
        <ele>279.5</ele>
        <time>2022-05-07T13:11:30Z</time>
      </trkpt>
      <trkpt lat="44.48948" lon="1.64874">
        <ele>279.5</ele>
        <time>2022-05-07T13:11:31Z</time>
      </trkpt>
      <trkpt lat="44.48951" lon="1.64873">
        <ele>279.5</ele>
        <time>2022-05-07T13:11:32Z</time>
      </trkpt>
      <trkpt lat="44.48953" lon="1.64872">
        <ele>279.5</ele>
        <time>2022-05-07T13:11:33Z</time>
      </trkpt>
      <trkpt lat="44.48956" lon="1.64871">
        <ele>279.5</ele>
        <time>2022-05-07T13:11:34Z</time>
      </trkpt>
      <trkpt lat="44.48959" lon="1.6487">
        <ele>279.5</ele>
        <time>2022-05-07T13:11:35Z</time>
      </trkpt>
      <trkpt lat="44.48962" lon="1.6487">
        <ele>279.4</ele>
        <time>2022-05-07T13:11:37Z</time>
      </trkpt>
      <trkpt lat="44.48966" lon="1.64869">
        <ele>279.4</ele>
        <time>2022-05-07T13:11:38Z</time>
      </trkpt>
      <trkpt lat="44.48969" lon="1.64868">
        <ele>279.4</ele>
        <time>2022-05-07T13:11:39Z</time>
      </trkpt>
      <trkpt lat="44.48973" lon="1.64868">
        <ele>279.3</ele>
        <time>2022-05-07T13:11:40Z</time>
      </trkpt>
      <trkpt lat="44.48977" lon="1.64867">
        <ele>279.3</ele>
        <time>2022-05-07T13:11:41Z</time>
      </trkpt>
      <trkpt lat="44.48982" lon="1.64867">
        <ele>279.2</ele>
        <time>2022-05-07T13:11:42Z</time>
      </trkpt>
      <trkpt lat="44.48985" lon="1.64866">
        <ele>279.1</ele>
        <time>2022-05-07T13:11:43Z</time>
      </trkpt>
      <trkpt lat="44.48989" lon="1.64866">
        <ele>279</ele>
        <time>2022-05-07T13:11:44Z</time>
      </trkpt>
      <trkpt lat="44.48993" lon="1.64866">
        <ele>278.8</ele>
        <time>2022-05-07T13:11:45Z</time>
      </trkpt>
      <trkpt lat="44.48999" lon="1.64865">
        <ele>278.6</ele>
        <time>2022-05-07T13:11:47Z</time>
      </trkpt>
      <trkpt lat="44.49004" lon="1.64866">
        <ele>278.4</ele>
        <time>2022-05-07T13:11:48Z</time>
      </trkpt>
      <trkpt lat="44.49007" lon="1.64865">
        <ele>278.2</ele>
        <time>2022-05-07T13:11:49Z</time>
      </trkpt>
      <trkpt lat="44.49011" lon="1.64865">
        <ele>278.1</ele>
        <time>2022-05-07T13:11:50Z</time>
      </trkpt>
      <trkpt lat="44.49016" lon="1.64866">
        <ele>277.8</ele>
        <time>2022-05-07T13:11:52Z</time>
      </trkpt>
      <trkpt lat="44.4902" lon="1.64866">
        <ele>277.7</ele>
        <time>2022-05-07T13:11:53Z</time>
      </trkpt>
      <trkpt lat="44.49025" lon="1.64865">
        <ele>277.4</ele>
        <time>2022-05-07T13:11:54Z</time>
      </trkpt>
      <trkpt lat="44.49029" lon="1.64863">
        <ele>277.2</ele>
        <time>2022-05-07T13:11:56Z</time>
      </trkpt>
      <trkpt lat="44.49034" lon="1.64863">
        <ele>276.9</ele>
        <time>2022-05-07T13:11:57Z</time>
      </trkpt>
      <trkpt lat="44.49038" lon="1.64862">
        <ele>276.7</ele>
        <time>2022-05-07T13:11:58Z</time>
      </trkpt>
      <trkpt lat="44.49044" lon="1.64859">
        <ele>276.3</ele>
        <time>2022-05-07T13:11:59Z</time>
      </trkpt>
      <trkpt lat="44.49049" lon="1.64858">
        <ele>276.1</ele>
        <time>2022-05-07T13:12:00Z</time>
      </trkpt>
      <trkpt lat="44.49055" lon="1.64857">
        <ele>275.7</ele>
        <time>2022-05-07T13:12:02Z</time>
      </trkpt>
      <trkpt lat="44.4906" lon="1.64855">
        <ele>275.4</ele>
        <time>2022-05-07T13:12:03Z</time>
      </trkpt>
      <trkpt lat="44.49066" lon="1.64854">
        <ele>275.2</ele>
        <time>2022-05-07T13:12:04Z</time>
      </trkpt>
      <trkpt lat="44.49075" lon="1.6485">
        <ele>274.6</ele>
        <time>2022-05-07T13:12:05Z</time>
      </trkpt>
      <trkpt lat="44.4908" lon="1.64848">
        <ele>274.3</ele>
        <time>2022-05-07T13:12:06Z</time>
      </trkpt>
      <trkpt lat="44.49086" lon="1.64847">
        <ele>274</ele>
        <time>2022-05-07T13:12:07Z</time>
      </trkpt>
      <trkpt lat="44.49097" lon="1.64842">
        <ele>273.3</ele>
        <time>2022-05-07T13:12:09Z</time>
      </trkpt>
      <trkpt lat="44.49103" lon="1.6484">
        <ele>272.9</ele>
        <time>2022-05-07T13:12:10Z</time>
      </trkpt>
      <trkpt lat="44.4911" lon="1.64838">
        <ele>272.4</ele>
        <time>2022-05-07T13:12:11Z</time>
      </trkpt>
      <trkpt lat="44.49116" lon="1.64835">
        <ele>272</ele>
        <time>2022-05-07T13:12:12Z</time>
      </trkpt>
      <trkpt lat="44.49123" lon="1.64832">
        <ele>271.6</ele>
        <time>2022-05-07T13:12:13Z</time>
      </trkpt>
      <trkpt lat="44.4913" lon="1.6483">
        <ele>271.2</ele>
        <time>2022-05-07T13:12:14Z</time>
      </trkpt>
      <trkpt lat="44.49136" lon="1.64827">
        <ele>270.8</ele>
        <time>2022-05-07T13:12:15Z</time>
      </trkpt>
      <trkpt lat="44.49143" lon="1.64824">
        <ele>270.3</ele>
        <time>2022-05-07T13:12:16Z</time>
      </trkpt>
      <trkpt lat="44.4915" lon="1.6482">
        <ele>269.9</ele>
        <time>2022-05-07T13:12:17Z</time>
      </trkpt>
      <trkpt lat="44.49157" lon="1.64816">
        <ele>269.5</ele>
        <time>2022-05-07T13:12:18Z</time>
      </trkpt>
      <trkpt lat="44.49163" lon="1.64812">
        <ele>269.1</ele>
        <time>2022-05-07T13:12:19Z</time>
      </trkpt>
      <trkpt lat="44.49169" lon="1.64809">
        <ele>268.6</ele>
        <time>2022-05-07T13:12:20Z</time>
      </trkpt>
      <trkpt lat="44.49176" lon="1.64805">
        <ele>268.2</ele>
        <time>2022-05-07T13:12:21Z</time>
      </trkpt>
      <trkpt lat="44.49183" lon="1.64802">
        <ele>267.8</ele>
        <time>2022-05-07T13:12:22Z</time>
      </trkpt>
      <trkpt lat="44.4919" lon="1.648">
        <ele>267.4</ele>
        <time>2022-05-07T13:12:23Z</time>
      </trkpt>
      <trkpt lat="44.49197" lon="1.64799">
        <ele>266.9</ele>
        <time>2022-05-07T13:12:24Z</time>
      </trkpt>
      <trkpt lat="44.49203" lon="1.64798">
        <ele>266.5</ele>
        <time>2022-05-07T13:12:25Z</time>
      </trkpt>
      <trkpt lat="44.49211" lon="1.64798">
        <ele>266</ele>
        <time>2022-05-07T13:12:26Z</time>
      </trkpt>
      <trkpt lat="44.49218" lon="1.648">
        <ele>265.6</ele>
        <time>2022-05-07T13:12:27Z</time>
      </trkpt>
      <trkpt lat="44.49225" lon="1.64801">
        <ele>265.1</ele>
        <time>2022-05-07T13:12:28Z</time>
      </trkpt>
      <trkpt lat="44.49232" lon="1.64803">
        <ele>264.8</ele>
        <time>2022-05-07T13:12:29Z</time>
      </trkpt>
      <trkpt lat="44.4924" lon="1.64804">
        <ele>264.4</ele>
        <time>2022-05-07T13:12:30Z</time>
      </trkpt>
      <trkpt lat="44.49247" lon="1.64806">
        <ele>264.1</ele>
        <time>2022-05-07T13:12:31Z</time>
      </trkpt>
      <trkpt lat="44.49254" lon="1.64808">
        <ele>263.9</ele>
        <time>2022-05-07T13:12:32Z</time>
      </trkpt>
      <trkpt lat="44.49261" lon="1.64809">
        <ele>263.7</ele>
        <time>2022-05-07T13:12:33Z</time>
      </trkpt>
      <trkpt lat="44.49268" lon="1.6481">
        <ele>263.6</ele>
        <time>2022-05-07T13:12:34Z</time>
      </trkpt>
      <trkpt lat="44.49275" lon="1.6481">
        <ele>263.5</ele>
        <time>2022-05-07T13:12:35Z</time>
      </trkpt>
      <trkpt lat="44.49281" lon="1.6481">
        <ele>263.4</ele>
        <time>2022-05-07T13:12:36Z</time>
      </trkpt>
      <trkpt lat="44.49288" lon="1.64809">
        <ele>263.4</ele>
        <time>2022-05-07T13:12:37Z</time>
      </trkpt>
      <trkpt lat="44.49294" lon="1.64809">
        <ele>263.3</ele>
        <time>2022-05-07T13:12:38Z</time>
      </trkpt>
      <trkpt lat="44.49299" lon="1.64808">
        <ele>263.3</ele>
        <time>2022-05-07T13:12:39Z</time>
      </trkpt>
      <trkpt lat="44.49305" lon="1.64808">
        <ele>263.3</ele>
        <time>2022-05-07T13:12:40Z</time>
      </trkpt>
      <trkpt lat="44.4931" lon="1.64807">
        <ele>263.3</ele>
        <time>2022-05-07T13:12:41Z</time>
      </trkpt>
      <trkpt lat="44.49315" lon="1.64807">
        <ele>263.4</ele>
        <time>2022-05-07T13:12:42Z</time>
      </trkpt>
      <trkpt lat="44.49321" lon="1.64806">
        <ele>263.5</ele>
        <time>2022-05-07T13:12:43Z</time>
      </trkpt>
      <trkpt lat="44.49327" lon="1.64805">
        <ele>263.6</ele>
        <time>2022-05-07T13:12:44Z</time>
      </trkpt>
      <trkpt lat="44.49332" lon="1.64804">
        <ele>263.8</ele>
        <time>2022-05-07T13:12:45Z</time>
      </trkpt>
      <trkpt lat="44.49336" lon="1.64803">
        <ele>263.9</ele>
        <time>2022-05-07T13:12:46Z</time>
      </trkpt>
      <trkpt lat="44.4934" lon="1.64803">
        <ele>264</ele>
        <time>2022-05-07T13:12:47Z</time>
      </trkpt>
      <trkpt lat="44.49343" lon="1.64802">
        <ele>264</ele>
        <time>2022-05-07T13:12:48Z</time>
      </trkpt>
      <trkpt lat="44.49347" lon="1.64802">
        <ele>264.1</ele>
        <time>2022-05-07T13:12:49Z</time>
      </trkpt>
      <trkpt lat="44.49352" lon="1.64801">
        <ele>264.3</ele>
        <time>2022-05-07T13:12:50Z</time>
      </trkpt>
      <trkpt lat="44.49355" lon="1.648">
        <ele>264.4</ele>
        <time>2022-05-07T13:12:51Z</time>
      </trkpt>
      <trkpt lat="44.49358" lon="1.64799">
        <ele>264.5</ele>
        <time>2022-05-07T13:12:52Z</time>
      </trkpt>
      <trkpt lat="44.49361" lon="1.64797">
        <ele>264.6</ele>
        <time>2022-05-07T13:12:53Z</time>
      </trkpt>
      <trkpt lat="44.49365" lon="1.64794">
        <ele>264.7</ele>
        <time>2022-05-07T13:12:55Z</time>
      </trkpt>
      <trkpt lat="44.49367" lon="1.64794">
        <ele>264.8</ele>
        <time>2022-05-07T13:12:56Z</time>
      </trkpt>
      <trkpt lat="44.49371" lon="1.64792">
        <ele>264.9</ele>
        <time>2022-05-07T13:12:57Z</time>
      </trkpt>
      <trkpt lat="44.49374" lon="1.64792">
        <ele>265</ele>
        <time>2022-05-07T13:12:58Z</time>
      </trkpt>
      <trkpt lat="44.49378" lon="1.64791">
        <ele>265.1</ele>
        <time>2022-05-07T13:13:00Z</time>
      </trkpt>
      <trkpt lat="44.49381" lon="1.6479">
        <ele>265.2</ele>
        <time>2022-05-07T13:13:01Z</time>
      </trkpt>
      <trkpt lat="44.49385" lon="1.64789">
        <ele>265.3</ele>
        <time>2022-05-07T13:13:02Z</time>
      </trkpt>
      <trkpt lat="44.49388" lon="1.64788">
        <ele>265.4</ele>
        <time>2022-05-07T13:13:03Z</time>
      </trkpt>
      <trkpt lat="44.49391" lon="1.64787">
        <ele>265.5</ele>
        <time>2022-05-07T13:13:04Z</time>
      </trkpt>
      <trkpt lat="44.49395" lon="1.64786">
        <ele>265.6</ele>
        <time>2022-05-07T13:13:05Z</time>
      </trkpt>
      <trkpt lat="44.49398" lon="1.64785">
        <ele>265.7</ele>
        <time>2022-05-07T13:13:06Z</time>
      </trkpt>
      <trkpt lat="44.49402" lon="1.64785">
        <ele>265.8</ele>
        <time>2022-05-07T13:13:08Z</time>
      </trkpt>
      <trkpt lat="44.49406" lon="1.64783">
        <ele>266</ele>
        <time>2022-05-07T13:13:09Z</time>
      </trkpt>
      <trkpt lat="44.49411" lon="1.64781">
        <ele>266.1</ele>
        <time>2022-05-07T13:13:11Z</time>
      </trkpt>
      <trkpt lat="44.49414" lon="1.6478">
        <ele>266.2</ele>
        <time>2022-05-07T13:13:12Z</time>
      </trkpt>
      <trkpt lat="44.49418" lon="1.64778">
        <ele>266.3</ele>
        <time>2022-05-07T13:13:14Z</time>
      </trkpt>
      <trkpt lat="44.49422" lon="1.64776">
        <ele>266.4</ele>
        <time>2022-05-07T13:13:15Z</time>
      </trkpt>
      <trkpt lat="44.49426" lon="1.64775">
        <ele>266.4</ele>
        <time>2022-05-07T13:13:16Z</time>
      </trkpt>
      <trkpt lat="44.49429" lon="1.64774">
        <ele>266.5</ele>
        <time>2022-05-07T13:13:17Z</time>
      </trkpt>
      <trkpt lat="44.49431" lon="1.64774">
        <ele>266.5</ele>
        <time>2022-05-07T13:13:18Z</time>
      </trkpt>
      <trkpt lat="44.49434" lon="1.64772">
        <ele>266.6</ele>
        <time>2022-05-07T13:13:20Z</time>
      </trkpt>
      <trkpt lat="44.49438" lon="1.64769">
        <ele>266.7</ele>
        <time>2022-05-07T13:13:21Z</time>
      </trkpt>
      <trkpt lat="44.49441" lon="1.64767">
        <ele>266.8</ele>
        <time>2022-05-07T13:13:22Z</time>
      </trkpt>
      <trkpt lat="44.49443" lon="1.64763">
        <ele>266.8</ele>
        <time>2022-05-07T13:13:23Z</time>
      </trkpt>
      <trkpt lat="44.49444" lon="1.6476">
        <ele>266.9</ele>
        <time>2022-05-07T13:13:24Z</time>
      </trkpt>
      <trkpt lat="44.49446" lon="1.64757">
        <ele>266.9</ele>
        <time>2022-05-07T13:13:25Z</time>
      </trkpt>
      <trkpt lat="44.49448" lon="1.64751">
        <ele>267</ele>
        <time>2022-05-07T13:13:27Z</time>
      </trkpt>
      <trkpt lat="44.49449" lon="1.64747">
        <ele>267.1</ele>
        <time>2022-05-07T13:13:28Z</time>
      </trkpt>
      <trkpt lat="44.49451" lon="1.64743">
        <ele>267.2</ele>
        <time>2022-05-07T13:13:29Z</time>
      </trkpt>
      <trkpt lat="44.49451" lon="1.64741">
        <ele>267.2</ele>
        <time>2022-05-07T13:13:30Z</time>
      </trkpt>
      <trkpt lat="44.49453" lon="1.6474">
        <ele>267.3</ele>
        <time>2022-05-07T13:13:31Z</time>
      </trkpt>
      <trkpt lat="44.49452" lon="1.6474">
        <ele>267.6</ele>
        <time>2022-05-07T13:13:32Z</time>
      </trkpt>
      <trkpt lat="44.49452" lon="1.6474">
        <ele>267.7</ele>
        <time>2022-05-07T13:13:33Z</time>
      </trkpt>
      <trkpt lat="44.49452" lon="1.6474">
        <ele>267.7</ele>
        <time>2022-05-07T13:13:34Z</time>
      </trkpt>
      <trkpt lat="44.49452" lon="1.6474">
        <ele>267.7</ele>
        <time>2022-05-07T13:13:35Z</time>
      </trkpt>
      <trkpt lat="44.49452" lon="1.6474">
        <ele>267.7</ele>
        <time>2022-05-07T13:13:36Z</time>
      </trkpt>
      <trkpt lat="44.49452" lon="1.6474">
        <ele>267.7</ele>
        <time>2022-05-07T13:13:37Z</time>
      </trkpt>
      <trkpt lat="44.49452" lon="1.6474">
        <ele>267.7</ele>
        <time>2022-05-07T13:13:38Z</time>
      </trkpt>
      <trkpt lat="44.49452" lon="1.6474">
        <ele>267.7</ele>
        <time>2022-05-07T13:13:39Z</time>
      </trkpt>
      <trkpt lat="44.49452" lon="1.6474">
        <ele>267.7</ele>
        <time>2022-05-07T13:13:40Z</time>
      </trkpt>
      <trkpt lat="44.49455" lon="1.64738">
        <ele>268.1</ele>
        <time>2022-05-07T13:16:11Z</time>
      </trkpt>
      <trkpt lat="44.49458" lon="1.64735">
        <ele>268.4</ele>
        <time>2022-05-07T13:16:12Z</time>
      </trkpt>
      <trkpt lat="44.4946" lon="1.64736">
        <ele>268.6</ele>
        <time>2022-05-07T13:16:13Z</time>
      </trkpt>
      <trkpt lat="44.49461" lon="1.64736">
        <ele>268.7</ele>
        <time>2022-05-07T13:16:14Z</time>
      </trkpt>
      <trkpt lat="44.49463" lon="1.64737">
        <ele>268.9</ele>
        <time>2022-05-07T13:16:16Z</time>
      </trkpt>
      <trkpt lat="44.49464" lon="1.64736">
        <ele>269.1</ele>
        <time>2022-05-07T13:16:17Z</time>
      </trkpt>
      <trkpt lat="44.49465" lon="1.64735">
        <ele>269.3</ele>
        <time>2022-05-07T13:16:18Z</time>
      </trkpt>
      <trkpt lat="44.49467" lon="1.64735">
        <ele>269.4</ele>
        <time>2022-05-07T13:16:19Z</time>
      </trkpt>
      <trkpt lat="44.49468" lon="1.64734">
        <ele>269.6</ele>
        <time>2022-05-07T13:16:20Z</time>
      </trkpt>
      <trkpt lat="44.49469" lon="1.64732">
        <ele>269.8</ele>
        <time>2022-05-07T13:16:21Z</time>
      </trkpt>
      <trkpt lat="44.49472" lon="1.64728">
        <ele>270.4</ele>
        <time>2022-05-07T13:16:23Z</time>
      </trkpt>
      <trkpt lat="44.49474" lon="1.64727">
        <ele>270.6</ele>
        <time>2022-05-07T13:16:24Z</time>
      </trkpt>
      <trkpt lat="44.49475" lon="1.64726">
        <ele>270.7</ele>
        <time>2022-05-07T13:16:25Z</time>
      </trkpt>
      <trkpt lat="44.49476" lon="1.64725">
        <ele>271</ele>
        <time>2022-05-07T13:16:26Z</time>
      </trkpt>
      <trkpt lat="44.49478" lon="1.64724">
        <ele>271.2</ele>
        <time>2022-05-07T13:16:28Z</time>
      </trkpt>
      <trkpt lat="44.4948" lon="1.64722">
        <ele>271.5</ele>
        <time>2022-05-07T13:16:29Z</time>
      </trkpt>
      <trkpt lat="44.49481" lon="1.64722">
        <ele>271.7</ele>
        <time>2022-05-07T13:16:30Z</time>
      </trkpt>
      <trkpt lat="44.49483" lon="1.6472">
        <ele>271.9</ele>
        <time>2022-05-07T13:16:31Z</time>
      </trkpt>
      <trkpt lat="44.49484" lon="1.64719">
        <ele>272.1</ele>
        <time>2022-05-07T13:16:32Z</time>
      </trkpt>
      <trkpt lat="44.49485" lon="1.64717">
        <ele>272.4</ele>
        <time>2022-05-07T13:16:33Z</time>
      </trkpt>
      <trkpt lat="44.49486" lon="1.64716">
        <ele>272.6</ele>
        <time>2022-05-07T13:16:35Z</time>
      </trkpt>
      <trkpt lat="44.49487" lon="1.64715">
        <ele>272.7</ele>
        <time>2022-05-07T13:16:36Z</time>
      </trkpt>
      <trkpt lat="44.49489" lon="1.64715">
        <ele>272.9</ele>
        <time>2022-05-07T13:16:37Z</time>
      </trkpt>
      <trkpt lat="44.4949" lon="1.64714">
        <ele>273.1</ele>
        <time>2022-05-07T13:16:38Z</time>
      </trkpt>
      <trkpt lat="44.49492" lon="1.64713">
        <ele>273.4</ele>
        <time>2022-05-07T13:16:39Z</time>
      </trkpt>
      <trkpt lat="44.49493" lon="1.64712">
        <ele>273.6</ele>
        <time>2022-05-07T13:16:41Z</time>
      </trkpt>
      <trkpt lat="44.49495" lon="1.6471">
        <ele>273.8</ele>
        <time>2022-05-07T13:16:42Z</time>
      </trkpt>
      <trkpt lat="44.49496" lon="1.64709">
        <ele>274</ele>
        <time>2022-05-07T13:16:43Z</time>
      </trkpt>
      <trkpt lat="44.49498" lon="1.64709">
        <ele>274.3</ele>
        <time>2022-05-07T13:16:44Z</time>
      </trkpt>
      <trkpt lat="44.49499" lon="1.64709">
        <ele>274.5</ele>
        <time>2022-05-07T13:16:45Z</time>
      </trkpt>
      <trkpt lat="44.49501" lon="1.64709">
        <ele>274.7</ele>
        <time>2022-05-07T13:16:47Z</time>
      </trkpt>
      <trkpt lat="44.49503" lon="1.64708">
        <ele>275</ele>
        <time>2022-05-07T13:16:48Z</time>
      </trkpt>
      <trkpt lat="44.49504" lon="1.64707">
        <ele>275.3</ele>
        <time>2022-05-07T13:16:49Z</time>
      </trkpt>
      <trkpt lat="44.49506" lon="1.64706">
        <ele>275.5</ele>
        <time>2022-05-07T13:16:50Z</time>
      </trkpt>
      <trkpt lat="44.49508" lon="1.64705">
        <ele>275.9</ele>
        <time>2022-05-07T13:16:51Z</time>
      </trkpt>
      <trkpt lat="44.49509" lon="1.64705">
        <ele>276</ele>
        <time>2022-05-07T13:16:53Z</time>
      </trkpt>
      <trkpt lat="44.49509" lon="1.64704">
        <ele>276.1</ele>
        <time>2022-05-07T13:16:54Z</time>
      </trkpt>
      <trkpt lat="44.4951" lon="1.64704">
        <ele>276.3</ele>
        <time>2022-05-07T13:16:55Z</time>
      </trkpt>
      <trkpt lat="44.49511" lon="1.64704">
        <ele>276.5</ele>
        <time>2022-05-07T13:16:56Z</time>
      </trkpt>
      <trkpt lat="44.49512" lon="1.64704">
        <ele>276.6</ele>
        <time>2022-05-07T13:16:57Z</time>
      </trkpt>
      <trkpt lat="44.49514" lon="1.64703">
        <ele>276.9</ele>
        <time>2022-05-07T13:16:58Z</time>
      </trkpt>
      <trkpt lat="44.49516" lon="1.64701">
        <ele>277.3</ele>
        <time>2022-05-07T13:17:00Z</time>
      </trkpt>
      <trkpt lat="44.49519" lon="1.647">
        <ele>277.8</ele>
        <time>2022-05-07T13:17:02Z</time>
      </trkpt>
      <trkpt lat="44.4952" lon="1.647">
        <ele>277.9</ele>
        <time>2022-05-07T13:17:03Z</time>
      </trkpt>
      <trkpt lat="44.4952" lon="1.647">
        <ele>278</ele>
        <time>2022-05-07T13:17:04Z</time>
      </trkpt>
      <trkpt lat="44.4952" lon="1.647">
        <ele>278</ele>
        <time>2022-05-07T13:17:06Z</time>
      </trkpt>
      <trkpt lat="44.4952" lon="1.64701">
        <ele>278.1</ele>
        <time>2022-05-07T13:17:07Z</time>
      </trkpt>
      <trkpt lat="44.49521" lon="1.647">
        <ele>278.1</ele>
        <time>2022-05-07T13:17:08Z</time>
      </trkpt>
      <trkpt lat="44.49521" lon="1.647">
        <ele>278.2</ele>
        <time>2022-05-07T13:17:09Z</time>
      </trkpt>
      <trkpt lat="44.49521" lon="1.647">
        <ele>278.2</ele>
        <time>2022-05-07T13:17:10Z</time>
      </trkpt>
      <trkpt lat="44.49523" lon="1.647">
        <ele>278.4</ele>
        <time>2022-05-07T13:17:11Z</time>
      </trkpt>
      <trkpt lat="44.49526" lon="1.64697">
        <ele>279</ele>
        <time>2022-05-07T13:17:13Z</time>
      </trkpt>
      <trkpt lat="44.49528" lon="1.64695">
        <ele>279.4</ele>
        <time>2022-05-07T13:17:14Z</time>
      </trkpt>
      <trkpt lat="44.49531" lon="1.64694">
        <ele>279.8</ele>
        <time>2022-05-07T13:17:16Z</time>
      </trkpt>
      <trkpt lat="44.49532" lon="1.64693">
        <ele>280</ele>
        <time>2022-05-07T13:17:17Z</time>
      </trkpt>
      <trkpt lat="44.49533" lon="1.64693">
        <ele>280.1</ele>
        <time>2022-05-07T13:17:19Z</time>
      </trkpt>
      <trkpt lat="44.49534" lon="1.64692">
        <ele>280.3</ele>
        <time>2022-05-07T13:17:20Z</time>
      </trkpt>
      <trkpt lat="44.49535" lon="1.64691">
        <ele>280.5</ele>
        <time>2022-05-07T13:17:21Z</time>
      </trkpt>
      <trkpt lat="44.49537" lon="1.6469">
        <ele>280.7</ele>
        <time>2022-05-07T13:17:22Z</time>
      </trkpt>
      <trkpt lat="44.49538" lon="1.64689">
        <ele>280.9</ele>
        <time>2022-05-07T13:17:23Z</time>
      </trkpt>
      <trkpt lat="44.49539" lon="1.64689">
        <ele>281.1</ele>
        <time>2022-05-07T13:17:24Z</time>
      </trkpt>
      <trkpt lat="44.49539" lon="1.64689">
        <ele>281.1</ele>
        <time>2022-05-07T13:17:25Z</time>
      </trkpt>
      <trkpt lat="44.49541" lon="1.64687">
        <ele>281.6</ele>
        <time>2022-05-07T13:17:27Z</time>
      </trkpt>
      <trkpt lat="44.49543" lon="1.64685">
        <ele>281.8</ele>
        <time>2022-05-07T13:17:28Z</time>
      </trkpt>
      <trkpt lat="44.49544" lon="1.64684">
        <ele>282.1</ele>
        <time>2022-05-07T13:17:29Z</time>
      </trkpt>
      <trkpt lat="44.49546" lon="1.64683">
        <ele>282.4</ele>
        <time>2022-05-07T13:17:30Z</time>
      </trkpt>
      <trkpt lat="44.49547" lon="1.64682">
        <ele>282.5</ele>
        <time>2022-05-07T13:17:32Z</time>
      </trkpt>
      <trkpt lat="44.49547" lon="1.64682">
        <ele>282.6</ele>
        <time>2022-05-07T13:17:33Z</time>
      </trkpt>
      <trkpt lat="44.49548" lon="1.64682">
        <ele>282.8</ele>
        <time>2022-05-07T13:17:34Z</time>
      </trkpt>
      <trkpt lat="44.4955" lon="1.64681">
        <ele>283.1</ele>
        <time>2022-05-07T13:17:35Z</time>
      </trkpt>
      <trkpt lat="44.49551" lon="1.6468">
        <ele>283.2</ele>
        <time>2022-05-07T13:17:36Z</time>
      </trkpt>
      <trkpt lat="44.49552" lon="1.6468">
        <ele>283.3</ele>
        <time>2022-05-07T13:17:37Z</time>
      </trkpt>
      <trkpt lat="44.49552" lon="1.6468">
        <ele>283.3</ele>
        <time>2022-05-07T13:17:38Z</time>
      </trkpt>
      <trkpt lat="44.49552" lon="1.6468">
        <ele>283.4</ele>
        <time>2022-05-07T13:17:39Z</time>
      </trkpt>
      <trkpt lat="44.49552" lon="1.6468">
        <ele>283.4</ele>
        <time>2022-05-07T13:17:40Z</time>
      </trkpt>
      <trkpt lat="44.49553" lon="1.64679">
        <ele>283.5</ele>
        <time>2022-05-07T13:17:41Z</time>
      </trkpt>
      <trkpt lat="44.49553" lon="1.64679">
        <ele>283.5</ele>
        <time>2022-05-07T13:17:42Z</time>
      </trkpt>
      <trkpt lat="44.49553" lon="1.64679">
        <ele>283.5</ele>
        <time>2022-05-07T13:17:43Z</time>
      </trkpt>
      <trkpt lat="44.49554" lon="1.64679">
        <ele>283.7</ele>
        <time>2022-05-07T13:17:45Z</time>
      </trkpt>
      <trkpt lat="44.49557" lon="1.64675">
        <ele>284.2</ele>
        <time>2022-05-07T13:17:46Z</time>
      </trkpt>
      <trkpt lat="44.4956" lon="1.64672">
        <ele>284.8</ele>
        <time>2022-05-07T13:17:47Z</time>
      </trkpt>
      <trkpt lat="44.49561" lon="1.64671">
        <ele>285</ele>
        <time>2022-05-07T13:17:48Z</time>
      </trkpt>
      <trkpt lat="44.49562" lon="1.64669">
        <ele>285.3</ele>
        <time>2022-05-07T13:17:49Z</time>
      </trkpt>
      <trkpt lat="44.49565" lon="1.64666">
        <ele>285.9</ele>
        <time>2022-05-07T13:17:51Z</time>
      </trkpt>
      <trkpt lat="44.49568" lon="1.64665">
        <ele>286.3</ele>
        <time>2022-05-07T13:17:52Z</time>
      </trkpt>
      <trkpt lat="44.4957" lon="1.64663">
        <ele>286.8</ele>
        <time>2022-05-07T13:17:53Z</time>
      </trkpt>
      <trkpt lat="44.49573" lon="1.64662">
        <ele>287.3</ele>
        <time>2022-05-07T13:17:55Z</time>
      </trkpt>
      <trkpt lat="44.49575" lon="1.64661">
        <ele>287.5</ele>
        <time>2022-05-07T13:17:56Z</time>
      </trkpt>
      <trkpt lat="44.49576" lon="1.64661">
        <ele>287.7</ele>
        <time>2022-05-07T13:17:57Z</time>
      </trkpt>
      <trkpt lat="44.49577" lon="1.6466">
        <ele>287.9</ele>
        <time>2022-05-07T13:17:58Z</time>
      </trkpt>
      <trkpt lat="44.49578" lon="1.64659">
        <ele>288.1</ele>
        <time>2022-05-07T13:17:59Z</time>
      </trkpt>
      <trkpt lat="44.49578" lon="1.64658">
        <ele>288.1</ele>
        <time>2022-05-07T13:18:00Z</time>
      </trkpt>
      <trkpt lat="44.49581" lon="1.64657">
        <ele>288.5</ele>
        <time>2022-05-07T13:18:01Z</time>
      </trkpt>
      <trkpt lat="44.49583" lon="1.64656">
        <ele>288.9</ele>
        <time>2022-05-07T13:18:02Z</time>
      </trkpt>
      <trkpt lat="44.49585" lon="1.64654">
        <ele>289.2</ele>
        <time>2022-05-07T13:18:04Z</time>
      </trkpt>
      <trkpt lat="44.49588" lon="1.64653">
        <ele>289.5</ele>
        <time>2022-05-07T13:18:05Z</time>
      </trkpt>
      <trkpt lat="44.4959" lon="1.64652">
        <ele>289.8</ele>
        <time>2022-05-07T13:18:07Z</time>
      </trkpt>
      <trkpt lat="44.49592" lon="1.64651">
        <ele>290.1</ele>
        <time>2022-05-07T13:18:08Z</time>
      </trkpt>
      <trkpt lat="44.49594" lon="1.64649">
        <ele>290.4</ele>
        <time>2022-05-07T13:18:10Z</time>
      </trkpt>
      <trkpt lat="44.49597" lon="1.64648">
        <ele>290.7</ele>
        <time>2022-05-07T13:18:19Z</time>
      </trkpt>
      <trkpt lat="44.49599" lon="1.64647">
        <ele>291.1</ele>
        <time>2022-05-07T13:18:20Z</time>
      </trkpt>
      <trkpt lat="44.49601" lon="1.64645">
        <ele>291.4</ele>
        <time>2022-05-07T13:18:21Z</time>
      </trkpt>
      <trkpt lat="44.49602" lon="1.64645">
        <ele>291.5</ele>
        <time>2022-05-07T13:18:23Z</time>
      </trkpt>
      <trkpt lat="44.49603" lon="1.64645">
        <ele>291.6</ele>
        <time>2022-05-07T13:18:24Z</time>
      </trkpt>
      <trkpt lat="44.49603" lon="1.64644">
        <ele>291.7</ele>
        <time>2022-05-07T13:18:25Z</time>
      </trkpt>
      <trkpt lat="44.49604" lon="1.64644">
        <ele>291.8</ele>
        <time>2022-05-07T13:18:26Z</time>
      </trkpt>
      <trkpt lat="44.49604" lon="1.64644">
        <ele>291.8</ele>
        <time>2022-05-07T13:18:27Z</time>
      </trkpt>
      <trkpt lat="44.49604" lon="1.64644">
        <ele>291.9</ele>
        <time>2022-05-07T13:18:28Z</time>
      </trkpt>
      <trkpt lat="44.49605" lon="1.64644">
        <ele>291.9</ele>
        <time>2022-05-07T13:18:29Z</time>
      </trkpt>
      <trkpt lat="44.49605" lon="1.64644">
        <ele>291.9</ele>
        <time>2022-05-07T13:18:30Z</time>
      </trkpt>
      <trkpt lat="44.49605" lon="1.64644">
        <ele>292</ele>
        <time>2022-05-07T13:18:32Z</time>
      </trkpt>
      <trkpt lat="44.49609" lon="1.64643">
        <ele>292.5</ele>
        <time>2022-05-07T13:19:39Z</time>
      </trkpt>
      <trkpt lat="44.49611" lon="1.64642">
        <ele>292.8</ele>
        <time>2022-05-07T13:19:40Z</time>
      </trkpt>
      <trkpt lat="44.49612" lon="1.64641">
        <ele>293</ele>
        <time>2022-05-07T13:19:41Z</time>
      </trkpt>
      <trkpt lat="44.49613" lon="1.6464">
        <ele>293.2</ele>
        <time>2022-05-07T13:19:42Z</time>
      </trkpt>
      <trkpt lat="44.49614" lon="1.64639">
        <ele>293.4</ele>
        <time>2022-05-07T13:19:43Z</time>
      </trkpt>
      <trkpt lat="44.49617" lon="1.64636">
        <ele>293.9</ele>
        <time>2022-05-07T13:19:44Z</time>
      </trkpt>
      <trkpt lat="44.49618" lon="1.64635">
        <ele>294.1</ele>
        <time>2022-05-07T13:19:46Z</time>
      </trkpt>
      <trkpt lat="44.49619" lon="1.64634">
        <ele>294.2</ele>
        <time>2022-05-07T13:19:47Z</time>
      </trkpt>
      <trkpt lat="44.4962" lon="1.64633">
        <ele>294.4</ele>
        <time>2022-05-07T13:19:48Z</time>
      </trkpt>
      <trkpt lat="44.4962" lon="1.64632">
        <ele>294.6</ele>
        <time>2022-05-07T13:19:49Z</time>
      </trkpt>
      <trkpt lat="44.49622" lon="1.6463">
        <ele>294.9</ele>
        <time>2022-05-07T13:19:50Z</time>
      </trkpt>
      <trkpt lat="44.49624" lon="1.64628">
        <ele>295.3</ele>
        <time>2022-05-07T13:19:52Z</time>
      </trkpt>
      <trkpt lat="44.49627" lon="1.64626">
        <ele>295.7</ele>
        <time>2022-05-07T13:19:53Z</time>
      </trkpt>
      <trkpt lat="44.49628" lon="1.64625">
        <ele>295.9</ele>
        <time>2022-05-07T13:19:54Z</time>
      </trkpt>
      <trkpt lat="44.4963" lon="1.64624">
        <ele>296.2</ele>
        <time>2022-05-07T13:19:55Z</time>
      </trkpt>
      <trkpt lat="44.49631" lon="1.64623">
        <ele>296.4</ele>
        <time>2022-05-07T13:19:56Z</time>
      </trkpt>
      <trkpt lat="44.49634" lon="1.64621">
        <ele>296.8</ele>
        <time>2022-05-07T13:19:58Z</time>
      </trkpt>
      <trkpt lat="44.49635" lon="1.6462">
        <ele>297</ele>
        <time>2022-05-07T13:19:59Z</time>
      </trkpt>
      <trkpt lat="44.49637" lon="1.6462">
        <ele>297.2</ele>
        <time>2022-05-07T13:20:00Z</time>
      </trkpt>
      <trkpt lat="44.49638" lon="1.64619">
        <ele>297.4</ele>
        <time>2022-05-07T13:20:01Z</time>
      </trkpt>
      <trkpt lat="44.4964" lon="1.64618">
        <ele>297.6</ele>
        <time>2022-05-07T13:20:02Z</time>
      </trkpt>
      <trkpt lat="44.49642" lon="1.64618">
        <ele>297.9</ele>
        <time>2022-05-07T13:20:03Z</time>
      </trkpt>
      <trkpt lat="44.49645" lon="1.64619">
        <ele>298.3</ele>
        <time>2022-05-07T13:20:05Z</time>
      </trkpt>
      <trkpt lat="44.49646" lon="1.64619">
        <ele>298.4</ele>
        <time>2022-05-07T13:20:06Z</time>
      </trkpt>
      <trkpt lat="44.49648" lon="1.64618">
        <ele>298.7</ele>
        <time>2022-05-07T13:20:07Z</time>
      </trkpt>
      <trkpt lat="44.49649" lon="1.64618">
        <ele>298.8</ele>
        <time>2022-05-07T13:20:08Z</time>
      </trkpt>
      <trkpt lat="44.49651" lon="1.64616">
        <ele>299.1</ele>
        <time>2022-05-07T13:20:09Z</time>
      </trkpt>
      <trkpt lat="44.49652" lon="1.64615">
        <ele>299.2</ele>
        <time>2022-05-07T13:20:10Z</time>
      </trkpt>
      <trkpt lat="44.49652" lon="1.64614">
        <ele>299.3</ele>
        <time>2022-05-07T13:20:11Z</time>
      </trkpt>
      <trkpt lat="44.49654" lon="1.64613">
        <ele>299.6</ele>
        <time>2022-05-07T13:20:13Z</time>
      </trkpt>
      <trkpt lat="44.49654" lon="1.64613">
        <ele>299.6</ele>
        <time>2022-05-07T13:20:14Z</time>
      </trkpt>
      <trkpt lat="44.49656" lon="1.64612">
        <ele>299.9</ele>
        <time>2022-05-07T13:20:16Z</time>
      </trkpt>
      <trkpt lat="44.49659" lon="1.64611">
        <ele>300.2</ele>
        <time>2022-05-07T13:20:17Z</time>
      </trkpt>
      <trkpt lat="44.49663" lon="1.64609">
        <ele>300.6</ele>
        <time>2022-05-07T13:20:19Z</time>
      </trkpt>
      <trkpt lat="44.49666" lon="1.64607">
        <ele>301</ele>
        <time>2022-05-07T13:20:20Z</time>
      </trkpt>
      <trkpt lat="44.49667" lon="1.64606">
        <ele>301.1</ele>
        <time>2022-05-07T13:20:21Z</time>
      </trkpt>
      <trkpt lat="44.49669" lon="1.64605">
        <ele>301.3</ele>
        <time>2022-05-07T13:20:22Z</time>
      </trkpt>
      <trkpt lat="44.49671" lon="1.64603">
        <ele>301.5</ele>
        <time>2022-05-07T13:20:24Z</time>
      </trkpt>
      <trkpt lat="44.49673" lon="1.64601">
        <ele>301.8</ele>
        <time>2022-05-07T13:20:25Z</time>
      </trkpt>
      <trkpt lat="44.49674" lon="1.646">
        <ele>301.9</ele>
        <time>2022-05-07T13:20:26Z</time>
      </trkpt>
      <trkpt lat="44.49676" lon="1.64598">
        <ele>302.2</ele>
        <time>2022-05-07T13:20:27Z</time>
      </trkpt>
      <trkpt lat="44.49677" lon="1.64597">
        <ele>302.3</ele>
        <time>2022-05-07T13:20:28Z</time>
      </trkpt>
      <trkpt lat="44.49679" lon="1.64594">
        <ele>302.6</ele>
        <time>2022-05-07T13:20:30Z</time>
      </trkpt>
      <trkpt lat="44.4968" lon="1.64593">
        <ele>302.7</ele>
        <time>2022-05-07T13:20:31Z</time>
      </trkpt>
      <trkpt lat="44.49682" lon="1.6459">
        <ele>303.1</ele>
        <time>2022-05-07T13:20:32Z</time>
      </trkpt>
      <trkpt lat="44.49683" lon="1.64589">
        <ele>303.2</ele>
        <time>2022-05-07T13:20:33Z</time>
      </trkpt>
      <trkpt lat="44.49683" lon="1.64587">
        <ele>303.3</ele>
        <time>2022-05-07T13:20:34Z</time>
      </trkpt>
      <trkpt lat="44.49684" lon="1.64584">
        <ele>303.5</ele>
        <time>2022-05-07T13:20:35Z</time>
      </trkpt>
      <trkpt lat="44.49685" lon="1.64582">
        <ele>303.7</ele>
        <time>2022-05-07T13:20:37Z</time>
      </trkpt>
      <trkpt lat="44.49686" lon="1.64581">
        <ele>303.9</ele>
        <time>2022-05-07T13:20:38Z</time>
      </trkpt>
      <trkpt lat="44.49688" lon="1.64577">
        <ele>304.2</ele>
        <time>2022-05-07T13:20:39Z</time>
      </trkpt>
      <trkpt lat="44.49688" lon="1.64576">
        <ele>304.3</ele>
        <time>2022-05-07T13:20:40Z</time>
      </trkpt>
      <trkpt lat="44.49691" lon="1.64574">
        <ele>304.6</ele>
        <time>2022-05-07T13:20:41Z</time>
      </trkpt>
      <trkpt lat="44.49692" lon="1.64574">
        <ele>304.7</ele>
        <time>2022-05-07T13:20:42Z</time>
      </trkpt>
      <trkpt lat="44.49694" lon="1.64571">
        <ele>305</ele>
        <time>2022-05-07T13:20:44Z</time>
      </trkpt>
      <trkpt lat="44.49695" lon="1.64569">
        <ele>305.2</ele>
        <time>2022-05-07T13:20:45Z</time>
      </trkpt>
      <trkpt lat="44.49696" lon="1.64568">
        <ele>305.3</ele>
        <time>2022-05-07T13:20:46Z</time>
      </trkpt>
      <trkpt lat="44.49697" lon="1.64566">
        <ele>305.5</ele>
        <time>2022-05-07T13:20:47Z</time>
      </trkpt>
      <trkpt lat="44.49697" lon="1.64564">
        <ele>305.7</ele>
        <time>2022-05-07T13:20:48Z</time>
      </trkpt>
      <trkpt lat="44.497" lon="1.64561">
        <ele>306</ele>
        <time>2022-05-07T13:20:49Z</time>
      </trkpt>
      <trkpt lat="44.497" lon="1.6456">
        <ele>306.1</ele>
        <time>2022-05-07T13:20:50Z</time>
      </trkpt>
      <trkpt lat="44.49703" lon="1.64556">
        <ele>306.5</ele>
        <time>2022-05-07T13:20:52Z</time>
      </trkpt>
      <trkpt lat="44.49704" lon="1.64555">
        <ele>306.6</ele>
        <time>2022-05-07T13:20:53Z</time>
      </trkpt>
      <trkpt lat="44.49705" lon="1.64555">
        <ele>306.8</ele>
        <time>2022-05-07T13:20:54Z</time>
      </trkpt>
      <trkpt lat="44.49706" lon="1.64554">
        <ele>306.9</ele>
        <time>2022-05-07T13:20:55Z</time>
      </trkpt>
      <trkpt lat="44.49707" lon="1.64552">
        <ele>307.1</ele>
        <time>2022-05-07T13:20:57Z</time>
      </trkpt>
      <trkpt lat="44.49708" lon="1.64548">
        <ele>307.5</ele>
        <time>2022-05-07T13:20:58Z</time>
      </trkpt>
      <trkpt lat="44.49709" lon="1.64547">
        <ele>307.6</ele>
        <time>2022-05-07T13:20:59Z</time>
      </trkpt>
      <trkpt lat="44.4971" lon="1.64546">
        <ele>307.7</ele>
        <time>2022-05-07T13:21:00Z</time>
      </trkpt>
      <trkpt lat="44.49712" lon="1.64545">
        <ele>308</ele>
        <time>2022-05-07T13:21:02Z</time>
      </trkpt>
      <trkpt lat="44.49713" lon="1.64543">
        <ele>308.2</ele>
        <time>2022-05-07T13:21:03Z</time>
      </trkpt>
      <trkpt lat="44.49714" lon="1.64542">
        <ele>308.3</ele>
        <time>2022-05-07T13:21:04Z</time>
      </trkpt>
      <trkpt lat="44.49715" lon="1.64541">
        <ele>308.5</ele>
        <time>2022-05-07T13:21:05Z</time>
      </trkpt>
      <trkpt lat="44.49716" lon="1.64539">
        <ele>308.6</ele>
        <time>2022-05-07T13:21:06Z</time>
      </trkpt>
      <trkpt lat="44.49718" lon="1.64538">
        <ele>308.8</ele>
        <time>2022-05-07T13:21:08Z</time>
      </trkpt>
      <trkpt lat="44.49719" lon="1.64537">
        <ele>309</ele>
        <time>2022-05-07T13:21:09Z</time>
      </trkpt>
      <trkpt lat="44.49721" lon="1.64534">
        <ele>309.3</ele>
        <time>2022-05-07T13:21:10Z</time>
      </trkpt>
      <trkpt lat="44.49722" lon="1.64533">
        <ele>309.4</ele>
        <time>2022-05-07T13:21:11Z</time>
      </trkpt>
      <trkpt lat="44.49724" lon="1.64532">
        <ele>309.5</ele>
        <time>2022-05-07T13:21:12Z</time>
      </trkpt>
      <trkpt lat="44.49725" lon="1.64531">
        <ele>309.7</ele>
        <time>2022-05-07T13:21:13Z</time>
      </trkpt>
      <trkpt lat="44.49726" lon="1.6453">
        <ele>309.8</ele>
        <time>2022-05-07T13:21:15Z</time>
      </trkpt>
      <trkpt lat="44.49728" lon="1.64528">
        <ele>309.9</ele>
        <time>2022-05-07T13:21:16Z</time>
      </trkpt>
      <trkpt lat="44.49729" lon="1.64527">
        <ele>310.1</ele>
        <time>2022-05-07T13:21:17Z</time>
      </trkpt>
      <trkpt lat="44.49731" lon="1.64527">
        <ele>310.2</ele>
        <time>2022-05-07T13:21:18Z</time>
      </trkpt>
      <trkpt lat="44.49732" lon="1.64526">
        <ele>310.4</ele>
        <time>2022-05-07T13:21:19Z</time>
      </trkpt>
      <trkpt lat="44.49734" lon="1.64523">
        <ele>310.6</ele>
        <time>2022-05-07T13:21:21Z</time>
      </trkpt>
      <trkpt lat="44.49734" lon="1.64522">
        <ele>310.7</ele>
        <time>2022-05-07T13:21:22Z</time>
      </trkpt>
      <trkpt lat="44.49736" lon="1.64521">
        <ele>310.9</ele>
        <time>2022-05-07T13:21:23Z</time>
      </trkpt>
      <trkpt lat="44.49738" lon="1.64519">
        <ele>311.1</ele>
        <time>2022-05-07T13:21:24Z</time>
      </trkpt>
      <trkpt lat="44.49739" lon="1.64518">
        <ele>311.2</ele>
        <time>2022-05-07T13:21:25Z</time>
      </trkpt>
      <trkpt lat="44.4974" lon="1.64517">
        <ele>311.3</ele>
        <time>2022-05-07T13:21:26Z</time>
      </trkpt>
      <trkpt lat="44.4974" lon="1.64517">
        <ele>311.4</ele>
        <time>2022-05-07T13:21:27Z</time>
      </trkpt>
      <trkpt lat="44.49742" lon="1.64516">
        <ele>311.6</ele>
        <time>2022-05-07T13:21:29Z</time>
      </trkpt>
      <trkpt lat="44.49743" lon="1.64514">
        <ele>311.8</ele>
        <time>2022-05-07T13:21:30Z</time>
      </trkpt>
      <trkpt lat="44.49743" lon="1.64512">
        <ele>311.9</ele>
        <time>2022-05-07T13:21:31Z</time>
      </trkpt>
      <trkpt lat="44.49744" lon="1.64511">
        <ele>312</ele>
        <time>2022-05-07T13:21:32Z</time>
      </trkpt>
      <trkpt lat="44.49744" lon="1.6451">
        <ele>312.1</ele>
        <time>2022-05-07T13:21:33Z</time>
      </trkpt>
      <trkpt lat="44.49744" lon="1.6451">
        <ele>312.1</ele>
        <time>2022-05-07T13:21:34Z</time>
      </trkpt>
      <trkpt lat="44.49745" lon="1.64508">
        <ele>312.3</ele>
        <time>2022-05-07T13:21:35Z</time>
      </trkpt>
      <trkpt lat="44.49747" lon="1.64504">
        <ele>312.5</ele>
        <time>2022-05-07T13:21:36Z</time>
      </trkpt>
      <trkpt lat="44.49748" lon="1.64502">
        <ele>312.6</ele>
        <time>2022-05-07T13:21:37Z</time>
      </trkpt>
      <trkpt lat="44.49749" lon="1.64501">
        <ele>312.8</ele>
        <time>2022-05-07T13:21:38Z</time>
      </trkpt>
      <trkpt lat="44.49751" lon="1.645">
        <ele>312.9</ele>
        <time>2022-05-07T13:21:40Z</time>
      </trkpt>
      <trkpt lat="44.49753" lon="1.64497">
        <ele>313.1</ele>
        <time>2022-05-07T13:21:41Z</time>
      </trkpt>
      <trkpt lat="44.49754" lon="1.64497">
        <ele>313.2</ele>
        <time>2022-05-07T13:21:42Z</time>
      </trkpt>
      <trkpt lat="44.49755" lon="1.64495">
        <ele>313.3</ele>
        <time>2022-05-07T13:21:43Z</time>
      </trkpt>
      <trkpt lat="44.49756" lon="1.64494">
        <ele>313.4</ele>
        <time>2022-05-07T13:21:44Z</time>
      </trkpt>
      <trkpt lat="44.49758" lon="1.64492">
        <ele>313.6</ele>
        <time>2022-05-07T13:21:45Z</time>
      </trkpt>
      <trkpt lat="44.49759" lon="1.64491">
        <ele>313.7</ele>
        <time>2022-05-07T13:21:46Z</time>
      </trkpt>
      <trkpt lat="44.4976" lon="1.6449">
        <ele>313.8</ele>
        <time>2022-05-07T13:21:47Z</time>
      </trkpt>
      <trkpt lat="44.49761" lon="1.64489">
        <ele>313.9</ele>
        <time>2022-05-07T13:21:48Z</time>
      </trkpt>
      <trkpt lat="44.49762" lon="1.64487">
        <ele>314</ele>
        <time>2022-05-07T13:21:49Z</time>
      </trkpt>
      <trkpt lat="44.49763" lon="1.64486">
        <ele>314.1</ele>
        <time>2022-05-07T13:21:50Z</time>
      </trkpt>
      <trkpt lat="44.49766" lon="1.64484">
        <ele>314.4</ele>
        <time>2022-05-07T13:21:51Z</time>
      </trkpt>
      <trkpt lat="44.49767" lon="1.64483">
        <ele>314.5</ele>
        <time>2022-05-07T13:21:53Z</time>
      </trkpt>
      <trkpt lat="44.49768" lon="1.64482">
        <ele>314.7</ele>
        <time>2022-05-07T13:21:54Z</time>
      </trkpt>
      <trkpt lat="44.4977" lon="1.64481">
        <ele>314.8</ele>
        <time>2022-05-07T13:21:55Z</time>
      </trkpt>
      <trkpt lat="44.49772" lon="1.64479">
        <ele>315</ele>
        <time>2022-05-07T13:21:56Z</time>
      </trkpt>
      <trkpt lat="44.49773" lon="1.64479">
        <ele>315.1</ele>
        <time>2022-05-07T13:21:57Z</time>
      </trkpt>
      <trkpt lat="44.49773" lon="1.64479">
        <ele>315.1</ele>
        <time>2022-05-07T13:21:58Z</time>
      </trkpt>
      <trkpt lat="44.49774" lon="1.64478">
        <ele>315.2</ele>
        <time>2022-05-07T13:21:59Z</time>
      </trkpt>
      <trkpt lat="44.49775" lon="1.64477">
        <ele>315.4</ele>
        <time>2022-05-07T13:22:00Z</time>
      </trkpt>
      <trkpt lat="44.49776" lon="1.64476">
        <ele>315.4</ele>
        <time>2022-05-07T13:22:01Z</time>
      </trkpt>
      <trkpt lat="44.49777" lon="1.64474">
        <ele>315.6</ele>
        <time>2022-05-07T13:22:02Z</time>
      </trkpt>
      <trkpt lat="44.49777" lon="1.64472">
        <ele>315.7</ele>
        <time>2022-05-07T13:22:03Z</time>
      </trkpt>
      <trkpt lat="44.49778" lon="1.64471">
        <ele>315.8</ele>
        <time>2022-05-07T13:22:04Z</time>
      </trkpt>
      <trkpt lat="44.49779" lon="1.64469">
        <ele>315.9</ele>
        <time>2022-05-07T13:22:05Z</time>
      </trkpt>
      <trkpt lat="44.4978" lon="1.64465">
        <ele>316.1</ele>
        <time>2022-05-07T13:22:07Z</time>
      </trkpt>
      <trkpt lat="44.4978" lon="1.64463">
        <ele>316.3</ele>
        <time>2022-05-07T13:22:08Z</time>
      </trkpt>
      <trkpt lat="44.49781" lon="1.64461">
        <ele>316.4</ele>
        <time>2022-05-07T13:22:09Z</time>
      </trkpt>
      <trkpt lat="44.49781" lon="1.64459">
        <ele>316.5</ele>
        <time>2022-05-07T13:22:10Z</time>
      </trkpt>
      <trkpt lat="44.49782" lon="1.64459">
        <ele>316.5</ele>
        <time>2022-05-07T13:22:12Z</time>
      </trkpt>
      <trkpt lat="44.49782" lon="1.64458">
        <ele>316.6</ele>
        <time>2022-05-07T13:22:13Z</time>
      </trkpt>
      <trkpt lat="44.49783" lon="1.64458">
        <ele>316.6</ele>
        <time>2022-05-07T13:22:14Z</time>
      </trkpt>
      <trkpt lat="44.49783" lon="1.64457">
        <ele>316.7</ele>
        <time>2022-05-07T13:22:15Z</time>
      </trkpt>
      <trkpt lat="44.49784" lon="1.64457">
        <ele>316.7</ele>
        <time>2022-05-07T13:22:16Z</time>
      </trkpt>
      <trkpt lat="44.49786" lon="1.64453">
        <ele>317</ele>
        <time>2022-05-07T13:22:17Z</time>
      </trkpt>
      <trkpt lat="44.49786" lon="1.64452">
        <ele>317.1</ele>
        <time>2022-05-07T13:22:18Z</time>
      </trkpt>
      <trkpt lat="44.49789" lon="1.64449">
        <ele>317.4</ele>
        <time>2022-05-07T13:22:19Z</time>
      </trkpt>
      <trkpt lat="44.4979" lon="1.64449">
        <ele>317.6</ele>
        <time>2022-05-07T13:22:20Z</time>
      </trkpt>
      <trkpt lat="44.49791" lon="1.64447">
        <ele>317.8</ele>
        <time>2022-05-07T13:22:21Z</time>
      </trkpt>
      <trkpt lat="44.49793" lon="1.64446">
        <ele>318</ele>
        <time>2022-05-07T13:22:22Z</time>
      </trkpt>
      <trkpt lat="44.49794" lon="1.64445">
        <ele>318.2</ele>
        <time>2022-05-07T13:22:23Z</time>
      </trkpt>
      <trkpt lat="44.49795" lon="1.64445">
        <ele>318.3</ele>
        <time>2022-05-07T13:22:24Z</time>
      </trkpt>
      <trkpt lat="44.49795" lon="1.64445">
        <ele>318.5</ele>
        <time>2022-05-07T13:22:25Z</time>
      </trkpt>
      <trkpt lat="44.49795" lon="1.64445">
        <ele>318.5</ele>
        <time>2022-05-07T13:22:26Z</time>
      </trkpt>
      <trkpt lat="44.49796" lon="1.64445">
        <ele>318.5</ele>
        <time>2022-05-07T13:22:27Z</time>
      </trkpt>
      <trkpt lat="44.49797" lon="1.64445">
        <ele>318.5</ele>
        <time>2022-05-07T13:22:28Z</time>
      </trkpt>
      <trkpt lat="44.49799" lon="1.64445">
        <ele>318.6</ele>
        <time>2022-05-07T13:22:29Z</time>
      </trkpt>
      <trkpt lat="44.498" lon="1.64444">
        <ele>318.8</ele>
        <time>2022-05-07T13:22:30Z</time>
      </trkpt>
      <trkpt lat="44.498" lon="1.64443">
        <ele>318.9</ele>
        <time>2022-05-07T13:22:31Z</time>
      </trkpt>
      <trkpt lat="44.49801" lon="1.64443">
        <ele>318.9</ele>
        <time>2022-05-07T13:22:33Z</time>
      </trkpt>
      <trkpt lat="44.49801" lon="1.64442">
        <ele>319</ele>
        <time>2022-05-07T13:22:34Z</time>
      </trkpt>
      <trkpt lat="44.49801" lon="1.64442">
        <ele>319.1</ele>
        <time>2022-05-07T13:22:35Z</time>
      </trkpt>
      <trkpt lat="44.49802" lon="1.64441">
        <ele>319.1</ele>
        <time>2022-05-07T13:22:36Z</time>
      </trkpt>
      <trkpt lat="44.49802" lon="1.64441">
        <ele>319.2</ele>
        <time>2022-05-07T13:22:37Z</time>
      </trkpt>
      <trkpt lat="44.49803" lon="1.64439">
        <ele>319.4</ele>
        <time>2022-05-07T13:22:38Z</time>
      </trkpt>
      <trkpt lat="44.49805" lon="1.64438">
        <ele>319.6</ele>
        <time>2022-05-07T13:22:40Z</time>
      </trkpt>
      <trkpt lat="44.49805" lon="1.64437">
        <ele>319.7</ele>
        <time>2022-05-07T13:22:41Z</time>
      </trkpt>
      <trkpt lat="44.49806" lon="1.64436">
        <ele>319.8</ele>
        <time>2022-05-07T13:22:42Z</time>
      </trkpt>
      <trkpt lat="44.49806" lon="1.64436">
        <ele>319.8</ele>
        <time>2022-05-07T13:22:43Z</time>
      </trkpt>
      <trkpt lat="44.49806" lon="1.64436">
        <ele>319.8</ele>
        <time>2022-05-07T13:22:44Z</time>
      </trkpt>
      <trkpt lat="44.49807" lon="1.64435">
        <ele>319.9</ele>
        <time>2022-05-07T13:22:46Z</time>
      </trkpt>
      <trkpt lat="44.49807" lon="1.64435">
        <ele>319.9</ele>
        <time>2022-05-07T13:22:47Z</time>
      </trkpt>
      <trkpt lat="44.49807" lon="1.64435">
        <ele>320</ele>
        <time>2022-05-07T13:22:48Z</time>
      </trkpt>
      <trkpt lat="44.49816" lon="1.64421">
        <ele>321.4</ele>
        <time>2022-05-07T13:23:06Z</time>
      </trkpt>
      <trkpt lat="44.49817" lon="1.64419">
        <ele>321.5</ele>
        <time>2022-05-07T13:23:07Z</time>
      </trkpt>
      <trkpt lat="44.49818" lon="1.64417">
        <ele>321.7</ele>
        <time>2022-05-07T13:23:08Z</time>
      </trkpt>
      <trkpt lat="44.4982" lon="1.64415">
        <ele>321.9</ele>
        <time>2022-05-07T13:23:09Z</time>
      </trkpt>
      <trkpt lat="44.49821" lon="1.64415">
        <ele>322</ele>
        <time>2022-05-07T13:23:10Z</time>
      </trkpt>
      <trkpt lat="44.49824" lon="1.64411">
        <ele>322.3</ele>
        <time>2022-05-07T13:23:12Z</time>
      </trkpt>
      <trkpt lat="44.49824" lon="1.64411">
        <ele>322.4</ele>
        <time>2022-05-07T13:23:13Z</time>
      </trkpt>
      <trkpt lat="44.49827" lon="1.64408">
        <ele>322.7</ele>
        <time>2022-05-07T13:23:14Z</time>
      </trkpt>
      <trkpt lat="44.49828" lon="1.64408">
        <ele>322.8</ele>
        <time>2022-05-07T13:23:15Z</time>
      </trkpt>
      <trkpt lat="44.4983" lon="1.64406">
        <ele>323</ele>
        <time>2022-05-07T13:23:16Z</time>
      </trkpt>
      <trkpt lat="44.49831" lon="1.64404">
        <ele>323.1</ele>
        <time>2022-05-07T13:23:18Z</time>
      </trkpt>
      <trkpt lat="44.49832" lon="1.64403">
        <ele>323.3</ele>
        <time>2022-05-07T13:23:19Z</time>
      </trkpt>
      <trkpt lat="44.49833" lon="1.64401">
        <ele>323.4</ele>
        <time>2022-05-07T13:23:20Z</time>
      </trkpt>
      <trkpt lat="44.49834" lon="1.64399">
        <ele>323.5</ele>
        <time>2022-05-07T13:23:21Z</time>
      </trkpt>
      <trkpt lat="44.49835" lon="1.64398">
        <ele>323.7</ele>
        <time>2022-05-07T13:23:22Z</time>
      </trkpt>
      <trkpt lat="44.49836" lon="1.64396">
        <ele>323.8</ele>
        <time>2022-05-07T13:23:23Z</time>
      </trkpt>
      <trkpt lat="44.49838" lon="1.64394">
        <ele>324</ele>
        <time>2022-05-07T13:23:25Z</time>
      </trkpt>
      <trkpt lat="44.49839" lon="1.64393">
        <ele>324.1</ele>
        <time>2022-05-07T13:23:26Z</time>
      </trkpt>
      <trkpt lat="44.4984" lon="1.64393">
        <ele>324.2</ele>
        <time>2022-05-07T13:23:27Z</time>
      </trkpt>
      <trkpt lat="44.49841" lon="1.64392">
        <ele>324.5</ele>
        <time>2022-05-07T13:23:28Z</time>
      </trkpt>
      <trkpt lat="44.49843" lon="1.64391">
        <ele>324.9</ele>
        <time>2022-05-07T13:23:30Z</time>
      </trkpt>
      <trkpt lat="44.49843" lon="1.6439">
        <ele>324.9</ele>
        <time>2022-05-07T13:23:31Z</time>
      </trkpt>
      <trkpt lat="44.49844" lon="1.6439">
        <ele>325.2</ele>
        <time>2022-05-07T13:23:32Z</time>
      </trkpt>
      <trkpt lat="44.49846" lon="1.64389">
        <ele>325.7</ele>
        <time>2022-05-07T13:23:34Z</time>
      </trkpt>
      <trkpt lat="44.49847" lon="1.64388">
        <ele>326</ele>
        <time>2022-05-07T13:23:35Z</time>
      </trkpt>
      <trkpt lat="44.49848" lon="1.64388">
        <ele>326.2</ele>
        <time>2022-05-07T13:23:36Z</time>
      </trkpt>
      <trkpt lat="44.4985" lon="1.64387">
        <ele>326.6</ele>
        <time>2022-05-07T13:23:38Z</time>
      </trkpt>
      <trkpt lat="44.49851" lon="1.64386">
        <ele>326.8</ele>
        <time>2022-05-07T13:23:39Z</time>
      </trkpt>
      <trkpt lat="44.49851" lon="1.64386">
        <ele>326.9</ele>
        <time>2022-05-07T13:23:40Z</time>
      </trkpt>
      <trkpt lat="44.49852" lon="1.64385">
        <ele>327</ele>
        <time>2022-05-07T13:23:41Z</time>
      </trkpt>
      <trkpt lat="44.49852" lon="1.64384">
        <ele>327.3</ele>
        <time>2022-05-07T13:23:42Z</time>
      </trkpt>
      <trkpt lat="44.49854" lon="1.64383">
        <ele>327.7</ele>
        <time>2022-05-07T13:23:43Z</time>
      </trkpt>
      <trkpt lat="44.49855" lon="1.64382">
        <ele>327.9</ele>
        <time>2022-05-07T13:23:45Z</time>
      </trkpt>
      <trkpt lat="44.49856" lon="1.64382">
        <ele>328</ele>
        <time>2022-05-07T13:23:46Z</time>
      </trkpt>
      <trkpt lat="44.49856" lon="1.64381">
        <ele>328.2</ele>
        <time>2022-05-07T13:23:47Z</time>
      </trkpt>
      <trkpt lat="44.49857" lon="1.64381">
        <ele>328.4</ele>
        <time>2022-05-07T13:23:48Z</time>
      </trkpt>
      <trkpt lat="44.49858" lon="1.6438">
        <ele>328.5</ele>
        <time>2022-05-07T13:23:50Z</time>
      </trkpt>
      <trkpt lat="44.49858" lon="1.6438">
        <ele>328.7</ele>
        <time>2022-05-07T13:23:51Z</time>
      </trkpt>
      <trkpt lat="44.49859" lon="1.64379">
        <ele>328.8</ele>
        <time>2022-05-07T13:23:52Z</time>
      </trkpt>
      <trkpt lat="44.4986" lon="1.64379">
        <ele>328.8</ele>
        <time>2022-05-07T13:23:53Z</time>
      </trkpt>
      <trkpt lat="44.4986" lon="1.64378">
        <ele>328.9</ele>
        <time>2022-05-07T13:23:54Z</time>
      </trkpt>
      <trkpt lat="44.49861" lon="1.64378">
        <ele>329</ele>
        <time>2022-05-07T13:23:55Z</time>
      </trkpt>
      <trkpt lat="44.49862" lon="1.64377">
        <ele>329.1</ele>
        <time>2022-05-07T13:24:50Z</time>
      </trkpt>
      <trkpt lat="44.49863" lon="1.64377">
        <ele>329.2</ele>
        <time>2022-05-07T13:24:51Z</time>
      </trkpt>
      <trkpt lat="44.49864" lon="1.64374">
        <ele>329.5</ele>
        <time>2022-05-07T13:24:52Z</time>
      </trkpt>
      <trkpt lat="44.49865" lon="1.64373">
        <ele>329.5</ele>
        <time>2022-05-07T13:24:53Z</time>
      </trkpt>
      <trkpt lat="44.49865" lon="1.64372">
        <ele>329.6</ele>
        <time>2022-05-07T13:24:54Z</time>
      </trkpt>
      <trkpt lat="44.49865" lon="1.64371">
        <ele>329.7</ele>
        <time>2022-05-07T13:24:56Z</time>
      </trkpt>
      <trkpt lat="44.49865" lon="1.64371">
        <ele>329.7</ele>
        <time>2022-05-07T13:24:57Z</time>
      </trkpt>
      <trkpt lat="44.49865" lon="1.64371">
        <ele>329.7</ele>
        <time>2022-05-07T13:24:58Z</time>
      </trkpt>
      <trkpt lat="44.49865" lon="1.64371">
        <ele>329.7</ele>
        <time>2022-05-07T13:24:59Z</time>
      </trkpt>
      <trkpt lat="44.49865" lon="1.64371">
        <ele>329.7</ele>
        <time>2022-05-07T13:25:00Z</time>
      </trkpt>
      <trkpt lat="44.49867" lon="1.6437">
        <ele>329.9</ele>
        <time>2022-05-07T13:25:01Z</time>
      </trkpt>
      <trkpt lat="44.49869" lon="1.64367">
        <ele>330.2</ele>
        <time>2022-05-07T13:25:03Z</time>
      </trkpt>
      <trkpt lat="44.49871" lon="1.64366">
        <ele>330.4</ele>
        <time>2022-05-07T13:25:04Z</time>
      </trkpt>
      <trkpt lat="44.49871" lon="1.64365">
        <ele>330.3</ele>
        <time>2022-05-07T13:25:05Z</time>
      </trkpt>
      <trkpt lat="44.49872" lon="1.64365">
        <ele>330.3</ele>
        <time>2022-05-07T13:25:06Z</time>
      </trkpt>
      <trkpt lat="44.49872" lon="1.64365">
        <ele>330.3</ele>
        <time>2022-05-07T13:25:07Z</time>
      </trkpt>
      <trkpt lat="44.49873" lon="1.64364">
        <ele>330.3</ele>
        <time>2022-05-07T13:25:08Z</time>
      </trkpt>
      <trkpt lat="44.49874" lon="1.64363">
        <ele>330.2</ele>
        <time>2022-05-07T13:25:09Z</time>
      </trkpt>
      <trkpt lat="44.49875" lon="1.64363">
        <ele>330.2</ele>
        <time>2022-05-07T13:25:10Z</time>
      </trkpt>
      <trkpt lat="44.49875" lon="1.64362">
        <ele>330.2</ele>
        <time>2022-05-07T13:25:11Z</time>
      </trkpt>
      <trkpt lat="44.49875" lon="1.64362">
        <ele>330.2</ele>
        <time>2022-05-07T13:25:12Z</time>
      </trkpt>
      <trkpt lat="44.49876" lon="1.64361">
        <ele>330.2</ele>
        <time>2022-05-07T13:25:13Z</time>
      </trkpt>
      <trkpt lat="44.49877" lon="1.6436">
        <ele>330.1</ele>
        <time>2022-05-07T13:25:14Z</time>
      </trkpt>
      <trkpt lat="44.49879" lon="1.64357">
        <ele>330</ele>
        <time>2022-05-07T13:25:16Z</time>
      </trkpt>
      <trkpt lat="44.49879" lon="1.64357">
        <ele>330</ele>
        <time>2022-05-07T13:25:17Z</time>
      </trkpt>
      <trkpt lat="44.49879" lon="1.64357">
        <ele>329.9</ele>
        <time>2022-05-07T13:25:18Z</time>
      </trkpt>
      <trkpt lat="44.49878" lon="1.64358">
        <ele>329.9</ele>
        <time>2022-05-07T13:25:19Z</time>
      </trkpt>
      <trkpt lat="44.49878" lon="1.64358">
        <ele>329.9</ele>
        <time>2022-05-07T13:25:20Z</time>
      </trkpt>
      <trkpt lat="44.49877" lon="1.64359">
        <ele>329.9</ele>
        <time>2022-05-07T13:25:21Z</time>
      </trkpt>
      <trkpt lat="44.49877" lon="1.64359">
        <ele>329.9</ele>
        <time>2022-05-07T13:25:22Z</time>
      </trkpt>
      <trkpt lat="44.49877" lon="1.6436">
        <ele>329.8</ele>
        <time>2022-05-07T13:25:23Z</time>
      </trkpt>
      <trkpt lat="44.49876" lon="1.6436">
        <ele>329.8</ele>
        <time>2022-05-07T13:25:24Z</time>
      </trkpt>
      <trkpt lat="44.49876" lon="1.64361">
        <ele>329.8</ele>
        <time>2022-05-07T13:30:50Z</time>
      </trkpt>
      <trkpt lat="44.49875" lon="1.64362">
        <ele>329.8</ele>
        <time>2022-05-07T13:30:51Z</time>
      </trkpt>
      <trkpt lat="44.49872" lon="1.64365">
        <ele>329.6</ele>
        <time>2022-05-07T13:30:53Z</time>
      </trkpt>
      <trkpt lat="44.49868" lon="1.64368">
        <ele>329.5</ele>
        <time>2022-05-07T13:30:54Z</time>
      </trkpt>
      <trkpt lat="44.49866" lon="1.64371">
        <ele>329.3</ele>
        <time>2022-05-07T13:30:55Z</time>
      </trkpt>
      <trkpt lat="44.49863" lon="1.64375">
        <ele>329.2</ele>
        <time>2022-05-07T13:30:56Z</time>
      </trkpt>
      <trkpt lat="44.49861" lon="1.64376">
        <ele>329.1</ele>
        <time>2022-05-07T13:30:57Z</time>
      </trkpt>
      <trkpt lat="44.49859" lon="1.6438">
        <ele>329</ele>
        <time>2022-05-07T13:30:58Z</time>
      </trkpt>
      <trkpt lat="44.49859" lon="1.64384">
        <ele>329.2</ele>
        <time>2022-05-07T13:30:59Z</time>
      </trkpt>
      <trkpt lat="44.4986" lon="1.64386">
        <ele>329.3</ele>
        <time>2022-05-07T13:31:00Z</time>
      </trkpt>
      <trkpt lat="44.49862" lon="1.64388">
        <ele>329.5</ele>
        <time>2022-05-07T13:31:01Z</time>
      </trkpt>
      <trkpt lat="44.49863" lon="1.64389">
        <ele>329.6</ele>
        <time>2022-05-07T13:31:03Z</time>
      </trkpt>
      <trkpt lat="44.49864" lon="1.6439">
        <ele>329.6</ele>
        <time>2022-05-07T13:31:05Z</time>
      </trkpt>
      <trkpt lat="44.49864" lon="1.6439">
        <ele>329.7</ele>
        <time>2022-05-07T13:31:06Z</time>
      </trkpt>
      <trkpt lat="44.49865" lon="1.64391">
        <ele>329.7</ele>
        <time>2022-05-07T13:31:07Z</time>
      </trkpt>
      <trkpt lat="44.49866" lon="1.64392">
        <ele>329.8</ele>
        <time>2022-05-07T13:31:08Z</time>
      </trkpt>
      <trkpt lat="44.49866" lon="1.64392">
        <ele>329.8</ele>
        <time>2022-05-07T13:31:09Z</time>
      </trkpt>
      <trkpt lat="44.49867" lon="1.64393">
        <ele>329.8</ele>
        <time>2022-05-07T13:31:10Z</time>
      </trkpt>
      <trkpt lat="44.49868" lon="1.64394">
        <ele>329.9</ele>
        <time>2022-05-07T13:31:11Z</time>
      </trkpt>
      <trkpt lat="44.49868" lon="1.64394">
        <ele>329.9</ele>
        <time>2022-05-07T13:31:24Z</time>
      </trkpt>
      <trkpt lat="44.49869" lon="1.64395">
        <ele>330</ele>
        <time>2022-05-07T13:31:25Z</time>
      </trkpt>
      <trkpt lat="44.4987" lon="1.64396">
        <ele>330</ele>
        <time>2022-05-07T13:31:26Z</time>
      </trkpt>
      <trkpt lat="44.49872" lon="1.64398">
        <ele>330.2</ele>
        <time>2022-05-07T13:31:27Z</time>
      </trkpt>
      <trkpt lat="44.49873" lon="1.64399">
        <ele>330.2</ele>
        <time>2022-05-07T13:31:28Z</time>
      </trkpt>
      <trkpt lat="44.49875" lon="1.64402">
        <ele>330.4</ele>
        <time>2022-05-07T13:31:29Z</time>
      </trkpt>
      <trkpt lat="44.49876" lon="1.64403">
        <ele>330.4</ele>
        <time>2022-05-07T13:31:30Z</time>
      </trkpt>
      <trkpt lat="44.49879" lon="1.64407">
        <ele>330.6</ele>
        <time>2022-05-07T13:31:32Z</time>
      </trkpt>
      <trkpt lat="44.4988" lon="1.64409">
        <ele>330.6</ele>
        <time>2022-05-07T13:31:33Z</time>
      </trkpt>
      <trkpt lat="44.49882" lon="1.64412">
        <ele>330.8</ele>
        <time>2022-05-07T13:31:34Z</time>
      </trkpt>
      <trkpt lat="44.49885" lon="1.64415">
        <ele>330.9</ele>
        <time>2022-05-07T13:31:35Z</time>
      </trkpt>
      <trkpt lat="44.49886" lon="1.64416">
        <ele>330.9</ele>
        <time>2022-05-07T13:31:36Z</time>
      </trkpt>
      <trkpt lat="44.49889" lon="1.64418">
        <ele>331</ele>
        <time>2022-05-07T13:31:37Z</time>
      </trkpt>
      <trkpt lat="44.4989" lon="1.64419">
        <ele>331.1</ele>
        <time>2022-05-07T13:31:38Z</time>
      </trkpt>
      <trkpt lat="44.49892" lon="1.64422">
        <ele>331.2</ele>
        <time>2022-05-07T13:31:39Z</time>
      </trkpt>
      <trkpt lat="44.49893" lon="1.64423">
        <ele>331.2</ele>
        <time>2022-05-07T13:31:40Z</time>
      </trkpt>
      <trkpt lat="44.49896" lon="1.64426">
        <ele>331.3</ele>
        <time>2022-05-07T13:31:41Z</time>
      </trkpt>
      <trkpt lat="44.49899" lon="1.6443">
        <ele>331.5</ele>
        <time>2022-05-07T13:31:42Z</time>
      </trkpt>
      <trkpt lat="44.49899" lon="1.64431">
        <ele>331.5</ele>
        <time>2022-05-07T13:31:43Z</time>
      </trkpt>
      <trkpt lat="44.49902" lon="1.64435">
        <ele>331.6</ele>
        <time>2022-05-07T13:31:44Z</time>
      </trkpt>
      <trkpt lat="44.49903" lon="1.64436">
        <ele>331.6</ele>
        <time>2022-05-07T13:31:45Z</time>
      </trkpt>
      <trkpt lat="44.49906" lon="1.6444">
        <ele>331.8</ele>
        <time>2022-05-07T13:31:47Z</time>
      </trkpt>
      <trkpt lat="44.49911" lon="1.64444">
        <ele>332</ele>
        <time>2022-05-07T13:31:48Z</time>
      </trkpt>
      <trkpt lat="44.49913" lon="1.64446">
        <ele>332.1</ele>
        <time>2022-05-07T13:31:49Z</time>
      </trkpt>
      <trkpt lat="44.49916" lon="1.64448">
        <ele>332.2</ele>
        <time>2022-05-07T13:31:50Z</time>
      </trkpt>
      <trkpt lat="44.49918" lon="1.64449">
        <ele>332.2</ele>
        <time>2022-05-07T13:31:51Z</time>
      </trkpt>
      <trkpt lat="44.49921" lon="1.64451">
        <ele>332.3</ele>
        <time>2022-05-07T13:31:52Z</time>
      </trkpt>
      <trkpt lat="44.49924" lon="1.64454">
        <ele>332.4</ele>
        <time>2022-05-07T13:31:53Z</time>
      </trkpt>
      <trkpt lat="44.49925" lon="1.64456">
        <ele>332.5</ele>
        <time>2022-05-07T13:31:54Z</time>
      </trkpt>
      <trkpt lat="44.49928" lon="1.64458">
        <ele>332.6</ele>
        <time>2022-05-07T13:31:55Z</time>
      </trkpt>
      <trkpt lat="44.49929" lon="1.64459">
        <ele>332.6</ele>
        <time>2022-05-07T13:31:56Z</time>
      </trkpt>
      <trkpt lat="44.49932" lon="1.64462">
        <ele>332.7</ele>
        <time>2022-05-07T13:31:57Z</time>
      </trkpt>
      <trkpt lat="44.49933" lon="1.64463">
        <ele>332.7</ele>
        <time>2022-05-07T13:31:58Z</time>
      </trkpt>
      <trkpt lat="44.49936" lon="1.64467">
        <ele>332.8</ele>
        <time>2022-05-07T13:31:59Z</time>
      </trkpt>
      <trkpt lat="44.49937" lon="1.64468">
        <ele>332.9</ele>
        <time>2022-05-07T13:32:00Z</time>
      </trkpt>
      <trkpt lat="44.49939" lon="1.64469">
        <ele>332.9</ele>
        <time>2022-05-07T13:32:01Z</time>
      </trkpt>
      <trkpt lat="44.4994" lon="1.6447">
        <ele>333</ele>
        <time>2022-05-07T13:32:03Z</time>
      </trkpt>
      <trkpt lat="44.49941" lon="1.64471">
        <ele>333</ele>
        <time>2022-05-07T13:32:04Z</time>
      </trkpt>
      <trkpt lat="44.49943" lon="1.64473">
        <ele>333.1</ele>
        <time>2022-05-07T13:32:05Z</time>
      </trkpt>
      <trkpt lat="44.49944" lon="1.64475">
        <ele>333.2</ele>
        <time>2022-05-07T13:32:06Z</time>
      </trkpt>
      <trkpt lat="44.49945" lon="1.64475">
        <ele>333.2</ele>
        <time>2022-05-07T13:32:07Z</time>
      </trkpt>
      <trkpt lat="44.49945" lon="1.64476">
        <ele>333.2</ele>
        <time>2022-05-07T13:32:08Z</time>
      </trkpt>
      <trkpt lat="44.49945" lon="1.64476">
        <ele>333.2</ele>
        <time>2022-05-07T13:32:10Z</time>
      </trkpt>
      <trkpt lat="44.49945" lon="1.64477">
        <ele>333.2</ele>
        <time>2022-05-07T13:32:11Z</time>
      </trkpt>
      <trkpt lat="44.49945" lon="1.64477">
        <ele>333.2</ele>
        <time>2022-05-07T13:32:12Z</time>
      </trkpt>
      <trkpt lat="44.49945" lon="1.64478">
        <ele>333.2</ele>
        <time>2022-05-07T13:32:13Z</time>
      </trkpt>
      <trkpt lat="44.49945" lon="1.64478">
        <ele>333.2</ele>
        <time>2022-05-07T13:32:14Z</time>
      </trkpt>
      <trkpt lat="44.49949" lon="1.64482">
        <ele>333.4</ele>
        <time>2022-05-07T13:32:16Z</time>
      </trkpt>
      <trkpt lat="44.49953" lon="1.64485">
        <ele>333.5</ele>
        <time>2022-05-07T13:32:18Z</time>
      </trkpt>
      <trkpt lat="44.49955" lon="1.64487">
        <ele>333.6</ele>
        <time>2022-05-07T13:32:19Z</time>
      </trkpt>
      <trkpt lat="44.49958" lon="1.64489">
        <ele>333.7</ele>
        <time>2022-05-07T13:32:20Z</time>
      </trkpt>
      <trkpt lat="44.4996" lon="1.6449">
        <ele>333.8</ele>
        <time>2022-05-07T13:32:21Z</time>
      </trkpt>
      <trkpt lat="44.49963" lon="1.64491">
        <ele>333.9</ele>
        <time>2022-05-07T13:32:23Z</time>
      </trkpt>
      <trkpt lat="44.49967" lon="1.64493">
        <ele>334</ele>
        <time>2022-05-07T13:32:24Z</time>
      </trkpt>
      <trkpt lat="44.49968" lon="1.64494">
        <ele>334.1</ele>
        <time>2022-05-07T13:32:25Z</time>
      </trkpt>
      <trkpt lat="44.49972" lon="1.64497">
        <ele>334.2</ele>
        <time>2022-05-07T13:32:27Z</time>
      </trkpt>
      <trkpt lat="44.49974" lon="1.64499">
        <ele>334.3</ele>
        <time>2022-05-07T13:32:28Z</time>
      </trkpt>
      <trkpt lat="44.49975" lon="1.645">
        <ele>334.3</ele>
        <time>2022-05-07T13:32:29Z</time>
      </trkpt>
      <trkpt lat="44.49981" lon="1.64505">
        <ele>334.5</ele>
        <time>2022-05-07T13:32:31Z</time>
      </trkpt>
      <trkpt lat="44.49984" lon="1.64506">
        <ele>334.5</ele>
        <time>2022-05-07T13:32:32Z</time>
      </trkpt>
      <trkpt lat="44.49987" lon="1.64506">
        <ele>334.6</ele>
        <time>2022-05-07T13:32:33Z</time>
      </trkpt>
      <trkpt lat="44.49991" lon="1.64508">
        <ele>334.7</ele>
        <time>2022-05-07T13:32:35Z</time>
      </trkpt>
      <trkpt lat="44.49993" lon="1.64509">
        <ele>334.7</ele>
        <time>2022-05-07T13:32:36Z</time>
      </trkpt>
      <trkpt lat="44.49994" lon="1.64509">
        <ele>334.8</ele>
        <time>2022-05-07T13:32:37Z</time>
      </trkpt>
      <trkpt lat="44.49997" lon="1.64509">
        <ele>334.9</ele>
        <time>2022-05-07T13:32:38Z</time>
      </trkpt>
      <trkpt lat="44.5" lon="1.6451">
        <ele>334.9</ele>
        <time>2022-05-07T13:32:39Z</time>
      </trkpt>
      <trkpt lat="44.50002" lon="1.64511">
        <ele>335</ele>
        <time>2022-05-07T13:32:40Z</time>
      </trkpt>
      <trkpt lat="44.50004" lon="1.64512">
        <ele>335</ele>
        <time>2022-05-07T13:32:42Z</time>
      </trkpt>
      <trkpt lat="44.50007" lon="1.64515">
        <ele>335.1</ele>
        <time>2022-05-07T13:32:43Z</time>
      </trkpt>
      <trkpt lat="44.5001" lon="1.64519">
        <ele>335.2</ele>
        <time>2022-05-07T13:32:44Z</time>
      </trkpt>
      <trkpt lat="44.50013" lon="1.64521">
        <ele>335.2</ele>
        <time>2022-05-07T13:32:45Z</time>
      </trkpt>
      <trkpt lat="44.50017" lon="1.64522">
        <ele>335.2</ele>
        <time>2022-05-07T13:32:46Z</time>
      </trkpt>
      <trkpt lat="44.50021" lon="1.64525">
        <ele>335.3</ele>
        <time>2022-05-07T13:32:48Z</time>
      </trkpt>
      <trkpt lat="44.50025" lon="1.64526">
        <ele>335.3</ele>
        <time>2022-05-07T13:32:49Z</time>
      </trkpt>
      <trkpt lat="44.50028" lon="1.64527">
        <ele>335.4</ele>
        <time>2022-05-07T13:32:50Z</time>
      </trkpt>
      <trkpt lat="44.5003" lon="1.64528">
        <ele>335.4</ele>
        <time>2022-05-07T13:32:51Z</time>
      </trkpt>
      <trkpt lat="44.50033" lon="1.64529">
        <ele>335.4</ele>
        <time>2022-05-07T13:32:52Z</time>
      </trkpt>
      <trkpt lat="44.50037" lon="1.6453">
        <ele>335.4</ele>
        <time>2022-05-07T13:32:53Z</time>
      </trkpt>
      <trkpt lat="44.50038" lon="1.6453">
        <ele>335.4</ele>
        <time>2022-05-07T13:32:54Z</time>
      </trkpt>
      <trkpt lat="44.5004" lon="1.64531">
        <ele>335.5</ele>
        <time>2022-05-07T13:32:55Z</time>
      </trkpt>
      <trkpt lat="44.50045" lon="1.64534">
        <ele>335.5</ele>
        <time>2022-05-07T13:32:57Z</time>
      </trkpt>
      <trkpt lat="44.50049" lon="1.64535">
        <ele>335.5</ele>
        <time>2022-05-07T13:32:58Z</time>
      </trkpt>
      <trkpt lat="44.50051" lon="1.64535">
        <ele>335.5</ele>
        <time>2022-05-07T13:32:59Z</time>
      </trkpt>
      <trkpt lat="44.50053" lon="1.64536">
        <ele>335.5</ele>
        <time>2022-05-07T13:33:01Z</time>
      </trkpt>
      <trkpt lat="44.50057" lon="1.64539">
        <ele>335.5</ele>
        <time>2022-05-07T13:33:02Z</time>
      </trkpt>
      <trkpt lat="44.50058" lon="1.6454">
        <ele>335.5</ele>
        <time>2022-05-07T13:33:03Z</time>
      </trkpt>
      <trkpt lat="44.50061" lon="1.64542">
        <ele>335.4</ele>
        <time>2022-05-07T13:33:04Z</time>
      </trkpt>
      <trkpt lat="44.50063" lon="1.64546">
        <ele>335.3</ele>
        <time>2022-05-07T13:33:05Z</time>
      </trkpt>
      <trkpt lat="44.50064" lon="1.64547">
        <ele>335.3</ele>
        <time>2022-05-07T13:33:06Z</time>
      </trkpt>
      <trkpt lat="44.50067" lon="1.6455">
        <ele>335.1</ele>
        <time>2022-05-07T13:33:07Z</time>
      </trkpt>
      <trkpt lat="44.50071" lon="1.64556">
        <ele>334.8</ele>
        <time>2022-05-07T13:33:09Z</time>
      </trkpt>
      <trkpt lat="44.50072" lon="1.64562">
        <ele>334.5</ele>
        <time>2022-05-07T13:33:10Z</time>
      </trkpt>
      <trkpt lat="44.50075" lon="1.64567">
        <ele>334.1</ele>
        <time>2022-05-07T13:33:11Z</time>
      </trkpt>
      <trkpt lat="44.50077" lon="1.64573">
        <ele>333.8</ele>
        <time>2022-05-07T13:33:12Z</time>
      </trkpt>
      <trkpt lat="44.50079" lon="1.64581">
        <ele>333.3</ele>
        <time>2022-05-07T13:33:14Z</time>
      </trkpt>
      <trkpt lat="44.50081" lon="1.64587">
        <ele>332.9</ele>
        <time>2022-05-07T13:33:15Z</time>
      </trkpt>
      <trkpt lat="44.50084" lon="1.64594">
        <ele>332.4</ele>
        <time>2022-05-07T13:33:16Z</time>
      </trkpt>
      <trkpt lat="44.50086" lon="1.64599">
        <ele>332</ele>
        <time>2022-05-07T13:33:17Z</time>
      </trkpt>
      <trkpt lat="44.50088" lon="1.64606">
        <ele>331.6</ele>
        <time>2022-05-07T13:33:18Z</time>
      </trkpt>
      <trkpt lat="44.50089" lon="1.64611">
        <ele>331.2</ele>
        <time>2022-05-07T13:33:20Z</time>
      </trkpt>
      <trkpt lat="44.50091" lon="1.64616">
        <ele>330.9</ele>
        <time>2022-05-07T13:33:21Z</time>
      </trkpt>
      <trkpt lat="44.50095" lon="1.64623">
        <ele>330.3</ele>
        <time>2022-05-07T13:33:22Z</time>
      </trkpt>
      <trkpt lat="44.50097" lon="1.64627">
        <ele>330</ele>
        <time>2022-05-07T13:33:23Z</time>
      </trkpt>
      <trkpt lat="44.501" lon="1.64631">
        <ele>329.7</ele>
        <time>2022-05-07T13:33:24Z</time>
      </trkpt>
      <trkpt lat="44.50102" lon="1.64633">
        <ele>329.4</ele>
        <time>2022-05-07T13:33:25Z</time>
      </trkpt>
      <trkpt lat="44.50107" lon="1.64637">
        <ele>328.9</ele>
        <time>2022-05-07T13:33:27Z</time>
      </trkpt>
      <trkpt lat="44.50111" lon="1.64638">
        <ele>328.6</ele>
        <time>2022-05-07T13:33:28Z</time>
      </trkpt>
      <trkpt lat="44.50118" lon="1.64641">
        <ele>328.1</ele>
        <time>2022-05-07T13:33:29Z</time>
      </trkpt>
      <trkpt lat="44.50121" lon="1.64645">
        <ele>327.8</ele>
        <time>2022-05-07T13:33:30Z</time>
      </trkpt>
      <trkpt lat="44.50125" lon="1.64646">
        <ele>327.6</ele>
        <time>2022-05-07T13:33:31Z</time>
      </trkpt>
      <trkpt lat="44.50129" lon="1.64647">
        <ele>327.4</ele>
        <time>2022-05-07T13:33:32Z</time>
      </trkpt>
      <trkpt lat="44.5013" lon="1.64647">
        <ele>327.3</ele>
        <time>2022-05-07T13:33:33Z</time>
      </trkpt>
      <trkpt lat="44.50133" lon="1.64647">
        <ele>327.2</ele>
        <time>2022-05-07T13:33:34Z</time>
      </trkpt>
      <trkpt lat="44.50136" lon="1.64647">
        <ele>327.1</ele>
        <time>2022-05-07T13:33:35Z</time>
      </trkpt>
      <trkpt lat="44.50139" lon="1.6465">
        <ele>327</ele>
        <time>2022-05-07T13:33:36Z</time>
      </trkpt>
      <trkpt lat="44.50141" lon="1.6465">
        <ele>326.9</ele>
        <time>2022-05-07T13:33:37Z</time>
      </trkpt>
      <trkpt lat="44.50141" lon="1.64648">
        <ele>326.9</ele>
        <time>2022-05-07T13:33:38Z</time>
      </trkpt>
      <trkpt lat="44.50141" lon="1.64648">
        <ele>326.9</ele>
        <time>2022-05-07T13:33:39Z</time>
      </trkpt>
      <trkpt lat="44.50141" lon="1.64647">
        <ele>326.8</ele>
        <time>2022-05-07T13:33:40Z</time>
      </trkpt>
      <trkpt lat="44.50141" lon="1.64647">
        <ele>326.8</ele>
        <time>2022-05-07T13:33:41Z</time>
      </trkpt>
      <trkpt lat="44.50141" lon="1.64646">
        <ele>326.8</ele>
        <time>2022-05-07T13:33:42Z</time>
      </trkpt>
      <trkpt lat="44.50141" lon="1.64647">
        <ele>326.8</ele>
        <time>2022-05-07T13:33:43Z</time>
      </trkpt>
      <trkpt lat="44.50142" lon="1.64647">
        <ele>326.8</ele>
        <time>2022-05-07T13:33:44Z</time>
      </trkpt>
      <trkpt lat="44.50143" lon="1.64647">
        <ele>326.8</ele>
        <time>2022-05-07T13:33:45Z</time>
      </trkpt>
      <trkpt lat="44.5015" lon="1.64647">
        <ele>326.5</ele>
        <time>2022-05-07T13:33:47Z</time>
      </trkpt>
      <trkpt lat="44.50154" lon="1.64647">
        <ele>326.4</ele>
        <time>2022-05-07T13:33:48Z</time>
      </trkpt>
      <trkpt lat="44.50158" lon="1.64648">
        <ele>326.2</ele>
        <time>2022-05-07T13:33:49Z</time>
      </trkpt>
      <trkpt lat="44.50162" lon="1.64649">
        <ele>326.2</ele>
        <time>2022-05-07T13:33:50Z</time>
      </trkpt>
      <trkpt lat="44.50165" lon="1.64648">
        <ele>326.2</ele>
        <time>2022-05-07T13:33:51Z</time>
      </trkpt>
      <trkpt lat="44.50168" lon="1.64649">
        <ele>326.2</ele>
        <time>2022-05-07T13:33:52Z</time>
      </trkpt>
      <trkpt lat="44.50172" lon="1.6465">
        <ele>326.3</ele>
        <time>2022-05-07T13:33:53Z</time>
      </trkpt>
      <trkpt lat="44.50175" lon="1.64648">
        <ele>326.4</ele>
        <time>2022-05-07T13:33:54Z</time>
      </trkpt>
      <trkpt lat="44.50177" lon="1.64645">
        <ele>326.5</ele>
        <time>2022-05-07T13:33:55Z</time>
      </trkpt>
      <trkpt lat="44.5018" lon="1.64641">
        <ele>326.7</ele>
        <time>2022-05-07T13:33:56Z</time>
      </trkpt>
      <trkpt lat="44.50181" lon="1.64641">
        <ele>326.7</ele>
        <time>2022-05-07T13:33:57Z</time>
      </trkpt>
      <trkpt lat="44.50186" lon="1.64639">
        <ele>327</ele>
        <time>2022-05-07T13:33:59Z</time>
      </trkpt>
      <trkpt lat="44.50188" lon="1.64637">
        <ele>327.2</ele>
        <time>2022-05-07T13:34:00Z</time>
      </trkpt>
      <trkpt lat="44.5019" lon="1.64636">
        <ele>327.3</ele>
        <time>2022-05-07T13:34:01Z</time>
      </trkpt>
      <trkpt lat="44.50192" lon="1.64634">
        <ele>327.6</ele>
        <time>2022-05-07T13:34:02Z</time>
      </trkpt>
      <trkpt lat="44.50195" lon="1.64631">
        <ele>327.8</ele>
        <time>2022-05-07T13:34:03Z</time>
      </trkpt>
      <trkpt lat="44.50195" lon="1.64631">
        <ele>327.9</ele>
        <time>2022-05-07T13:34:04Z</time>
      </trkpt>
      <trkpt lat="44.50197" lon="1.64629">
        <ele>328</ele>
        <time>2022-05-07T13:34:05Z</time>
      </trkpt>
      <trkpt lat="44.502" lon="1.64627">
        <ele>328.3</ele>
        <time>2022-05-07T13:34:07Z</time>
      </trkpt>
      <trkpt lat="44.50203" lon="1.64626">
        <ele>328.5</ele>
        <time>2022-05-07T13:34:08Z</time>
      </trkpt>
      <trkpt lat="44.50205" lon="1.64625">
        <ele>328.7</ele>
        <time>2022-05-07T13:34:09Z</time>
      </trkpt>
      <trkpt lat="44.50206" lon="1.64625">
        <ele>328.8</ele>
        <time>2022-05-07T13:34:10Z</time>
      </trkpt>
      <trkpt lat="44.50211" lon="1.64622">
        <ele>329.1</ele>
        <time>2022-05-07T13:34:12Z</time>
      </trkpt>
      <trkpt lat="44.50212" lon="1.64621">
        <ele>329.2</ele>
        <time>2022-05-07T13:34:13Z</time>
      </trkpt>
      <trkpt lat="44.50213" lon="1.6462">
        <ele>329.3</ele>
        <time>2022-05-07T13:34:14Z</time>
      </trkpt>
      <trkpt lat="44.50217" lon="1.64619">
        <ele>329.5</ele>
        <time>2022-05-07T13:34:15Z</time>
      </trkpt>
      <trkpt lat="44.50218" lon="1.64619">
        <ele>329.6</ele>
        <time>2022-05-07T13:34:16Z</time>
      </trkpt>
      <trkpt lat="44.50222" lon="1.64617">
        <ele>329.8</ele>
        <time>2022-05-07T13:34:17Z</time>
      </trkpt>
      <trkpt lat="44.50223" lon="1.64617">
        <ele>329.9</ele>
        <time>2022-05-07T13:34:18Z</time>
      </trkpt>
      <trkpt lat="44.50226" lon="1.64615">
        <ele>330</ele>
        <time>2022-05-07T13:34:19Z</time>
      </trkpt>
      <trkpt lat="44.50227" lon="1.64615">
        <ele>330.1</ele>
        <time>2022-05-07T13:34:20Z</time>
      </trkpt>
      <trkpt lat="44.50229" lon="1.64613">
        <ele>330.2</ele>
        <time>2022-05-07T13:34:21Z</time>
      </trkpt>
      <trkpt lat="44.5023" lon="1.64612">
        <ele>330.3</ele>
        <time>2022-05-07T13:34:22Z</time>
      </trkpt>
      <trkpt lat="44.50233" lon="1.6461">
        <ele>330.4</ele>
        <time>2022-05-07T13:34:23Z</time>
      </trkpt>
      <trkpt lat="44.50236" lon="1.64607">
        <ele>330.6</ele>
        <time>2022-05-07T13:34:25Z</time>
      </trkpt>
      <trkpt lat="44.50239" lon="1.64605">
        <ele>330.7</ele>
        <time>2022-05-07T13:34:26Z</time>
      </trkpt>
      <trkpt lat="44.50241" lon="1.64605">
        <ele>330.7</ele>
        <time>2022-05-07T13:34:27Z</time>
      </trkpt>
      <trkpt lat="44.50243" lon="1.64604">
        <ele>330.8</ele>
        <time>2022-05-07T13:34:28Z</time>
      </trkpt>
      <trkpt lat="44.50246" lon="1.64602">
        <ele>330.9</ele>
        <time>2022-05-07T13:34:30Z</time>
      </trkpt>
      <trkpt lat="44.50248" lon="1.64601">
        <ele>330.9</ele>
        <time>2022-05-07T13:34:31Z</time>
      </trkpt>
      <trkpt lat="44.50251" lon="1.64599">
        <ele>330.9</ele>
        <time>2022-05-07T13:34:33Z</time>
      </trkpt>
      <trkpt lat="44.50255" lon="1.64597">
        <ele>330.9</ele>
        <time>2022-05-07T13:34:34Z</time>
      </trkpt>
      <trkpt lat="44.50257" lon="1.64596">
        <ele>330.9</ele>
        <time>2022-05-07T13:34:35Z</time>
      </trkpt>
      <trkpt lat="44.50261" lon="1.64595">
        <ele>330.8</ele>
        <time>2022-05-07T13:34:36Z</time>
      </trkpt>
      <trkpt lat="44.50262" lon="1.64595">
        <ele>330.8</ele>
        <time>2022-05-07T13:34:37Z</time>
      </trkpt>
      <trkpt lat="44.50266" lon="1.64595">
        <ele>330.7</ele>
        <time>2022-05-07T13:34:39Z</time>
      </trkpt>
      <trkpt lat="44.5027" lon="1.64595">
        <ele>330.6</ele>
        <time>2022-05-07T13:34:40Z</time>
      </trkpt>
      <trkpt lat="44.50274" lon="1.64594">
        <ele>330.5</ele>
        <time>2022-05-07T13:34:41Z</time>
      </trkpt>
      <trkpt lat="44.50277" lon="1.64594">
        <ele>330.4</ele>
        <time>2022-05-07T13:34:42Z</time>
      </trkpt>
      <trkpt lat="44.50281" lon="1.64593">
        <ele>330.2</ele>
        <time>2022-05-07T13:34:43Z</time>
      </trkpt>
      <trkpt lat="44.50285" lon="1.64592">
        <ele>330.1</ele>
        <time>2022-05-07T13:34:44Z</time>
      </trkpt>
      <trkpt lat="44.50289" lon="1.64591">
        <ele>329.9</ele>
        <time>2022-05-07T13:34:45Z</time>
      </trkpt>
      <trkpt lat="44.50293" lon="1.6459">
        <ele>329.7</ele>
        <time>2022-05-07T13:34:46Z</time>
      </trkpt>
      <trkpt lat="44.50298" lon="1.64589">
        <ele>329.5</ele>
        <time>2022-05-07T13:34:47Z</time>
      </trkpt>
      <trkpt lat="44.50302" lon="1.64588">
        <ele>329.3</ele>
        <time>2022-05-07T13:34:48Z</time>
      </trkpt>
      <trkpt lat="44.50307" lon="1.64586">
        <ele>329.1</ele>
        <time>2022-05-07T13:34:50Z</time>
      </trkpt>
      <trkpt lat="44.50313" lon="1.64586">
        <ele>328.8</ele>
        <time>2022-05-07T13:34:51Z</time>
      </trkpt>
      <trkpt lat="44.50317" lon="1.64587">
        <ele>328.6</ele>
        <time>2022-05-07T13:34:52Z</time>
      </trkpt>
      <trkpt lat="44.50321" lon="1.64587">
        <ele>328.5</ele>
        <time>2022-05-07T13:34:53Z</time>
      </trkpt>
      <trkpt lat="44.50324" lon="1.64587">
        <ele>328.3</ele>
        <time>2022-05-07T13:34:54Z</time>
      </trkpt>
      <trkpt lat="44.50327" lon="1.64587">
        <ele>328.2</ele>
        <time>2022-05-07T13:34:55Z</time>
      </trkpt>
      <trkpt lat="44.50328" lon="1.64587">
        <ele>328.2</ele>
        <time>2022-05-07T13:34:56Z</time>
      </trkpt>
      <trkpt lat="44.50332" lon="1.64588">
        <ele>328.4</ele>
        <time>2022-05-07T13:34:57Z</time>
      </trkpt>
      <trkpt lat="44.50334" lon="1.64588">
        <ele>328.4</ele>
        <time>2022-05-07T13:34:58Z</time>
      </trkpt>
      <trkpt lat="44.50337" lon="1.64588">
        <ele>328.5</ele>
        <time>2022-05-07T13:34:59Z</time>
      </trkpt>
      <trkpt lat="44.50338" lon="1.64588">
        <ele>328.6</ele>
        <time>2022-05-07T13:35:00Z</time>
      </trkpt>
      <trkpt lat="44.50339" lon="1.64586">
        <ele>328.6</ele>
        <time>2022-05-07T13:35:02Z</time>
      </trkpt>
      <trkpt lat="44.50339" lon="1.64586">
        <ele>328.6</ele>
        <time>2022-05-07T13:35:03Z</time>
      </trkpt>
      <trkpt lat="44.50338" lon="1.64586">
        <ele>328.7</ele>
        <time>2022-05-07T13:35:04Z</time>
      </trkpt>
      <trkpt lat="44.50338" lon="1.64585">
        <ele>328.7</ele>
        <time>2022-05-07T13:35:05Z</time>
      </trkpt>
      <trkpt lat="44.50337" lon="1.64585">
        <ele>328.7</ele>
        <time>2022-05-07T13:35:06Z</time>
      </trkpt>
      <trkpt lat="44.50337" lon="1.64584">
        <ele>328.7</ele>
        <time>2022-05-07T13:35:07Z</time>
      </trkpt>
      <trkpt lat="44.50337" lon="1.64584">
        <ele>328.7</ele>
        <time>2022-05-07T13:35:08Z</time>
      </trkpt>
      <trkpt lat="44.50336" lon="1.64584">
        <ele>328.7</ele>
        <time>2022-05-07T13:35:09Z</time>
      </trkpt>
      <trkpt lat="44.50336" lon="1.64583">
        <ele>328.8</ele>
        <time>2022-05-07T13:35:10Z</time>
      </trkpt>
      <trkpt lat="44.50335" lon="1.64583">
        <ele>328.8</ele>
        <time>2022-05-07T13:35:11Z</time>
      </trkpt>
      <trkpt lat="44.50335" lon="1.64583">
        <ele>328.8</ele>
        <time>2022-05-07T13:35:12Z</time>
      </trkpt>
      <trkpt lat="44.50334" lon="1.64582">
        <ele>328.8</ele>
        <time>2022-05-07T13:38:47Z</time>
      </trkpt>
      <trkpt lat="44.50334" lon="1.64582">
        <ele>328.8</ele>
        <time>2022-05-07T13:38:48Z</time>
      </trkpt>
      <trkpt lat="44.50328" lon="1.64581">
        <ele>329</ele>
        <time>2022-05-07T13:38:49Z</time>
      </trkpt>
      <trkpt lat="44.50325" lon="1.6458">
        <ele>329.1</ele>
        <time>2022-05-07T13:38:50Z</time>
      </trkpt>
      <trkpt lat="44.50322" lon="1.6458">
        <ele>329.2</ele>
        <time>2022-05-07T13:38:51Z</time>
      </trkpt>
      <trkpt lat="44.5032" lon="1.6458">
        <ele>329.3</ele>
        <time>2022-05-07T13:38:52Z</time>
      </trkpt>
      <trkpt lat="44.50315" lon="1.6458">
        <ele>329.5</ele>
        <time>2022-05-07T13:38:54Z</time>
      </trkpt>
      <trkpt lat="44.50311" lon="1.6458">
        <ele>329.7</ele>
        <time>2022-05-07T13:38:55Z</time>
      </trkpt>
      <trkpt lat="44.50308" lon="1.6458">
        <ele>329.8</ele>
        <time>2022-05-07T13:38:56Z</time>
      </trkpt>
      <trkpt lat="44.50305" lon="1.6458">
        <ele>329.9</ele>
        <time>2022-05-07T13:38:57Z</time>
      </trkpt>
      <trkpt lat="44.50302" lon="1.64581">
        <ele>330</ele>
        <time>2022-05-07T13:38:58Z</time>
      </trkpt>
      <trkpt lat="44.503" lon="1.64581">
        <ele>330</ele>
        <time>2022-05-07T13:38:59Z</time>
      </trkpt>
      <trkpt lat="44.50298" lon="1.64581">
        <ele>330.1</ele>
        <time>2022-05-07T13:39:00Z</time>
      </trkpt>
      <trkpt lat="44.50294" lon="1.64582">
        <ele>330.3</ele>
        <time>2022-05-07T13:39:02Z</time>
      </trkpt>
      <trkpt lat="44.50291" lon="1.64584">
        <ele>330.4</ele>
        <time>2022-05-07T13:39:03Z</time>
      </trkpt>
      <trkpt lat="44.5029" lon="1.64585">
        <ele>330.4</ele>
        <time>2022-05-07T13:39:04Z</time>
      </trkpt>
      <trkpt lat="44.50286" lon="1.64587">
        <ele>330.5</ele>
        <time>2022-05-07T13:39:06Z</time>
      </trkpt>
      <trkpt lat="44.50282" lon="1.64587">
        <ele>330.6</ele>
        <time>2022-05-07T13:39:07Z</time>
      </trkpt>
      <trkpt lat="44.50281" lon="1.64587">
        <ele>330.6</ele>
        <time>2022-05-07T13:39:08Z</time>
      </trkpt>
      <trkpt lat="44.50277" lon="1.64588">
        <ele>330.7</ele>
        <time>2022-05-07T13:39:09Z</time>
      </trkpt>
      <trkpt lat="44.50275" lon="1.64588">
        <ele>330.7</ele>
        <time>2022-05-07T13:39:10Z</time>
      </trkpt>
      <trkpt lat="44.50272" lon="1.64589">
        <ele>330.8</ele>
        <time>2022-05-07T13:39:11Z</time>
      </trkpt>
      <trkpt lat="44.50271" lon="1.6459">
        <ele>330.8</ele>
        <time>2022-05-07T13:39:12Z</time>
      </trkpt>
      <trkpt lat="44.50267" lon="1.6459">
        <ele>330.8</ele>
        <time>2022-05-07T13:39:13Z</time>
      </trkpt>
      <trkpt lat="44.50266" lon="1.64591">
        <ele>330.9</ele>
        <time>2022-05-07T13:39:14Z</time>
      </trkpt>
      <trkpt lat="44.50263" lon="1.64591">
        <ele>330.9</ele>
        <time>2022-05-07T13:39:15Z</time>
      </trkpt>
      <trkpt lat="44.50262" lon="1.64591">
        <ele>330.9</ele>
        <time>2022-05-07T13:39:16Z</time>
      </trkpt>
      <trkpt lat="44.50259" lon="1.64593">
        <ele>330.9</ele>
        <time>2022-05-07T13:39:18Z</time>
      </trkpt>
      <trkpt lat="44.50257" lon="1.64596">
        <ele>330.9</ele>
        <time>2022-05-07T13:39:19Z</time>
      </trkpt>
      <trkpt lat="44.50254" lon="1.64598">
        <ele>330.8</ele>
        <time>2022-05-07T13:39:20Z</time>
      </trkpt>
      <trkpt lat="44.50252" lon="1.64599">
        <ele>330.8</ele>
        <time>2022-05-07T13:39:21Z</time>
      </trkpt>
      <trkpt lat="44.50249" lon="1.64599">
        <ele>330.8</ele>
        <time>2022-05-07T13:39:22Z</time>
      </trkpt>
      <trkpt lat="44.50246" lon="1.64601">
        <ele>330.7</ele>
        <time>2022-05-07T13:39:23Z</time>
      </trkpt>
      <trkpt lat="44.50245" lon="1.64601">
        <ele>330.7</ele>
        <time>2022-05-07T13:39:24Z</time>
      </trkpt>
      <trkpt lat="44.50244" lon="1.64603">
        <ele>330.6</ele>
        <time>2022-05-07T13:39:25Z</time>
      </trkpt>
      <trkpt lat="44.50242" lon="1.64605">
        <ele>330.5</ele>
        <time>2022-05-07T13:39:27Z</time>
      </trkpt>
      <trkpt lat="44.50238" lon="1.64607">
        <ele>330.4</ele>
        <time>2022-05-07T13:39:28Z</time>
      </trkpt>
      <trkpt lat="44.50237" lon="1.64607">
        <ele>330.3</ele>
        <time>2022-05-07T13:39:29Z</time>
      </trkpt>
      <trkpt lat="44.50233" lon="1.64609">
        <ele>330.2</ele>
        <time>2022-05-07T13:39:31Z</time>
      </trkpt>
      <trkpt lat="44.50231" lon="1.64611">
        <ele>330.1</ele>
        <time>2022-05-07T13:39:32Z</time>
      </trkpt>
      <trkpt lat="44.50228" lon="1.64613">
        <ele>330</ele>
        <time>2022-05-07T13:39:33Z</time>
      </trkpt>
      <trkpt lat="44.50225" lon="1.64615">
        <ele>329.8</ele>
        <time>2022-05-07T13:39:34Z</time>
      </trkpt>
      <trkpt lat="44.50222" lon="1.64616">
        <ele>329.7</ele>
        <time>2022-05-07T13:39:35Z</time>
      </trkpt>
      <trkpt lat="44.50219" lon="1.64619">
        <ele>329.5</ele>
        <time>2022-05-07T13:39:37Z</time>
      </trkpt>
      <trkpt lat="44.50216" lon="1.64622">
        <ele>329.3</ele>
        <time>2022-05-07T13:39:38Z</time>
      </trkpt>
      <trkpt lat="44.50213" lon="1.64624">
        <ele>329.1</ele>
        <time>2022-05-07T13:39:39Z</time>
      </trkpt>
      <trkpt lat="44.50211" lon="1.64625">
        <ele>329</ele>
        <time>2022-05-07T13:39:40Z</time>
      </trkpt>
      <trkpt lat="44.5021" lon="1.64625">
        <ele>329</ele>
        <time>2022-05-07T13:39:41Z</time>
      </trkpt>
      <trkpt lat="44.50209" lon="1.64624">
        <ele>329.1</ele>
        <time>2022-05-07T13:39:43Z</time>
      </trkpt>
      <trkpt lat="44.50209" lon="1.64624">
        <ele>329.1</ele>
        <time>2022-05-07T13:39:44Z</time>
      </trkpt>
      <trkpt lat="44.50209" lon="1.64624">
        <ele>329.1</ele>
        <time>2022-05-07T13:39:45Z</time>
      </trkpt>
      <trkpt lat="44.50209" lon="1.64624">
        <ele>329.1</ele>
        <time>2022-05-07T13:39:46Z</time>
      </trkpt>
      <trkpt lat="44.50209" lon="1.64624">
        <ele>329.1</ele>
        <time>2022-05-07T13:39:47Z</time>
      </trkpt>
      <trkpt lat="44.50209" lon="1.64624">
        <ele>329.1</ele>
        <time>2022-05-07T13:39:48Z</time>
      </trkpt>
      <trkpt lat="44.50209" lon="1.64624">
        <ele>329.1</ele>
        <time>2022-05-07T13:39:50Z</time>
      </trkpt>
      <trkpt lat="44.50208" lon="1.64624">
        <ele>329.2</ele>
        <time>2022-05-07T13:39:51Z</time>
      </trkpt>
      <trkpt lat="44.50208" lon="1.64624">
        <ele>329.2</ele>
        <time>2022-05-07T13:39:52Z</time>
      </trkpt>
      <trkpt lat="44.50208" lon="1.64623">
        <ele>329.2</ele>
        <time>2022-05-07T13:39:53Z</time>
      </trkpt>
      <trkpt lat="44.50213" lon="1.64622">
        <ele>329.4</ele>
        <time>2022-05-07T13:41:04Z</time>
      </trkpt>
      <trkpt lat="44.50214" lon="1.64621">
        <ele>329.5</ele>
        <time>2022-05-07T13:41:06Z</time>
      </trkpt>
      <trkpt lat="44.50216" lon="1.6462">
        <ele>329.6</ele>
        <time>2022-05-07T13:41:07Z</time>
      </trkpt>
      <trkpt lat="44.50218" lon="1.64618">
        <ele>329.8</ele>
        <time>2022-05-07T13:41:08Z</time>
      </trkpt>
      <trkpt lat="44.50219" lon="1.64617">
        <ele>329.9</ele>
        <time>2022-05-07T13:41:10Z</time>
      </trkpt>
      <trkpt lat="44.5022" lon="1.64615">
        <ele>329.9</ele>
        <time>2022-05-07T13:41:11Z</time>
      </trkpt>
      <trkpt lat="44.50221" lon="1.64614">
        <ele>330</ele>
        <time>2022-05-07T13:41:12Z</time>
      </trkpt>
      <trkpt lat="44.50222" lon="1.64613">
        <ele>330.1</ele>
        <time>2022-05-07T13:41:13Z</time>
      </trkpt>
      <trkpt lat="44.50225" lon="1.64612">
        <ele>330.2</ele>
        <time>2022-05-07T13:41:15Z</time>
      </trkpt>
      <trkpt lat="44.50228" lon="1.64611">
        <ele>330.4</ele>
        <time>2022-05-07T13:41:16Z</time>
      </trkpt>
      <trkpt lat="44.5023" lon="1.6461">
        <ele>330.5</ele>
        <time>2022-05-07T13:41:17Z</time>
      </trkpt>
      <trkpt lat="44.50231" lon="1.64609">
        <ele>330.5</ele>
        <time>2022-05-07T13:41:18Z</time>
      </trkpt>
      <trkpt lat="44.50232" lon="1.64607">
        <ele>330.6</ele>
        <time>2022-05-07T13:41:20Z</time>
      </trkpt>
      <trkpt lat="44.50233" lon="1.64606">
        <ele>330.6</ele>
        <time>2022-05-07T13:41:21Z</time>
      </trkpt>
      <trkpt lat="44.50233" lon="1.64606">
        <ele>330.6</ele>
        <time>2022-05-07T13:41:22Z</time>
      </trkpt>
      <trkpt lat="44.50234" lon="1.64606">
        <ele>330.7</ele>
        <time>2022-05-07T13:41:23Z</time>
      </trkpt>
      <trkpt lat="44.50236" lon="1.64605">
        <ele>330.7</ele>
        <time>2022-05-07T13:41:24Z</time>
      </trkpt>
      <trkpt lat="44.50236" lon="1.64605">
        <ele>330.7</ele>
        <time>2022-05-07T13:41:26Z</time>
      </trkpt>
      <trkpt lat="44.50236" lon="1.64605">
        <ele>330.7</ele>
        <time>2022-05-07T13:41:27Z</time>
      </trkpt>
      <trkpt lat="44.50237" lon="1.64604">
        <ele>330.8</ele>
        <time>2022-05-07T13:41:28Z</time>
      </trkpt>
      <trkpt lat="44.50237" lon="1.64604">
        <ele>330.8</ele>
        <time>2022-05-07T13:41:29Z</time>
      </trkpt>
      <trkpt lat="44.50237" lon="1.64604">
        <ele>330.8</ele>
        <time>2022-05-07T13:41:30Z</time>
      </trkpt>
      <trkpt lat="44.50238" lon="1.64604">
        <ele>330.8</ele>
        <time>2022-05-07T13:41:32Z</time>
      </trkpt>
      <trkpt lat="44.50238" lon="1.64604">
        <ele>330.8</ele>
        <time>2022-05-07T13:41:33Z</time>
      </trkpt>
      <trkpt lat="44.50239" lon="1.64604">
        <ele>330.8</ele>
        <time>2022-05-07T13:41:34Z</time>
      </trkpt>
      <trkpt lat="44.50243" lon="1.64603">
        <ele>330.9</ele>
        <time>2022-05-07T13:41:35Z</time>
      </trkpt>
      <trkpt lat="44.50247" lon="1.64601">
        <ele>330.9</ele>
        <time>2022-05-07T13:41:36Z</time>
      </trkpt>
      <trkpt lat="44.5025" lon="1.64599">
        <ele>330.9</ele>
        <time>2022-05-07T13:41:37Z</time>
      </trkpt>
      <trkpt lat="44.5025" lon="1.64599">
        <ele>330.9</ele>
        <time>2022-05-07T13:41:38Z</time>
      </trkpt>
      <trkpt lat="44.5025" lon="1.64599">
        <ele>330.9</ele>
        <time>2022-05-07T13:41:39Z</time>
      </trkpt>
      <trkpt lat="44.50251" lon="1.64597">
        <ele>330.9</ele>
        <time>2022-05-07T13:41:40Z</time>
      </trkpt>
      <trkpt lat="44.50252" lon="1.64597">
        <ele>330.9</ele>
        <time>2022-05-07T13:41:42Z</time>
      </trkpt>
      <trkpt lat="44.50253" lon="1.64596">
        <ele>330.8</ele>
        <time>2022-05-07T13:41:43Z</time>
      </trkpt>
      <trkpt lat="44.50254" lon="1.64596">
        <ele>330.8</ele>
        <time>2022-05-07T13:41:44Z</time>
      </trkpt>
      <trkpt lat="44.50255" lon="1.64596">
        <ele>330.8</ele>
        <time>2022-05-07T13:41:46Z</time>
      </trkpt>
      <trkpt lat="44.50256" lon="1.64595">
        <ele>330.8</ele>
        <time>2022-05-07T13:41:47Z</time>
      </trkpt>
      <trkpt lat="44.50256" lon="1.64595">
        <ele>330.8</ele>
        <time>2022-05-07T13:41:48Z</time>
      </trkpt>
      <trkpt lat="44.50257" lon="1.64595">
        <ele>330.8</ele>
        <time>2022-05-07T13:41:49Z</time>
      </trkpt>
      <trkpt lat="44.50258" lon="1.64595">
        <ele>330.7</ele>
        <time>2022-05-07T13:41:50Z</time>
      </trkpt>
      <trkpt lat="44.50262" lon="1.64595">
        <ele>330.6</ele>
        <time>2022-05-07T13:41:52Z</time>
      </trkpt>
      <trkpt lat="44.50267" lon="1.64592">
        <ele>330.5</ele>
        <time>2022-05-07T13:41:53Z</time>
      </trkpt>
      <trkpt lat="44.5027" lon="1.64592">
        <ele>330.4</ele>
        <time>2022-05-07T13:41:54Z</time>
      </trkpt>
      <trkpt lat="44.50274" lon="1.64591">
        <ele>330.3</ele>
        <time>2022-05-07T13:41:56Z</time>
      </trkpt>
      <trkpt lat="44.50277" lon="1.6459">
        <ele>330.1</ele>
        <time>2022-05-07T13:41:58Z</time>
      </trkpt>
      <trkpt lat="44.50279" lon="1.6459">
        <ele>330.1</ele>
        <time>2022-05-07T13:41:59Z</time>
      </trkpt>
      <trkpt lat="44.50282" lon="1.6459">
        <ele>329.9</ele>
        <time>2022-05-07T13:42:00Z</time>
      </trkpt>
      <trkpt lat="44.50284" lon="1.6459">
        <ele>329.9</ele>
        <time>2022-05-07T13:42:01Z</time>
      </trkpt>
      <trkpt lat="44.50287" lon="1.6459">
        <ele>329.7</ele>
        <time>2022-05-07T13:42:02Z</time>
      </trkpt>
      <trkpt lat="44.50294" lon="1.64588">
        <ele>329.4</ele>
        <time>2022-05-07T13:42:04Z</time>
      </trkpt>
      <trkpt lat="44.50298" lon="1.64588">
        <ele>329.2</ele>
        <time>2022-05-07T13:42:05Z</time>
      </trkpt>
      <trkpt lat="44.50307" lon="1.64587">
        <ele>328.9</ele>
        <time>2022-05-07T13:42:07Z</time>
      </trkpt>
      <trkpt lat="44.5031" lon="1.64587">
        <ele>328.7</ele>
        <time>2022-05-07T13:42:08Z</time>
      </trkpt>
      <trkpt lat="44.50318" lon="1.64586">
        <ele>328.4</ele>
        <time>2022-05-07T13:42:10Z</time>
      </trkpt>
      <trkpt lat="44.50323" lon="1.64587">
        <ele>328.1</ele>
        <time>2022-05-07T13:42:11Z</time>
      </trkpt>
      <trkpt lat="44.50329" lon="1.64587">
        <ele>327.9</ele>
        <time>2022-05-07T13:42:12Z</time>
      </trkpt>
      <trkpt lat="44.50334" lon="1.64587">
        <ele>327.6</ele>
        <time>2022-05-07T13:42:13Z</time>
      </trkpt>
      <trkpt lat="44.50339" lon="1.64588">
        <ele>327.3</ele>
        <time>2022-05-07T13:42:14Z</time>
      </trkpt>
      <trkpt lat="44.50345" lon="1.64588">
        <ele>326.9</ele>
        <time>2022-05-07T13:42:15Z</time>
      </trkpt>
      <trkpt lat="44.5035" lon="1.64589">
        <ele>326.5</ele>
        <time>2022-05-07T13:42:16Z</time>
      </trkpt>
      <trkpt lat="44.50355" lon="1.64591">
        <ele>326</ele>
        <time>2022-05-07T13:42:17Z</time>
      </trkpt>
      <trkpt lat="44.50361" lon="1.64593">
        <ele>325.5</ele>
        <time>2022-05-07T13:42:18Z</time>
      </trkpt>
      <trkpt lat="44.50367" lon="1.64595">
        <ele>325</ele>
        <time>2022-05-07T13:42:19Z</time>
      </trkpt>
      <trkpt lat="44.50373" lon="1.64597">
        <ele>324.3</ele>
        <time>2022-05-07T13:42:20Z</time>
      </trkpt>
      <trkpt lat="44.5038" lon="1.646">
        <ele>323.7</ele>
        <time>2022-05-07T13:42:21Z</time>
      </trkpt>
      <trkpt lat="44.50387" lon="1.64603">
        <ele>323.1</ele>
        <time>2022-05-07T13:42:22Z</time>
      </trkpt>
      <trkpt lat="44.50394" lon="1.64607">
        <ele>322.4</ele>
        <time>2022-05-07T13:42:23Z</time>
      </trkpt>
      <trkpt lat="44.50402" lon="1.6461">
        <ele>321.8</ele>
        <time>2022-05-07T13:42:24Z</time>
      </trkpt>
      <trkpt lat="44.50409" lon="1.64612">
        <ele>321.2</ele>
        <time>2022-05-07T13:42:25Z</time>
      </trkpt>
      <trkpt lat="44.50418" lon="1.64614">
        <ele>320.7</ele>
        <time>2022-05-07T13:42:26Z</time>
      </trkpt>
      <trkpt lat="44.50425" lon="1.64616">
        <ele>320.3</ele>
        <time>2022-05-07T13:42:27Z</time>
      </trkpt>
      <trkpt lat="44.50429" lon="1.64616">
        <ele>320.2</ele>
        <time>2022-05-07T13:42:28Z</time>
      </trkpt>
      <trkpt lat="44.50432" lon="1.64616">
        <ele>320.1</ele>
        <time>2022-05-07T13:42:29Z</time>
      </trkpt>
      <trkpt lat="44.50436" lon="1.64617">
        <ele>320</ele>
        <time>2022-05-07T13:42:30Z</time>
      </trkpt>
      <trkpt lat="44.50437" lon="1.64618">
        <ele>319.9</ele>
        <time>2022-05-07T13:42:31Z</time>
      </trkpt>
      <trkpt lat="44.5044" lon="1.64617">
        <ele>319.9</ele>
        <time>2022-05-07T13:42:32Z</time>
      </trkpt>
      <trkpt lat="44.50442" lon="1.64617">
        <ele>319.9</ele>
        <time>2022-05-07T13:42:33Z</time>
      </trkpt>
      <trkpt lat="44.50445" lon="1.64616">
        <ele>319.9</ele>
        <time>2022-05-07T13:42:34Z</time>
      </trkpt>
      <trkpt lat="44.50449" lon="1.64616">
        <ele>319.9</ele>
        <time>2022-05-07T13:42:36Z</time>
      </trkpt>
      <trkpt lat="44.50453" lon="1.64615">
        <ele>319.9</ele>
        <time>2022-05-07T13:42:37Z</time>
      </trkpt>
      <trkpt lat="44.50457" lon="1.64613">
        <ele>320</ele>
        <time>2022-05-07T13:42:38Z</time>
      </trkpt>
      <trkpt lat="44.5046" lon="1.64611">
        <ele>320.1</ele>
        <time>2022-05-07T13:42:39Z</time>
      </trkpt>
      <trkpt lat="44.50463" lon="1.64608">
        <ele>320.2</ele>
        <time>2022-05-07T13:42:40Z</time>
      </trkpt>
      <trkpt lat="44.50467" lon="1.64605">
        <ele>320.3</ele>
        <time>2022-05-07T13:42:42Z</time>
      </trkpt>
      <trkpt lat="44.50471" lon="1.64602">
        <ele>320.5</ele>
        <time>2022-05-07T13:42:43Z</time>
      </trkpt>
      <trkpt lat="44.50472" lon="1.646">
        <ele>320.5</ele>
        <time>2022-05-07T13:42:44Z</time>
      </trkpt>
      <trkpt lat="44.50475" lon="1.64598">
        <ele>320.7</ele>
        <time>2022-05-07T13:42:45Z</time>
      </trkpt>
      <trkpt lat="44.50476" lon="1.64597">
        <ele>320.7</ele>
        <time>2022-05-07T13:42:46Z</time>
      </trkpt>
      <trkpt lat="44.50478" lon="1.64595">
        <ele>320.9</ele>
        <time>2022-05-07T13:42:47Z</time>
      </trkpt>
      <trkpt lat="44.50479" lon="1.64593">
        <ele>320.9</ele>
        <time>2022-05-07T13:42:48Z</time>
      </trkpt>
      <trkpt lat="44.50481" lon="1.64591">
        <ele>321</ele>
        <time>2022-05-07T13:42:49Z</time>
      </trkpt>
      <trkpt lat="44.50482" lon="1.6459">
        <ele>321.1</ele>
        <time>2022-05-07T13:42:50Z</time>
      </trkpt>
      <trkpt lat="44.50485" lon="1.64588">
        <ele>321.2</ele>
        <time>2022-05-07T13:42:51Z</time>
      </trkpt>
      <trkpt lat="44.50486" lon="1.64587">
        <ele>321.3</ele>
        <time>2022-05-07T13:42:52Z</time>
      </trkpt>
      <trkpt lat="44.50487" lon="1.64584">
        <ele>321.4</ele>
        <time>2022-05-07T13:42:53Z</time>
      </trkpt>
      <trkpt lat="44.5049" lon="1.64581">
        <ele>321.6</ele>
        <time>2022-05-07T13:42:55Z</time>
      </trkpt>
      <trkpt lat="44.50492" lon="1.64579">
        <ele>321.7</ele>
        <time>2022-05-07T13:42:56Z</time>
      </trkpt>
      <trkpt lat="44.50494" lon="1.64576">
        <ele>321.9</ele>
        <time>2022-05-07T13:42:57Z</time>
      </trkpt>
      <trkpt lat="44.50496" lon="1.64572">
        <ele>322.2</ele>
        <time>2022-05-07T13:42:58Z</time>
      </trkpt>
      <trkpt lat="44.50498" lon="1.6457">
        <ele>322.3</ele>
        <time>2022-05-07T13:42:59Z</time>
      </trkpt>
      <trkpt lat="44.50501" lon="1.64568">
        <ele>322.5</ele>
        <time>2022-05-07T13:43:01Z</time>
      </trkpt>
      <trkpt lat="44.50503" lon="1.64563">
        <ele>322.8</ele>
        <time>2022-05-07T13:43:02Z</time>
      </trkpt>
      <trkpt lat="44.50505" lon="1.6456">
        <ele>323</ele>
        <time>2022-05-07T13:43:03Z</time>
      </trkpt>
      <trkpt lat="44.50508" lon="1.64556">
        <ele>323.3</ele>
        <time>2022-05-07T13:43:04Z</time>
      </trkpt>
      <trkpt lat="44.50509" lon="1.64555">
        <ele>323.4</ele>
        <time>2022-05-07T13:43:05Z</time>
      </trkpt>
      <trkpt lat="44.50512" lon="1.6455">
        <ele>323.7</ele>
        <time>2022-05-07T13:43:07Z</time>
      </trkpt>
      <trkpt lat="44.50513" lon="1.64548">
        <ele>323.8</ele>
        <time>2022-05-07T13:43:08Z</time>
      </trkpt>
      <trkpt lat="44.50515" lon="1.64546">
        <ele>323.9</ele>
        <time>2022-05-07T13:43:09Z</time>
      </trkpt>
      <trkpt lat="44.50516" lon="1.64542">
        <ele>324</ele>
        <time>2022-05-07T13:43:10Z</time>
      </trkpt>
      <trkpt lat="44.50517" lon="1.64541">
        <ele>324.1</ele>
        <time>2022-05-07T13:43:11Z</time>
      </trkpt>
      <trkpt lat="44.50518" lon="1.64537">
        <ele>324.2</ele>
        <time>2022-05-07T13:43:12Z</time>
      </trkpt>
      <trkpt lat="44.5052" lon="1.64533">
        <ele>324.4</ele>
        <time>2022-05-07T13:43:13Z</time>
      </trkpt>
      <trkpt lat="44.50521" lon="1.64532">
        <ele>324.5</ele>
        <time>2022-05-07T13:43:14Z</time>
      </trkpt>
      <trkpt lat="44.50523" lon="1.64527">
        <ele>324.7</ele>
        <time>2022-05-07T13:43:16Z</time>
      </trkpt>
      <trkpt lat="44.50524" lon="1.64524">
        <ele>324.8</ele>
        <time>2022-05-07T13:43:17Z</time>
      </trkpt>
      <trkpt lat="44.50527" lon="1.6452">
        <ele>324.9</ele>
        <time>2022-05-07T13:43:18Z</time>
      </trkpt>
      <trkpt lat="44.50527" lon="1.64519">
        <ele>325</ele>
        <time>2022-05-07T13:43:19Z</time>
      </trkpt>
      <trkpt lat="44.50528" lon="1.64516">
        <ele>325.1</ele>
        <time>2022-05-07T13:43:20Z</time>
      </trkpt>
      <trkpt lat="44.50531" lon="1.64513">
        <ele>325.2</ele>
        <time>2022-05-07T13:43:22Z</time>
      </trkpt>
      <trkpt lat="44.50533" lon="1.64509">
        <ele>325.3</ele>
        <time>2022-05-07T13:43:23Z</time>
      </trkpt>
      <trkpt lat="44.50534" lon="1.64507">
        <ele>325.3</ele>
        <time>2022-05-07T13:43:24Z</time>
      </trkpt>
      <trkpt lat="44.50535" lon="1.64503">
        <ele>325.4</ele>
        <time>2022-05-07T13:43:25Z</time>
      </trkpt>
      <trkpt lat="44.50537" lon="1.645">
        <ele>325.4</ele>
        <time>2022-05-07T13:43:26Z</time>
      </trkpt>
      <trkpt lat="44.50539" lon="1.64495">
        <ele>325.4</ele>
        <time>2022-05-07T13:43:27Z</time>
      </trkpt>
      <trkpt lat="44.5054" lon="1.64493">
        <ele>325.4</ele>
        <time>2022-05-07T13:43:28Z</time>
      </trkpt>
      <trkpt lat="44.50541" lon="1.6449">
        <ele>325.4</ele>
        <time>2022-05-07T13:43:29Z</time>
      </trkpt>
      <trkpt lat="44.50543" lon="1.64487">
        <ele>325.5</ele>
        <time>2022-05-07T13:43:30Z</time>
      </trkpt>
      <trkpt lat="44.50545" lon="1.64484">
        <ele>325.5</ele>
        <time>2022-05-07T13:43:31Z</time>
      </trkpt>
      <trkpt lat="44.50547" lon="1.64479">
        <ele>325.5</ele>
        <time>2022-05-07T13:43:33Z</time>
      </trkpt>
      <trkpt lat="44.5055" lon="1.64475">
        <ele>325.5</ele>
        <time>2022-05-07T13:43:34Z</time>
      </trkpt>
      <trkpt lat="44.50551" lon="1.64474">
        <ele>325.5</ele>
        <time>2022-05-07T13:43:35Z</time>
      </trkpt>
      <trkpt lat="44.50553" lon="1.64471">
        <ele>325.5</ele>
        <time>2022-05-07T13:43:36Z</time>
      </trkpt>
      <trkpt lat="44.50554" lon="1.6447">
        <ele>325.5</ele>
        <time>2022-05-07T13:43:37Z</time>
      </trkpt>
      <trkpt lat="44.50556" lon="1.64466">
        <ele>325.6</ele>
        <time>2022-05-07T13:43:39Z</time>
      </trkpt>
      <trkpt lat="44.50557" lon="1.64465">
        <ele>325.6</ele>
        <time>2022-05-07T13:43:40Z</time>
      </trkpt>
      <trkpt lat="44.50558" lon="1.64461">
        <ele>325.6</ele>
        <time>2022-05-07T13:43:41Z</time>
      </trkpt>
      <trkpt lat="44.50558" lon="1.64459">
        <ele>325.6</ele>
        <time>2022-05-07T13:43:42Z</time>
      </trkpt>
      <trkpt lat="44.5056" lon="1.64456">
        <ele>325.7</ele>
        <time>2022-05-07T13:43:43Z</time>
      </trkpt>
      <trkpt lat="44.5056" lon="1.64455">
        <ele>325.7</ele>
        <time>2022-05-07T13:43:44Z</time>
      </trkpt>
      <trkpt lat="44.50562" lon="1.64451">
        <ele>325.8</ele>
        <time>2022-05-07T13:43:45Z</time>
      </trkpt>
      <trkpt lat="44.50563" lon="1.64447">
        <ele>325.9</ele>
        <time>2022-05-07T13:43:46Z</time>
      </trkpt>
      <trkpt lat="44.50564" lon="1.64446">
        <ele>325.9</ele>
        <time>2022-05-07T13:43:47Z</time>
      </trkpt>
      <trkpt lat="44.50565" lon="1.64441">
        <ele>326</ele>
        <time>2022-05-07T13:43:48Z</time>
      </trkpt>
      <trkpt lat="44.50566" lon="1.6444">
        <ele>326.1</ele>
        <time>2022-05-07T13:43:49Z</time>
      </trkpt>
      <trkpt lat="44.50566" lon="1.64437">
        <ele>326.2</ele>
        <time>2022-05-07T13:43:50Z</time>
      </trkpt>
      <trkpt lat="44.50567" lon="1.64432">
        <ele>326.3</ele>
        <time>2022-05-07T13:43:52Z</time>
      </trkpt>
      <trkpt lat="44.50568" lon="1.64428">
        <ele>326.5</ele>
        <time>2022-05-07T13:43:53Z</time>
      </trkpt>
      <trkpt lat="44.50568" lon="1.64426">
        <ele>326.6</ele>
        <time>2022-05-07T13:43:54Z</time>
      </trkpt>
      <trkpt lat="44.5057" lon="1.64422">
        <ele>326.7</ele>
        <time>2022-05-07T13:43:56Z</time>
      </trkpt>
      <trkpt lat="44.5057" lon="1.64417">
        <ele>326.9</ele>
        <time>2022-05-07T13:43:57Z</time>
      </trkpt>
      <trkpt lat="44.50571" lon="1.64412">
        <ele>327.2</ele>
        <time>2022-05-07T13:43:59Z</time>
      </trkpt>
      <trkpt lat="44.50571" lon="1.64408">
        <ele>327.3</ele>
        <time>2022-05-07T13:44:00Z</time>
      </trkpt>
      <trkpt lat="44.50572" lon="1.64404">
        <ele>327.5</ele>
        <time>2022-05-07T13:44:01Z</time>
      </trkpt>
      <trkpt lat="44.50572" lon="1.644">
        <ele>327.7</ele>
        <time>2022-05-07T13:44:02Z</time>
      </trkpt>
      <trkpt lat="44.50573" lon="1.64396">
        <ele>327.8</ele>
        <time>2022-05-07T13:44:03Z</time>
      </trkpt>
      <trkpt lat="44.50573" lon="1.64391">
        <ele>328</ele>
        <time>2022-05-07T13:44:05Z</time>
      </trkpt>
      <trkpt lat="44.50573" lon="1.64389">
        <ele>328</ele>
        <time>2022-05-07T13:44:06Z</time>
      </trkpt>
      <trkpt lat="44.50573" lon="1.64385">
        <ele>328.2</ele>
        <time>2022-05-07T13:44:07Z</time>
      </trkpt>
      <trkpt lat="44.50574" lon="1.64384">
        <ele>328.2</ele>
        <time>2022-05-07T13:44:08Z</time>
      </trkpt>
      <trkpt lat="44.50574" lon="1.64381">
        <ele>328.3</ele>
        <time>2022-05-07T13:44:09Z</time>
      </trkpt>
      <trkpt lat="44.50574" lon="1.64377">
        <ele>328.4</ele>
        <time>2022-05-07T13:44:11Z</time>
      </trkpt>
      <trkpt lat="44.50575" lon="1.64372">
        <ele>328.5</ele>
        <time>2022-05-07T13:44:12Z</time>
      </trkpt>
      <trkpt lat="44.50576" lon="1.6437">
        <ele>328.6</ele>
        <time>2022-05-07T13:44:13Z</time>
      </trkpt>
      <trkpt lat="44.50577" lon="1.64365">
        <ele>328.7</ele>
        <time>2022-05-07T13:44:14Z</time>
      </trkpt>
      <trkpt lat="44.50577" lon="1.64364">
        <ele>328.7</ele>
        <time>2022-05-07T13:44:15Z</time>
      </trkpt>
      <trkpt lat="44.50577" lon="1.6436">
        <ele>328.8</ele>
        <time>2022-05-07T13:44:16Z</time>
      </trkpt>
      <trkpt lat="44.50578" lon="1.64356">
        <ele>328.9</ele>
        <time>2022-05-07T13:44:18Z</time>
      </trkpt>
      <trkpt lat="44.50579" lon="1.64351">
        <ele>328.9</ele>
        <time>2022-05-07T13:44:19Z</time>
      </trkpt>
      <trkpt lat="44.5058" lon="1.64347">
        <ele>329</ele>
        <time>2022-05-07T13:44:20Z</time>
      </trkpt>
      <trkpt lat="44.5058" lon="1.64342">
        <ele>329.1</ele>
        <time>2022-05-07T13:44:21Z</time>
      </trkpt>
      <trkpt lat="44.50581" lon="1.6434">
        <ele>329.1</ele>
        <time>2022-05-07T13:44:22Z</time>
      </trkpt>
      <trkpt lat="44.50582" lon="1.64334">
        <ele>329.2</ele>
        <time>2022-05-07T13:44:24Z</time>
      </trkpt>
      <trkpt lat="44.50582" lon="1.64329">
        <ele>329.2</ele>
        <time>2022-05-07T13:44:25Z</time>
      </trkpt>
      <trkpt lat="44.50583" lon="1.64327">
        <ele>329.3</ele>
        <time>2022-05-07T13:44:26Z</time>
      </trkpt>
      <trkpt lat="44.50583" lon="1.64323">
        <ele>329.3</ele>
        <time>2022-05-07T13:44:27Z</time>
      </trkpt>
      <trkpt lat="44.50583" lon="1.64319">
        <ele>329.3</ele>
        <time>2022-05-07T13:44:28Z</time>
      </trkpt>
      <trkpt lat="44.50584" lon="1.64315">
        <ele>329.3</ele>
        <time>2022-05-07T13:44:30Z</time>
      </trkpt>
      <trkpt lat="44.50585" lon="1.64309">
        <ele>329.4</ele>
        <time>2022-05-07T13:44:31Z</time>
      </trkpt>
      <trkpt lat="44.50585" lon="1.64305">
        <ele>329.4</ele>
        <time>2022-05-07T13:44:32Z</time>
      </trkpt>
      <trkpt lat="44.50586" lon="1.64301">
        <ele>329.4</ele>
        <time>2022-05-07T13:44:33Z</time>
      </trkpt>
      <trkpt lat="44.50587" lon="1.64297">
        <ele>329.4</ele>
        <time>2022-05-07T13:44:34Z</time>
      </trkpt>
      <trkpt lat="44.50588" lon="1.64293">
        <ele>329.4</ele>
        <time>2022-05-07T13:44:35Z</time>
      </trkpt>
      <trkpt lat="44.50589" lon="1.6429">
        <ele>329.4</ele>
        <time>2022-05-07T13:44:36Z</time>
      </trkpt>
      <trkpt lat="44.5059" lon="1.64285">
        <ele>329.4</ele>
        <time>2022-05-07T13:44:37Z</time>
      </trkpt>
      <trkpt lat="44.50591" lon="1.64283">
        <ele>329.4</ele>
        <time>2022-05-07T13:44:38Z</time>
      </trkpt>
      <trkpt lat="44.50594" lon="1.64279">
        <ele>329.3</ele>
        <time>2022-05-07T13:44:40Z</time>
      </trkpt>
      <trkpt lat="44.50596" lon="1.64275">
        <ele>329.2</ele>
        <time>2022-05-07T13:44:41Z</time>
      </trkpt>
      <trkpt lat="44.50598" lon="1.6427">
        <ele>329.1</ele>
        <time>2022-05-07T13:44:42Z</time>
      </trkpt>
      <trkpt lat="44.50601" lon="1.64265">
        <ele>329</ele>
        <time>2022-05-07T13:44:43Z</time>
      </trkpt>
      <trkpt lat="44.50602" lon="1.64264">
        <ele>329</ele>
        <time>2022-05-07T13:44:44Z</time>
      </trkpt>
      <trkpt lat="44.50604" lon="1.64258">
        <ele>328.9</ele>
        <time>2022-05-07T13:44:46Z</time>
      </trkpt>
      <trkpt lat="44.50607" lon="1.64252">
        <ele>328.7</ele>
        <time>2022-05-07T13:44:47Z</time>
      </trkpt>
      <trkpt lat="44.50609" lon="1.64249">
        <ele>328.6</ele>
        <time>2022-05-07T13:44:48Z</time>
      </trkpt>
      <trkpt lat="44.50611" lon="1.64245">
        <ele>328.5</ele>
        <time>2022-05-07T13:44:49Z</time>
      </trkpt>
      <trkpt lat="44.50612" lon="1.6424">
        <ele>328.4</ele>
        <time>2022-05-07T13:44:51Z</time>
      </trkpt>
      <trkpt lat="44.50616" lon="1.64233">
        <ele>328.3</ele>
        <time>2022-05-07T13:44:52Z</time>
      </trkpt>
      <trkpt lat="44.50618" lon="1.64228">
        <ele>328.2</ele>
        <time>2022-05-07T13:44:53Z</time>
      </trkpt>
      <trkpt lat="44.5062" lon="1.64224">
        <ele>328.2</ele>
        <time>2022-05-07T13:44:54Z</time>
      </trkpt>
      <trkpt lat="44.50622" lon="1.64219">
        <ele>328.1</ele>
        <time>2022-05-07T13:44:55Z</time>
      </trkpt>
      <trkpt lat="44.50624" lon="1.64216">
        <ele>328.1</ele>
        <time>2022-05-07T13:44:56Z</time>
      </trkpt>
      <trkpt lat="44.50626" lon="1.6421">
        <ele>328.1</ele>
        <time>2022-05-07T13:44:58Z</time>
      </trkpt>
      <trkpt lat="44.50627" lon="1.64205">
        <ele>328</ele>
        <time>2022-05-07T13:44:59Z</time>
      </trkpt>
      <trkpt lat="44.5063" lon="1.64199">
        <ele>327.9</ele>
        <time>2022-05-07T13:45:00Z</time>
      </trkpt>
      <trkpt lat="44.50631" lon="1.64195">
        <ele>327.8</ele>
        <time>2022-05-07T13:45:01Z</time>
      </trkpt>
      <trkpt lat="44.50634" lon="1.64191">
        <ele>327.7</ele>
        <time>2022-05-07T13:45:03Z</time>
      </trkpt>
      <trkpt lat="44.50636" lon="1.64186">
        <ele>327.5</ele>
        <time>2022-05-07T13:45:04Z</time>
      </trkpt>
      <trkpt lat="44.50637" lon="1.64181">
        <ele>327.3</ele>
        <time>2022-05-07T13:45:05Z</time>
      </trkpt>
      <trkpt lat="44.50639" lon="1.64177">
        <ele>327.1</ele>
        <time>2022-05-07T13:45:06Z</time>
      </trkpt>
      <trkpt lat="44.50641" lon="1.64174">
        <ele>326.8</ele>
        <time>2022-05-07T13:45:07Z</time>
      </trkpt>
      <trkpt lat="44.50645" lon="1.64173">
        <ele>326.4</ele>
        <time>2022-05-07T13:45:08Z</time>
      </trkpt>
      <trkpt lat="44.50648" lon="1.64172">
        <ele>326.1</ele>
        <time>2022-05-07T13:45:09Z</time>
      </trkpt>
      <trkpt lat="44.50653" lon="1.64172">
        <ele>325.5</ele>
        <time>2022-05-07T13:45:10Z</time>
      </trkpt>
      <trkpt lat="44.50659" lon="1.64173">
        <ele>324.7</ele>
        <time>2022-05-07T13:45:11Z</time>
      </trkpt>
      <trkpt lat="44.50666" lon="1.64174">
        <ele>323.8</ele>
        <time>2022-05-07T13:45:12Z</time>
      </trkpt>
      <trkpt lat="44.50673" lon="1.64174">
        <ele>322.7</ele>
        <time>2022-05-07T13:45:13Z</time>
      </trkpt>
      <trkpt lat="44.50681" lon="1.64175">
        <ele>321.6</ele>
        <time>2022-05-07T13:45:14Z</time>
      </trkpt>
      <trkpt lat="44.5069" lon="1.64174">
        <ele>320.3</ele>
        <time>2022-05-07T13:45:15Z</time>
      </trkpt>
      <trkpt lat="44.50699" lon="1.64174">
        <ele>319</ele>
        <time>2022-05-07T13:45:16Z</time>
      </trkpt>
      <trkpt lat="44.50708" lon="1.64174">
        <ele>317.6</ele>
        <time>2022-05-07T13:45:17Z</time>
      </trkpt>
      <trkpt lat="44.50718" lon="1.64174">
        <ele>316.2</ele>
        <time>2022-05-07T13:45:18Z</time>
      </trkpt>
      <trkpt lat="44.50727" lon="1.64175">
        <ele>314.7</ele>
        <time>2022-05-07T13:45:19Z</time>
      </trkpt>
      <trkpt lat="44.50735" lon="1.64176">
        <ele>313.5</ele>
        <time>2022-05-07T13:45:20Z</time>
      </trkpt>
      <trkpt lat="44.5074" lon="1.64176">
        <ele>312.6</ele>
        <time>2022-05-07T13:45:21Z</time>
      </trkpt>
      <trkpt lat="44.50744" lon="1.64177">
        <ele>312</ele>
        <time>2022-05-07T13:45:22Z</time>
      </trkpt>
      <trkpt lat="44.50747" lon="1.64178">
        <ele>311.5</ele>
        <time>2022-05-07T13:45:23Z</time>
      </trkpt>
      <trkpt lat="44.50748" lon="1.64178">
        <ele>311.3</ele>
        <time>2022-05-07T13:45:24Z</time>
      </trkpt>
      <trkpt lat="44.5075" lon="1.64179">
        <ele>310.9</ele>
        <time>2022-05-07T13:45:25Z</time>
      </trkpt>
      <trkpt lat="44.50751" lon="1.6418">
        <ele>310.7</ele>
        <time>2022-05-07T13:45:26Z</time>
      </trkpt>
      <trkpt lat="44.50752" lon="1.6418">
        <ele>310.5</ele>
        <time>2022-05-07T13:45:27Z</time>
      </trkpt>
      <trkpt lat="44.50756" lon="1.64181">
        <ele>309.7</ele>
        <time>2022-05-07T13:45:28Z</time>
      </trkpt>
      <trkpt lat="44.50757" lon="1.64182">
        <ele>309.6</ele>
        <time>2022-05-07T13:45:29Z</time>
      </trkpt>
      <trkpt lat="44.5076" lon="1.64184">
        <ele>309.2</ele>
        <time>2022-05-07T13:45:30Z</time>
      </trkpt>
      <trkpt lat="44.50765" lon="1.64192">
        <ele>308.3</ele>
        <time>2022-05-07T13:45:32Z</time>
      </trkpt>
      <trkpt lat="44.5077" lon="1.64204">
        <ele>307.3</ele>
        <time>2022-05-07T13:45:33Z</time>
      </trkpt>
      <trkpt lat="44.50773" lon="1.64212">
        <ele>306.7</ele>
        <time>2022-05-07T13:45:34Z</time>
      </trkpt>
      <trkpt lat="44.50776" lon="1.6422">
        <ele>306</ele>
        <time>2022-05-07T13:45:35Z</time>
      </trkpt>
      <trkpt lat="44.50779" lon="1.64229">
        <ele>305.4</ele>
        <time>2022-05-07T13:45:36Z</time>
      </trkpt>
      <trkpt lat="44.50782" lon="1.64238">
        <ele>304.7</ele>
        <time>2022-05-07T13:45:37Z</time>
      </trkpt>
      <trkpt lat="44.50785" lon="1.64247">
        <ele>303.9</ele>
        <time>2022-05-07T13:45:38Z</time>
      </trkpt>
      <trkpt lat="44.50788" lon="1.64257">
        <ele>303.2</ele>
        <time>2022-05-07T13:45:39Z</time>
      </trkpt>
      <trkpt lat="44.50791" lon="1.64267">
        <ele>302.4</ele>
        <time>2022-05-07T13:45:40Z</time>
      </trkpt>
      <trkpt lat="44.50794" lon="1.64278">
        <ele>301.6</ele>
        <time>2022-05-07T13:45:41Z</time>
      </trkpt>
      <trkpt lat="44.50796" lon="1.64289">
        <ele>300.7</ele>
        <time>2022-05-07T13:45:42Z</time>
      </trkpt>
      <trkpt lat="44.50799" lon="1.64301">
        <ele>299.9</ele>
        <time>2022-05-07T13:45:43Z</time>
      </trkpt>
      <trkpt lat="44.50802" lon="1.64313">
        <ele>298.9</ele>
        <time>2022-05-07T13:45:44Z</time>
      </trkpt>
      <trkpt lat="44.50806" lon="1.64325">
        <ele>297.9</ele>
        <time>2022-05-07T13:45:45Z</time>
      </trkpt>
      <trkpt lat="44.50809" lon="1.64334">
        <ele>297.1</ele>
        <time>2022-05-07T13:45:46Z</time>
      </trkpt>
      <trkpt lat="44.50812" lon="1.64341">
        <ele>296.4</ele>
        <time>2022-05-07T13:45:47Z</time>
      </trkpt>
      <trkpt lat="44.50813" lon="1.64345">
        <ele>295.9</ele>
        <time>2022-05-07T13:45:48Z</time>
      </trkpt>
      <trkpt lat="44.50812" lon="1.64347">
        <ele>295.6</ele>
        <time>2022-05-07T13:45:49Z</time>
      </trkpt>
      <trkpt lat="44.50811" lon="1.64348">
        <ele>295.5</ele>
        <time>2022-05-07T13:45:50Z</time>
      </trkpt>
      <trkpt lat="44.50811" lon="1.64349">
        <ele>295.3</ele>
        <time>2022-05-07T13:45:51Z</time>
      </trkpt>
      <trkpt lat="44.5081" lon="1.6435">
        <ele>295.2</ele>
        <time>2022-05-07T13:45:52Z</time>
      </trkpt>
      <trkpt lat="44.5081" lon="1.64351">
        <ele>295.1</ele>
        <time>2022-05-07T13:45:53Z</time>
      </trkpt>
      <trkpt lat="44.50809" lon="1.64352">
        <ele>295</ele>
        <time>2022-05-07T13:45:54Z</time>
      </trkpt>
      <trkpt lat="44.50808" lon="1.64352">
        <ele>294.8</ele>
        <time>2022-05-07T13:45:55Z</time>
      </trkpt>
      <trkpt lat="44.50808" lon="1.64353">
        <ele>294.7</ele>
        <time>2022-05-07T13:45:56Z</time>
      </trkpt>
      <trkpt lat="44.50807" lon="1.64354">
        <ele>294.6</ele>
        <time>2022-05-07T13:45:58Z</time>
      </trkpt>
      <trkpt lat="44.50807" lon="1.64355">
        <ele>294.5</ele>
        <time>2022-05-07T13:45:59Z</time>
      </trkpt>
      <trkpt lat="44.50806" lon="1.64356">
        <ele>294.4</ele>
        <time>2022-05-07T13:46:00Z</time>
      </trkpt>
      <trkpt lat="44.508" lon="1.64364">
        <ele>293.2</ele>
        <time>2022-05-07T13:46:02Z</time>
      </trkpt>
      <trkpt lat="44.50796" lon="1.64368">
        <ele>292.6</ele>
        <time>2022-05-07T13:46:03Z</time>
      </trkpt>
      <trkpt lat="44.50791" lon="1.64372">
        <ele>292</ele>
        <time>2022-05-07T13:46:04Z</time>
      </trkpt>
      <trkpt lat="44.50786" lon="1.64375">
        <ele>292.1</ele>
        <time>2022-05-07T13:46:05Z</time>
      </trkpt>
      <trkpt lat="44.50782" lon="1.64373">
        <ele>292.1</ele>
        <time>2022-05-07T13:46:06Z</time>
      </trkpt>
      <trkpt lat="44.5078" lon="1.64373">
        <ele>292.5</ele>
        <time>2022-05-07T13:46:07Z</time>
      </trkpt>
      <trkpt lat="44.5078" lon="1.64374">
        <ele>292.5</ele>
        <time>2022-05-07T13:46:09Z</time>
      </trkpt>
      <trkpt lat="44.5078" lon="1.64374">
        <ele>292.5</ele>
        <time>2022-05-07T13:46:10Z</time>
      </trkpt>
      <trkpt lat="44.5078" lon="1.64375">
        <ele>292.2</ele>
        <time>2022-05-07T13:46:11Z</time>
      </trkpt>
      <trkpt lat="44.5078" lon="1.64375">
        <ele>292.2</ele>
        <time>2022-05-07T13:46:12Z</time>
      </trkpt>
      <trkpt lat="44.5078" lon="1.64376">
        <ele>292.2</ele>
        <time>2022-05-07T13:46:13Z</time>
      </trkpt>
      <trkpt lat="44.5078" lon="1.64376">
        <ele>292.2</ele>
        <time>2022-05-07T13:46:14Z</time>
      </trkpt>
      <trkpt lat="44.5078" lon="1.64377">
        <ele>292.2</ele>
        <time>2022-05-07T13:46:16Z</time>
      </trkpt>
      <trkpt lat="44.5078" lon="1.64377">
        <ele>292.2</ele>
        <time>2022-05-07T13:46:17Z</time>
      </trkpt>
      <trkpt lat="44.50779" lon="1.64383">
        <ele>291.6</ele>
        <time>2022-05-07T13:46:18Z</time>
      </trkpt>
      <trkpt lat="44.50778" lon="1.64389">
        <ele>291.4</ele>
        <time>2022-05-07T13:46:19Z</time>
      </trkpt>
      <trkpt lat="44.50778" lon="1.64395">
        <ele>291.1</ele>
        <time>2022-05-07T13:46:20Z</time>
      </trkpt>
      <trkpt lat="44.50776" lon="1.64401">
        <ele>290.7</ele>
        <time>2022-05-07T13:46:21Z</time>
      </trkpt>
      <trkpt lat="44.50776" lon="1.64404">
        <ele>290.7</ele>
        <time>2022-05-07T13:46:22Z</time>
      </trkpt>
      <trkpt lat="44.50774" lon="1.6441">
        <ele>290.2</ele>
        <time>2022-05-07T13:46:23Z</time>
      </trkpt>
      <trkpt lat="44.50772" lon="1.64416">
        <ele>289.7</ele>
        <time>2022-05-07T13:46:24Z</time>
      </trkpt>
      <trkpt lat="44.50769" lon="1.64422">
        <ele>289.3</ele>
        <time>2022-05-07T13:46:25Z</time>
      </trkpt>
      <trkpt lat="44.50766" lon="1.64425">
        <ele>288.9</ele>
        <time>2022-05-07T13:46:26Z</time>
      </trkpt>
      <trkpt lat="44.5076" lon="1.64428">
        <ele>288.6</ele>
        <time>2022-05-07T13:46:27Z</time>
      </trkpt>
      <trkpt lat="44.50757" lon="1.64429">
        <ele>288.7</ele>
        <time>2022-05-07T13:46:28Z</time>
      </trkpt>
      <trkpt lat="44.50749" lon="1.64431">
        <ele>288.8</ele>
        <time>2022-05-07T13:46:30Z</time>
      </trkpt>
      <trkpt lat="44.50744" lon="1.64433">
        <ele>289.1</ele>
        <time>2022-05-07T13:46:31Z</time>
      </trkpt>
      <trkpt lat="44.5074" lon="1.64435">
        <ele>289</ele>
        <time>2022-05-07T13:46:32Z</time>
      </trkpt>
      <trkpt lat="44.5074" lon="1.6444">
        <ele>288.5</ele>
        <time>2022-05-07T13:46:33Z</time>
      </trkpt>
      <trkpt lat="44.50739" lon="1.64442">
        <ele>288.5</ele>
        <time>2022-05-07T13:46:34Z</time>
      </trkpt>
      <trkpt lat="44.50737" lon="1.64445">
        <ele>288.1</ele>
        <time>2022-05-07T13:46:36Z</time>
      </trkpt>
      <trkpt lat="44.50736" lon="1.64447">
        <ele>288.4</ele>
        <time>2022-05-07T13:46:37Z</time>
      </trkpt>
      <trkpt lat="44.50736" lon="1.64447">
        <ele>288.4</ele>
        <time>2022-05-07T13:46:38Z</time>
      </trkpt>
      <trkpt lat="44.50735" lon="1.64449">
        <ele>287.9</ele>
        <time>2022-05-07T13:46:39Z</time>
      </trkpt>
      <trkpt lat="44.50735" lon="1.64453">
        <ele>287.5</ele>
        <time>2022-05-07T13:46:40Z</time>
      </trkpt>
      <trkpt lat="44.50735" lon="1.64456">
        <ele>287.1</ele>
        <time>2022-05-07T13:46:41Z</time>
      </trkpt>
      <trkpt lat="44.50734" lon="1.64464">
        <ele>287</ele>
        <time>2022-05-07T13:46:43Z</time>
      </trkpt>
      <trkpt lat="44.50733" lon="1.64469">
        <ele>286.3</ele>
        <time>2022-05-07T13:46:44Z</time>
      </trkpt>
      <trkpt lat="44.50732" lon="1.64474">
        <ele>285.9</ele>
        <time>2022-05-07T13:46:45Z</time>
      </trkpt>
      <trkpt lat="44.50731" lon="1.64478">
        <ele>285.6</ele>
        <time>2022-05-07T13:46:46Z</time>
      </trkpt>
      <trkpt lat="44.5073" lon="1.64483">
        <ele>285.6</ele>
        <time>2022-05-07T13:46:47Z</time>
      </trkpt>
      <trkpt lat="44.50729" lon="1.64489">
        <ele>285.3</ele>
        <time>2022-05-07T13:46:49Z</time>
      </trkpt>
      <trkpt lat="44.50728" lon="1.6449">
        <ele>285.3</ele>
        <time>2022-05-07T13:46:50Z</time>
      </trkpt>
      <trkpt lat="44.50727" lon="1.64492">
        <ele>285.3</ele>
        <time>2022-05-07T13:46:51Z</time>
      </trkpt>
      <trkpt lat="44.50726" lon="1.64497">
        <ele>284.9</ele>
        <time>2022-05-07T13:46:52Z</time>
      </trkpt>
      <trkpt lat="44.50725" lon="1.645">
        <ele>284.5</ele>
        <time>2022-05-07T13:46:53Z</time>
      </trkpt>
      <trkpt lat="44.50725" lon="1.64504">
        <ele>284.4</ele>
        <time>2022-05-07T13:46:55Z</time>
      </trkpt>
      <trkpt lat="44.50723" lon="1.64509">
        <ele>284</ele>
        <time>2022-05-07T13:46:56Z</time>
      </trkpt>
      <trkpt lat="44.50722" lon="1.64515">
        <ele>283.7</ele>
        <time>2022-05-07T13:46:57Z</time>
      </trkpt>
      <trkpt lat="44.50722" lon="1.6452">
        <ele>283.3</ele>
        <time>2022-05-07T13:46:58Z</time>
      </trkpt>
      <trkpt lat="44.50722" lon="1.64522">
        <ele>283</ele>
        <time>2022-05-07T13:46:59Z</time>
      </trkpt>
      <trkpt lat="44.50723" lon="1.64526">
        <ele>282.7</ele>
        <time>2022-05-07T13:47:00Z</time>
      </trkpt>
      <trkpt lat="44.50723" lon="1.64527">
        <ele>282.7</ele>
        <time>2022-05-07T13:47:01Z</time>
      </trkpt>
      <trkpt lat="44.50724" lon="1.64528">
        <ele>282.7</ele>
        <time>2022-05-07T13:47:02Z</time>
      </trkpt>
      <trkpt lat="44.50725" lon="1.64529">
        <ele>282.4</ele>
        <time>2022-05-07T13:47:03Z</time>
      </trkpt>
      <trkpt lat="44.50727" lon="1.64526">
        <ele>282.4</ele>
        <time>2022-05-07T13:47:04Z</time>
      </trkpt>
      <trkpt lat="44.50727" lon="1.64521">
        <ele>282.8</ele>
        <time>2022-05-07T13:47:05Z</time>
      </trkpt>
      <trkpt lat="44.50727" lon="1.64519">
        <ele>283.1</ele>
        <time>2022-05-07T13:47:06Z</time>
      </trkpt>
      <trkpt lat="44.50728" lon="1.64516">
        <ele>283.2</ele>
        <time>2022-05-07T13:47:07Z</time>
      </trkpt>
      <trkpt lat="44.50729" lon="1.64513">
        <ele>283.2</ele>
        <time>2022-05-07T13:47:09Z</time>
      </trkpt>
      <trkpt lat="44.50731" lon="1.6451">
        <ele>283.6</ele>
        <time>2022-05-07T13:47:10Z</time>
      </trkpt>
      <trkpt lat="44.50731" lon="1.64509">
        <ele>283.4</ele>
        <time>2022-05-07T13:47:11Z</time>
      </trkpt>
      <trkpt lat="44.50731" lon="1.64506">
        <ele>283.8</ele>
        <time>2022-05-07T13:47:12Z</time>
      </trkpt>
      <trkpt lat="44.50731" lon="1.64504">
        <ele>284.1</ele>
        <time>2022-05-07T13:47:13Z</time>
      </trkpt>
      <trkpt lat="44.50733" lon="1.645">
        <ele>284.2</ele>
        <time>2022-05-07T13:47:15Z</time>
      </trkpt>
      <trkpt lat="44.50734" lon="1.64499">
        <ele>284.3</ele>
        <time>2022-05-07T13:47:16Z</time>
      </trkpt>
      <trkpt lat="44.50735" lon="1.64497">
        <ele>284.4</ele>
        <time>2022-05-07T13:47:17Z</time>
      </trkpt>
      <trkpt lat="44.50735" lon="1.64495">
        <ele>284.8</ele>
        <time>2022-05-07T13:47:18Z</time>
      </trkpt>
      <trkpt lat="44.50733" lon="1.6449">
        <ele>285.4</ele>
        <time>2022-05-07T13:47:19Z</time>
      </trkpt>
      <trkpt lat="44.50732" lon="1.64489">
        <ele>285.4</ele>
        <time>2022-05-07T13:47:20Z</time>
      </trkpt>
      <trkpt lat="44.50732" lon="1.64487">
        <ele>285.4</ele>
        <time>2022-05-07T13:47:22Z</time>
      </trkpt>
      <trkpt lat="44.50732" lon="1.64485">
        <ele>285.7</ele>
        <time>2022-05-07T13:47:23Z</time>
      </trkpt>
      <trkpt lat="44.50733" lon="1.64483">
        <ele>285.7</ele>
        <time>2022-05-07T13:47:24Z</time>
      </trkpt>
      <trkpt lat="44.50734" lon="1.64481">
        <ele>286.1</ele>
        <time>2022-05-07T13:47:25Z</time>
      </trkpt>
      <trkpt lat="44.50734" lon="1.64476">
        <ele>286.4</ele>
        <time>2022-05-07T13:47:26Z</time>
      </trkpt>
      <trkpt lat="44.50734" lon="1.64474">
        <ele>286.5</ele>
        <time>2022-05-07T13:47:27Z</time>
      </trkpt>
      <trkpt lat="44.50734" lon="1.6447">
        <ele>286.8</ele>
        <time>2022-05-07T13:47:28Z</time>
      </trkpt>
      <trkpt lat="44.50734" lon="1.64465">
        <ele>286.9</ele>
        <time>2022-05-07T13:47:30Z</time>
      </trkpt>
      <trkpt lat="44.50734" lon="1.64459">
        <ele>287.7</ele>
        <time>2022-05-07T13:47:31Z</time>
      </trkpt>
      <trkpt lat="44.50734" lon="1.64455">
        <ele>288.2</ele>
        <time>2022-05-07T13:47:32Z</time>
      </trkpt>
      <trkpt lat="44.50737" lon="1.64451">
        <ele>288.3</ele>
        <time>2022-05-07T13:47:34Z</time>
      </trkpt>
      <trkpt lat="44.50739" lon="1.64451">
        <ele>288.3</ele>
        <time>2022-05-07T13:47:35Z</time>
      </trkpt>
      <trkpt lat="44.50741" lon="1.64451">
        <ele>288.1</ele>
        <time>2022-05-07T13:47:36Z</time>
      </trkpt>
      <trkpt lat="44.50743" lon="1.64454">
        <ele>287.7</ele>
        <time>2022-05-07T13:47:37Z</time>
      </trkpt>
      <trkpt lat="44.50745" lon="1.64457">
        <ele>287.1</ele>
        <time>2022-05-07T13:47:38Z</time>
      </trkpt>
      <trkpt lat="44.50747" lon="1.6446">
        <ele>286.9</ele>
        <time>2022-05-07T13:47:39Z</time>
      </trkpt>
      <trkpt lat="44.50749" lon="1.64465">
        <ele>286.1</ele>
        <time>2022-05-07T13:47:41Z</time>
      </trkpt>
      <trkpt lat="44.50749" lon="1.64466">
        <ele>286.2</ele>
        <time>2022-05-07T13:47:42Z</time>
      </trkpt>
      <trkpt lat="44.5075" lon="1.64467">
        <ele>286</ele>
        <time>2022-05-07T13:47:43Z</time>
      </trkpt>
      <trkpt lat="44.5075" lon="1.64468">
        <ele>286</ele>
        <time>2022-05-07T13:47:44Z</time>
      </trkpt>
      <trkpt lat="44.50751" lon="1.6447">
        <ele>285.9</ele>
        <time>2022-05-07T13:47:45Z</time>
      </trkpt>
      <trkpt lat="44.50751" lon="1.64471">
        <ele>285.8</ele>
        <time>2022-05-07T13:47:47Z</time>
      </trkpt>
      <trkpt lat="44.50752" lon="1.64472">
        <ele>285.6</ele>
        <time>2022-05-07T13:47:48Z</time>
      </trkpt>
      <trkpt lat="44.50752" lon="1.64473">
        <ele>285.5</ele>
        <time>2022-05-07T13:47:49Z</time>
      </trkpt>
      <trkpt lat="44.50752" lon="1.64474">
        <ele>285.3</ele>
        <time>2022-05-07T13:47:50Z</time>
      </trkpt>
      <trkpt lat="44.50753" lon="1.64475">
        <ele>285.2</ele>
        <time>2022-05-07T13:47:51Z</time>
      </trkpt>
      <trkpt lat="44.50753" lon="1.64477">
        <ele>285</ele>
        <time>2022-05-07T13:47:54Z</time>
      </trkpt>
      <trkpt lat="44.50754" lon="1.64478">
        <ele>284.9</ele>
        <time>2022-05-07T13:47:55Z</time>
      </trkpt>
      <trkpt lat="44.50754" lon="1.64479">
        <ele>284.8</ele>
        <time>2022-05-07T13:47:56Z</time>
      </trkpt>
      <trkpt lat="44.50757" lon="1.64484">
        <ele>284.1</ele>
        <time>2022-05-07T13:47:57Z</time>
      </trkpt>
      <trkpt lat="44.5076" lon="1.64489">
        <ele>283.3</ele>
        <time>2022-05-07T13:47:58Z</time>
      </trkpt>
      <trkpt lat="44.50762" lon="1.64495">
        <ele>282.5</ele>
        <time>2022-05-07T13:47:59Z</time>
      </trkpt>
      <trkpt lat="44.50765" lon="1.64504">
        <ele>281.3</ele>
        <time>2022-05-07T13:48:00Z</time>
      </trkpt>
      <trkpt lat="44.50767" lon="1.64512">
        <ele>280.4</ele>
        <time>2022-05-07T13:48:01Z</time>
      </trkpt>
      <trkpt lat="44.50768" lon="1.64521">
        <ele>279.6</ele>
        <time>2022-05-07T13:48:02Z</time>
      </trkpt>
      <trkpt lat="44.50768" lon="1.6453">
        <ele>278.9</ele>
        <time>2022-05-07T13:48:03Z</time>
      </trkpt>
      <trkpt lat="44.50769" lon="1.6454">
        <ele>278.1</ele>
        <time>2022-05-07T13:48:04Z</time>
      </trkpt>
      <trkpt lat="44.50769" lon="1.64549">
        <ele>277.4</ele>
        <time>2022-05-07T13:48:05Z</time>
      </trkpt>
      <trkpt lat="44.50769" lon="1.64555">
        <ele>277</ele>
        <time>2022-05-07T13:48:06Z</time>
      </trkpt>
      <trkpt lat="44.50769" lon="1.64558">
        <ele>276.8</ele>
        <time>2022-05-07T13:48:07Z</time>
      </trkpt>
      <trkpt lat="44.50768" lon="1.64564">
        <ele>276.4</ele>
        <time>2022-05-07T13:48:09Z</time>
      </trkpt>
      <trkpt lat="44.50767" lon="1.6457">
        <ele>275.9</ele>
        <time>2022-05-07T13:48:10Z</time>
      </trkpt>
      <trkpt lat="44.50767" lon="1.64575">
        <ele>275.5</ele>
        <time>2022-05-07T13:48:11Z</time>
      </trkpt>
      <trkpt lat="44.50766" lon="1.6458">
        <ele>275.1</ele>
        <time>2022-05-07T13:48:12Z</time>
      </trkpt>
      <trkpt lat="44.50766" lon="1.64586">
        <ele>274.6</ele>
        <time>2022-05-07T13:48:13Z</time>
      </trkpt>
      <trkpt lat="44.50765" lon="1.6459">
        <ele>274.2</ele>
        <time>2022-05-07T13:48:15Z</time>
      </trkpt>
      <trkpt lat="44.50764" lon="1.64592">
        <ele>274.1</ele>
        <time>2022-05-07T13:48:16Z</time>
      </trkpt>
      <trkpt lat="44.50765" lon="1.64591">
        <ele>274</ele>
        <time>2022-05-07T13:48:17Z</time>
      </trkpt>
      <trkpt lat="44.50765" lon="1.64589">
        <ele>273.8</ele>
        <time>2022-05-07T13:48:18Z</time>
      </trkpt>
      <trkpt lat="44.50765" lon="1.64589">
        <ele>273.8</ele>
        <time>2022-05-07T13:48:19Z</time>
      </trkpt>
      <trkpt lat="44.50765" lon="1.64589">
        <ele>273.8</ele>
        <time>2022-05-07T13:48:20Z</time>
      </trkpt>
      <trkpt lat="44.50765" lon="1.64589">
        <ele>273.8</ele>
        <time>2022-05-07T13:48:21Z</time>
      </trkpt>
      <trkpt lat="44.50765" lon="1.64589">
        <ele>273.7</ele>
        <time>2022-05-07T13:48:22Z</time>
      </trkpt>
      <trkpt lat="44.50765" lon="1.64589">
        <ele>273.7</ele>
        <time>2022-05-07T13:48:23Z</time>
      </trkpt>
      <trkpt lat="44.50765" lon="1.64589">
        <ele>273.7</ele>
        <time>2022-05-07T13:48:25Z</time>
      </trkpt>
      <trkpt lat="44.50765" lon="1.64603">
        <ele>272.6</ele>
        <time>2022-05-07T13:48:29Z</time>
      </trkpt>
      <trkpt lat="44.50764" lon="1.64611">
        <ele>271.8</ele>
        <time>2022-05-07T13:48:30Z</time>
      </trkpt>
      <trkpt lat="44.50763" lon="1.64618">
        <ele>271.1</ele>
        <time>2022-05-07T13:48:31Z</time>
      </trkpt>
      <trkpt lat="44.50762" lon="1.64633">
        <ele>269.4</ele>
        <time>2022-05-07T13:48:33Z</time>
      </trkpt>
      <trkpt lat="44.50764" lon="1.64638">
        <ele>268.7</ele>
        <time>2022-05-07T13:48:34Z</time>
      </trkpt>
      <trkpt lat="44.50764" lon="1.64646">
        <ele>267.6</ele>
        <time>2022-05-07T13:48:35Z</time>
      </trkpt>
      <trkpt lat="44.50765" lon="1.64653">
        <ele>266.4</ele>
        <time>2022-05-07T13:48:36Z</time>
      </trkpt>
      <trkpt lat="44.50767" lon="1.64658">
        <ele>265.6</ele>
        <time>2022-05-07T13:48:37Z</time>
      </trkpt>
      <trkpt lat="44.50769" lon="1.64663">
        <ele>264.5</ele>
        <time>2022-05-07T13:48:38Z</time>
      </trkpt>
      <trkpt lat="44.5077" lon="1.64668">
        <ele>263.7</ele>
        <time>2022-05-07T13:48:39Z</time>
      </trkpt>
      <trkpt lat="44.50771" lon="1.64671">
        <ele>263</ele>
        <time>2022-05-07T13:48:40Z</time>
      </trkpt>
      <trkpt lat="44.5077" lon="1.64678">
        <ele>261.9</ele>
        <time>2022-05-07T13:48:42Z</time>
      </trkpt>
      <trkpt lat="44.50769" lon="1.64684">
        <ele>260.9</ele>
        <time>2022-05-07T13:48:43Z</time>
      </trkpt>
      <trkpt lat="44.50769" lon="1.64691">
        <ele>260</ele>
        <time>2022-05-07T13:48:44Z</time>
      </trkpt>
      <trkpt lat="44.50769" lon="1.64695">
        <ele>259.5</ele>
        <time>2022-05-07T13:48:45Z</time>
      </trkpt>
      <trkpt lat="44.50769" lon="1.64699">
        <ele>259</ele>
        <time>2022-05-07T13:48:47Z</time>
      </trkpt>
      <trkpt lat="44.50768" lon="1.64704">
        <ele>258.3</ele>
        <time>2022-05-07T13:48:48Z</time>
      </trkpt>
      <trkpt lat="44.50766" lon="1.64707">
        <ele>257.8</ele>
        <time>2022-05-07T13:48:49Z</time>
      </trkpt>
      <trkpt lat="44.50767" lon="1.64712">
        <ele>257.2</ele>
        <time>2022-05-07T13:48:50Z</time>
      </trkpt>
      <trkpt lat="44.50766" lon="1.64716">
        <ele>256.7</ele>
        <time>2022-05-07T13:48:51Z</time>
      </trkpt>
      <trkpt lat="44.50765" lon="1.64721">
        <ele>256</ele>
        <time>2022-05-07T13:48:53Z</time>
      </trkpt>
      <trkpt lat="44.50765" lon="1.64722">
        <ele>255.8</ele>
        <time>2022-05-07T13:48:54Z</time>
      </trkpt>
      <trkpt lat="44.50765" lon="1.64728">
        <ele>255</ele>
        <time>2022-05-07T13:48:55Z</time>
      </trkpt>
      <trkpt lat="44.50763" lon="1.64734">
        <ele>254.3</ele>
        <time>2022-05-07T13:48:56Z</time>
      </trkpt>
      <trkpt lat="44.50763" lon="1.64736">
        <ele>254</ele>
        <time>2022-05-07T13:48:57Z</time>
      </trkpt>
      <trkpt lat="44.50761" lon="1.64741">
        <ele>253.2</ele>
        <time>2022-05-07T13:48:58Z</time>
      </trkpt>
      <trkpt lat="44.50758" lon="1.64748">
        <ele>252.4</ele>
        <time>2022-05-07T13:48:59Z</time>
      </trkpt>
      <trkpt lat="44.50756" lon="1.64755">
        <ele>251.5</ele>
        <time>2022-05-07T13:49:00Z</time>
      </trkpt>
      <trkpt lat="44.50754" lon="1.64762">
        <ele>250.7</ele>
        <time>2022-05-07T13:49:01Z</time>
      </trkpt>
      <trkpt lat="44.50752" lon="1.64769">
        <ele>250</ele>
        <time>2022-05-07T13:49:02Z</time>
      </trkpt>
      <trkpt lat="44.50751" lon="1.64775">
        <ele>249.3</ele>
        <time>2022-05-07T13:49:03Z</time>
      </trkpt>
      <trkpt lat="44.5075" lon="1.64783">
        <ele>248.3</ele>
        <time>2022-05-07T13:49:05Z</time>
      </trkpt>
      <trkpt lat="44.50749" lon="1.64787">
        <ele>247.8</ele>
        <time>2022-05-07T13:49:06Z</time>
      </trkpt>
      <trkpt lat="44.50748" lon="1.64793">
        <ele>247</ele>
        <time>2022-05-07T13:49:08Z</time>
      </trkpt>
      <trkpt lat="44.50746" lon="1.64798">
        <ele>246.2</ele>
        <time>2022-05-07T13:49:09Z</time>
      </trkpt>
      <trkpt lat="44.50745" lon="1.64803">
        <ele>245.4</ele>
        <time>2022-05-07T13:49:10Z</time>
      </trkpt>
      <trkpt lat="44.50744" lon="1.64806">
        <ele>244.7</ele>
        <time>2022-05-07T13:49:11Z</time>
      </trkpt>
      <trkpt lat="44.50743" lon="1.64808">
        <ele>244.4</ele>
        <time>2022-05-07T13:49:12Z</time>
      </trkpt>
      <trkpt lat="44.50743" lon="1.64809">
        <ele>244.2</ele>
        <time>2022-05-07T13:49:13Z</time>
      </trkpt>
      <trkpt lat="44.50743" lon="1.64811">
        <ele>244</ele>
        <time>2022-05-07T13:49:14Z</time>
      </trkpt>
      <trkpt lat="44.50742" lon="1.64812">
        <ele>243.7</ele>
        <time>2022-05-07T13:49:15Z</time>
      </trkpt>
      <trkpt lat="44.50742" lon="1.64813">
        <ele>243.4</ele>
        <time>2022-05-07T13:49:16Z</time>
      </trkpt>
      <trkpt lat="44.50742" lon="1.64815">
        <ele>243.2</ele>
        <time>2022-05-07T13:49:17Z</time>
      </trkpt>
      <trkpt lat="44.50742" lon="1.64816">
        <ele>242.9</ele>
        <time>2022-05-07T13:49:19Z</time>
      </trkpt>
      <trkpt lat="44.50741" lon="1.64818">
        <ele>242.6</ele>
        <time>2022-05-07T13:49:20Z</time>
      </trkpt>
      <trkpt lat="44.50741" lon="1.64819">
        <ele>242.3</ele>
        <time>2022-05-07T13:49:39Z</time>
      </trkpt>
      <trkpt lat="44.50741" lon="1.64821">
        <ele>242</ele>
        <time>2022-05-07T13:49:40Z</time>
      </trkpt>
      <trkpt lat="44.50741" lon="1.64822">
        <ele>241.7</ele>
        <time>2022-05-07T13:49:41Z</time>
      </trkpt>
      <trkpt lat="44.50741" lon="1.64824">
        <ele>241.3</ele>
        <time>2022-05-07T13:49:42Z</time>
      </trkpt>
      <trkpt lat="44.5074" lon="1.64826">
        <ele>240.9</ele>
        <time>2022-05-07T13:49:44Z</time>
      </trkpt>
      <trkpt lat="44.5074" lon="1.64828">
        <ele>240.5</ele>
        <time>2022-05-07T13:49:45Z</time>
      </trkpt>
      <trkpt lat="44.5074" lon="1.64829">
        <ele>240.2</ele>
        <time>2022-05-07T13:49:46Z</time>
      </trkpt>
      <trkpt lat="44.5074" lon="1.64831">
        <ele>239.9</ele>
        <time>2022-05-07T13:49:47Z</time>
      </trkpt>
      <trkpt lat="44.50739" lon="1.64837">
        <ele>238.6</ele>
        <time>2022-05-07T13:49:48Z</time>
      </trkpt>
      <trkpt lat="44.50738" lon="1.64841">
        <ele>237.7</ele>
        <time>2022-05-07T13:49:50Z</time>
      </trkpt>
      <trkpt lat="44.50738" lon="1.64846">
        <ele>236.9</ele>
        <time>2022-05-07T13:49:51Z</time>
      </trkpt>
      <trkpt lat="44.50738" lon="1.6485">
        <ele>235.9</ele>
        <time>2022-05-07T13:49:52Z</time>
      </trkpt>
      <trkpt lat="44.50737" lon="1.64855">
        <ele>235</ele>
        <time>2022-05-07T13:49:53Z</time>
      </trkpt>
      <trkpt lat="44.50737" lon="1.64857">
        <ele>234.7</ele>
        <time>2022-05-07T13:49:54Z</time>
      </trkpt>
      <trkpt lat="44.50735" lon="1.64863">
        <ele>233.5</ele>
        <time>2022-05-07T13:49:56Z</time>
      </trkpt>
      <trkpt lat="44.50735" lon="1.64869">
        <ele>232.6</ele>
        <time>2022-05-07T13:49:57Z</time>
      </trkpt>
      <trkpt lat="44.50734" lon="1.64871">
        <ele>232.3</ele>
        <time>2022-05-07T13:49:58Z</time>
      </trkpt>
      <trkpt lat="44.50731" lon="1.64879">
        <ele>231.1</ele>
        <time>2022-05-07T13:50:00Z</time>
      </trkpt>
      <trkpt lat="44.50727" lon="1.6489">
        <ele>229.8</ele>
        <time>2022-05-07T13:50:01Z</time>
      </trkpt>
      <trkpt lat="44.50724" lon="1.64896">
        <ele>229.2</ele>
        <time>2022-05-07T13:50:02Z</time>
      </trkpt>
      <trkpt lat="44.50721" lon="1.64901">
        <ele>228.7</ele>
        <time>2022-05-07T13:50:04Z</time>
      </trkpt>
      <trkpt lat="44.50719" lon="1.64903">
        <ele>228.5</ele>
        <time>2022-05-07T13:50:05Z</time>
      </trkpt>
      <trkpt lat="44.50715" lon="1.64908">
        <ele>228.1</ele>
        <time>2022-05-07T13:50:06Z</time>
      </trkpt>
      <trkpt lat="44.50712" lon="1.64913">
        <ele>227.8</ele>
        <time>2022-05-07T13:50:07Z</time>
      </trkpt>
      <trkpt lat="44.50709" lon="1.64918">
        <ele>227.6</ele>
        <time>2022-05-07T13:50:08Z</time>
      </trkpt>
      <trkpt lat="44.50707" lon="1.6492">
        <ele>227.5</ele>
        <time>2022-05-07T13:50:09Z</time>
      </trkpt>
      <trkpt lat="44.50705" lon="1.64923">
        <ele>227.4</ele>
        <time>2022-05-07T13:50:11Z</time>
      </trkpt>
      <trkpt lat="44.50703" lon="1.64926">
        <ele>227.3</ele>
        <time>2022-05-07T13:50:12Z</time>
      </trkpt>
      <trkpt lat="44.50698" lon="1.64931">
        <ele>227.1</ele>
        <time>2022-05-07T13:50:13Z</time>
      </trkpt>
      <trkpt lat="44.50694" lon="1.64934">
        <ele>227</ele>
        <time>2022-05-07T13:50:14Z</time>
      </trkpt>
      <trkpt lat="44.50691" lon="1.64938">
        <ele>226.9</ele>
        <time>2022-05-07T13:50:15Z</time>
      </trkpt>
      <trkpt lat="44.5069" lon="1.64942">
        <ele>226.8</ele>
        <time>2022-05-07T13:50:16Z</time>
      </trkpt>
      <trkpt lat="44.50686" lon="1.64949">
        <ele>226.5</ele>
        <time>2022-05-07T13:50:18Z</time>
      </trkpt>
      <trkpt lat="44.50683" lon="1.64956">
        <ele>226</ele>
        <time>2022-05-07T13:50:19Z</time>
      </trkpt>
      <trkpt lat="44.5068" lon="1.64961">
        <ele>225.4</ele>
        <time>2022-05-07T13:50:20Z</time>
      </trkpt>
      <trkpt lat="44.50678" lon="1.64966">
        <ele>224.8</ele>
        <time>2022-05-07T13:50:21Z</time>
      </trkpt>
      <trkpt lat="44.50677" lon="1.6497">
        <ele>224.3</ele>
        <time>2022-05-07T13:50:22Z</time>
      </trkpt>
      <trkpt lat="44.50677" lon="1.64974">
        <ele>223.9</ele>
        <time>2022-05-07T13:50:24Z</time>
      </trkpt>
      <trkpt lat="44.50675" lon="1.64978">
        <ele>223.2</ele>
        <time>2022-05-07T13:50:25Z</time>
      </trkpt>
      <trkpt lat="44.50675" lon="1.6498">
        <ele>222.9</ele>
        <time>2022-05-07T13:50:26Z</time>
      </trkpt>
      <trkpt lat="44.50672" lon="1.64984">
        <ele>222.2</ele>
        <time>2022-05-07T13:50:27Z</time>
      </trkpt>
      <trkpt lat="44.50671" lon="1.64987">
        <ele>221.6</ele>
        <time>2022-05-07T13:50:28Z</time>
      </trkpt>
      <trkpt lat="44.50668" lon="1.64996">
        <ele>220.4</ele>
        <time>2022-05-07T13:50:30Z</time>
      </trkpt>
      <trkpt lat="44.50667" lon="1.65">
        <ele>219.9</ele>
        <time>2022-05-07T13:50:31Z</time>
      </trkpt>
      <trkpt lat="44.50664" lon="1.65004">
        <ele>219.2</ele>
        <time>2022-05-07T13:50:32Z</time>
      </trkpt>
      <trkpt lat="44.50661" lon="1.65008">
        <ele>218.6</ele>
        <time>2022-05-07T13:50:33Z</time>
      </trkpt>
      <trkpt lat="44.50657" lon="1.65013">
        <ele>217.9</ele>
        <time>2022-05-07T13:50:34Z</time>
      </trkpt>
      <trkpt lat="44.50651" lon="1.6502">
        <ele>217.1</ele>
        <time>2022-05-07T13:50:36Z</time>
      </trkpt>
      <trkpt lat="44.50648" lon="1.65025">
        <ele>216.6</ele>
        <time>2022-05-07T13:50:37Z</time>
      </trkpt>
      <trkpt lat="44.50647" lon="1.65029">
        <ele>216.2</ele>
        <time>2022-05-07T13:50:38Z</time>
      </trkpt>
      <trkpt lat="44.50647" lon="1.65031">
        <ele>216</ele>
        <time>2022-05-07T13:50:39Z</time>
      </trkpt>
      <trkpt lat="44.50646" lon="1.65034">
        <ele>215.7</ele>
        <time>2022-05-07T13:50:40Z</time>
      </trkpt>
      <trkpt lat="44.50646" lon="1.65035">
        <ele>215.6</ele>
        <time>2022-05-07T13:50:41Z</time>
      </trkpt>
      <trkpt lat="44.50645" lon="1.65036">
        <ele>215.5</ele>
        <time>2022-05-07T13:50:42Z</time>
      </trkpt>
      <trkpt lat="44.50646" lon="1.65037">
        <ele>215.4</ele>
        <time>2022-05-07T13:50:44Z</time>
      </trkpt>
      <trkpt lat="44.50645" lon="1.65038">
        <ele>215.3</ele>
        <time>2022-05-07T13:50:45Z</time>
      </trkpt>
      <trkpt lat="44.50645" lon="1.65038">
        <ele>215.2</ele>
        <time>2022-05-07T13:50:46Z</time>
      </trkpt>
      <trkpt lat="44.50644" lon="1.65039">
        <ele>215.1</ele>
        <time>2022-05-07T13:50:47Z</time>
      </trkpt>
      <trkpt lat="44.50644" lon="1.65039">
        <ele>215.1</ele>
        <time>2022-05-07T13:50:48Z</time>
      </trkpt>
      <trkpt lat="44.50644" lon="1.6504">
        <ele>215</ele>
        <time>2022-05-07T13:50:50Z</time>
      </trkpt>
      <trkpt lat="44.50643" lon="1.6504">
        <ele>214.9</ele>
        <time>2022-05-07T13:50:51Z</time>
      </trkpt>
      <trkpt lat="44.50643" lon="1.65041">
        <ele>214.8</ele>
        <time>2022-05-07T13:50:52Z</time>
      </trkpt>
      <trkpt lat="44.50641" lon="1.65047">
        <ele>214</ele>
        <time>2022-05-07T13:50:53Z</time>
      </trkpt>
      <trkpt lat="44.50639" lon="1.65052">
        <ele>213.4</ele>
        <time>2022-05-07T13:50:54Z</time>
      </trkpt>
      <trkpt lat="44.50636" lon="1.65059">
        <ele>212.5</ele>
        <time>2022-05-07T13:50:55Z</time>
      </trkpt>
      <trkpt lat="44.50634" lon="1.65062">
        <ele>212</ele>
        <time>2022-05-07T13:50:56Z</time>
      </trkpt>
      <trkpt lat="44.50632" lon="1.65064">
        <ele>211.5</ele>
        <time>2022-05-07T13:50:57Z</time>
      </trkpt>
      <trkpt lat="44.50629" lon="1.65067">
        <ele>210.9</ele>
        <time>2022-05-07T13:50:58Z</time>
      </trkpt>
      <trkpt lat="44.50627" lon="1.6507">
        <ele>210.3</ele>
        <time>2022-05-07T13:50:59Z</time>
      </trkpt>
      <trkpt lat="44.50626" lon="1.65071">
        <ele>210.1</ele>
        <time>2022-05-07T13:51:00Z</time>
      </trkpt>
      <trkpt lat="44.50624" lon="1.65073">
        <ele>209.7</ele>
        <time>2022-05-07T13:51:01Z</time>
      </trkpt>
      <trkpt lat="44.5062" lon="1.65078">
        <ele>208.7</ele>
        <time>2022-05-07T13:51:03Z</time>
      </trkpt>
      <trkpt lat="44.50617" lon="1.65082">
        <ele>208</ele>
        <time>2022-05-07T13:51:04Z</time>
      </trkpt>
      <trkpt lat="44.50616" lon="1.65084">
        <ele>207.7</ele>
        <time>2022-05-07T13:51:05Z</time>
      </trkpt>
      <trkpt lat="44.50614" lon="1.65086">
        <ele>207.1</ele>
        <time>2022-05-07T13:51:06Z</time>
      </trkpt>
      <trkpt lat="44.50613" lon="1.65087">
        <ele>206.9</ele>
        <time>2022-05-07T13:51:07Z</time>
      </trkpt>
      <trkpt lat="44.50611" lon="1.6509">
        <ele>206.5</ele>
        <time>2022-05-07T13:51:08Z</time>
      </trkpt>
      <trkpt lat="44.50607" lon="1.65092">
        <ele>205.9</ele>
        <time>2022-05-07T13:51:09Z</time>
      </trkpt>
      <trkpt lat="44.50604" lon="1.65095">
        <ele>205.4</ele>
        <time>2022-05-07T13:51:10Z</time>
      </trkpt>
      <trkpt lat="44.506" lon="1.65098">
        <ele>204.8</ele>
        <time>2022-05-07T13:51:11Z</time>
      </trkpt>
      <trkpt lat="44.50595" lon="1.65102">
        <ele>204.1</ele>
        <time>2022-05-07T13:51:13Z</time>
      </trkpt>
      <trkpt lat="44.50598" lon="1.65101">
        <ele>203.6</ele>
        <time>2022-05-07T13:51:14Z</time>
      </trkpt>
      <trkpt lat="44.50594" lon="1.65105">
        <ele>202.9</ele>
        <time>2022-05-07T13:51:15Z</time>
      </trkpt>
      <trkpt lat="44.50586" lon="1.65111">
        <ele>201.2</ele>
        <time>2022-05-07T13:51:16Z</time>
      </trkpt>
      <trkpt lat="44.50582" lon="1.65115">
        <ele>200.3</ele>
        <time>2022-05-07T13:51:17Z</time>
      </trkpt>
      <trkpt lat="44.50579" lon="1.65116">
        <ele>199.5</ele>
        <time>2022-05-07T13:51:18Z</time>
      </trkpt>
      <trkpt lat="44.50577" lon="1.65118">
        <ele>198.9</ele>
        <time>2022-05-07T13:51:19Z</time>
      </trkpt>
      <trkpt lat="44.50574" lon="1.65119">
        <ele>198.3</ele>
        <time>2022-05-07T13:51:20Z</time>
      </trkpt>
      <trkpt lat="44.50572" lon="1.65123">
        <ele>197.3</ele>
        <time>2022-05-07T13:51:22Z</time>
      </trkpt>
      <trkpt lat="44.50569" lon="1.65126">
        <ele>196.5</ele>
        <time>2022-05-07T13:51:23Z</time>
      </trkpt>
      <trkpt lat="44.50567" lon="1.65131">
        <ele>195.4</ele>
        <time>2022-05-07T13:51:24Z</time>
      </trkpt>
      <trkpt lat="44.50565" lon="1.65133">
        <ele>194.9</ele>
        <time>2022-05-07T13:51:25Z</time>
      </trkpt>
      <trkpt lat="44.50565" lon="1.65134">
        <ele>194.6</ele>
        <time>2022-05-07T13:51:26Z</time>
      </trkpt>
      <trkpt lat="44.50564" lon="1.65137">
        <ele>194.1</ele>
        <time>2022-05-07T13:51:28Z</time>
      </trkpt>
      <trkpt lat="44.50562" lon="1.65141">
        <ele>193.3</ele>
        <time>2022-05-07T13:51:29Z</time>
      </trkpt>
      <trkpt lat="44.5056" lon="1.65144">
        <ele>192.5</ele>
        <time>2022-05-07T13:51:30Z</time>
      </trkpt>
      <trkpt lat="44.50559" lon="1.65145">
        <ele>192.2</ele>
        <time>2022-05-07T13:51:31Z</time>
      </trkpt>
      <trkpt lat="44.50558" lon="1.65148">
        <ele>191.6</ele>
        <time>2022-05-07T13:51:32Z</time>
      </trkpt>
      <trkpt lat="44.50554" lon="1.65152">
        <ele>190.7</ele>
        <time>2022-05-07T13:51:34Z</time>
      </trkpt>
      <trkpt lat="44.5055" lon="1.65157">
        <ele>189.5</ele>
        <time>2022-05-07T13:51:35Z</time>
      </trkpt>
      <trkpt lat="44.50548" lon="1.65161">
        <ele>188.7</ele>
        <time>2022-05-07T13:51:36Z</time>
      </trkpt>
      <trkpt lat="44.50545" lon="1.65164">
        <ele>188.1</ele>
        <time>2022-05-07T13:51:37Z</time>
      </trkpt>
      <trkpt lat="44.5054" lon="1.65171">
        <ele>187</ele>
        <time>2022-05-07T13:51:38Z</time>
      </trkpt>
      <trkpt lat="44.50535" lon="1.65174">
        <ele>186.2</ele>
        <time>2022-05-07T13:51:40Z</time>
      </trkpt>
      <trkpt lat="44.50529" lon="1.65177">
        <ele>185.4</ele>
        <time>2022-05-07T13:51:41Z</time>
      </trkpt>
      <trkpt lat="44.50524" lon="1.6518">
        <ele>184.5</ele>
        <time>2022-05-07T13:51:42Z</time>
      </trkpt>
      <trkpt lat="44.5052" lon="1.65182">
        <ele>183.8</ele>
        <time>2022-05-07T13:51:43Z</time>
      </trkpt>
      <trkpt lat="44.50517" lon="1.65184">
        <ele>183.4</ele>
        <time>2022-05-07T13:51:44Z</time>
      </trkpt>
      <trkpt lat="44.50514" lon="1.65187">
        <ele>182.7</ele>
        <time>2022-05-07T13:51:45Z</time>
      </trkpt>
      <trkpt lat="44.50514" lon="1.65187">
        <ele>182.5</ele>
        <time>2022-05-07T13:51:46Z</time>
      </trkpt>
      <trkpt lat="44.50513" lon="1.65188">
        <ele>182.2</ele>
        <time>2022-05-07T13:51:47Z</time>
      </trkpt>
      <trkpt lat="44.50511" lon="1.6519">
        <ele>181.7</ele>
        <time>2022-05-07T13:51:49Z</time>
      </trkpt>
      <trkpt lat="44.50511" lon="1.65191">
        <ele>181.5</ele>
        <time>2022-05-07T13:51:50Z</time>
      </trkpt>
      <trkpt lat="44.50511" lon="1.65193">
        <ele>181.1</ele>
        <time>2022-05-07T13:51:51Z</time>
      </trkpt>
      <trkpt lat="44.50512" lon="1.65205">
        <ele>178.9</ele>
        <time>2022-05-07T13:51:53Z</time>
      </trkpt>
      <trkpt lat="44.50512" lon="1.65213">
        <ele>177.6</ele>
        <time>2022-05-07T13:51:54Z</time>
      </trkpt>
      <trkpt lat="44.50512" lon="1.65221">
        <ele>176.3</ele>
        <time>2022-05-07T13:51:55Z</time>
      </trkpt>
      <trkpt lat="44.50512" lon="1.65225">
        <ele>175.6</ele>
        <time>2022-05-07T13:51:56Z</time>
      </trkpt>
      <trkpt lat="44.5051" lon="1.65228">
        <ele>175</ele>
        <time>2022-05-07T13:51:57Z</time>
      </trkpt>
      <trkpt lat="44.5051" lon="1.65231">
        <ele>174.5</ele>
        <time>2022-05-07T13:51:58Z</time>
      </trkpt>
      <trkpt lat="44.5051" lon="1.65236">
        <ele>173.6</ele>
        <time>2022-05-07T13:52:00Z</time>
      </trkpt>
      <trkpt lat="44.5051" lon="1.65241">
        <ele>172.8</ele>
        <time>2022-05-07T13:52:01Z</time>
      </trkpt>
      <trkpt lat="44.50509" lon="1.65246">
        <ele>171.8</ele>
        <time>2022-05-07T13:52:02Z</time>
      </trkpt>
      <trkpt lat="44.50511" lon="1.65251">
        <ele>171</ele>
        <time>2022-05-07T13:52:03Z</time>
      </trkpt>
      <trkpt lat="44.50512" lon="1.65255">
        <ele>170.2</ele>
        <time>2022-05-07T13:52:04Z</time>
      </trkpt>
      <trkpt lat="44.50514" lon="1.65264">
        <ele>168.7</ele>
        <time>2022-05-07T13:52:05Z</time>
      </trkpt>
      <trkpt lat="44.50516" lon="1.65275">
        <ele>167.2</ele>
        <time>2022-05-07T13:52:06Z</time>
      </trkpt>
      <trkpt lat="44.50517" lon="1.65287">
        <ele>165.6</ele>
        <time>2022-05-07T13:52:07Z</time>
      </trkpt>
      <trkpt lat="44.50518" lon="1.65299">
        <ele>165.1</ele>
        <time>2022-05-07T13:52:08Z</time>
      </trkpt>
      <trkpt lat="44.50519" lon="1.6531">
        <ele>164.9</ele>
        <time>2022-05-07T13:52:09Z</time>
      </trkpt>
      <trkpt lat="44.50521" lon="1.65322">
        <ele>164.7</ele>
        <time>2022-05-07T13:52:10Z</time>
      </trkpt>
      <trkpt lat="44.50523" lon="1.65332">
        <ele>164.5</ele>
        <time>2022-05-07T13:52:11Z</time>
      </trkpt>
      <trkpt lat="44.50524" lon="1.65342">
        <ele>164.5</ele>
        <time>2022-05-07T13:52:12Z</time>
      </trkpt>
      <trkpt lat="44.50526" lon="1.65352">
        <ele>164.5</ele>
        <time>2022-05-07T13:52:13Z</time>
      </trkpt>
      <trkpt lat="44.50527" lon="1.65361">
        <ele>164.5</ele>
        <time>2022-05-07T13:52:14Z</time>
      </trkpt>
      <trkpt lat="44.50529" lon="1.6537">
        <ele>164.6</ele>
        <time>2022-05-07T13:52:15Z</time>
      </trkpt>
      <trkpt lat="44.5053" lon="1.65378">
        <ele>164.6</ele>
        <time>2022-05-07T13:52:16Z</time>
      </trkpt>
      <trkpt lat="44.50532" lon="1.65386">
        <ele>164.5</ele>
        <time>2022-05-07T13:52:17Z</time>
      </trkpt>
      <trkpt lat="44.50534" lon="1.65394">
        <ele>164.5</ele>
        <time>2022-05-07T13:52:18Z</time>
      </trkpt>
      <trkpt lat="44.50536" lon="1.65401">
        <ele>163.1</ele>
        <time>2022-05-07T13:52:19Z</time>
      </trkpt>
      <trkpt lat="44.50536" lon="1.65407">
        <ele>161.1</ele>
        <time>2022-05-07T13:52:20Z</time>
      </trkpt>
      <trkpt lat="44.50537" lon="1.65411">
        <ele>159.7</ele>
        <time>2022-05-07T13:52:21Z</time>
      </trkpt>
      <trkpt lat="44.50538" lon="1.65414">
        <ele>158.6</ele>
        <time>2022-05-07T13:52:22Z</time>
      </trkpt>
      <trkpt lat="44.50538" lon="1.65414">
        <ele>158.3</ele>
        <time>2022-05-07T13:52:23Z</time>
      </trkpt>
      <trkpt lat="44.50538" lon="1.65412">
        <ele>158.8</ele>
        <time>2022-05-07T13:52:24Z</time>
      </trkpt>
      <trkpt lat="44.50538" lon="1.6541">
        <ele>159.1</ele>
        <time>2022-05-07T13:52:25Z</time>
      </trkpt>
      <trkpt lat="44.50539" lon="1.65408">
        <ele>159.4</ele>
        <time>2022-05-07T13:52:26Z</time>
      </trkpt>
      <trkpt lat="44.50539" lon="1.65406">
        <ele>159.8</ele>
        <time>2022-05-07T13:52:27Z</time>
      </trkpt>
      <trkpt lat="44.50539" lon="1.65404">
        <ele>160.1</ele>
        <time>2022-05-07T13:52:28Z</time>
      </trkpt>
      <trkpt lat="44.50539" lon="1.65403">
        <ele>160.4</ele>
        <time>2022-05-07T13:52:29Z</time>
      </trkpt>
      <trkpt lat="44.50539" lon="1.65401">
        <ele>160.8</ele>
        <time>2022-05-07T13:52:30Z</time>
      </trkpt>
      <trkpt lat="44.50539" lon="1.65399">
        <ele>161.1</ele>
        <time>2022-05-07T13:52:31Z</time>
      </trkpt>
      <trkpt lat="44.50539" lon="1.65397">
        <ele>161.4</ele>
        <time>2022-05-07T13:52:32Z</time>
      </trkpt>
      <trkpt lat="44.50539" lon="1.65396">
        <ele>161.7</ele>
        <time>2022-05-07T13:53:06Z</time>
      </trkpt>
      <trkpt lat="44.50539" lon="1.65394">
        <ele>162.1</ele>
        <time>2022-05-07T13:53:07Z</time>
      </trkpt>
      <trkpt lat="44.50539" lon="1.65388">
        <ele>163.1</ele>
        <time>2022-05-07T13:53:08Z</time>
      </trkpt>
      <trkpt lat="44.50537" lon="1.65385">
        <ele>163.8</ele>
        <time>2022-05-07T13:53:09Z</time>
      </trkpt>
      <trkpt lat="44.50535" lon="1.65383">
        <ele>164.4</ele>
        <time>2022-05-07T13:53:10Z</time>
      </trkpt>
      <trkpt lat="44.50533" lon="1.65387">
        <ele>164.4</ele>
        <time>2022-05-07T13:53:12Z</time>
      </trkpt>
      <trkpt lat="44.50533" lon="1.6539">
        <ele>164.3</ele>
        <time>2022-05-07T13:53:13Z</time>
      </trkpt>
      <trkpt lat="44.50533" lon="1.65391">
        <ele>164.2</ele>
        <time>2022-05-07T13:53:14Z</time>
      </trkpt>
      <trkpt lat="44.50533" lon="1.65393">
        <ele>164.1</ele>
        <time>2022-05-07T13:53:15Z</time>
      </trkpt>
      <trkpt lat="44.50533" lon="1.65397">
        <ele>163.9</ele>
        <time>2022-05-07T13:53:16Z</time>
      </trkpt>
      <trkpt lat="44.50533" lon="1.65399">
        <ele>163.9</ele>
        <time>2022-05-07T13:53:17Z</time>
      </trkpt>
      <trkpt lat="44.50533" lon="1.65399">
        <ele>163.9</ele>
        <time>2022-05-07T13:53:18Z</time>
      </trkpt>
      <trkpt lat="44.50533" lon="1.65399">
        <ele>163.8</ele>
        <time>2022-05-07T13:53:19Z</time>
      </trkpt>
      <trkpt lat="44.50534" lon="1.65398">
        <ele>163.8</ele>
        <time>2022-05-07T13:53:20Z</time>
      </trkpt>
      <trkpt lat="44.50533" lon="1.65398">
        <ele>163.8</ele>
        <time>2022-05-07T13:53:21Z</time>
      </trkpt>
      <trkpt lat="44.50533" lon="1.65398">
        <ele>163.8</ele>
        <time>2022-05-07T13:53:22Z</time>
      </trkpt>
      <trkpt lat="44.50533" lon="1.65398">
        <ele>163.8</ele>
        <time>2022-05-07T13:53:23Z</time>
      </trkpt>
      <trkpt lat="44.50533" lon="1.65398">
        <ele>163.8</ele>
        <time>2022-05-07T13:53:24Z</time>
      </trkpt>
      <trkpt lat="44.50533" lon="1.65398">
        <ele>163.8</ele>
        <time>2022-05-07T13:53:25Z</time>
      </trkpt>
      <trkpt lat="44.50533" lon="1.65398">
        <ele>163.8</ele>
        <time>2022-05-07T13:53:27Z</time>
      </trkpt>
      <trkpt lat="44.50533" lon="1.65398">
        <ele>163.8</ele>
        <time>2022-05-07T13:53:28Z</time>
      </trkpt>
      <trkpt lat="44.50524" lon="1.65408">
        <ele>163</ele>
        <time>2022-05-07T13:53:31Z</time>
      </trkpt>
      <trkpt lat="44.50521" lon="1.6541">
        <ele>162.8</ele>
        <time>2022-05-07T13:53:32Z</time>
      </trkpt>
      <trkpt lat="44.50518" lon="1.65412">
        <ele>162</ele>
        <time>2022-05-07T13:53:33Z</time>
      </trkpt>
      <trkpt lat="44.50517" lon="1.65414">
        <ele>161.7</ele>
        <time>2022-05-07T13:53:34Z</time>
      </trkpt>
      <trkpt lat="44.50517" lon="1.65414">
        <ele>161.6</ele>
        <time>2022-05-07T13:53:35Z</time>
      </trkpt>
      <trkpt lat="44.50516" lon="1.65415">
        <ele>161.5</ele>
        <time>2022-05-07T13:53:36Z</time>
      </trkpt>
      <trkpt lat="44.50517" lon="1.65418">
        <ele>161.2</ele>
        <time>2022-05-07T13:53:37Z</time>
      </trkpt>
      <trkpt lat="44.50517" lon="1.6542">
        <ele>161</ele>
        <time>2022-05-07T13:53:38Z</time>
      </trkpt>
      <trkpt lat="44.50518" lon="1.65422">
        <ele>160.7</ele>
        <time>2022-05-07T13:53:39Z</time>
      </trkpt>
      <trkpt lat="44.50518" lon="1.65424">
        <ele>160.5</ele>
        <time>2022-05-07T13:53:40Z</time>
      </trkpt>
      <trkpt lat="44.50518" lon="1.65426">
        <ele>160.3</ele>
        <time>2022-05-07T13:53:41Z</time>
      </trkpt>
      <trkpt lat="44.50519" lon="1.65428">
        <ele>160.1</ele>
        <time>2022-05-07T13:53:43Z</time>
      </trkpt>
      <trkpt lat="44.50519" lon="1.6543">
        <ele>159.9</ele>
        <time>2022-05-07T13:53:44Z</time>
      </trkpt>
      <trkpt lat="44.50519" lon="1.65432">
        <ele>159.7</ele>
        <time>2022-05-07T13:53:45Z</time>
      </trkpt>
      <trkpt lat="44.5052" lon="1.65434">
        <ele>159.5</ele>
        <time>2022-05-07T13:53:46Z</time>
      </trkpt>
      <trkpt lat="44.5052" lon="1.65436">
        <ele>159.3</ele>
        <time>2022-05-07T13:54:55Z</time>
      </trkpt>
      <trkpt lat="44.5052" lon="1.65438">
        <ele>159.1</ele>
        <time>2022-05-07T13:54:56Z</time>
      </trkpt>
      <trkpt lat="44.50524" lon="1.65446">
        <ele>158.3</ele>
        <time>2022-05-07T13:54:57Z</time>
      </trkpt>
      <trkpt lat="44.50528" lon="1.65454">
        <ele>157.4</ele>
        <time>2022-05-07T13:54:58Z</time>
      </trkpt>
      <trkpt lat="44.50532" lon="1.65464">
        <ele>156.4</ele>
        <time>2022-05-07T13:54:59Z</time>
      </trkpt>
      <trkpt lat="44.50537" lon="1.65475">
        <ele>155.3</ele>
        <time>2022-05-07T13:55:00Z</time>
      </trkpt>
      <trkpt lat="44.50541" lon="1.65486">
        <ele>154.1</ele>
        <time>2022-05-07T13:55:01Z</time>
      </trkpt>
      <trkpt lat="44.50545" lon="1.65496">
        <ele>153.4</ele>
        <time>2022-05-07T13:55:02Z</time>
      </trkpt>
      <trkpt lat="44.50548" lon="1.65503">
        <ele>153</ele>
        <time>2022-05-07T13:55:03Z</time>
      </trkpt>
      <trkpt lat="44.50549" lon="1.6551">
        <ele>152.6</ele>
        <time>2022-05-07T13:55:05Z</time>
      </trkpt>
      <trkpt lat="44.50552" lon="1.65513">
        <ele>152.4</ele>
        <time>2022-05-07T13:55:06Z</time>
      </trkpt>
      <trkpt lat="44.50555" lon="1.65514">
        <ele>152.2</ele>
        <time>2022-05-07T13:55:07Z</time>
      </trkpt>
      <trkpt lat="44.5056" lon="1.65517">
        <ele>151.7</ele>
        <time>2022-05-07T13:55:09Z</time>
      </trkpt>
      <trkpt lat="44.50564" lon="1.65517">
        <ele>150.9</ele>
        <time>2022-05-07T13:55:10Z</time>
      </trkpt>
      <trkpt lat="44.50569" lon="1.65519">
        <ele>150.1</ele>
        <time>2022-05-07T13:55:11Z</time>
      </trkpt>
      <trkpt lat="44.50576" lon="1.65522">
        <ele>149</ele>
        <time>2022-05-07T13:55:12Z</time>
      </trkpt>
      <trkpt lat="44.5058" lon="1.65525">
        <ele>147.9</ele>
        <time>2022-05-07T13:55:13Z</time>
      </trkpt>
      <trkpt lat="44.50582" lon="1.6553">
        <ele>147.5</ele>
        <time>2022-05-07T13:55:15Z</time>
      </trkpt>
      <trkpt lat="44.50581" lon="1.65536">
        <ele>147.2</ele>
        <time>2022-05-07T13:55:16Z</time>
      </trkpt>
      <trkpt lat="44.5058" lon="1.65538">
        <ele>147</ele>
        <time>2022-05-07T13:55:17Z</time>
      </trkpt>
      <trkpt lat="44.50578" lon="1.65545">
        <ele>146.6</ele>
        <time>2022-05-07T13:55:18Z</time>
      </trkpt>
      <trkpt lat="44.50576" lon="1.65552">
        <ele>146.2</ele>
        <time>2022-05-07T13:55:19Z</time>
      </trkpt>
      <trkpt lat="44.50574" lon="1.65558">
        <ele>145.8</ele>
        <time>2022-05-07T13:55:20Z</time>
      </trkpt>
      <trkpt lat="44.50572" lon="1.65565">
        <ele>145.4</ele>
        <time>2022-05-07T13:55:21Z</time>
      </trkpt>
      <trkpt lat="44.50569" lon="1.65572">
        <ele>145</ele>
        <time>2022-05-07T13:55:22Z</time>
      </trkpt>
      <trkpt lat="44.50567" lon="1.65581">
        <ele>144.6</ele>
        <time>2022-05-07T13:55:23Z</time>
      </trkpt>
      <trkpt lat="44.50564" lon="1.65588">
        <ele>144.2</ele>
        <time>2022-05-07T13:55:24Z</time>
      </trkpt>
      <trkpt lat="44.50562" lon="1.65594">
        <ele>143.9</ele>
        <time>2022-05-07T13:55:25Z</time>
      </trkpt>
      <trkpt lat="44.50561" lon="1.65598">
        <ele>143.8</ele>
        <time>2022-05-07T13:55:26Z</time>
      </trkpt>
      <trkpt lat="44.5056" lon="1.656">
        <ele>143.7</ele>
        <time>2022-05-07T13:55:27Z</time>
      </trkpt>
      <trkpt lat="44.50557" lon="1.65601">
        <ele>143.5</ele>
        <time>2022-05-07T13:55:28Z</time>
      </trkpt>
      <trkpt lat="44.50557" lon="1.65602">
        <ele>143.5</ele>
        <time>2022-05-07T13:55:29Z</time>
      </trkpt>
      <trkpt lat="44.50557" lon="1.65602">
        <ele>143.4</ele>
        <time>2022-05-07T13:55:30Z</time>
      </trkpt>
      <trkpt lat="44.50558" lon="1.65602">
        <ele>143.4</ele>
        <time>2022-05-07T13:55:31Z</time>
      </trkpt>
      <trkpt lat="44.50558" lon="1.65601">
        <ele>143.4</ele>
        <time>2022-05-07T13:55:32Z</time>
      </trkpt>
      <trkpt lat="44.50558" lon="1.65601">
        <ele>143.4</ele>
        <time>2022-05-07T13:55:33Z</time>
      </trkpt>
      <trkpt lat="44.50558" lon="1.65601">
        <ele>143.4</ele>
        <time>2022-05-07T13:55:34Z</time>
      </trkpt>
      <trkpt lat="44.50558" lon="1.65601">
        <ele>143.4</ele>
        <time>2022-05-07T13:55:35Z</time>
      </trkpt>
      <trkpt lat="44.50558" lon="1.656">
        <ele>143.3</ele>
        <time>2022-05-07T13:55:36Z</time>
      </trkpt>
      <trkpt lat="44.50558" lon="1.656">
        <ele>143.3</ele>
        <time>2022-05-07T13:55:37Z</time>
      </trkpt>
      <trkpt lat="44.50559" lon="1.656">
        <ele>143.3</ele>
        <time>2022-05-07T13:55:38Z</time>
      </trkpt>
      <trkpt lat="44.50557" lon="1.65605">
        <ele>142.8</ele>
        <time>2022-05-07T13:55:47Z</time>
      </trkpt>
      <trkpt lat="44.50558" lon="1.65609">
        <ele>142.8</ele>
        <time>2022-05-07T13:55:48Z</time>
      </trkpt>
      <trkpt lat="44.50559" lon="1.65614">
        <ele>142.8</ele>
        <time>2022-05-07T13:55:49Z</time>
      </trkpt>
      <trkpt lat="44.50562" lon="1.65618">
        <ele>142.7</ele>
        <time>2022-05-07T13:55:50Z</time>
      </trkpt>
      <trkpt lat="44.50564" lon="1.65619">
        <ele>142.7</ele>
        <time>2022-05-07T13:55:51Z</time>
      </trkpt>
      <trkpt lat="44.50567" lon="1.65621">
        <ele>142.7</ele>
        <time>2022-05-07T13:55:53Z</time>
      </trkpt>
      <trkpt lat="44.50571" lon="1.65625">
        <ele>142.7</ele>
        <time>2022-05-07T13:55:54Z</time>
      </trkpt>
      <trkpt lat="44.50574" lon="1.65627">
        <ele>142.6</ele>
        <time>2022-05-07T13:55:55Z</time>
      </trkpt>
      <trkpt lat="44.50578" lon="1.65628">
        <ele>142.6</ele>
        <time>2022-05-07T13:55:56Z</time>
      </trkpt>
      <trkpt lat="44.50579" lon="1.65629">
        <ele>142.6</ele>
        <time>2022-05-07T13:55:57Z</time>
      </trkpt>
      <trkpt lat="44.50581" lon="1.65629">
        <ele>142.6</ele>
        <time>2022-05-07T13:55:58Z</time>
      </trkpt>
      <trkpt lat="44.50584" lon="1.6563">
        <ele>142.6</ele>
        <time>2022-05-07T13:56:00Z</time>
      </trkpt>
      <trkpt lat="44.50587" lon="1.65632">
        <ele>142.6</ele>
        <time>2022-05-07T13:56:01Z</time>
      </trkpt>
      <trkpt lat="44.50591" lon="1.65635">
        <ele>142.6</ele>
        <time>2022-05-07T13:56:02Z</time>
      </trkpt>
      <trkpt lat="44.50595" lon="1.65637">
        <ele>142.6</ele>
        <time>2022-05-07T13:56:03Z</time>
      </trkpt>
      <trkpt lat="44.50599" lon="1.65638">
        <ele>142.6</ele>
        <time>2022-05-07T13:56:05Z</time>
      </trkpt>
      <trkpt lat="44.50601" lon="1.6564">
        <ele>142.6</ele>
        <time>2022-05-07T13:56:06Z</time>
      </trkpt>
      <trkpt lat="44.50604" lon="1.65642">
        <ele>142.6</ele>
        <time>2022-05-07T13:56:07Z</time>
      </trkpt>
      <trkpt lat="44.50608" lon="1.65641">
        <ele>142.6</ele>
        <time>2022-05-07T13:56:09Z</time>
      </trkpt>
      <trkpt lat="44.50611" lon="1.65641">
        <ele>142.6</ele>
        <time>2022-05-07T13:56:10Z</time>
      </trkpt>
      <trkpt lat="44.50614" lon="1.65642">
        <ele>142.6</ele>
        <time>2022-05-07T13:56:11Z</time>
      </trkpt>
      <trkpt lat="44.50615" lon="1.65642">
        <ele>142.6</ele>
        <time>2022-05-07T13:56:12Z</time>
      </trkpt>
      <trkpt lat="44.50619" lon="1.65645">
        <ele>142.6</ele>
        <time>2022-05-07T13:56:13Z</time>
      </trkpt>
      <trkpt lat="44.50621" lon="1.65646">
        <ele>142.6</ele>
        <time>2022-05-07T13:56:14Z</time>
      </trkpt>
      <trkpt lat="44.50624" lon="1.65646">
        <ele>142.6</ele>
        <time>2022-05-07T13:56:15Z</time>
      </trkpt>
      <trkpt lat="44.50629" lon="1.65647">
        <ele>142.6</ele>
        <time>2022-05-07T13:56:17Z</time>
      </trkpt>
      <trkpt lat="44.50635" lon="1.65651">
        <ele>142.6</ele>
        <time>2022-05-07T13:56:19Z</time>
      </trkpt>
      <trkpt lat="44.50637" lon="1.65653">
        <ele>142.6</ele>
        <time>2022-05-07T13:56:20Z</time>
      </trkpt>
      <trkpt lat="44.50642" lon="1.65656">
        <ele>142.5</ele>
        <time>2022-05-07T13:56:21Z</time>
      </trkpt>
      <trkpt lat="44.50645" lon="1.65658">
        <ele>142.5</ele>
        <time>2022-05-07T13:56:22Z</time>
      </trkpt>
      <trkpt lat="44.50648" lon="1.65659">
        <ele>142.5</ele>
        <time>2022-05-07T13:56:23Z</time>
      </trkpt>
      <trkpt lat="44.50652" lon="1.65661">
        <ele>142.5</ele>
        <time>2022-05-07T13:56:24Z</time>
      </trkpt>
      <trkpt lat="44.50656" lon="1.65663">
        <ele>142.5</ele>
        <time>2022-05-07T13:56:25Z</time>
      </trkpt>
      <trkpt lat="44.50659" lon="1.65665">
        <ele>142.5</ele>
        <time>2022-05-07T13:56:26Z</time>
      </trkpt>
      <trkpt lat="44.50663" lon="1.65666">
        <ele>142.5</ele>
        <time>2022-05-07T13:56:27Z</time>
      </trkpt>
      <trkpt lat="44.50667" lon="1.65668">
        <ele>142.5</ele>
        <time>2022-05-07T13:56:28Z</time>
      </trkpt>
      <trkpt lat="44.50673" lon="1.65672">
        <ele>142.5</ele>
        <time>2022-05-07T13:56:30Z</time>
      </trkpt>
      <trkpt lat="44.50677" lon="1.65674">
        <ele>142.5</ele>
        <time>2022-05-07T13:56:31Z</time>
      </trkpt>
      <trkpt lat="44.50681" lon="1.65675">
        <ele>142.5</ele>
        <time>2022-05-07T13:56:32Z</time>
      </trkpt>
      <trkpt lat="44.50685" lon="1.65677">
        <ele>142.5</ele>
        <time>2022-05-07T13:56:33Z</time>
      </trkpt>
      <trkpt lat="44.50689" lon="1.6568">
        <ele>142.4</ele>
        <time>2022-05-07T13:56:34Z</time>
      </trkpt>
      <trkpt lat="44.50691" lon="1.65682">
        <ele>142.4</ele>
        <time>2022-05-07T13:56:35Z</time>
      </trkpt>
      <trkpt lat="44.50695" lon="1.65684">
        <ele>142.4</ele>
        <time>2022-05-07T13:56:36Z</time>
      </trkpt>
      <trkpt lat="44.50699" lon="1.65687">
        <ele>142.4</ele>
        <time>2022-05-07T13:56:37Z</time>
      </trkpt>
      <trkpt lat="44.50703" lon="1.65689">
        <ele>142.4</ele>
        <time>2022-05-07T13:56:38Z</time>
      </trkpt>
      <trkpt lat="44.50707" lon="1.65691">
        <ele>142.4</ele>
        <time>2022-05-07T13:56:39Z</time>
      </trkpt>
      <trkpt lat="44.5071" lon="1.65694">
        <ele>142.4</ele>
        <time>2022-05-07T13:56:40Z</time>
      </trkpt>
      <trkpt lat="44.50714" lon="1.65696">
        <ele>142.4</ele>
        <time>2022-05-07T13:56:41Z</time>
      </trkpt>
      <trkpt lat="44.50717" lon="1.65698">
        <ele>142.4</ele>
        <time>2022-05-07T13:56:42Z</time>
      </trkpt>
      <trkpt lat="44.50723" lon="1.65702">
        <ele>142.4</ele>
        <time>2022-05-07T13:56:44Z</time>
      </trkpt>
      <trkpt lat="44.50727" lon="1.65706">
        <ele>142.4</ele>
        <time>2022-05-07T13:56:46Z</time>
      </trkpt>
      <trkpt lat="44.50731" lon="1.6571">
        <ele>142.4</ele>
        <time>2022-05-07T13:56:47Z</time>
      </trkpt>
      <trkpt lat="44.50737" lon="1.65714">
        <ele>142.4</ele>
        <time>2022-05-07T13:56:49Z</time>
      </trkpt>
      <trkpt lat="44.5074" lon="1.65716">
        <ele>142.4</ele>
        <time>2022-05-07T13:56:50Z</time>
      </trkpt>
      <trkpt lat="44.50743" lon="1.65719">
        <ele>142.4</ele>
        <time>2022-05-07T13:56:51Z</time>
      </trkpt>
      <trkpt lat="44.50746" lon="1.65721">
        <ele>142.4</ele>
        <time>2022-05-07T13:56:52Z</time>
      </trkpt>
      <trkpt lat="44.50749" lon="1.65724">
        <ele>142.4</ele>
        <time>2022-05-07T13:56:53Z</time>
      </trkpt>
      <trkpt lat="44.50755" lon="1.65728">
        <ele>142.4</ele>
        <time>2022-05-07T13:56:55Z</time>
      </trkpt>
      <trkpt lat="44.50758" lon="1.65731">
        <ele>142.4</ele>
        <time>2022-05-07T13:56:56Z</time>
      </trkpt>
      <trkpt lat="44.5076" lon="1.65734">
        <ele>142.4</ele>
        <time>2022-05-07T13:56:57Z</time>
      </trkpt>
      <trkpt lat="44.50764" lon="1.65737">
        <ele>142.4</ele>
        <time>2022-05-07T13:56:58Z</time>
      </trkpt>
      <trkpt lat="44.50766" lon="1.6574">
        <ele>142.4</ele>
        <time>2022-05-07T13:56:59Z</time>
      </trkpt>
      <trkpt lat="44.50769" lon="1.65743">
        <ele>142.4</ele>
        <time>2022-05-07T13:57:00Z</time>
      </trkpt>
      <trkpt lat="44.50774" lon="1.65747">
        <ele>142.3</ele>
        <time>2022-05-07T13:57:02Z</time>
      </trkpt>
      <trkpt lat="44.50776" lon="1.6575">
        <ele>142.3</ele>
        <time>2022-05-07T13:57:03Z</time>
      </trkpt>
      <trkpt lat="44.50778" lon="1.65753">
        <ele>142.3</ele>
        <time>2022-05-07T13:57:04Z</time>
      </trkpt>
      <trkpt lat="44.50781" lon="1.65757">
        <ele>142.3</ele>
        <time>2022-05-07T13:57:05Z</time>
      </trkpt>
      <trkpt lat="44.50782" lon="1.65759">
        <ele>142.3</ele>
        <time>2022-05-07T13:57:06Z</time>
      </trkpt>
      <trkpt lat="44.50784" lon="1.65764">
        <ele>142.3</ele>
        <time>2022-05-07T13:57:08Z</time>
      </trkpt>
      <trkpt lat="44.50786" lon="1.65769">
        <ele>142.3</ele>
        <time>2022-05-07T13:57:09Z</time>
      </trkpt>
      <trkpt lat="44.50785" lon="1.65776">
        <ele>142.3</ele>
        <time>2022-05-07T13:57:10Z</time>
      </trkpt>
      <trkpt lat="44.50784" lon="1.65781">
        <ele>142.3</ele>
        <time>2022-05-07T13:57:11Z</time>
      </trkpt>
      <trkpt lat="44.50782" lon="1.65785">
        <ele>142.3</ele>
        <time>2022-05-07T13:57:12Z</time>
      </trkpt>
      <trkpt lat="44.50781" lon="1.6579">
        <ele>142.3</ele>
        <time>2022-05-07T13:57:13Z</time>
      </trkpt>
      <trkpt lat="44.50781" lon="1.65791">
        <ele>142.3</ele>
        <time>2022-05-07T13:57:14Z</time>
      </trkpt>
      <trkpt lat="44.50779" lon="1.65795">
        <ele>142.3</ele>
        <time>2022-05-07T13:57:15Z</time>
      </trkpt>
      <trkpt lat="44.50779" lon="1.65797">
        <ele>142.2</ele>
        <time>2022-05-07T13:57:16Z</time>
      </trkpt>
      <trkpt lat="44.50778" lon="1.65802">
        <ele>142.2</ele>
        <time>2022-05-07T13:57:17Z</time>
      </trkpt>
      <trkpt lat="44.50778" lon="1.65804">
        <ele>142.2</ele>
        <time>2022-05-07T13:57:18Z</time>
      </trkpt>
      <trkpt lat="44.50776" lon="1.65808">
        <ele>142.1</ele>
        <time>2022-05-07T13:57:19Z</time>
      </trkpt>
      <trkpt lat="44.50774" lon="1.65816">
        <ele>142</ele>
        <time>2022-05-07T13:57:21Z</time>
      </trkpt>
      <trkpt lat="44.50772" lon="1.65822">
        <ele>141.9</ele>
        <time>2022-05-07T13:57:22Z</time>
      </trkpt>
      <trkpt lat="44.5077" lon="1.65828">
        <ele>141.8</ele>
        <time>2022-05-07T13:57:23Z</time>
      </trkpt>
      <trkpt lat="44.50768" lon="1.65833">
        <ele>141.8</ele>
        <time>2022-05-07T13:57:24Z</time>
      </trkpt>
      <trkpt lat="44.50766" lon="1.65839">
        <ele>141.8</ele>
        <time>2022-05-07T13:57:25Z</time>
      </trkpt>
      <trkpt lat="44.50764" lon="1.65844">
        <ele>141.9</ele>
        <time>2022-05-07T13:57:26Z</time>
      </trkpt>
      <trkpt lat="44.50764" lon="1.65846">
        <ele>141.9</ele>
        <time>2022-05-07T13:57:27Z</time>
      </trkpt>
      <trkpt lat="44.50763" lon="1.65849">
        <ele>141.9</ele>
        <time>2022-05-07T13:57:28Z</time>
      </trkpt>
      <trkpt lat="44.50761" lon="1.65853">
        <ele>141.9</ele>
        <time>2022-05-07T13:57:29Z</time>
      </trkpt>
      <trkpt lat="44.50761" lon="1.65855">
        <ele>142</ele>
        <time>2022-05-07T13:57:30Z</time>
      </trkpt>
      <trkpt lat="44.50759" lon="1.65858">
        <ele>142</ele>
        <time>2022-05-07T13:57:31Z</time>
      </trkpt>
      <trkpt lat="44.50757" lon="1.65862">
        <ele>142.1</ele>
        <time>2022-05-07T13:57:32Z</time>
      </trkpt>
      <trkpt lat="44.50757" lon="1.65863">
        <ele>142.1</ele>
        <time>2022-05-07T13:57:33Z</time>
      </trkpt>
      <trkpt lat="44.50756" lon="1.65868">
        <ele>142.3</ele>
        <time>2022-05-07T13:57:35Z</time>
      </trkpt>
      <trkpt lat="44.50755" lon="1.6587">
        <ele>142.3</ele>
        <time>2022-05-07T13:57:36Z</time>
      </trkpt>
      <trkpt lat="44.50755" lon="1.65871">
        <ele>142.3</ele>
        <time>2022-05-07T13:57:37Z</time>
      </trkpt>
      <trkpt lat="44.50754" lon="1.65873">
        <ele>142.4</ele>
        <time>2022-05-07T13:57:38Z</time>
      </trkpt>
      <trkpt lat="44.50753" lon="1.65874">
        <ele>142.4</ele>
        <time>2022-05-07T13:57:39Z</time>
      </trkpt>
      <trkpt lat="44.50752" lon="1.65878">
        <ele>142.6</ele>
        <time>2022-05-07T13:57:40Z</time>
      </trkpt>
      <trkpt lat="44.50751" lon="1.65883">
        <ele>142.8</ele>
        <time>2022-05-07T13:57:41Z</time>
      </trkpt>
      <trkpt lat="44.50749" lon="1.65887">
        <ele>143</ele>
        <time>2022-05-07T13:57:42Z</time>
      </trkpt>
      <trkpt lat="44.50749" lon="1.65889">
        <ele>143</ele>
        <time>2022-05-07T13:57:43Z</time>
      </trkpt>
      <trkpt lat="44.50748" lon="1.65891">
        <ele>143.1</ele>
        <time>2022-05-07T13:57:44Z</time>
      </trkpt>
      <trkpt lat="44.50748" lon="1.65893">
        <ele>143.2</ele>
        <time>2022-05-07T13:57:45Z</time>
      </trkpt>
      <trkpt lat="44.50747" lon="1.65895">
        <ele>143.3</ele>
        <time>2022-05-07T13:57:46Z</time>
      </trkpt>
      <trkpt lat="44.50747" lon="1.65897">
        <ele>143.4</ele>
        <time>2022-05-07T13:57:47Z</time>
      </trkpt>
      <trkpt lat="44.50746" lon="1.65899">
        <ele>143.6</ele>
        <time>2022-05-07T13:57:48Z</time>
      </trkpt>
      <trkpt lat="44.50744" lon="1.659">
        <ele>143.7</ele>
        <time>2022-05-07T13:57:49Z</time>
      </trkpt>
      <trkpt lat="44.50741" lon="1.659">
        <ele>144.1</ele>
        <time>2022-05-07T13:57:50Z</time>
      </trkpt>
      <trkpt lat="44.50739" lon="1.659">
        <ele>144.2</ele>
        <time>2022-05-07T13:57:52Z</time>
      </trkpt>
      <trkpt lat="44.50738" lon="1.659">
        <ele>144.4</ele>
        <time>2022-05-07T13:57:53Z</time>
      </trkpt>
      <trkpt lat="44.50737" lon="1.659">
        <ele>144.5</ele>
        <time>2022-05-07T13:57:54Z</time>
      </trkpt>
      <trkpt lat="44.50735" lon="1.65896">
        <ele>144.9</ele>
        <time>2022-05-07T13:57:55Z</time>
      </trkpt>
      <trkpt lat="44.50733" lon="1.65892">
        <ele>145.3</ele>
        <time>2022-05-07T13:57:56Z</time>
      </trkpt>
      <trkpt lat="44.50732" lon="1.6589">
        <ele>145.5</ele>
        <time>2022-05-07T13:57:57Z</time>
      </trkpt>
      <trkpt lat="44.50729" lon="1.65887">
        <ele>145.9</ele>
        <time>2022-05-07T13:57:59Z</time>
      </trkpt>
      <trkpt lat="44.50728" lon="1.65885">
        <ele>146.1</ele>
        <time>2022-05-07T13:58:00Z</time>
      </trkpt>
      <trkpt lat="44.50727" lon="1.65882">
        <ele>146.4</ele>
        <time>2022-05-07T13:58:02Z</time>
      </trkpt>
      <trkpt lat="44.50725" lon="1.65879">
        <ele>146.7</ele>
        <time>2022-05-07T13:58:03Z</time>
      </trkpt>
      <trkpt lat="44.50724" lon="1.65878">
        <ele>146.8</ele>
        <time>2022-05-07T13:58:04Z</time>
      </trkpt>
      <trkpt lat="44.50723" lon="1.65875">
        <ele>147.1</ele>
        <time>2022-05-07T13:58:05Z</time>
      </trkpt>
      <trkpt lat="44.50722" lon="1.65873">
        <ele>147.4</ele>
        <time>2022-05-07T13:58:06Z</time>
      </trkpt>
      <trkpt lat="44.50718" lon="1.6587">
        <ele>147.9</ele>
        <time>2022-05-07T13:58:08Z</time>
      </trkpt>
      <trkpt lat="44.50717" lon="1.65868">
        <ele>148.1</ele>
        <time>2022-05-07T13:58:09Z</time>
      </trkpt>
      <trkpt lat="44.50716" lon="1.65867">
        <ele>148.2</ele>
        <time>2022-05-07T13:58:10Z</time>
      </trkpt>
      <trkpt lat="44.50714" lon="1.65865">
        <ele>148.5</ele>
        <time>2022-05-07T13:58:11Z</time>
      </trkpt>
      <trkpt lat="44.50713" lon="1.65864">
        <ele>148.7</ele>
        <time>2022-05-07T13:58:12Z</time>
      </trkpt>
      <trkpt lat="44.50712" lon="1.65862">
        <ele>148.9</ele>
        <time>2022-05-07T13:58:13Z</time>
      </trkpt>
      <trkpt lat="44.5071" lon="1.65861">
        <ele>149.1</ele>
        <time>2022-05-07T13:58:14Z</time>
      </trkpt>
      <trkpt lat="44.50707" lon="1.65858">
        <ele>149.6</ele>
        <time>2022-05-07T13:58:16Z</time>
      </trkpt>
      <trkpt lat="44.50706" lon="1.65857">
        <ele>149.7</ele>
        <time>2022-05-07T13:58:17Z</time>
      </trkpt>
      <trkpt lat="44.50704" lon="1.65856">
        <ele>149.9</ele>
        <time>2022-05-07T13:58:18Z</time>
      </trkpt>
      <trkpt lat="44.50702" lon="1.65854">
        <ele>150.3</ele>
        <time>2022-05-07T13:58:19Z</time>
      </trkpt>
      <trkpt lat="44.50701" lon="1.65853">
        <ele>150.4</ele>
        <time>2022-05-07T13:58:20Z</time>
      </trkpt>
      <trkpt lat="44.50698" lon="1.65851">
        <ele>150.8</ele>
        <time>2022-05-07T13:58:21Z</time>
      </trkpt>
      <trkpt lat="44.50697" lon="1.6585">
        <ele>150.9</ele>
        <time>2022-05-07T13:58:22Z</time>
      </trkpt>
      <trkpt lat="44.50694" lon="1.65847">
        <ele>151.3</ele>
        <time>2022-05-07T13:58:23Z</time>
      </trkpt>
      <trkpt lat="44.50694" lon="1.65846">
        <ele>151.4</ele>
        <time>2022-05-07T13:58:24Z</time>
      </trkpt>
      <trkpt lat="44.50691" lon="1.65844">
        <ele>151.8</ele>
        <time>2022-05-07T13:58:25Z</time>
      </trkpt>
      <trkpt lat="44.5069" lon="1.65843">
        <ele>152</ele>
        <time>2022-05-07T13:58:26Z</time>
      </trkpt>
      <trkpt lat="44.50686" lon="1.65841">
        <ele>152.2</ele>
        <time>2022-05-07T13:58:27Z</time>
      </trkpt>
      <trkpt lat="44.50685" lon="1.65841">
        <ele>152.2</ele>
        <time>2022-05-07T13:58:28Z</time>
      </trkpt>
      <trkpt lat="44.50682" lon="1.65839">
        <ele>152.3</ele>
        <time>2022-05-07T13:58:29Z</time>
      </trkpt>
      <trkpt lat="44.50682" lon="1.65838">
        <ele>152.3</ele>
        <time>2022-05-07T13:58:30Z</time>
      </trkpt>
      <trkpt lat="44.50678" lon="1.65835">
        <ele>152.4</ele>
        <time>2022-05-07T13:58:32Z</time>
      </trkpt>
      <trkpt lat="44.50677" lon="1.65834">
        <ele>152.4</ele>
        <time>2022-05-07T13:58:33Z</time>
      </trkpt>
      <trkpt lat="44.50676" lon="1.65832">
        <ele>152.4</ele>
        <time>2022-05-07T13:58:34Z</time>
      </trkpt>
      <trkpt lat="44.50674" lon="1.65831">
        <ele>152.5</ele>
        <time>2022-05-07T13:58:35Z</time>
      </trkpt>
      <trkpt lat="44.50673" lon="1.65829">
        <ele>152.5</ele>
        <time>2022-05-07T13:58:36Z</time>
      </trkpt>
      <trkpt lat="44.50672" lon="1.65828">
        <ele>152.5</ele>
        <time>2022-05-07T13:58:37Z</time>
      </trkpt>
      <trkpt lat="44.50671" lon="1.65827">
        <ele>152.6</ele>
        <time>2022-05-07T13:58:38Z</time>
      </trkpt>
      <trkpt lat="44.50669" lon="1.65825">
        <ele>152.6</ele>
        <time>2022-05-07T13:58:39Z</time>
      </trkpt>
      <trkpt lat="44.50666" lon="1.65823">
        <ele>152.7</ele>
        <time>2022-05-07T13:58:41Z</time>
      </trkpt>
      <trkpt lat="44.50663" lon="1.65821">
        <ele>152.8</ele>
        <time>2022-05-07T13:58:42Z</time>
      </trkpt>
      <trkpt lat="44.50663" lon="1.65821">
        <ele>152.8</ele>
        <time>2022-05-07T13:58:43Z</time>
      </trkpt>
      <trkpt lat="44.50662" lon="1.65821">
        <ele>152.8</ele>
        <time>2022-05-07T13:58:44Z</time>
      </trkpt>
      <trkpt lat="44.50659" lon="1.65821">
        <ele>152.9</ele>
        <time>2022-05-07T13:58:45Z</time>
      </trkpt>
      <trkpt lat="44.50658" lon="1.65821">
        <ele>152.9</ele>
        <time>2022-05-07T13:58:46Z</time>
      </trkpt>
      <trkpt lat="44.50655" lon="1.65821">
        <ele>153</ele>
        <time>2022-05-07T13:58:47Z</time>
      </trkpt>
      <trkpt lat="44.50654" lon="1.6582">
        <ele>153</ele>
        <time>2022-05-07T13:58:48Z</time>
      </trkpt>
      <trkpt lat="44.50653" lon="1.6582">
        <ele>153</ele>
        <time>2022-05-07T13:58:49Z</time>
      </trkpt>
      <trkpt lat="44.50649" lon="1.6582">
        <ele>153.1</ele>
        <time>2022-05-07T13:58:51Z</time>
      </trkpt>
      <trkpt lat="44.50646" lon="1.65821">
        <ele>153.2</ele>
        <time>2022-05-07T13:58:52Z</time>
      </trkpt>
      <trkpt lat="44.50645" lon="1.65821">
        <ele>153.2</ele>
        <time>2022-05-07T13:58:53Z</time>
      </trkpt>
      <trkpt lat="44.50642" lon="1.6582">
        <ele>153.2</ele>
        <time>2022-05-07T13:58:54Z</time>
      </trkpt>
      <trkpt lat="44.50641" lon="1.6582">
        <ele>153.3</ele>
        <time>2022-05-07T13:58:55Z</time>
      </trkpt>
      <trkpt lat="44.50639" lon="1.6582">
        <ele>153.3</ele>
        <time>2022-05-07T13:58:56Z</time>
      </trkpt>
      <trkpt lat="44.50638" lon="1.6582">
        <ele>153.4</ele>
        <time>2022-05-07T13:58:57Z</time>
      </trkpt>
      <trkpt lat="44.50634" lon="1.6582">
        <ele>153.4</ele>
        <time>2022-05-07T13:58:58Z</time>
      </trkpt>
      <trkpt lat="44.50633" lon="1.6582">
        <ele>153.5</ele>
        <time>2022-05-07T13:58:59Z</time>
      </trkpt>
      <trkpt lat="44.5063" lon="1.6582">
        <ele>153.6</ele>
        <time>2022-05-07T13:59:00Z</time>
      </trkpt>
      <trkpt lat="44.50629" lon="1.65821">
        <ele>153.6</ele>
        <time>2022-05-07T13:59:01Z</time>
      </trkpt>
      <trkpt lat="44.50628" lon="1.65821">
        <ele>153.7</ele>
        <time>2022-05-07T13:59:02Z</time>
      </trkpt>
      <trkpt lat="44.50626" lon="1.65822">
        <ele>153.8</ele>
        <time>2022-05-07T13:59:03Z</time>
      </trkpt>
      <trkpt lat="44.50624" lon="1.65823">
        <ele>153.9</ele>
        <time>2022-05-07T13:59:04Z</time>
      </trkpt>
      <trkpt lat="44.50623" lon="1.65824">
        <ele>154</ele>
        <time>2022-05-07T13:59:05Z</time>
      </trkpt>
      <trkpt lat="44.50622" lon="1.65825">
        <ele>154.1</ele>
        <time>2022-05-07T13:59:06Z</time>
      </trkpt>
      <trkpt lat="44.5062" lon="1.65826">
        <ele>154.1</ele>
        <time>2022-05-07T13:59:07Z</time>
      </trkpt>
      <trkpt lat="44.50619" lon="1.65827">
        <ele>154.2</ele>
        <time>2022-05-07T13:59:08Z</time>
      </trkpt>
      <trkpt lat="44.50618" lon="1.65828">
        <ele>154.3</ele>
        <time>2022-05-07T13:59:09Z</time>
      </trkpt>
      <trkpt lat="44.50618" lon="1.65828">
        <ele>154.3</ele>
        <time>2022-05-07T13:59:10Z</time>
      </trkpt>
      <trkpt lat="44.50618" lon="1.65829">
        <ele>154.3</ele>
        <time>2022-05-07T13:59:11Z</time>
      </trkpt>
      <trkpt lat="44.50618" lon="1.65829">
        <ele>154.3</ele>
        <time>2022-05-07T13:59:12Z</time>
      </trkpt>
      <trkpt lat="44.50617" lon="1.65829">
        <ele>154.4</ele>
        <time>2022-05-07T13:59:13Z</time>
      </trkpt>
      <trkpt lat="44.50617" lon="1.6583">
        <ele>154.4</ele>
        <time>2022-05-07T13:59:14Z</time>
      </trkpt>
      <trkpt lat="44.50617" lon="1.6583">
        <ele>154.4</ele>
        <time>2022-05-07T13:59:15Z</time>
      </trkpt>
      <trkpt lat="44.50616" lon="1.65832">
        <ele>154.5</ele>
        <time>2022-05-07T13:59:16Z</time>
      </trkpt>
      <trkpt lat="44.50615" lon="1.65833">
        <ele>154.6</ele>
        <time>2022-05-07T13:59:17Z</time>
      </trkpt>
      <trkpt lat="44.50614" lon="1.65834">
        <ele>154.7</ele>
        <time>2022-05-07T13:59:18Z</time>
      </trkpt>
      <trkpt lat="44.50613" lon="1.65835">
        <ele>154.7</ele>
        <time>2022-05-07T13:59:19Z</time>
      </trkpt>
      <trkpt lat="44.50612" lon="1.65836">
        <ele>154.8</ele>
        <time>2022-05-07T13:59:20Z</time>
      </trkpt>
      <trkpt lat="44.50611" lon="1.65837">
        <ele>154.9</ele>
        <time>2022-05-07T13:59:21Z</time>
      </trkpt>
      <trkpt lat="44.50611" lon="1.65838">
        <ele>155</ele>
        <time>2022-05-07T13:59:22Z</time>
      </trkpt>
      <trkpt lat="44.5061" lon="1.65839">
        <ele>155.1</ele>
        <time>2022-05-07T13:59:23Z</time>
      </trkpt>
      <trkpt lat="44.50608" lon="1.65837">
        <ele>155.2</ele>
        <time>2022-05-07T13:59:25Z</time>
      </trkpt>
      <trkpt lat="44.50606" lon="1.65838">
        <ele>155.3</ele>
        <time>2022-05-07T13:59:26Z</time>
      </trkpt>
      <trkpt lat="44.50605" lon="1.6584">
        <ele>155.5</ele>
        <time>2022-05-07T13:59:27Z</time>
      </trkpt>
      <trkpt lat="44.50604" lon="1.65841">
        <ele>155.6</ele>
        <time>2022-05-07T13:59:28Z</time>
      </trkpt>
      <trkpt lat="44.50602" lon="1.65842">
        <ele>155.7</ele>
        <time>2022-05-07T13:59:29Z</time>
      </trkpt>
      <trkpt lat="44.50601" lon="1.65845">
        <ele>156</ele>
        <time>2022-05-07T13:59:30Z</time>
      </trkpt>
      <trkpt lat="44.506" lon="1.65846">
        <ele>156.1</ele>
        <time>2022-05-07T13:59:31Z</time>
      </trkpt>
      <trkpt lat="44.506" lon="1.65847">
        <ele>156.2</ele>
        <time>2022-05-07T13:59:32Z</time>
      </trkpt>
      <trkpt lat="44.50599" lon="1.65848">
        <ele>156.3</ele>
        <time>2022-05-07T13:59:33Z</time>
      </trkpt>
      <trkpt lat="44.50598" lon="1.65849">
        <ele>156.4</ele>
        <time>2022-05-07T13:59:34Z</time>
      </trkpt>
      <trkpt lat="44.50597" lon="1.6585">
        <ele>156.5</ele>
        <time>2022-05-07T13:59:35Z</time>
      </trkpt>
      <trkpt lat="44.50596" lon="1.6585">
        <ele>156.6</ele>
        <time>2022-05-07T13:59:36Z</time>
      </trkpt>
      <trkpt lat="44.50596" lon="1.65851">
        <ele>156.7</ele>
        <time>2022-05-07T13:59:37Z</time>
      </trkpt>
      <trkpt lat="44.50594" lon="1.65852">
        <ele>156.8</ele>
        <time>2022-05-07T13:59:38Z</time>
      </trkpt>
      <trkpt lat="44.50593" lon="1.65853">
        <ele>156.9</ele>
        <time>2022-05-07T13:59:39Z</time>
      </trkpt>
      <trkpt lat="44.50593" lon="1.65854">
        <ele>157</ele>
        <time>2022-05-07T13:59:40Z</time>
      </trkpt>
      <trkpt lat="44.50592" lon="1.65855">
        <ele>157.1</ele>
        <time>2022-05-07T13:59:41Z</time>
      </trkpt>
      <trkpt lat="44.50591" lon="1.65856">
        <ele>157.2</ele>
        <time>2022-05-07T13:59:42Z</time>
      </trkpt>
      <trkpt lat="44.5059" lon="1.65857">
        <ele>157.4</ele>
        <time>2022-05-07T13:59:43Z</time>
      </trkpt>
      <trkpt lat="44.50589" lon="1.65858">
        <ele>157.5</ele>
        <time>2022-05-07T13:59:44Z</time>
      </trkpt>
      <trkpt lat="44.50588" lon="1.65859">
        <ele>157.6</ele>
        <time>2022-05-07T13:59:45Z</time>
      </trkpt>
      <trkpt lat="44.50587" lon="1.65859">
        <ele>157.7</ele>
        <time>2022-05-07T13:59:46Z</time>
      </trkpt>
      <trkpt lat="44.50587" lon="1.6586">
        <ele>157.8</ele>
        <time>2022-05-07T13:59:47Z</time>
      </trkpt>
      <trkpt lat="44.50586" lon="1.65861">
        <ele>157.8</ele>
        <time>2022-05-07T13:59:48Z</time>
      </trkpt>
      <trkpt lat="44.50585" lon="1.65862">
        <ele>158</ele>
        <time>2022-05-07T13:59:49Z</time>
      </trkpt>
      <trkpt lat="44.50583" lon="1.65863">
        <ele>158.2</ele>
        <time>2022-05-07T13:59:50Z</time>
      </trkpt>
      <trkpt lat="44.50582" lon="1.65864">
        <ele>158.3</ele>
        <time>2022-05-07T13:59:51Z</time>
      </trkpt>
      <trkpt lat="44.50581" lon="1.65865">
        <ele>158.4</ele>
        <time>2022-05-07T13:59:52Z</time>
      </trkpt>
      <trkpt lat="44.5058" lon="1.65865">
        <ele>158.5</ele>
        <time>2022-05-07T13:59:53Z</time>
      </trkpt>
      <trkpt lat="44.5058" lon="1.65865">
        <ele>158.6</ele>
        <time>2022-05-07T13:59:54Z</time>
      </trkpt>
      <trkpt lat="44.50578" lon="1.65867">
        <ele>158.8</ele>
        <time>2022-05-07T13:59:56Z</time>
      </trkpt>
      <trkpt lat="44.50577" lon="1.65868">
        <ele>158.9</ele>
        <time>2022-05-07T13:59:57Z</time>
      </trkpt>
      <trkpt lat="44.50576" lon="1.65869">
        <ele>159.1</ele>
        <time>2022-05-07T13:59:58Z</time>
      </trkpt>
      <trkpt lat="44.50575" lon="1.6587">
        <ele>159.2</ele>
        <time>2022-05-07T13:59:59Z</time>
      </trkpt>
      <trkpt lat="44.50574" lon="1.6587">
        <ele>159.3</ele>
        <time>2022-05-07T14:00:00Z</time>
      </trkpt>
      <trkpt lat="44.50574" lon="1.65871">
        <ele>159.4</ele>
        <time>2022-05-07T14:00:01Z</time>
      </trkpt>
      <trkpt lat="44.50573" lon="1.65872">
        <ele>159.4</ele>
        <time>2022-05-07T14:00:02Z</time>
      </trkpt>
      <trkpt lat="44.50572" lon="1.65872">
        <ele>159.5</ele>
        <time>2022-05-07T14:00:03Z</time>
      </trkpt>
      <trkpt lat="44.50572" lon="1.65873">
        <ele>159.6</ele>
        <time>2022-05-07T14:00:04Z</time>
      </trkpt>
      <trkpt lat="44.50571" lon="1.65874">
        <ele>159.8</ele>
        <time>2022-05-07T14:00:05Z</time>
      </trkpt>
      <trkpt lat="44.5057" lon="1.65875">
        <ele>159.9</ele>
        <time>2022-05-07T14:00:07Z</time>
      </trkpt>
      <trkpt lat="44.50569" lon="1.65876">
        <ele>160</ele>
        <time>2022-05-07T14:00:08Z</time>
      </trkpt>
      <trkpt lat="44.50567" lon="1.65879">
        <ele>160.3</ele>
        <time>2022-05-07T14:00:09Z</time>
      </trkpt>
      <trkpt lat="44.50566" lon="1.6588">
        <ele>160.4</ele>
        <time>2022-05-07T14:00:10Z</time>
      </trkpt>
      <trkpt lat="44.50565" lon="1.65881">
        <ele>160.7</ele>
        <time>2022-05-07T14:00:11Z</time>
      </trkpt>
      <trkpt lat="44.50564" lon="1.65882">
        <ele>160.7</ele>
        <time>2022-05-07T14:00:12Z</time>
      </trkpt>
      <trkpt lat="44.50564" lon="1.65882">
        <ele>160.7</ele>
        <time>2022-05-07T14:00:13Z</time>
      </trkpt>
      <trkpt lat="44.50564" lon="1.65882">
        <ele>160.8</ele>
        <time>2022-05-07T14:00:14Z</time>
      </trkpt>
      <trkpt lat="44.50563" lon="1.65882">
        <ele>160.8</ele>
        <time>2022-05-07T14:00:15Z</time>
      </trkpt>
      <trkpt lat="44.50563" lon="1.65883">
        <ele>160.9</ele>
        <time>2022-05-07T14:00:16Z</time>
      </trkpt>
      <trkpt lat="44.50563" lon="1.65883">
        <ele>160.9</ele>
        <time>2022-05-07T14:00:17Z</time>
      </trkpt>
      <trkpt lat="44.50561" lon="1.65884">
        <ele>161.1</ele>
        <time>2022-05-07T14:00:18Z</time>
      </trkpt>
      <trkpt lat="44.5056" lon="1.65886">
        <ele>161.3</ele>
        <time>2022-05-07T14:00:19Z</time>
      </trkpt>
      <trkpt lat="44.50559" lon="1.65887">
        <ele>161.5</ele>
        <time>2022-05-07T14:00:20Z</time>
      </trkpt>
      <trkpt lat="44.50558" lon="1.65889">
        <ele>161.7</ele>
        <time>2022-05-07T14:00:22Z</time>
      </trkpt>
      <trkpt lat="44.50558" lon="1.65889">
        <ele>161.7</ele>
        <time>2022-05-07T14:00:23Z</time>
      </trkpt>
      <trkpt lat="44.50558" lon="1.65889">
        <ele>161.7</ele>
        <time>2022-05-07T14:00:24Z</time>
      </trkpt>
      <trkpt lat="44.50557" lon="1.65889">
        <ele>161.8</ele>
        <time>2022-05-07T14:00:25Z</time>
      </trkpt>
      <trkpt lat="44.50557" lon="1.65889">
        <ele>161.8</ele>
        <time>2022-05-07T14:00:27Z</time>
      </trkpt>
      <trkpt lat="44.50557" lon="1.65889">
        <ele>161.9</ele>
        <time>2022-05-07T14:00:28Z</time>
      </trkpt>
      <trkpt lat="44.50557" lon="1.65889">
        <ele>161.9</ele>
        <time>2022-05-07T14:00:29Z</time>
      </trkpt>
      <trkpt lat="44.50555" lon="1.65893">
        <ele>162.2</ele>
        <time>2022-05-07T14:00:32Z</time>
      </trkpt>
      <trkpt lat="44.50551" lon="1.65897">
        <ele>162.8</ele>
        <time>2022-05-07T14:00:33Z</time>
      </trkpt>
      <trkpt lat="44.50549" lon="1.65899">
        <ele>163.1</ele>
        <time>2022-05-07T14:00:34Z</time>
      </trkpt>
      <trkpt lat="44.50547" lon="1.65902">
        <ele>163.4</ele>
        <time>2022-05-07T14:00:35Z</time>
      </trkpt>
      <trkpt lat="44.50545" lon="1.65904">
        <ele>163.8</ele>
        <time>2022-05-07T14:00:37Z</time>
      </trkpt>
      <trkpt lat="44.50544" lon="1.65904">
        <ele>163.9</ele>
        <time>2022-05-07T14:00:38Z</time>
      </trkpt>
      <trkpt lat="44.50543" lon="1.65905">
        <ele>164</ele>
        <time>2022-05-07T14:00:39Z</time>
      </trkpt>
      <trkpt lat="44.50542" lon="1.65905">
        <ele>164.1</ele>
        <time>2022-05-07T14:00:40Z</time>
      </trkpt>
      <trkpt lat="44.50541" lon="1.65906">
        <ele>164.3</ele>
        <time>2022-05-07T14:00:41Z</time>
      </trkpt>
      <trkpt lat="44.5054" lon="1.65907">
        <ele>164.4</ele>
        <time>2022-05-07T14:00:42Z</time>
      </trkpt>
      <trkpt lat="44.50539" lon="1.65908">
        <ele>164.5</ele>
        <time>2022-05-07T14:00:43Z</time>
      </trkpt>
      <trkpt lat="44.50539" lon="1.65908">
        <ele>164.6</ele>
        <time>2022-05-07T14:00:44Z</time>
      </trkpt>
      <trkpt lat="44.50538" lon="1.65909">
        <ele>164.7</ele>
        <time>2022-05-07T14:00:45Z</time>
      </trkpt>
      <trkpt lat="44.50537" lon="1.65909">
        <ele>164.8</ele>
        <time>2022-05-07T14:00:46Z</time>
      </trkpt>
      <trkpt lat="44.50535" lon="1.6591">
        <ele>165</ele>
        <time>2022-05-07T14:00:47Z</time>
      </trkpt>
      <trkpt lat="44.50534" lon="1.65911">
        <ele>165.1</ele>
        <time>2022-05-07T14:00:48Z</time>
      </trkpt>
      <trkpt lat="44.50534" lon="1.65912">
        <ele>165.2</ele>
        <time>2022-05-07T14:00:49Z</time>
      </trkpt>
      <trkpt lat="44.50533" lon="1.65912">
        <ele>165.3</ele>
        <time>2022-05-07T14:00:50Z</time>
      </trkpt>
      <trkpt lat="44.50532" lon="1.65913">
        <ele>165.5</ele>
        <time>2022-05-07T14:00:51Z</time>
      </trkpt>
      <trkpt lat="44.50531" lon="1.65914">
        <ele>165.7</ele>
        <time>2022-05-07T14:00:52Z</time>
      </trkpt>
      <trkpt lat="44.5053" lon="1.65915">
        <ele>165.8</ele>
        <time>2022-05-07T14:00:53Z</time>
      </trkpt>
      <trkpt lat="44.50529" lon="1.65916">
        <ele>165.9</ele>
        <time>2022-05-07T14:00:54Z</time>
      </trkpt>
      <trkpt lat="44.50528" lon="1.65917">
        <ele>166</ele>
        <time>2022-05-07T14:00:55Z</time>
      </trkpt>
      <trkpt lat="44.50527" lon="1.65917">
        <ele>166.2</ele>
        <time>2022-05-07T14:00:56Z</time>
      </trkpt>
      <trkpt lat="44.50526" lon="1.65918">
        <ele>166.3</ele>
        <time>2022-05-07T14:00:57Z</time>
      </trkpt>
      <trkpt lat="44.50526" lon="1.65918">
        <ele>166.4</ele>
        <time>2022-05-07T14:00:58Z</time>
      </trkpt>
      <trkpt lat="44.50525" lon="1.65919">
        <ele>166.4</ele>
        <time>2022-05-07T14:00:59Z</time>
      </trkpt>
      <trkpt lat="44.50524" lon="1.65919">
        <ele>166.5</ele>
        <time>2022-05-07T14:01:00Z</time>
      </trkpt>
      <trkpt lat="44.50522" lon="1.65922">
        <ele>166.8</ele>
        <time>2022-05-07T14:01:01Z</time>
      </trkpt>
      <trkpt lat="44.50522" lon="1.65923">
        <ele>166.9</ele>
        <time>2022-05-07T14:01:02Z</time>
      </trkpt>
      <trkpt lat="44.50522" lon="1.65924">
        <ele>167</ele>
        <time>2022-05-07T14:01:03Z</time>
      </trkpt>
      <trkpt lat="44.50521" lon="1.65925">
        <ele>167.1</ele>
        <time>2022-05-07T14:01:04Z</time>
      </trkpt>
      <trkpt lat="44.5052" lon="1.65926">
        <ele>167.3</ele>
        <time>2022-05-07T14:01:05Z</time>
      </trkpt>
      <trkpt lat="44.50519" lon="1.65927">
        <ele>167.4</ele>
        <time>2022-05-07T14:01:06Z</time>
      </trkpt>
      <trkpt lat="44.50518" lon="1.65929">
        <ele>167.6</ele>
        <time>2022-05-07T14:01:07Z</time>
      </trkpt>
      <trkpt lat="44.50518" lon="1.6593">
        <ele>167.7</ele>
        <time>2022-05-07T14:01:08Z</time>
      </trkpt>
      <trkpt lat="44.50517" lon="1.65931">
        <ele>167.8</ele>
        <time>2022-05-07T14:01:09Z</time>
      </trkpt>
      <trkpt lat="44.50517" lon="1.65933">
        <ele>168</ele>
        <time>2022-05-07T14:01:10Z</time>
      </trkpt>
      <trkpt lat="44.50516" lon="1.65934">
        <ele>168.1</ele>
        <time>2022-05-07T14:01:11Z</time>
      </trkpt>
      <trkpt lat="44.50516" lon="1.65936">
        <ele>168.2</ele>
        <time>2022-05-07T14:01:12Z</time>
      </trkpt>
      <trkpt lat="44.50516" lon="1.65937">
        <ele>168.3</ele>
        <time>2022-05-07T14:01:13Z</time>
      </trkpt>
      <trkpt lat="44.50515" lon="1.65939">
        <ele>168.5</ele>
        <time>2022-05-07T14:01:14Z</time>
      </trkpt>
      <trkpt lat="44.50515" lon="1.6594">
        <ele>168.6</ele>
        <time>2022-05-07T14:01:15Z</time>
      </trkpt>
      <trkpt lat="44.50514" lon="1.65943">
        <ele>168.8</ele>
        <time>2022-05-07T14:01:16Z</time>
      </trkpt>
      <trkpt lat="44.50513" lon="1.65945">
        <ele>169</ele>
        <time>2022-05-07T14:01:17Z</time>
      </trkpt>
      <trkpt lat="44.50512" lon="1.65947">
        <ele>169.3</ele>
        <time>2022-05-07T14:01:21Z</time>
      </trkpt>
      <trkpt lat="44.50511" lon="1.65949">
        <ele>169.5</ele>
        <time>2022-05-07T14:01:22Z</time>
      </trkpt>
      <trkpt lat="44.50509" lon="1.65951">
        <ele>169.7</ele>
        <time>2022-05-07T14:01:23Z</time>
      </trkpt>
      <trkpt lat="44.50509" lon="1.65952">
        <ele>169.8</ele>
        <time>2022-05-07T14:01:24Z</time>
      </trkpt>
      <trkpt lat="44.50508" lon="1.65953">
        <ele>169.9</ele>
        <time>2022-05-07T14:01:25Z</time>
      </trkpt>
      <trkpt lat="44.50507" lon="1.65955">
        <ele>170.1</ele>
        <time>2022-05-07T14:01:26Z</time>
      </trkpt>
      <trkpt lat="44.50506" lon="1.65956">
        <ele>170.3</ele>
        <time>2022-05-07T14:01:27Z</time>
      </trkpt>
      <trkpt lat="44.50505" lon="1.65957">
        <ele>170.4</ele>
        <time>2022-05-07T14:01:28Z</time>
      </trkpt>
      <trkpt lat="44.50504" lon="1.65958">
        <ele>170.5</ele>
        <time>2022-05-07T14:01:29Z</time>
      </trkpt>
      <trkpt lat="44.50503" lon="1.65959">
        <ele>170.7</ele>
        <time>2022-05-07T14:01:30Z</time>
      </trkpt>
      <trkpt lat="44.50503" lon="1.65959">
        <ele>170.7</ele>
        <time>2022-05-07T14:01:31Z</time>
      </trkpt>
      <trkpt lat="44.50502" lon="1.6596">
        <ele>170.9</ele>
        <time>2022-05-07T14:01:32Z</time>
      </trkpt>
      <trkpt lat="44.505" lon="1.65962">
        <ele>171.1</ele>
        <time>2022-05-07T14:01:33Z</time>
      </trkpt>
      <trkpt lat="44.50499" lon="1.65963">
        <ele>171.3</ele>
        <time>2022-05-07T14:01:34Z</time>
      </trkpt>
      <trkpt lat="44.50498" lon="1.65964">
        <ele>171.5</ele>
        <time>2022-05-07T14:01:35Z</time>
      </trkpt>
      <trkpt lat="44.50497" lon="1.65966">
        <ele>171.8</ele>
        <time>2022-05-07T14:01:36Z</time>
      </trkpt>
      <trkpt lat="44.50496" lon="1.65967">
        <ele>171.9</ele>
        <time>2022-05-07T14:01:37Z</time>
      </trkpt>
      <trkpt lat="44.50495" lon="1.65968">
        <ele>172</ele>
        <time>2022-05-07T14:01:38Z</time>
      </trkpt>
      <trkpt lat="44.50494" lon="1.6597">
        <ele>172.2</ele>
        <time>2022-05-07T14:01:39Z</time>
      </trkpt>
      <trkpt lat="44.50493" lon="1.65971">
        <ele>172.4</ele>
        <time>2022-05-07T14:01:40Z</time>
      </trkpt>
      <trkpt lat="44.50491" lon="1.65974">
        <ele>172.8</ele>
        <time>2022-05-07T14:01:42Z</time>
      </trkpt>
      <trkpt lat="44.5049" lon="1.65976">
        <ele>173</ele>
        <time>2022-05-07T14:01:43Z</time>
      </trkpt>
      <trkpt lat="44.50489" lon="1.65977">
        <ele>173.2</ele>
        <time>2022-05-07T14:01:44Z</time>
      </trkpt>
      <trkpt lat="44.50487" lon="1.6598">
        <ele>173.5</ele>
        <time>2022-05-07T14:01:45Z</time>
      </trkpt>
      <trkpt lat="44.50487" lon="1.6598">
        <ele>173.7</ele>
        <time>2022-05-07T14:01:46Z</time>
      </trkpt>
      <trkpt lat="44.50486" lon="1.65981">
        <ele>173.8</ele>
        <time>2022-05-07T14:01:47Z</time>
      </trkpt>
      <trkpt lat="44.50485" lon="1.65982">
        <ele>173.9</ele>
        <time>2022-05-07T14:01:48Z</time>
      </trkpt>
      <trkpt lat="44.50484" lon="1.65983">
        <ele>174.1</ele>
        <time>2022-05-07T14:01:49Z</time>
      </trkpt>
      <trkpt lat="44.50484" lon="1.65984">
        <ele>174.2</ele>
        <time>2022-05-07T14:01:50Z</time>
      </trkpt>
      <trkpt lat="44.50483" lon="1.65985">
        <ele>174.3</ele>
        <time>2022-05-07T14:01:51Z</time>
      </trkpt>
      <trkpt lat="44.50482" lon="1.65986">
        <ele>174.4</ele>
        <time>2022-05-07T14:01:52Z</time>
      </trkpt>
      <trkpt lat="44.50481" lon="1.65987">
        <ele>174.6</ele>
        <time>2022-05-07T14:01:53Z</time>
      </trkpt>
      <trkpt lat="44.5048" lon="1.65987">
        <ele>174.8</ele>
        <time>2022-05-07T14:01:54Z</time>
      </trkpt>
      <trkpt lat="44.5048" lon="1.65988">
        <ele>174.8</ele>
        <time>2022-05-07T14:01:55Z</time>
      </trkpt>
      <trkpt lat="44.5048" lon="1.65988">
        <ele>174.9</ele>
        <time>2022-05-07T14:01:56Z</time>
      </trkpt>
      <trkpt lat="44.50478" lon="1.65989">
        <ele>175.1</ele>
        <time>2022-05-07T14:01:57Z</time>
      </trkpt>
      <trkpt lat="44.50477" lon="1.6599">
        <ele>175.3</ele>
        <time>2022-05-07T14:01:58Z</time>
      </trkpt>
      <trkpt lat="44.50476" lon="1.65992">
        <ele>175.6</ele>
        <time>2022-05-07T14:01:59Z</time>
      </trkpt>
      <trkpt lat="44.50474" lon="1.65995">
        <ele>176</ele>
        <time>2022-05-07T14:02:00Z</time>
      </trkpt>
      <trkpt lat="44.50473" lon="1.65996">
        <ele>176.1</ele>
        <time>2022-05-07T14:02:01Z</time>
      </trkpt>
      <trkpt lat="44.50471" lon="1.65997">
        <ele>176.4</ele>
        <time>2022-05-07T14:02:02Z</time>
      </trkpt>
      <trkpt lat="44.5047" lon="1.65999">
        <ele>176.6</ele>
        <time>2022-05-07T14:02:03Z</time>
      </trkpt>
      <trkpt lat="44.50469" lon="1.66">
        <ele>176.8</ele>
        <time>2022-05-07T14:02:04Z</time>
      </trkpt>
      <trkpt lat="44.50468" lon="1.66001">
        <ele>177</ele>
        <time>2022-05-07T14:02:05Z</time>
      </trkpt>
      <trkpt lat="44.50467" lon="1.66001">
        <ele>177.1</ele>
        <time>2022-05-07T14:02:06Z</time>
      </trkpt>
      <trkpt lat="44.50466" lon="1.66002">
        <ele>177.3</ele>
        <time>2022-05-07T14:02:07Z</time>
      </trkpt>
      <trkpt lat="44.50465" lon="1.66004">
        <ele>177.5</ele>
        <time>2022-05-07T14:02:08Z</time>
      </trkpt>
      <trkpt lat="44.50464" lon="1.66005">
        <ele>177.7</ele>
        <time>2022-05-07T14:02:09Z</time>
      </trkpt>
      <trkpt lat="44.50462" lon="1.66006">
        <ele>178</ele>
        <time>2022-05-07T14:02:10Z</time>
      </trkpt>
      <trkpt lat="44.5046" lon="1.66008">
        <ele>178.4</ele>
        <time>2022-05-07T14:02:11Z</time>
      </trkpt>
      <trkpt lat="44.50459" lon="1.66009">
        <ele>178.5</ele>
        <time>2022-05-07T14:02:12Z</time>
      </trkpt>
      <trkpt lat="44.50458" lon="1.6601">
        <ele>178.6</ele>
        <time>2022-05-07T14:02:13Z</time>
      </trkpt>
      <trkpt lat="44.50455" lon="1.66013">
        <ele>179.2</ele>
        <time>2022-05-07T14:02:15Z</time>
      </trkpt>
      <trkpt lat="44.50454" lon="1.66014">
        <ele>179.4</ele>
        <time>2022-05-07T14:02:16Z</time>
      </trkpt>
      <trkpt lat="44.50453" lon="1.66015">
        <ele>179.5</ele>
        <time>2022-05-07T14:02:17Z</time>
      </trkpt>
      <trkpt lat="44.50452" lon="1.66016">
        <ele>179.7</ele>
        <time>2022-05-07T14:02:18Z</time>
      </trkpt>
      <trkpt lat="44.5045" lon="1.66016">
        <ele>179.9</ele>
        <time>2022-05-07T14:02:19Z</time>
      </trkpt>
      <trkpt lat="44.50449" lon="1.66017">
        <ele>180.1</ele>
        <time>2022-05-07T14:02:20Z</time>
      </trkpt>
      <trkpt lat="44.50447" lon="1.66018">
        <ele>180.3</ele>
        <time>2022-05-07T14:02:21Z</time>
      </trkpt>
      <trkpt lat="44.50446" lon="1.66019">
        <ele>180.5</ele>
        <time>2022-05-07T14:02:22Z</time>
      </trkpt>
      <trkpt lat="44.50445" lon="1.6602">
        <ele>180.8</ele>
        <time>2022-05-07T14:02:23Z</time>
      </trkpt>
      <trkpt lat="44.50443" lon="1.66021">
        <ele>181</ele>
        <time>2022-05-07T14:02:24Z</time>
      </trkpt>
      <trkpt lat="44.50442" lon="1.66022">
        <ele>181.2</ele>
        <time>2022-05-07T14:02:25Z</time>
      </trkpt>
      <trkpt lat="44.50441" lon="1.66023">
        <ele>181.4</ele>
        <time>2022-05-07T14:02:26Z</time>
      </trkpt>
      <trkpt lat="44.50439" lon="1.66024">
        <ele>181.6</ele>
        <time>2022-05-07T14:02:27Z</time>
      </trkpt>
      <trkpt lat="44.50438" lon="1.66025">
        <ele>181.8</ele>
        <time>2022-05-07T14:02:28Z</time>
      </trkpt>
      <trkpt lat="44.50436" lon="1.66025">
        <ele>182</ele>
        <time>2022-05-07T14:02:29Z</time>
      </trkpt>
      <trkpt lat="44.50433" lon="1.66027">
        <ele>182.4</ele>
        <time>2022-05-07T14:02:31Z</time>
      </trkpt>
      <trkpt lat="44.50432" lon="1.66028">
        <ele>182.6</ele>
        <time>2022-05-07T14:02:32Z</time>
      </trkpt>
      <trkpt lat="44.5043" lon="1.66028">
        <ele>182.8</ele>
        <time>2022-05-07T14:02:33Z</time>
      </trkpt>
      <trkpt lat="44.50428" lon="1.6603">
        <ele>183.1</ele>
        <time>2022-05-07T14:02:34Z</time>
      </trkpt>
      <trkpt lat="44.50427" lon="1.6603">
        <ele>183.3</ele>
        <time>2022-05-07T14:02:35Z</time>
      </trkpt>
      <trkpt lat="44.50426" lon="1.6603">
        <ele>183.4</ele>
        <time>2022-05-07T14:02:36Z</time>
      </trkpt>
      <trkpt lat="44.50424" lon="1.66032">
        <ele>183.7</ele>
        <time>2022-05-07T14:02:37Z</time>
      </trkpt>
      <trkpt lat="44.50423" lon="1.66033">
        <ele>183.9</ele>
        <time>2022-05-07T14:02:38Z</time>
      </trkpt>
      <trkpt lat="44.50421" lon="1.66034">
        <ele>184.1</ele>
        <time>2022-05-07T14:02:39Z</time>
      </trkpt>
      <trkpt lat="44.5042" lon="1.66035">
        <ele>184.3</ele>
        <time>2022-05-07T14:02:40Z</time>
      </trkpt>
      <trkpt lat="44.50417" lon="1.66036">
        <ele>184.8</ele>
        <time>2022-05-07T14:02:42Z</time>
      </trkpt>
      <trkpt lat="44.50415" lon="1.66037">
        <ele>185</ele>
        <time>2022-05-07T14:02:43Z</time>
      </trkpt>
      <trkpt lat="44.50414" lon="1.66038">
        <ele>185.2</ele>
        <time>2022-05-07T14:02:44Z</time>
      </trkpt>
      <trkpt lat="44.50412" lon="1.66039">
        <ele>185.5</ele>
        <time>2022-05-07T14:02:45Z</time>
      </trkpt>
      <trkpt lat="44.50411" lon="1.66039">
        <ele>185.7</ele>
        <time>2022-05-07T14:02:46Z</time>
      </trkpt>
      <trkpt lat="44.5041" lon="1.6604">
        <ele>185.8</ele>
        <time>2022-05-07T14:02:47Z</time>
      </trkpt>
      <trkpt lat="44.50408" lon="1.66041">
        <ele>186.1</ele>
        <time>2022-05-07T14:02:48Z</time>
      </trkpt>
      <trkpt lat="44.50407" lon="1.66042">
        <ele>186.3</ele>
        <time>2022-05-07T14:02:49Z</time>
      </trkpt>
      <trkpt lat="44.50405" lon="1.66043">
        <ele>186.5</ele>
        <time>2022-05-07T14:02:50Z</time>
      </trkpt>
      <trkpt lat="44.50404" lon="1.66043">
        <ele>186.8</ele>
        <time>2022-05-07T14:02:51Z</time>
      </trkpt>
      <trkpt lat="44.50403" lon="1.66044">
        <ele>187</ele>
        <time>2022-05-07T14:02:52Z</time>
      </trkpt>
      <trkpt lat="44.50401" lon="1.66045">
        <ele>187.2</ele>
        <time>2022-05-07T14:02:53Z</time>
      </trkpt>
      <trkpt lat="44.504" lon="1.66046">
        <ele>187.4</ele>
        <time>2022-05-07T14:02:54Z</time>
      </trkpt>
      <trkpt lat="44.50399" lon="1.66047">
        <ele>187.6</ele>
        <time>2022-05-07T14:02:55Z</time>
      </trkpt>
      <trkpt lat="44.50397" lon="1.66048">
        <ele>187.9</ele>
        <time>2022-05-07T14:02:56Z</time>
      </trkpt>
      <trkpt lat="44.50396" lon="1.66049">
        <ele>188.1</ele>
        <time>2022-05-07T14:02:57Z</time>
      </trkpt>
      <trkpt lat="44.50394" lon="1.6605">
        <ele>188.3</ele>
        <time>2022-05-07T14:02:58Z</time>
      </trkpt>
      <trkpt lat="44.50392" lon="1.66052">
        <ele>188.7</ele>
        <time>2022-05-07T14:02:59Z</time>
      </trkpt>
      <trkpt lat="44.50391" lon="1.66052">
        <ele>188.9</ele>
        <time>2022-05-07T14:03:00Z</time>
      </trkpt>
      <trkpt lat="44.5039" lon="1.66053">
        <ele>189.1</ele>
        <time>2022-05-07T14:03:01Z</time>
      </trkpt>
      <trkpt lat="44.50389" lon="1.66054">
        <ele>189.3</ele>
        <time>2022-05-07T14:03:02Z</time>
      </trkpt>
      <trkpt lat="44.50387" lon="1.66055">
        <ele>189.5</ele>
        <time>2022-05-07T14:03:03Z</time>
      </trkpt>
      <trkpt lat="44.50384" lon="1.66058">
        <ele>190.1</ele>
        <time>2022-05-07T14:03:05Z</time>
      </trkpt>
      <trkpt lat="44.50382" lon="1.66059">
        <ele>190.4</ele>
        <time>2022-05-07T14:03:06Z</time>
      </trkpt>
      <trkpt lat="44.50379" lon="1.66061">
        <ele>190.8</ele>
        <time>2022-05-07T14:03:07Z</time>
      </trkpt>
      <trkpt lat="44.50379" lon="1.66061">
        <ele>191</ele>
        <time>2022-05-07T14:03:08Z</time>
      </trkpt>
      <trkpt lat="44.50377" lon="1.66063">
        <ele>191.2</ele>
        <time>2022-05-07T14:03:09Z</time>
      </trkpt>
      <trkpt lat="44.50374" lon="1.66065">
        <ele>191.7</ele>
        <time>2022-05-07T14:03:11Z</time>
      </trkpt>
      <trkpt lat="44.50373" lon="1.66066">
        <ele>192</ele>
        <time>2022-05-07T14:03:12Z</time>
      </trkpt>
      <trkpt lat="44.50372" lon="1.66067">
        <ele>192.1</ele>
        <time>2022-05-07T14:03:13Z</time>
      </trkpt>
      <trkpt lat="44.5037" lon="1.66068">
        <ele>192.4</ele>
        <time>2022-05-07T14:03:14Z</time>
      </trkpt>
      <trkpt lat="44.50369" lon="1.66069">
        <ele>192.7</ele>
        <time>2022-05-07T14:03:15Z</time>
      </trkpt>
      <trkpt lat="44.50366" lon="1.66072">
        <ele>193.2</ele>
        <time>2022-05-07T14:03:17Z</time>
      </trkpt>
      <trkpt lat="44.50365" lon="1.66074">
        <ele>193.5</ele>
        <time>2022-05-07T14:03:18Z</time>
      </trkpt>
      <trkpt lat="44.50363" lon="1.66076">
        <ele>193.8</ele>
        <time>2022-05-07T14:03:19Z</time>
      </trkpt>
      <trkpt lat="44.50363" lon="1.66076">
        <ele>194</ele>
        <time>2022-05-07T14:03:20Z</time>
      </trkpt>
      <trkpt lat="44.50362" lon="1.66077">
        <ele>194.1</ele>
        <time>2022-05-07T14:03:21Z</time>
      </trkpt>
      <trkpt lat="44.50361" lon="1.66078">
        <ele>194.3</ele>
        <time>2022-05-07T14:03:22Z</time>
      </trkpt>
      <trkpt lat="44.5036" lon="1.6608">
        <ele>194.6</ele>
        <time>2022-05-07T14:03:23Z</time>
      </trkpt>
      <trkpt lat="44.50359" lon="1.66082">
        <ele>194.9</ele>
        <time>2022-05-07T14:03:24Z</time>
      </trkpt>
      <trkpt lat="44.50358" lon="1.66083">
        <ele>195.1</ele>
        <time>2022-05-07T14:03:25Z</time>
      </trkpt>
      <trkpt lat="44.50357" lon="1.66084">
        <ele>195.3</ele>
        <time>2022-05-07T14:03:26Z</time>
      </trkpt>
      <trkpt lat="44.50356" lon="1.66085">
        <ele>195.6</ele>
        <time>2022-05-07T14:03:27Z</time>
      </trkpt>
      <trkpt lat="44.50355" lon="1.66086">
        <ele>195.8</ele>
        <time>2022-05-07T14:03:28Z</time>
      </trkpt>
      <trkpt lat="44.50354" lon="1.66088">
        <ele>196.1</ele>
        <time>2022-05-07T14:03:29Z</time>
      </trkpt>
      <trkpt lat="44.50353" lon="1.6609">
        <ele>196.3</ele>
        <time>2022-05-07T14:03:30Z</time>
      </trkpt>
      <trkpt lat="44.50352" lon="1.66091">
        <ele>196.6</ele>
        <time>2022-05-07T14:03:31Z</time>
      </trkpt>
      <trkpt lat="44.50351" lon="1.66092">
        <ele>196.9</ele>
        <time>2022-05-07T14:03:33Z</time>
      </trkpt>
      <trkpt lat="44.50349" lon="1.66095">
        <ele>198.1</ele>
        <time>2022-05-07T14:03:34Z</time>
      </trkpt>
      <trkpt lat="44.50348" lon="1.66096">
        <ele>198.7</ele>
        <time>2022-05-07T14:03:35Z</time>
      </trkpt>
      <trkpt lat="44.50346" lon="1.66098">
        <ele>199.6</ele>
        <time>2022-05-07T14:03:36Z</time>
      </trkpt>
      <trkpt lat="44.50344" lon="1.661">
        <ele>200.9</ele>
        <time>2022-05-07T14:03:37Z</time>
      </trkpt>
      <trkpt lat="44.50343" lon="1.66101">
        <ele>201.3</ele>
        <time>2022-05-07T14:03:38Z</time>
      </trkpt>
      <trkpt lat="44.50342" lon="1.66102">
        <ele>201.9</ele>
        <time>2022-05-07T14:03:39Z</time>
      </trkpt>
      <trkpt lat="44.50341" lon="1.66104">
        <ele>202.5</ele>
        <time>2022-05-07T14:03:40Z</time>
      </trkpt>
      <trkpt lat="44.5034" lon="1.66105">
        <ele>203.3</ele>
        <time>2022-05-07T14:03:41Z</time>
      </trkpt>
      <trkpt lat="44.50339" lon="1.66106">
        <ele>203.9</ele>
        <time>2022-05-07T14:03:42Z</time>
      </trkpt>
      <trkpt lat="44.50336" lon="1.66109">
        <ele>205.3</ele>
        <time>2022-05-07T14:03:44Z</time>
      </trkpt>
      <trkpt lat="44.50335" lon="1.66111">
        <ele>206</ele>
        <time>2022-05-07T14:03:45Z</time>
      </trkpt>
      <trkpt lat="44.50334" lon="1.66112">
        <ele>206.3</ele>
        <time>2022-05-07T14:03:46Z</time>
      </trkpt>
      <trkpt lat="44.50332" lon="1.66115">
        <ele>206.8</ele>
        <time>2022-05-07T14:03:47Z</time>
      </trkpt>
      <trkpt lat="44.50331" lon="1.66116">
        <ele>206.9</ele>
        <time>2022-05-07T14:03:48Z</time>
      </trkpt>
      <trkpt lat="44.5033" lon="1.66118">
        <ele>207.2</ele>
        <time>2022-05-07T14:03:49Z</time>
      </trkpt>
      <trkpt lat="44.50329" lon="1.66119">
        <ele>207.5</ele>
        <time>2022-05-07T14:03:50Z</time>
      </trkpt>
      <trkpt lat="44.50328" lon="1.66121">
        <ele>207.9</ele>
        <time>2022-05-07T14:03:51Z</time>
      </trkpt>
      <trkpt lat="44.50327" lon="1.66122">
        <ele>208</ele>
        <time>2022-05-07T14:03:52Z</time>
      </trkpt>
      <trkpt lat="44.50326" lon="1.66123">
        <ele>208.2</ele>
        <time>2022-05-07T14:03:53Z</time>
      </trkpt>
      <trkpt lat="44.50324" lon="1.66126">
        <ele>208.7</ele>
        <time>2022-05-07T14:03:55Z</time>
      </trkpt>
      <trkpt lat="44.50324" lon="1.66127">
        <ele>208.7</ele>
        <time>2022-05-07T14:03:56Z</time>
      </trkpt>
      <trkpt lat="44.50323" lon="1.66128">
        <ele>209</ele>
        <time>2022-05-07T14:03:57Z</time>
      </trkpt>
      <trkpt lat="44.50322" lon="1.6613">
        <ele>209.2</ele>
        <time>2022-05-07T14:03:58Z</time>
      </trkpt>
      <trkpt lat="44.50321" lon="1.66131">
        <ele>209.4</ele>
        <time>2022-05-07T14:03:59Z</time>
      </trkpt>
      <trkpt lat="44.5032" lon="1.66133">
        <ele>209.5</ele>
        <time>2022-05-07T14:04:00Z</time>
      </trkpt>
      <trkpt lat="44.5032" lon="1.66134">
        <ele>209.6</ele>
        <time>2022-05-07T14:04:02Z</time>
      </trkpt>
      <trkpt lat="44.5032" lon="1.66134">
        <ele>209.7</ele>
        <time>2022-05-07T14:04:03Z</time>
      </trkpt>
      <trkpt lat="44.5032" lon="1.66135">
        <ele>209.7</ele>
        <time>2022-05-07T14:04:04Z</time>
      </trkpt>
      <trkpt lat="44.50318" lon="1.66137">
        <ele>210.1</ele>
        <time>2022-05-07T14:04:06Z</time>
      </trkpt>
      <trkpt lat="44.50316" lon="1.6614">
        <ele>210.5</ele>
        <time>2022-05-07T14:04:08Z</time>
      </trkpt>
      <trkpt lat="44.50316" lon="1.66141">
        <ele>210.6</ele>
        <time>2022-05-07T14:04:09Z</time>
      </trkpt>
      <trkpt lat="44.50315" lon="1.66142">
        <ele>210.8</ele>
        <time>2022-05-07T14:04:10Z</time>
      </trkpt>
      <trkpt lat="44.50315" lon="1.66144">
        <ele>211</ele>
        <time>2022-05-07T14:04:12Z</time>
      </trkpt>
      <trkpt lat="44.50314" lon="1.66146">
        <ele>211.2</ele>
        <time>2022-05-07T14:04:13Z</time>
      </trkpt>
      <trkpt lat="44.50313" lon="1.66147">
        <ele>211.4</ele>
        <time>2022-05-07T14:04:14Z</time>
      </trkpt>
      <trkpt lat="44.50313" lon="1.66149">
        <ele>211.5</ele>
        <time>2022-05-07T14:04:15Z</time>
      </trkpt>
      <trkpt lat="44.50312" lon="1.6615">
        <ele>211.6</ele>
        <time>2022-05-07T14:04:16Z</time>
      </trkpt>
      <trkpt lat="44.50312" lon="1.6615">
        <ele>211.7</ele>
        <time>2022-05-07T14:04:17Z</time>
      </trkpt>
      <trkpt lat="44.50311" lon="1.66151">
        <ele>211.8</ele>
        <time>2022-05-07T14:04:18Z</time>
      </trkpt>
      <trkpt lat="44.50311" lon="1.66153">
        <ele>212</ele>
        <time>2022-05-07T14:04:19Z</time>
      </trkpt>
      <trkpt lat="44.5031" lon="1.66153">
        <ele>212</ele>
        <time>2022-05-07T14:04:20Z</time>
      </trkpt>
      <trkpt lat="44.5031" lon="1.66154">
        <ele>212.1</ele>
        <time>2022-05-07T14:04:21Z</time>
      </trkpt>
      <trkpt lat="44.5031" lon="1.66154">
        <ele>212.1</ele>
        <time>2022-05-07T14:04:22Z</time>
      </trkpt>
      <trkpt lat="44.50309" lon="1.66155">
        <ele>212.3</ele>
        <time>2022-05-07T14:04:23Z</time>
      </trkpt>
      <trkpt lat="44.50308" lon="1.66158">
        <ele>212.6</ele>
        <time>2022-05-07T14:04:24Z</time>
      </trkpt>
      <trkpt lat="44.50308" lon="1.66159">
        <ele>212.7</ele>
        <time>2022-05-07T14:04:25Z</time>
      </trkpt>
      <trkpt lat="44.50307" lon="1.6616">
        <ele>212.8</ele>
        <time>2022-05-07T14:04:26Z</time>
      </trkpt>
      <trkpt lat="44.50307" lon="1.66161">
        <ele>212.9</ele>
        <time>2022-05-07T14:04:27Z</time>
      </trkpt>
      <trkpt lat="44.50307" lon="1.66162">
        <ele>213</ele>
        <time>2022-05-07T14:04:28Z</time>
      </trkpt>
      <trkpt lat="44.50307" lon="1.66164">
        <ele>213.2</ele>
        <time>2022-05-07T14:04:29Z</time>
      </trkpt>
      <trkpt lat="44.50306" lon="1.66165">
        <ele>213.3</ele>
        <time>2022-05-07T14:04:30Z</time>
      </trkpt>
      <trkpt lat="44.50306" lon="1.66167">
        <ele>213.5</ele>
        <time>2022-05-07T14:04:31Z</time>
      </trkpt>
      <trkpt lat="44.50305" lon="1.66168">
        <ele>213.6</ele>
        <time>2022-05-07T14:04:32Z</time>
      </trkpt>
      <trkpt lat="44.50305" lon="1.66171">
        <ele>213.9</ele>
        <time>2022-05-07T14:04:34Z</time>
      </trkpt>
      <trkpt lat="44.50304" lon="1.66173">
        <ele>214.1</ele>
        <time>2022-05-07T14:04:35Z</time>
      </trkpt>
      <trkpt lat="44.50304" lon="1.66174">
        <ele>214.2</ele>
        <time>2022-05-07T14:04:36Z</time>
      </trkpt>
      <trkpt lat="44.50304" lon="1.66176">
        <ele>214.4</ele>
        <time>2022-05-07T14:04:37Z</time>
      </trkpt>
      <trkpt lat="44.50304" lon="1.66177">
        <ele>214.6</ele>
        <time>2022-05-07T14:04:38Z</time>
      </trkpt>
      <trkpt lat="44.50304" lon="1.66179">
        <ele>214.8</ele>
        <time>2022-05-07T14:04:39Z</time>
      </trkpt>
      <trkpt lat="44.50303" lon="1.66181">
        <ele>215</ele>
        <time>2022-05-07T14:04:40Z</time>
      </trkpt>
      <trkpt lat="44.50303" lon="1.66183">
        <ele>215.4</ele>
        <time>2022-05-07T14:04:41Z</time>
      </trkpt>
      <trkpt lat="44.50302" lon="1.66185">
        <ele>215.5</ele>
        <time>2022-05-07T14:04:42Z</time>
      </trkpt>
      <trkpt lat="44.50302" lon="1.66186">
        <ele>215.6</ele>
        <time>2022-05-07T14:04:43Z</time>
      </trkpt>
      <trkpt lat="44.50302" lon="1.66188">
        <ele>215.8</ele>
        <time>2022-05-07T14:04:45Z</time>
      </trkpt>
      <trkpt lat="44.50302" lon="1.66191">
        <ele>216.2</ele>
        <time>2022-05-07T14:04:46Z</time>
      </trkpt>
      <trkpt lat="44.503" lon="1.66196">
        <ele>216.9</ele>
        <time>2022-05-07T14:04:48Z</time>
      </trkpt>
      <trkpt lat="44.503" lon="1.66198">
        <ele>217.1</ele>
        <time>2022-05-07T14:04:50Z</time>
      </trkpt>
      <trkpt lat="44.503" lon="1.662">
        <ele>217.3</ele>
        <time>2022-05-07T14:04:51Z</time>
      </trkpt>
      <trkpt lat="44.50299" lon="1.66201">
        <ele>217.4</ele>
        <time>2022-05-07T14:04:52Z</time>
      </trkpt>
      <trkpt lat="44.50299" lon="1.66202">
        <ele>217.6</ele>
        <time>2022-05-07T14:04:53Z</time>
      </trkpt>
      <trkpt lat="44.50298" lon="1.66204">
        <ele>217.8</ele>
        <time>2022-05-07T14:04:54Z</time>
      </trkpt>
      <trkpt lat="44.50297" lon="1.66208">
        <ele>218.4</ele>
        <time>2022-05-07T14:04:56Z</time>
      </trkpt>
      <trkpt lat="44.50297" lon="1.66209">
        <ele>218.5</ele>
        <time>2022-05-07T14:04:57Z</time>
      </trkpt>
      <trkpt lat="44.50297" lon="1.66211">
        <ele>218.7</ele>
        <time>2022-05-07T14:04:58Z</time>
      </trkpt>
      <trkpt lat="44.50297" lon="1.66214">
        <ele>219.1</ele>
        <time>2022-05-07T14:05:00Z</time>
      </trkpt>
      <trkpt lat="44.50297" lon="1.66218">
        <ele>219.6</ele>
        <time>2022-05-07T14:05:02Z</time>
      </trkpt>
      <trkpt lat="44.50297" lon="1.6622">
        <ele>219.8</ele>
        <time>2022-05-07T14:05:03Z</time>
      </trkpt>
      <trkpt lat="44.50296" lon="1.66221">
        <ele>220</ele>
        <time>2022-05-07T14:05:04Z</time>
      </trkpt>
      <trkpt lat="44.50296" lon="1.66223">
        <ele>220.2</ele>
        <time>2022-05-07T14:05:05Z</time>
      </trkpt>
      <trkpt lat="44.50295" lon="1.66229">
        <ele>220.9</ele>
        <time>2022-05-07T14:05:08Z</time>
      </trkpt>
      <trkpt lat="44.50295" lon="1.66231">
        <ele>221.1</ele>
        <time>2022-05-07T14:05:10Z</time>
      </trkpt>
      <trkpt lat="44.50294" lon="1.66232">
        <ele>221.3</ele>
        <time>2022-05-07T14:05:11Z</time>
      </trkpt>
      <trkpt lat="44.50294" lon="1.66234">
        <ele>221.5</ele>
        <time>2022-05-07T14:05:12Z</time>
      </trkpt>
      <trkpt lat="44.50294" lon="1.66236">
        <ele>221.6</ele>
        <time>2022-05-07T14:05:13Z</time>
      </trkpt>
      <trkpt lat="44.50293" lon="1.66239">
        <ele>222</ele>
        <time>2022-05-07T14:05:15Z</time>
      </trkpt>
      <trkpt lat="44.50292" lon="1.66243">
        <ele>222.4</ele>
        <time>2022-05-07T14:05:17Z</time>
      </trkpt>
      <trkpt lat="44.50292" lon="1.66244">
        <ele>222.5</ele>
        <time>2022-05-07T14:05:19Z</time>
      </trkpt>
      <trkpt lat="44.50292" lon="1.66247">
        <ele>222.8</ele>
        <time>2022-05-07T14:05:20Z</time>
      </trkpt>
      <trkpt lat="44.50292" lon="1.66248">
        <ele>222.9</ele>
        <time>2022-05-07T14:05:21Z</time>
      </trkpt>
      <trkpt lat="44.50291" lon="1.66251">
        <ele>223.1</ele>
        <time>2022-05-07T14:05:22Z</time>
      </trkpt>
      <trkpt lat="44.50291" lon="1.66252">
        <ele>223.2</ele>
        <time>2022-05-07T14:05:23Z</time>
      </trkpt>
      <trkpt lat="44.50291" lon="1.66253">
        <ele>223.3</ele>
        <time>2022-05-07T14:05:24Z</time>
      </trkpt>
      <trkpt lat="44.5029" lon="1.66255">
        <ele>223.4</ele>
        <time>2022-05-07T14:05:25Z</time>
      </trkpt>
      <trkpt lat="44.5029" lon="1.66256">
        <ele>223.6</ele>
        <time>2022-05-07T14:05:26Z</time>
      </trkpt>
      <trkpt lat="44.50291" lon="1.66258">
        <ele>223.7</ele>
        <time>2022-05-07T14:05:27Z</time>
      </trkpt>
      <trkpt lat="44.50291" lon="1.66259">
        <ele>223.8</ele>
        <time>2022-05-07T14:05:28Z</time>
      </trkpt>
      <trkpt lat="44.5029" lon="1.66261">
        <ele>223.9</ele>
        <time>2022-05-07T14:05:29Z</time>
      </trkpt>
      <trkpt lat="44.50289" lon="1.66262">
        <ele>224</ele>
        <time>2022-05-07T14:05:30Z</time>
      </trkpt>
      <trkpt lat="44.50288" lon="1.66264">
        <ele>224.2</ele>
        <time>2022-05-07T14:05:32Z</time>
      </trkpt>
      <trkpt lat="44.50287" lon="1.66266">
        <ele>224.3</ele>
        <time>2022-05-07T14:05:33Z</time>
      </trkpt>
      <trkpt lat="44.50286" lon="1.66271">
        <ele>224.7</ele>
        <time>2022-05-07T14:05:36Z</time>
      </trkpt>
      <trkpt lat="44.50286" lon="1.66273">
        <ele>224.8</ele>
        <time>2022-05-07T14:05:37Z</time>
      </trkpt>
      <trkpt lat="44.50285" lon="1.66275">
        <ele>225</ele>
        <time>2022-05-07T14:05:39Z</time>
      </trkpt>
      <trkpt lat="44.50285" lon="1.66277">
        <ele>225.1</ele>
        <time>2022-05-07T14:05:40Z</time>
      </trkpt>
      <trkpt lat="44.50285" lon="1.66279">
        <ele>225.2</ele>
        <time>2022-05-07T14:05:41Z</time>
      </trkpt>
      <trkpt lat="44.50285" lon="1.6628">
        <ele>225.3</ele>
        <time>2022-05-07T14:05:42Z</time>
      </trkpt>
      <trkpt lat="44.50284" lon="1.66282">
        <ele>225.5</ele>
        <time>2022-05-07T14:05:43Z</time>
      </trkpt>
      <trkpt lat="44.50283" lon="1.66284">
        <ele>225.6</ele>
        <time>2022-05-07T14:05:45Z</time>
      </trkpt>
      <trkpt lat="44.50283" lon="1.66289">
        <ele>226</ele>
        <time>2022-05-07T14:05:47Z</time>
      </trkpt>
      <trkpt lat="44.50283" lon="1.66291">
        <ele>226.1</ele>
        <time>2022-05-07T14:05:48Z</time>
      </trkpt>
      <trkpt lat="44.50282" lon="1.66292">
        <ele>226.3</ele>
        <time>2022-05-07T14:05:49Z</time>
      </trkpt>
      <trkpt lat="44.50282" lon="1.66293">
        <ele>226.4</ele>
        <time>2022-05-07T14:05:50Z</time>
      </trkpt>
      <trkpt lat="44.50282" lon="1.66297">
        <ele>226.7</ele>
        <time>2022-05-07T14:05:52Z</time>
      </trkpt>
      <trkpt lat="44.50282" lon="1.66298">
        <ele>226.8</ele>
        <time>2022-05-07T14:05:53Z</time>
      </trkpt>
      <trkpt lat="44.50281" lon="1.663">
        <ele>226.9</ele>
        <time>2022-05-07T14:05:54Z</time>
      </trkpt>
      <trkpt lat="44.50281" lon="1.66301">
        <ele>227</ele>
        <time>2022-05-07T14:05:55Z</time>
      </trkpt>
      <trkpt lat="44.50281" lon="1.66303">
        <ele>227.2</ele>
        <time>2022-05-07T14:05:56Z</time>
      </trkpt>
      <trkpt lat="44.5028" lon="1.66306">
        <ele>227.4</ele>
        <time>2022-05-07T14:05:57Z</time>
      </trkpt>
      <trkpt lat="44.5028" lon="1.66307">
        <ele>227.5</ele>
        <time>2022-05-07T14:05:58Z</time>
      </trkpt>
      <trkpt lat="44.5028" lon="1.66308">
        <ele>227.6</ele>
        <time>2022-05-07T14:05:59Z</time>
      </trkpt>
      <trkpt lat="44.5028" lon="1.6631">
        <ele>227.7</ele>
        <time>2022-05-07T14:06:00Z</time>
      </trkpt>
      <trkpt lat="44.50279" lon="1.66314">
        <ele>228.1</ele>
        <time>2022-05-07T14:06:02Z</time>
      </trkpt>
      <trkpt lat="44.50279" lon="1.66317">
        <ele>228.3</ele>
        <time>2022-05-07T14:06:03Z</time>
      </trkpt>
      <trkpt lat="44.50279" lon="1.66318">
        <ele>228.4</ele>
        <time>2022-05-07T14:06:04Z</time>
      </trkpt>
      <trkpt lat="44.50278" lon="1.66319">
        <ele>228.5</ele>
        <time>2022-05-07T14:06:05Z</time>
      </trkpt>
      <trkpt lat="44.50278" lon="1.66321">
        <ele>228.6</ele>
        <time>2022-05-07T14:06:06Z</time>
      </trkpt>
      <trkpt lat="44.50279" lon="1.66324">
        <ele>228.8</ele>
        <time>2022-05-07T14:06:07Z</time>
      </trkpt>
      <trkpt lat="44.50278" lon="1.66327">
        <ele>229.1</ele>
        <time>2022-05-07T14:06:08Z</time>
      </trkpt>
      <trkpt lat="44.50278" lon="1.66329">
        <ele>229.2</ele>
        <time>2022-05-07T14:06:10Z</time>
      </trkpt>
      <trkpt lat="44.50277" lon="1.66331">
        <ele>229.3</ele>
        <time>2022-05-07T14:06:11Z</time>
      </trkpt>
      <trkpt lat="44.50277" lon="1.66333">
        <ele>229.5</ele>
        <time>2022-05-07T14:06:12Z</time>
      </trkpt>
      <trkpt lat="44.50276" lon="1.66335">
        <ele>229.6</ele>
        <time>2022-05-07T14:06:13Z</time>
      </trkpt>
      <trkpt lat="44.50275" lon="1.66337">
        <ele>229.8</ele>
        <time>2022-05-07T14:06:14Z</time>
      </trkpt>
      <trkpt lat="44.50274" lon="1.6634">
        <ele>230</ele>
        <time>2022-05-07T14:06:16Z</time>
      </trkpt>
      <trkpt lat="44.50274" lon="1.66343">
        <ele>230.2</ele>
        <time>2022-05-07T14:06:18Z</time>
      </trkpt>
      <trkpt lat="44.50274" lon="1.66347">
        <ele>230.5</ele>
        <time>2022-05-07T14:06:19Z</time>
      </trkpt>
      <trkpt lat="44.50274" lon="1.66349">
        <ele>230.6</ele>
        <time>2022-05-07T14:06:20Z</time>
      </trkpt>
      <trkpt lat="44.50274" lon="1.6635">
        <ele>230.7</ele>
        <time>2022-05-07T14:06:22Z</time>
      </trkpt>
      <trkpt lat="44.50273" lon="1.66357">
        <ele>231.2</ele>
        <time>2022-05-07T14:06:25Z</time>
      </trkpt>
      <trkpt lat="44.50272" lon="1.66359">
        <ele>231.3</ele>
        <time>2022-05-07T14:06:26Z</time>
      </trkpt>
      <trkpt lat="44.50272" lon="1.66361">
        <ele>231.4</ele>
        <time>2022-05-07T14:06:27Z</time>
      </trkpt>
      <trkpt lat="44.50271" lon="1.66363">
        <ele>231.5</ele>
        <time>2022-05-07T14:06:28Z</time>
      </trkpt>
      <trkpt lat="44.50271" lon="1.66364">
        <ele>231.6</ele>
        <time>2022-05-07T14:06:29Z</time>
      </trkpt>
      <trkpt lat="44.5027" lon="1.66366">
        <ele>231.7</ele>
        <time>2022-05-07T14:06:30Z</time>
      </trkpt>
      <trkpt lat="44.50269" lon="1.66373">
        <ele>232.2</ele>
        <time>2022-05-07T14:06:33Z</time>
      </trkpt>
      <trkpt lat="44.50269" lon="1.66375">
        <ele>232.4</ele>
        <time>2022-05-07T14:06:34Z</time>
      </trkpt>
      <trkpt lat="44.50269" lon="1.66377">
        <ele>232.5</ele>
        <time>2022-05-07T14:06:35Z</time>
      </trkpt>
      <trkpt lat="44.50269" lon="1.66379">
        <ele>232.6</ele>
        <time>2022-05-07T14:06:36Z</time>
      </trkpt>
      <trkpt lat="44.50269" lon="1.6638">
        <ele>232.7</ele>
        <time>2022-05-07T14:06:37Z</time>
      </trkpt>
      <trkpt lat="44.50268" lon="1.66384">
        <ele>233.1</ele>
        <time>2022-05-07T14:06:39Z</time>
      </trkpt>
      <trkpt lat="44.50268" lon="1.66386">
        <ele>233.2</ele>
        <time>2022-05-07T14:06:40Z</time>
      </trkpt>
      <trkpt lat="44.50267" lon="1.66387">
        <ele>233.3</ele>
        <time>2022-05-07T14:06:41Z</time>
      </trkpt>
      <trkpt lat="44.50267" lon="1.66389">
        <ele>233.4</ele>
        <time>2022-05-07T14:06:42Z</time>
      </trkpt>
      <trkpt lat="44.50266" lon="1.66392">
        <ele>233.7</ele>
        <time>2022-05-07T14:06:44Z</time>
      </trkpt>
      <trkpt lat="44.50266" lon="1.66395">
        <ele>233.9</ele>
        <time>2022-05-07T14:06:45Z</time>
      </trkpt>
      <trkpt lat="44.50265" lon="1.66396">
        <ele>233.9</ele>
        <time>2022-05-07T14:06:46Z</time>
      </trkpt>
      <trkpt lat="44.50265" lon="1.66398">
        <ele>234</ele>
        <time>2022-05-07T14:06:47Z</time>
      </trkpt>
      <trkpt lat="44.50264" lon="1.66403">
        <ele>234.3</ele>
        <time>2022-05-07T14:06:50Z</time>
      </trkpt>
      <trkpt lat="44.50264" lon="1.66404">
        <ele>234.4</ele>
        <time>2022-05-07T14:06:51Z</time>
      </trkpt>
      <trkpt lat="44.50263" lon="1.66406">
        <ele>234.5</ele>
        <time>2022-05-07T14:06:52Z</time>
      </trkpt>
      <trkpt lat="44.50262" lon="1.66409">
        <ele>234.7</ele>
        <time>2022-05-07T14:06:53Z</time>
      </trkpt>
      <trkpt lat="44.50262" lon="1.6641">
        <ele>234.8</ele>
        <time>2022-05-07T14:06:54Z</time>
      </trkpt>
      <trkpt lat="44.50261" lon="1.66411">
        <ele>234.8</ele>
        <time>2022-05-07T14:06:55Z</time>
      </trkpt>
      <trkpt lat="44.50261" lon="1.66413">
        <ele>235</ele>
        <time>2022-05-07T14:06:56Z</time>
      </trkpt>
      <trkpt lat="44.5026" lon="1.66414">
        <ele>235.1</ele>
        <time>2022-05-07T14:06:57Z</time>
      </trkpt>
      <trkpt lat="44.5026" lon="1.66415">
        <ele>235.2</ele>
        <time>2022-05-07T14:06:58Z</time>
      </trkpt>
      <trkpt lat="44.5026" lon="1.66417">
        <ele>235.3</ele>
        <time>2022-05-07T14:06:59Z</time>
      </trkpt>
      <trkpt lat="44.50259" lon="1.66421">
        <ele>235.5</ele>
        <time>2022-05-07T14:07:01Z</time>
      </trkpt>
      <trkpt lat="44.50258" lon="1.66423">
        <ele>235.8</ele>
        <time>2022-05-07T14:07:03Z</time>
      </trkpt>
      <trkpt lat="44.50257" lon="1.66423">
        <ele>235.8</ele>
        <time>2022-05-07T14:07:04Z</time>
      </trkpt>
      <trkpt lat="44.50256" lon="1.66425">
        <ele>236</ele>
        <time>2022-05-07T14:07:06Z</time>
      </trkpt>
      <trkpt lat="44.50256" lon="1.66427">
        <ele>236.1</ele>
        <time>2022-05-07T14:07:07Z</time>
      </trkpt>
      <trkpt lat="44.50255" lon="1.66428">
        <ele>236.2</ele>
        <time>2022-05-07T14:07:08Z</time>
      </trkpt>
      <trkpt lat="44.50254" lon="1.66429">
        <ele>236.4</ele>
        <time>2022-05-07T14:07:09Z</time>
      </trkpt>
      <trkpt lat="44.50253" lon="1.66431">
        <ele>236.6</ele>
        <time>2022-05-07T14:07:10Z</time>
      </trkpt>
      <trkpt lat="44.50249" lon="1.66434">
        <ele>237</ele>
        <time>2022-05-07T14:07:12Z</time>
      </trkpt>
      <trkpt lat="44.50249" lon="1.66435">
        <ele>237.2</ele>
        <time>2022-05-07T14:07:13Z</time>
      </trkpt>
      <trkpt lat="44.50248" lon="1.66435">
        <ele>237.3</ele>
        <time>2022-05-07T14:07:14Z</time>
      </trkpt>
      <trkpt lat="44.50247" lon="1.66436">
        <ele>237.4</ele>
        <time>2022-05-07T14:07:15Z</time>
      </trkpt>
      <trkpt lat="44.50245" lon="1.66437">
        <ele>237.6</ele>
        <time>2022-05-07T14:07:17Z</time>
      </trkpt>
      <trkpt lat="44.50244" lon="1.66438">
        <ele>237.8</ele>
        <time>2022-05-07T14:07:18Z</time>
      </trkpt>
      <trkpt lat="44.50243" lon="1.66439">
        <ele>238</ele>
        <time>2022-05-07T14:07:19Z</time>
      </trkpt>
      <trkpt lat="44.50241" lon="1.6644">
        <ele>238.2</ele>
        <time>2022-05-07T14:07:20Z</time>
      </trkpt>
      <trkpt lat="44.50239" lon="1.66441">
        <ele>238.5</ele>
        <time>2022-05-07T14:07:21Z</time>
      </trkpt>
      <trkpt lat="44.50239" lon="1.66442">
        <ele>238.6</ele>
        <time>2022-05-07T14:07:22Z</time>
      </trkpt>
      <trkpt lat="44.50238" lon="1.66442">
        <ele>238.7</ele>
        <time>2022-05-07T14:07:23Z</time>
      </trkpt>
      <trkpt lat="44.50237" lon="1.66443">
        <ele>238.9</ele>
        <time>2022-05-07T14:07:24Z</time>
      </trkpt>
      <trkpt lat="44.50236" lon="1.66443">
        <ele>239.1</ele>
        <time>2022-05-07T14:07:25Z</time>
      </trkpt>
      <trkpt lat="44.50233" lon="1.66444">
        <ele>239.4</ele>
        <time>2022-05-07T14:07:27Z</time>
      </trkpt>
      <trkpt lat="44.50232" lon="1.66444">
        <ele>239.6</ele>
        <time>2022-05-07T14:07:28Z</time>
      </trkpt>
      <trkpt lat="44.50231" lon="1.66443">
        <ele>239.7</ele>
        <time>2022-05-07T14:07:30Z</time>
      </trkpt>
      <trkpt lat="44.50229" lon="1.66444">
        <ele>240</ele>
        <time>2022-05-07T14:07:32Z</time>
      </trkpt>
      <trkpt lat="44.50228" lon="1.66445">
        <ele>240.2</ele>
        <time>2022-05-07T14:07:33Z</time>
      </trkpt>
      <trkpt lat="44.50227" lon="1.66445">
        <ele>240.3</ele>
        <time>2022-05-07T14:07:34Z</time>
      </trkpt>
      <trkpt lat="44.50226" lon="1.66445">
        <ele>240.4</ele>
        <time>2022-05-07T14:07:35Z</time>
      </trkpt>
      <trkpt lat="44.50225" lon="1.66445">
        <ele>240.5</ele>
        <time>2022-05-07T14:07:36Z</time>
      </trkpt>
      <trkpt lat="44.50225" lon="1.66446">
        <ele>240.7</ele>
        <time>2022-05-07T14:07:37Z</time>
      </trkpt>
      <trkpt lat="44.50223" lon="1.66446">
        <ele>240.9</ele>
        <time>2022-05-07T14:07:38Z</time>
      </trkpt>
      <trkpt lat="44.50222" lon="1.66447">
        <ele>241.1</ele>
        <time>2022-05-07T14:07:39Z</time>
      </trkpt>
      <trkpt lat="44.5022" lon="1.66448">
        <ele>241.4</ele>
        <time>2022-05-07T14:07:40Z</time>
      </trkpt>
      <trkpt lat="44.50219" lon="1.66448">
        <ele>241.6</ele>
        <time>2022-05-07T14:07:41Z</time>
      </trkpt>
      <trkpt lat="44.50218" lon="1.66448">
        <ele>241.7</ele>
        <time>2022-05-07T14:07:42Z</time>
      </trkpt>
      <trkpt lat="44.50217" lon="1.66449">
        <ele>241.9</ele>
        <time>2022-05-07T14:07:43Z</time>
      </trkpt>
      <trkpt lat="44.50216" lon="1.66449">
        <ele>242</ele>
        <time>2022-05-07T14:07:44Z</time>
      </trkpt>
      <trkpt lat="44.50214" lon="1.66449">
        <ele>242.2</ele>
        <time>2022-05-07T14:07:45Z</time>
      </trkpt>
      <trkpt lat="44.50213" lon="1.66449">
        <ele>242.4</ele>
        <time>2022-05-07T14:07:46Z</time>
      </trkpt>
      <trkpt lat="44.50212" lon="1.6645">
        <ele>242.5</ele>
        <time>2022-05-07T14:07:47Z</time>
      </trkpt>
      <trkpt lat="44.50211" lon="1.6645">
        <ele>242.7</ele>
        <time>2022-05-07T14:07:48Z</time>
      </trkpt>
      <trkpt lat="44.50211" lon="1.66451">
        <ele>242.8</ele>
        <time>2022-05-07T14:07:49Z</time>
      </trkpt>
      <trkpt lat="44.5021" lon="1.6645">
        <ele>242.9</ele>
        <time>2022-05-07T14:07:50Z</time>
      </trkpt>
      <trkpt lat="44.50209" lon="1.6645">
        <ele>243</ele>
        <time>2022-05-07T14:07:51Z</time>
      </trkpt>
      <trkpt lat="44.50208" lon="1.6645">
        <ele>243.2</ele>
        <time>2022-05-07T14:07:52Z</time>
      </trkpt>
      <trkpt lat="44.50207" lon="1.6645">
        <ele>243.3</ele>
        <time>2022-05-07T14:07:53Z</time>
      </trkpt>
      <trkpt lat="44.50206" lon="1.6645">
        <ele>243.4</ele>
        <time>2022-05-07T14:07:54Z</time>
      </trkpt>
      <trkpt lat="44.50206" lon="1.66451">
        <ele>243.5</ele>
        <time>2022-05-07T14:07:55Z</time>
      </trkpt>
      <trkpt lat="44.50205" lon="1.66451">
        <ele>243.6</ele>
        <time>2022-05-07T14:07:56Z</time>
      </trkpt>
      <trkpt lat="44.50205" lon="1.66451">
        <ele>243.7</ele>
        <time>2022-05-07T14:07:57Z</time>
      </trkpt>
      <trkpt lat="44.50204" lon="1.66451">
        <ele>243.8</ele>
        <time>2022-05-07T14:07:58Z</time>
      </trkpt>
      <trkpt lat="44.50203" lon="1.66451">
        <ele>243.9</ele>
        <time>2022-05-07T14:07:59Z</time>
      </trkpt>
      <trkpt lat="44.50203" lon="1.66451">
        <ele>243.9</ele>
        <time>2022-05-07T14:08:00Z</time>
      </trkpt>
      <trkpt lat="44.50202" lon="1.66452">
        <ele>244</ele>
        <time>2022-05-07T14:08:01Z</time>
      </trkpt>
      <trkpt lat="44.50202" lon="1.66452">
        <ele>244.1</ele>
        <time>2022-05-07T14:08:02Z</time>
      </trkpt>
      <trkpt lat="44.50201" lon="1.66452">
        <ele>244.2</ele>
        <time>2022-05-07T14:08:41Z</time>
      </trkpt>
      <trkpt lat="44.50201" lon="1.66452">
        <ele>244.3</ele>
        <time>2022-05-07T14:08:42Z</time>
      </trkpt>
      <trkpt lat="44.50199" lon="1.66453">
        <ele>244.5</ele>
        <time>2022-05-07T14:08:43Z</time>
      </trkpt>
      <trkpt lat="44.50198" lon="1.66454">
        <ele>244.8</ele>
        <time>2022-05-07T14:08:44Z</time>
      </trkpt>
      <trkpt lat="44.50196" lon="1.66454">
        <ele>245.1</ele>
        <time>2022-05-07T14:08:45Z</time>
      </trkpt>
      <trkpt lat="44.50195" lon="1.66455">
        <ele>245.2</ele>
        <time>2022-05-07T14:08:46Z</time>
      </trkpt>
      <trkpt lat="44.50194" lon="1.66455">
        <ele>245.4</ele>
        <time>2022-05-07T14:08:47Z</time>
      </trkpt>
      <trkpt lat="44.50193" lon="1.66456">
        <ele>245.6</ele>
        <time>2022-05-07T14:08:48Z</time>
      </trkpt>
      <trkpt lat="44.50192" lon="1.66456">
        <ele>245.7</ele>
        <time>2022-05-07T14:08:49Z</time>
      </trkpt>
      <trkpt lat="44.50191" lon="1.66456">
        <ele>246</ele>
        <time>2022-05-07T14:08:50Z</time>
      </trkpt>
      <trkpt lat="44.5019" lon="1.66457">
        <ele>246.1</ele>
        <time>2022-05-07T14:08:51Z</time>
      </trkpt>
      <trkpt lat="44.50188" lon="1.66457">
        <ele>246.4</ele>
        <time>2022-05-07T14:08:52Z</time>
      </trkpt>
      <trkpt lat="44.50187" lon="1.66457">
        <ele>246.5</ele>
        <time>2022-05-07T14:08:53Z</time>
      </trkpt>
      <trkpt lat="44.50185" lon="1.66458">
        <ele>246.9</ele>
        <time>2022-05-07T14:08:54Z</time>
      </trkpt>
      <trkpt lat="44.50184" lon="1.66459">
        <ele>247</ele>
        <time>2022-05-07T14:08:55Z</time>
      </trkpt>
      <trkpt lat="44.50184" lon="1.66459">
        <ele>247.2</ele>
        <time>2022-05-07T14:08:56Z</time>
      </trkpt>
      <trkpt lat="44.50181" lon="1.6646">
        <ele>247.5</ele>
        <time>2022-05-07T14:08:57Z</time>
      </trkpt>
      <trkpt lat="44.50181" lon="1.6646">
        <ele>247.6</ele>
        <time>2022-05-07T14:08:58Z</time>
      </trkpt>
      <trkpt lat="44.5018" lon="1.6646">
        <ele>247.7</ele>
        <time>2022-05-07T14:08:59Z</time>
      </trkpt>
      <trkpt lat="44.50179" lon="1.6646">
        <ele>247.8</ele>
        <time>2022-05-07T14:09:01Z</time>
      </trkpt>
      <trkpt lat="44.50178" lon="1.6646">
        <ele>247.9</ele>
        <time>2022-05-07T14:09:02Z</time>
      </trkpt>
      <trkpt lat="44.50178" lon="1.6646">
        <ele>248</ele>
        <time>2022-05-07T14:09:03Z</time>
      </trkpt>
      <trkpt lat="44.50177" lon="1.6646">
        <ele>248.1</ele>
        <time>2022-05-07T14:09:04Z</time>
      </trkpt>
      <trkpt lat="44.50175" lon="1.66461">
        <ele>248.5</ele>
        <time>2022-05-07T14:09:05Z</time>
      </trkpt>
      <trkpt lat="44.50173" lon="1.66461">
        <ele>248.7</ele>
        <time>2022-05-07T14:09:06Z</time>
      </trkpt>
      <trkpt lat="44.50172" lon="1.66461">
        <ele>248.9</ele>
        <time>2022-05-07T14:09:08Z</time>
      </trkpt>
      <trkpt lat="44.5017" lon="1.66462">
        <ele>249.1</ele>
        <time>2022-05-07T14:09:10Z</time>
      </trkpt>
      <trkpt lat="44.50168" lon="1.66463">
        <ele>249.4</ele>
        <time>2022-05-07T14:09:11Z</time>
      </trkpt>
      <trkpt lat="44.50166" lon="1.66462">
        <ele>249.6</ele>
        <time>2022-05-07T14:09:13Z</time>
      </trkpt>
      <trkpt lat="44.50165" lon="1.66463">
        <ele>249.8</ele>
        <time>2022-05-07T14:09:14Z</time>
      </trkpt>
      <trkpt lat="44.50164" lon="1.66464">
        <ele>250</ele>
        <time>2022-05-07T14:09:15Z</time>
      </trkpt>
      <trkpt lat="44.50163" lon="1.66465">
        <ele>250.1</ele>
        <time>2022-05-07T14:09:16Z</time>
      </trkpt>
      <trkpt lat="44.50162" lon="1.66465">
        <ele>250.2</ele>
        <time>2022-05-07T14:09:18Z</time>
      </trkpt>
      <trkpt lat="44.50161" lon="1.66465">
        <ele>250.5</ele>
        <time>2022-05-07T14:09:19Z</time>
      </trkpt>
      <trkpt lat="44.50159" lon="1.66466">
        <ele>250.7</ele>
        <time>2022-05-07T14:09:20Z</time>
      </trkpt>
      <trkpt lat="44.50158" lon="1.66466">
        <ele>250.9</ele>
        <time>2022-05-07T14:09:21Z</time>
      </trkpt>
      <trkpt lat="44.50156" lon="1.66467">
        <ele>251.1</ele>
        <time>2022-05-07T14:09:22Z</time>
      </trkpt>
      <trkpt lat="44.50155" lon="1.66469">
        <ele>251.3</ele>
        <time>2022-05-07T14:09:23Z</time>
      </trkpt>
      <trkpt lat="44.50155" lon="1.66469">
        <ele>251.4</ele>
        <time>2022-05-07T14:09:24Z</time>
      </trkpt>
      <trkpt lat="44.50154" lon="1.6647">
        <ele>251.6</ele>
        <time>2022-05-07T14:09:25Z</time>
      </trkpt>
      <trkpt lat="44.50153" lon="1.6647">
        <ele>251.7</ele>
        <time>2022-05-07T14:09:26Z</time>
      </trkpt>
      <trkpt lat="44.50151" lon="1.66471">
        <ele>251.9</ele>
        <time>2022-05-07T14:09:27Z</time>
      </trkpt>
      <trkpt lat="44.50151" lon="1.66471">
        <ele>252</ele>
        <time>2022-05-07T14:09:28Z</time>
      </trkpt>
      <trkpt lat="44.5015" lon="1.66471">
        <ele>252.2</ele>
        <time>2022-05-07T14:09:29Z</time>
      </trkpt>
      <trkpt lat="44.50149" lon="1.66471">
        <ele>252.3</ele>
        <time>2022-05-07T14:09:30Z</time>
      </trkpt>
      <trkpt lat="44.50147" lon="1.66471">
        <ele>252.5</ele>
        <time>2022-05-07T14:09:31Z</time>
      </trkpt>
      <trkpt lat="44.50147" lon="1.66471">
        <ele>252.6</ele>
        <time>2022-05-07T14:09:32Z</time>
      </trkpt>
      <trkpt lat="44.50145" lon="1.66471">
        <ele>252.8</ele>
        <time>2022-05-07T14:09:33Z</time>
      </trkpt>
      <trkpt lat="44.50144" lon="1.66472">
        <ele>253</ele>
        <time>2022-05-07T14:09:34Z</time>
      </trkpt>
      <trkpt lat="44.50143" lon="1.66472">
        <ele>253.2</ele>
        <time>2022-05-07T14:09:35Z</time>
      </trkpt>
      <trkpt lat="44.50141" lon="1.66472">
        <ele>253.3</ele>
        <time>2022-05-07T14:09:36Z</time>
      </trkpt>
      <trkpt lat="44.50139" lon="1.66473">
        <ele>253.6</ele>
        <time>2022-05-07T14:09:38Z</time>
      </trkpt>
      <trkpt lat="44.50137" lon="1.66474">
        <ele>253.9</ele>
        <time>2022-05-07T14:09:39Z</time>
      </trkpt>
      <trkpt lat="44.50136" lon="1.66474">
        <ele>254</ele>
        <time>2022-05-07T14:09:40Z</time>
      </trkpt>
      <trkpt lat="44.50136" lon="1.66475">
        <ele>254.1</ele>
        <time>2022-05-07T14:09:41Z</time>
      </trkpt>
      <trkpt lat="44.50134" lon="1.66475">
        <ele>254.3</ele>
        <time>2022-05-07T14:09:42Z</time>
      </trkpt>
      <trkpt lat="44.50134" lon="1.66475">
        <ele>254.4</ele>
        <time>2022-05-07T14:09:43Z</time>
      </trkpt>
      <trkpt lat="44.50133" lon="1.66476">
        <ele>254.5</ele>
        <time>2022-05-07T14:09:44Z</time>
      </trkpt>
      <trkpt lat="44.50131" lon="1.66477">
        <ele>254.8</ele>
        <time>2022-05-07T14:09:45Z</time>
      </trkpt>
      <trkpt lat="44.5013" lon="1.66478">
        <ele>254.9</ele>
        <time>2022-05-07T14:09:46Z</time>
      </trkpt>
      <trkpt lat="44.50129" lon="1.66478">
        <ele>255</ele>
        <time>2022-05-07T14:09:47Z</time>
      </trkpt>
      <trkpt lat="44.50128" lon="1.66479">
        <ele>255.2</ele>
        <time>2022-05-07T14:09:48Z</time>
      </trkpt>
      <trkpt lat="44.50127" lon="1.66479">
        <ele>255.3</ele>
        <time>2022-05-07T14:09:49Z</time>
      </trkpt>
      <trkpt lat="44.50126" lon="1.66479">
        <ele>255.5</ele>
        <time>2022-05-07T14:09:50Z</time>
      </trkpt>
      <trkpt lat="44.50125" lon="1.6648">
        <ele>255.6</ele>
        <time>2022-05-07T14:09:51Z</time>
      </trkpt>
      <trkpt lat="44.50124" lon="1.6648">
        <ele>255.8</ele>
        <time>2022-05-07T14:09:52Z</time>
      </trkpt>
      <trkpt lat="44.50121" lon="1.66481">
        <ele>256.1</ele>
        <time>2022-05-07T14:09:54Z</time>
      </trkpt>
      <trkpt lat="44.50121" lon="1.66481">
        <ele>256.2</ele>
        <time>2022-05-07T14:09:55Z</time>
      </trkpt>
      <trkpt lat="44.5012" lon="1.66481">
        <ele>256.4</ele>
        <time>2022-05-07T14:09:56Z</time>
      </trkpt>
      <trkpt lat="44.50117" lon="1.66482">
        <ele>256.7</ele>
        <time>2022-05-07T14:09:58Z</time>
      </trkpt>
      <trkpt lat="44.50116" lon="1.66482">
        <ele>256.8</ele>
        <time>2022-05-07T14:09:59Z</time>
      </trkpt>
      <trkpt lat="44.50115" lon="1.66483">
        <ele>257</ele>
        <time>2022-05-07T14:10:00Z</time>
      </trkpt>
      <trkpt lat="44.50114" lon="1.66483">
        <ele>257.2</ele>
        <time>2022-05-07T14:10:01Z</time>
      </trkpt>
      <trkpt lat="44.50111" lon="1.66484">
        <ele>257.6</ele>
        <time>2022-05-07T14:10:03Z</time>
      </trkpt>
      <trkpt lat="44.50111" lon="1.66484">
        <ele>257.7</ele>
        <time>2022-05-07T14:10:04Z</time>
      </trkpt>
      <trkpt lat="44.50109" lon="1.66485">
        <ele>257.9</ele>
        <time>2022-05-07T14:10:05Z</time>
      </trkpt>
      <trkpt lat="44.50108" lon="1.66485">
        <ele>258.1</ele>
        <time>2022-05-07T14:10:06Z</time>
      </trkpt>
      <trkpt lat="44.50108" lon="1.66485">
        <ele>258.2</ele>
        <time>2022-05-07T14:10:07Z</time>
      </trkpt>
      <trkpt lat="44.50106" lon="1.66486">
        <ele>258.4</ele>
        <time>2022-05-07T14:10:08Z</time>
      </trkpt>
      <trkpt lat="44.50105" lon="1.66486">
        <ele>258.5</ele>
        <time>2022-05-07T14:10:09Z</time>
      </trkpt>
      <trkpt lat="44.50105" lon="1.66487">
        <ele>258.7</ele>
        <time>2022-05-07T14:10:10Z</time>
      </trkpt>
      <trkpt lat="44.50104" lon="1.66487">
        <ele>258.8</ele>
        <time>2022-05-07T14:10:11Z</time>
      </trkpt>
      <trkpt lat="44.50103" lon="1.66487">
        <ele>258.9</ele>
        <time>2022-05-07T14:10:12Z</time>
      </trkpt>
      <trkpt lat="44.50103" lon="1.66487">
        <ele>258.9</ele>
        <time>2022-05-07T14:10:13Z</time>
      </trkpt>
      <trkpt lat="44.50102" lon="1.66487">
        <ele>259</ele>
        <time>2022-05-07T14:10:14Z</time>
      </trkpt>
      <trkpt lat="44.50099" lon="1.66487">
        <ele>259.5</ele>
        <time>2022-05-07T14:10:16Z</time>
      </trkpt>
      <trkpt lat="44.50098" lon="1.66488">
        <ele>259.7</ele>
        <time>2022-05-07T14:10:17Z</time>
      </trkpt>
      <trkpt lat="44.50096" lon="1.66488">
        <ele>260</ele>
        <time>2022-05-07T14:10:18Z</time>
      </trkpt>
      <trkpt lat="44.50095" lon="1.66488">
        <ele>260.2</ele>
        <time>2022-05-07T14:10:19Z</time>
      </trkpt>
      <trkpt lat="44.50093" lon="1.66488">
        <ele>260.4</ele>
        <time>2022-05-07T14:10:20Z</time>
      </trkpt>
      <trkpt lat="44.5009" lon="1.6649">
        <ele>260.9</ele>
        <time>2022-05-07T14:10:22Z</time>
      </trkpt>
      <trkpt lat="44.50089" lon="1.6649">
        <ele>261</ele>
        <time>2022-05-07T14:10:23Z</time>
      </trkpt>
      <trkpt lat="44.50088" lon="1.66491">
        <ele>261.2</ele>
        <time>2022-05-07T14:10:24Z</time>
      </trkpt>
      <trkpt lat="44.50087" lon="1.66491">
        <ele>261.4</ele>
        <time>2022-05-07T14:10:25Z</time>
      </trkpt>
      <trkpt lat="44.50086" lon="1.66491">
        <ele>261.5</ele>
        <time>2022-05-07T14:10:26Z</time>
      </trkpt>
      <trkpt lat="44.50085" lon="1.66491">
        <ele>261.7</ele>
        <time>2022-05-07T14:10:27Z</time>
      </trkpt>
      <trkpt lat="44.50084" lon="1.66493">
        <ele>261.9</ele>
        <time>2022-05-07T14:10:28Z</time>
      </trkpt>
      <trkpt lat="44.50083" lon="1.66493">
        <ele>262.1</ele>
        <time>2022-05-07T14:10:29Z</time>
      </trkpt>
      <trkpt lat="44.50081" lon="1.66493">
        <ele>262.2</ele>
        <time>2022-05-07T14:10:30Z</time>
      </trkpt>
      <trkpt lat="44.5008" lon="1.66493">
        <ele>262.5</ele>
        <time>2022-05-07T14:10:31Z</time>
      </trkpt>
      <trkpt lat="44.50079" lon="1.66493">
        <ele>262.6</ele>
        <time>2022-05-07T14:10:32Z</time>
      </trkpt>
      <trkpt lat="44.50077" lon="1.66493">
        <ele>262.8</ele>
        <time>2022-05-07T14:10:33Z</time>
      </trkpt>
      <trkpt lat="44.50077" lon="1.66494">
        <ele>262.9</ele>
        <time>2022-05-07T14:10:34Z</time>
      </trkpt>
      <trkpt lat="44.50076" lon="1.66494">
        <ele>262.9</ele>
        <time>2022-05-07T14:10:35Z</time>
      </trkpt>
      <trkpt lat="44.50076" lon="1.66494">
        <ele>263</ele>
        <time>2022-05-07T14:10:36Z</time>
      </trkpt>
      <trkpt lat="44.50076" lon="1.66494">
        <ele>263</ele>
        <time>2022-05-07T14:10:37Z</time>
      </trkpt>
      <trkpt lat="44.50075" lon="1.66494">
        <ele>263.2</ele>
        <time>2022-05-07T14:10:38Z</time>
      </trkpt>
      <trkpt lat="44.50074" lon="1.66494">
        <ele>263.2</ele>
        <time>2022-05-07T14:10:39Z</time>
      </trkpt>
      <trkpt lat="44.50074" lon="1.66494">
        <ele>263.2</ele>
        <time>2022-05-07T14:10:40Z</time>
      </trkpt>
      <trkpt lat="44.50074" lon="1.66494">
        <ele>263.3</ele>
        <time>2022-05-07T14:10:41Z</time>
      </trkpt>
      <trkpt lat="44.50072" lon="1.66494">
        <ele>263.5</ele>
        <time>2022-05-07T14:10:42Z</time>
      </trkpt>
      <trkpt lat="44.50071" lon="1.66495">
        <ele>263.7</ele>
        <time>2022-05-07T14:10:43Z</time>
      </trkpt>
      <trkpt lat="44.5007" lon="1.66495">
        <ele>263.8</ele>
        <time>2022-05-07T14:10:44Z</time>
      </trkpt>
      <trkpt lat="44.50068" lon="1.66495">
        <ele>264</ele>
        <time>2022-05-07T14:10:45Z</time>
      </trkpt>
      <trkpt lat="44.50067" lon="1.66495">
        <ele>264.2</ele>
        <time>2022-05-07T14:10:46Z</time>
      </trkpt>
      <trkpt lat="44.50065" lon="1.66496">
        <ele>264.4</ele>
        <time>2022-05-07T14:10:47Z</time>
      </trkpt>
      <trkpt lat="44.50065" lon="1.66496">
        <ele>264.5</ele>
        <time>2022-05-07T14:10:48Z</time>
      </trkpt>
      <trkpt lat="44.50064" lon="1.66496">
        <ele>264.6</ele>
        <time>2022-05-07T14:10:49Z</time>
      </trkpt>
      <trkpt lat="44.50063" lon="1.66497">
        <ele>264.7</ele>
        <time>2022-05-07T14:10:50Z</time>
      </trkpt>
      <trkpt lat="44.50061" lon="1.66497">
        <ele>265</ele>
        <time>2022-05-07T14:10:51Z</time>
      </trkpt>
      <trkpt lat="44.5006" lon="1.66498">
        <ele>265.1</ele>
        <time>2022-05-07T14:10:52Z</time>
      </trkpt>
      <trkpt lat="44.5006" lon="1.66498">
        <ele>265.3</ele>
        <time>2022-05-07T14:10:53Z</time>
      </trkpt>
      <trkpt lat="44.50059" lon="1.66498">
        <ele>265.4</ele>
        <time>2022-05-07T14:10:54Z</time>
      </trkpt>
      <trkpt lat="44.50058" lon="1.66498">
        <ele>265.6</ele>
        <time>2022-05-07T14:10:55Z</time>
      </trkpt>
      <trkpt lat="44.50057" lon="1.66498">
        <ele>265.7</ele>
        <time>2022-05-07T14:10:56Z</time>
      </trkpt>
      <trkpt lat="44.50056" lon="1.66498">
        <ele>265.9</ele>
        <time>2022-05-07T14:10:57Z</time>
      </trkpt>
      <trkpt lat="44.50055" lon="1.66499">
        <ele>266.1</ele>
        <time>2022-05-07T14:10:58Z</time>
      </trkpt>
      <trkpt lat="44.50054" lon="1.66499">
        <ele>266.2</ele>
        <time>2022-05-07T14:10:59Z</time>
      </trkpt>
      <trkpt lat="44.50052" lon="1.665">
        <ele>266.5</ele>
        <time>2022-05-07T14:11:00Z</time>
      </trkpt>
      <trkpt lat="44.50051" lon="1.665">
        <ele>266.6</ele>
        <time>2022-05-07T14:11:01Z</time>
      </trkpt>
      <trkpt lat="44.5005" lon="1.665">
        <ele>266.7</ele>
        <time>2022-05-07T14:11:02Z</time>
      </trkpt>
      <trkpt lat="44.5005" lon="1.665">
        <ele>266.8</ele>
        <time>2022-05-07T14:11:03Z</time>
      </trkpt>
      <trkpt lat="44.50049" lon="1.665">
        <ele>267</ele>
        <time>2022-05-07T14:11:04Z</time>
      </trkpt>
      <trkpt lat="44.50047" lon="1.665">
        <ele>267.2</ele>
        <time>2022-05-07T14:11:05Z</time>
      </trkpt>
      <trkpt lat="44.50046" lon="1.665">
        <ele>267.4</ele>
        <time>2022-05-07T14:11:06Z</time>
      </trkpt>
      <trkpt lat="44.50045" lon="1.665">
        <ele>267.5</ele>
        <time>2022-05-07T14:11:07Z</time>
      </trkpt>
      <trkpt lat="44.50044" lon="1.66501">
        <ele>267.8</ele>
        <time>2022-05-07T14:11:08Z</time>
      </trkpt>
      <trkpt lat="44.50043" lon="1.66501">
        <ele>268</ele>
        <time>2022-05-07T14:11:09Z</time>
      </trkpt>
      <trkpt lat="44.50042" lon="1.66501">
        <ele>268.1</ele>
        <time>2022-05-07T14:11:10Z</time>
      </trkpt>
      <trkpt lat="44.50041" lon="1.66501">
        <ele>268.3</ele>
        <time>2022-05-07T14:11:11Z</time>
      </trkpt>
      <trkpt lat="44.5004" lon="1.66501">
        <ele>268.5</ele>
        <time>2022-05-07T14:11:12Z</time>
      </trkpt>
      <trkpt lat="44.50038" lon="1.66502">
        <ele>268.7</ele>
        <time>2022-05-07T14:11:13Z</time>
      </trkpt>
      <trkpt lat="44.50038" lon="1.66502">
        <ele>268.8</ele>
        <time>2022-05-07T14:11:14Z</time>
      </trkpt>
      <trkpt lat="44.50036" lon="1.66501">
        <ele>269</ele>
        <time>2022-05-07T14:11:15Z</time>
      </trkpt>
      <trkpt lat="44.50035" lon="1.66501">
        <ele>269.1</ele>
        <time>2022-05-07T14:11:16Z</time>
      </trkpt>
      <trkpt lat="44.50034" lon="1.66501">
        <ele>269.3</ele>
        <time>2022-05-07T14:11:17Z</time>
      </trkpt>
      <trkpt lat="44.50033" lon="1.66501">
        <ele>269.5</ele>
        <time>2022-05-07T14:11:18Z</time>
      </trkpt>
      <trkpt lat="44.50032" lon="1.66501">
        <ele>269.7</ele>
        <time>2022-05-07T14:11:19Z</time>
      </trkpt>
      <trkpt lat="44.50031" lon="1.66501">
        <ele>269.8</ele>
        <time>2022-05-07T14:11:20Z</time>
      </trkpt>
      <trkpt lat="44.5003" lon="1.66501">
        <ele>269.9</ele>
        <time>2022-05-07T14:11:21Z</time>
      </trkpt>
      <trkpt lat="44.5003" lon="1.66501">
        <ele>270</ele>
        <time>2022-05-07T14:11:22Z</time>
      </trkpt>
      <trkpt lat="44.50029" lon="1.665">
        <ele>270.1</ele>
        <time>2022-05-07T14:11:23Z</time>
      </trkpt>
      <trkpt lat="44.50028" lon="1.66501">
        <ele>270.3</ele>
        <time>2022-05-07T14:11:24Z</time>
      </trkpt>
      <trkpt lat="44.50025" lon="1.66501">
        <ele>270.6</ele>
        <time>2022-05-07T14:11:26Z</time>
      </trkpt>
      <trkpt lat="44.50024" lon="1.66501">
        <ele>270.8</ele>
        <time>2022-05-07T14:11:27Z</time>
      </trkpt>
      <trkpt lat="44.50023" lon="1.665">
        <ele>271</ele>
        <time>2022-05-07T14:11:28Z</time>
      </trkpt>
      <trkpt lat="44.50023" lon="1.665">
        <ele>271.1</ele>
        <time>2022-05-07T14:11:29Z</time>
      </trkpt>
      <trkpt lat="44.50022" lon="1.665">
        <ele>271.2</ele>
        <time>2022-05-07T14:11:30Z</time>
      </trkpt>
      <trkpt lat="44.50021" lon="1.665">
        <ele>271.3</ele>
        <time>2022-05-07T14:11:31Z</time>
      </trkpt>
      <trkpt lat="44.5002" lon="1.66501">
        <ele>271.5</ele>
        <time>2022-05-07T14:11:32Z</time>
      </trkpt>
      <trkpt lat="44.50018" lon="1.66501">
        <ele>271.7</ele>
        <time>2022-05-07T14:11:33Z</time>
      </trkpt>
      <trkpt lat="44.50018" lon="1.66501">
        <ele>271.8</ele>
        <time>2022-05-07T14:11:34Z</time>
      </trkpt>
      <trkpt lat="44.50017" lon="1.66501">
        <ele>272</ele>
        <time>2022-05-07T14:11:35Z</time>
      </trkpt>
      <trkpt lat="44.50016" lon="1.665">
        <ele>272.1</ele>
        <time>2022-05-07T14:11:36Z</time>
      </trkpt>
      <trkpt lat="44.50015" lon="1.665">
        <ele>272.3</ele>
        <time>2022-05-07T14:11:37Z</time>
      </trkpt>
      <trkpt lat="44.50014" lon="1.665">
        <ele>272.5</ele>
        <time>2022-05-07T14:11:38Z</time>
      </trkpt>
      <trkpt lat="44.50013" lon="1.66501">
        <ele>272.6</ele>
        <time>2022-05-07T14:11:39Z</time>
      </trkpt>
      <trkpt lat="44.50012" lon="1.66501">
        <ele>272.7</ele>
        <time>2022-05-07T14:11:40Z</time>
      </trkpt>
      <trkpt lat="44.50012" lon="1.66501">
        <ele>272.8</ele>
        <time>2022-05-07T14:11:41Z</time>
      </trkpt>
      <trkpt lat="44.50011" lon="1.66501">
        <ele>272.9</ele>
        <time>2022-05-07T14:11:42Z</time>
      </trkpt>
      <trkpt lat="44.50009" lon="1.66501">
        <ele>273.1</ele>
        <time>2022-05-07T14:11:43Z</time>
      </trkpt>
      <trkpt lat="44.50008" lon="1.66501">
        <ele>273.3</ele>
        <time>2022-05-07T14:11:44Z</time>
      </trkpt>
      <trkpt lat="44.50007" lon="1.66501">
        <ele>273.4</ele>
        <time>2022-05-07T14:11:45Z</time>
      </trkpt>
      <trkpt lat="44.50007" lon="1.66501">
        <ele>273.5</ele>
        <time>2022-05-07T14:11:46Z</time>
      </trkpt>
      <trkpt lat="44.50006" lon="1.66501">
        <ele>273.6</ele>
        <time>2022-05-07T14:11:47Z</time>
      </trkpt>
      <trkpt lat="44.50006" lon="1.66501">
        <ele>273.7</ele>
        <time>2022-05-07T14:11:48Z</time>
      </trkpt>
      <trkpt lat="44.50004" lon="1.66502">
        <ele>274</ele>
        <time>2022-05-07T14:11:49Z</time>
      </trkpt>
      <trkpt lat="44.50003" lon="1.66502">
        <ele>274.2</ele>
        <time>2022-05-07T14:11:50Z</time>
      </trkpt>
      <trkpt lat="44.50002" lon="1.66501">
        <ele>274.3</ele>
        <time>2022-05-07T14:11:51Z</time>
      </trkpt>
      <trkpt lat="44.5" lon="1.66501">
        <ele>274.5</ele>
        <time>2022-05-07T14:11:52Z</time>
      </trkpt>
      <trkpt lat="44.49999" lon="1.66501">
        <ele>274.7</ele>
        <time>2022-05-07T14:11:53Z</time>
      </trkpt>
      <trkpt lat="44.49999" lon="1.66501">
        <ele>274.8</ele>
        <time>2022-05-07T14:11:54Z</time>
      </trkpt>
      <trkpt lat="44.49998" lon="1.66501">
        <ele>274.9</ele>
        <time>2022-05-07T14:11:55Z</time>
      </trkpt>
      <trkpt lat="44.49997" lon="1.66501">
        <ele>275</ele>
        <time>2022-05-07T14:11:56Z</time>
      </trkpt>
      <trkpt lat="44.49996" lon="1.665">
        <ele>275.2</ele>
        <time>2022-05-07T14:11:57Z</time>
      </trkpt>
      <trkpt lat="44.49995" lon="1.665">
        <ele>275.4</ele>
        <time>2022-05-07T14:11:58Z</time>
      </trkpt>
      <trkpt lat="44.49994" lon="1.665">
        <ele>275.5</ele>
        <time>2022-05-07T14:11:59Z</time>
      </trkpt>
      <trkpt lat="44.49993" lon="1.66499">
        <ele>275.6</ele>
        <time>2022-05-07T14:12:00Z</time>
      </trkpt>
      <trkpt lat="44.49992" lon="1.66499">
        <ele>275.8</ele>
        <time>2022-05-07T14:12:01Z</time>
      </trkpt>
      <trkpt lat="44.49992" lon="1.66499">
        <ele>275.9</ele>
        <time>2022-05-07T14:12:02Z</time>
      </trkpt>
      <trkpt lat="44.49991" lon="1.66498">
        <ele>276</ele>
        <time>2022-05-07T14:12:03Z</time>
      </trkpt>
      <trkpt lat="44.4999" lon="1.66498">
        <ele>276.2</ele>
        <time>2022-05-07T14:12:04Z</time>
      </trkpt>
      <trkpt lat="44.49989" lon="1.66498">
        <ele>276.3</ele>
        <time>2022-05-07T14:12:07Z</time>
      </trkpt>
      <trkpt lat="44.49988" lon="1.66497">
        <ele>276.4</ele>
        <time>2022-05-07T14:12:08Z</time>
      </trkpt>
      <trkpt lat="44.49988" lon="1.66497">
        <ele>276.6</ele>
        <time>2022-05-07T14:12:09Z</time>
      </trkpt>
      <trkpt lat="44.49985" lon="1.66497">
        <ele>276.9</ele>
        <time>2022-05-07T14:12:10Z</time>
      </trkpt>
      <trkpt lat="44.49985" lon="1.66497">
        <ele>277</ele>
        <time>2022-05-07T14:12:11Z</time>
      </trkpt>
      <trkpt lat="44.49984" lon="1.66496">
        <ele>277.1</ele>
        <time>2022-05-07T14:12:12Z</time>
      </trkpt>
      <trkpt lat="44.49984" lon="1.66496">
        <ele>277.1</ele>
        <time>2022-05-07T14:12:13Z</time>
      </trkpt>
      <trkpt lat="44.49984" lon="1.66496">
        <ele>277.2</ele>
        <time>2022-05-07T14:12:14Z</time>
      </trkpt>
      <trkpt lat="44.49984" lon="1.66496">
        <ele>277.2</ele>
        <time>2022-05-07T14:12:15Z</time>
      </trkpt>
      <trkpt lat="44.49981" lon="1.66495">
        <ele>277.6</ele>
        <time>2022-05-07T14:12:16Z</time>
      </trkpt>
      <trkpt lat="44.4998" lon="1.66494">
        <ele>277.9</ele>
        <time>2022-05-07T14:12:17Z</time>
      </trkpt>
      <trkpt lat="44.49978" lon="1.66493">
        <ele>278.1</ele>
        <time>2022-05-07T14:12:18Z</time>
      </trkpt>
      <trkpt lat="44.49977" lon="1.66492">
        <ele>278.3</ele>
        <time>2022-05-07T14:12:19Z</time>
      </trkpt>
      <trkpt lat="44.49976" lon="1.66492">
        <ele>278.5</ele>
        <time>2022-05-07T14:12:20Z</time>
      </trkpt>
      <trkpt lat="44.49975" lon="1.66492">
        <ele>278.6</ele>
        <time>2022-05-07T14:12:21Z</time>
      </trkpt>
      <trkpt lat="44.49974" lon="1.66491">
        <ele>278.8</ele>
        <time>2022-05-07T14:12:22Z</time>
      </trkpt>
      <trkpt lat="44.49972" lon="1.66491">
        <ele>279</ele>
        <time>2022-05-07T14:12:23Z</time>
      </trkpt>
      <trkpt lat="44.49971" lon="1.66491">
        <ele>279.2</ele>
        <time>2022-05-07T14:12:24Z</time>
      </trkpt>
      <trkpt lat="44.4997" lon="1.66491">
        <ele>279.3</ele>
        <time>2022-05-07T14:12:25Z</time>
      </trkpt>
      <trkpt lat="44.49969" lon="1.6649">
        <ele>279.6</ele>
        <time>2022-05-07T14:12:26Z</time>
      </trkpt>
      <trkpt lat="44.49968" lon="1.6649">
        <ele>279.7</ele>
        <time>2022-05-07T14:12:27Z</time>
      </trkpt>
      <trkpt lat="44.49968" lon="1.6649">
        <ele>279.8</ele>
        <time>2022-05-07T14:12:28Z</time>
      </trkpt>
      <trkpt lat="44.49967" lon="1.6649">
        <ele>279.9</ele>
        <time>2022-05-07T14:12:29Z</time>
      </trkpt>
      <trkpt lat="44.49967" lon="1.66489">
        <ele>280</ele>
        <time>2022-05-07T14:12:30Z</time>
      </trkpt>
      <trkpt lat="44.49965" lon="1.66489">
        <ele>280.2</ele>
        <time>2022-05-07T14:12:31Z</time>
      </trkpt>
      <trkpt lat="44.49964" lon="1.66489">
        <ele>280.4</ele>
        <time>2022-05-07T14:12:32Z</time>
      </trkpt>
      <trkpt lat="44.49963" lon="1.66489">
        <ele>280.5</ele>
        <time>2022-05-07T14:12:33Z</time>
      </trkpt>
      <trkpt lat="44.49963" lon="1.66489">
        <ele>280.7</ele>
        <time>2022-05-07T14:12:34Z</time>
      </trkpt>
      <trkpt lat="44.49962" lon="1.66489">
        <ele>280.8</ele>
        <time>2022-05-07T14:12:35Z</time>
      </trkpt>
      <trkpt lat="44.4996" lon="1.66489">
        <ele>280.8</ele>
        <time>2022-05-07T14:12:36Z</time>
      </trkpt>
      <trkpt lat="44.49959" lon="1.66489">
        <ele>280.9</ele>
        <time>2022-05-07T14:12:37Z</time>
      </trkpt>
      <trkpt lat="44.49958" lon="1.6649">
        <ele>281</ele>
        <time>2022-05-07T14:12:38Z</time>
      </trkpt>
      <trkpt lat="44.49957" lon="1.66491">
        <ele>281.1</ele>
        <time>2022-05-07T14:12:39Z</time>
      </trkpt>
      <trkpt lat="44.49956" lon="1.66491">
        <ele>281.1</ele>
        <time>2022-05-07T14:12:40Z</time>
      </trkpt>
      <trkpt lat="44.49955" lon="1.66491">
        <ele>281.2</ele>
        <time>2022-05-07T14:12:41Z</time>
      </trkpt>
      <trkpt lat="44.49955" lon="1.66491">
        <ele>281.2</ele>
        <time>2022-05-07T14:12:42Z</time>
      </trkpt>
      <trkpt lat="44.49954" lon="1.66492">
        <ele>281.3</ele>
        <time>2022-05-07T14:12:43Z</time>
      </trkpt>
      <trkpt lat="44.49953" lon="1.66493">
        <ele>281.4</ele>
        <time>2022-05-07T14:12:44Z</time>
      </trkpt>
      <trkpt lat="44.49952" lon="1.66494">
        <ele>281.6</ele>
        <time>2022-05-07T14:12:45Z</time>
      </trkpt>
      <trkpt lat="44.49951" lon="1.66495">
        <ele>281.7</ele>
        <time>2022-05-07T14:12:46Z</time>
      </trkpt>
      <trkpt lat="44.4995" lon="1.66495">
        <ele>281.8</ele>
        <time>2022-05-07T14:12:47Z</time>
      </trkpt>
      <trkpt lat="44.4995" lon="1.66496">
        <ele>281.9</ele>
        <time>2022-05-07T14:12:48Z</time>
      </trkpt>
      <trkpt lat="44.49948" lon="1.66497">
        <ele>282.2</ele>
        <time>2022-05-07T14:12:49Z</time>
      </trkpt>
      <trkpt lat="44.49947" lon="1.66498">
        <ele>282.4</ele>
        <time>2022-05-07T14:12:50Z</time>
      </trkpt>
      <trkpt lat="44.49946" lon="1.66499">
        <ele>282.5</ele>
        <time>2022-05-07T14:12:51Z</time>
      </trkpt>
      <trkpt lat="44.49946" lon="1.665">
        <ele>282.7</ele>
        <time>2022-05-07T14:12:52Z</time>
      </trkpt>
      <trkpt lat="44.49945" lon="1.66501">
        <ele>282.8</ele>
        <time>2022-05-07T14:12:53Z</time>
      </trkpt>
      <trkpt lat="44.49945" lon="1.66502">
        <ele>283</ele>
        <time>2022-05-07T14:12:54Z</time>
      </trkpt>
      <trkpt lat="44.49944" lon="1.66504">
        <ele>283.2</ele>
        <time>2022-05-07T14:12:55Z</time>
      </trkpt>
      <trkpt lat="44.49944" lon="1.66505">
        <ele>283.3</ele>
        <time>2022-05-07T14:12:56Z</time>
      </trkpt>
      <trkpt lat="44.49943" lon="1.66506">
        <ele>283.5</ele>
        <time>2022-05-07T14:12:57Z</time>
      </trkpt>
      <trkpt lat="44.49943" lon="1.66507">
        <ele>283.6</ele>
        <time>2022-05-07T14:12:58Z</time>
      </trkpt>
      <trkpt lat="44.49942" lon="1.66508">
        <ele>283.8</ele>
        <time>2022-05-07T14:12:59Z</time>
      </trkpt>
      <trkpt lat="44.49942" lon="1.66509">
        <ele>283.9</ele>
        <time>2022-05-07T14:13:00Z</time>
      </trkpt>
      <trkpt lat="44.49941" lon="1.6651">
        <ele>284</ele>
        <time>2022-05-07T14:13:01Z</time>
      </trkpt>
      <trkpt lat="44.49941" lon="1.66511">
        <ele>284.2</ele>
        <time>2022-05-07T14:13:02Z</time>
      </trkpt>
      <trkpt lat="44.49941" lon="1.66512">
        <ele>284.3</ele>
        <time>2022-05-07T14:13:03Z</time>
      </trkpt>
      <trkpt lat="44.4994" lon="1.66513">
        <ele>284.4</ele>
        <time>2022-05-07T14:13:04Z</time>
      </trkpt>
      <trkpt lat="44.4994" lon="1.66514">
        <ele>284.5</ele>
        <time>2022-05-07T14:13:05Z</time>
      </trkpt>
      <trkpt lat="44.4994" lon="1.66515">
        <ele>284.6</ele>
        <time>2022-05-07T14:13:06Z</time>
      </trkpt>
      <trkpt lat="44.4994" lon="1.66517">
        <ele>284.8</ele>
        <time>2022-05-07T14:13:07Z</time>
      </trkpt>
      <trkpt lat="44.4994" lon="1.66518">
        <ele>285</ele>
        <time>2022-05-07T14:13:08Z</time>
      </trkpt>
      <trkpt lat="44.49938" lon="1.6652">
        <ele>285.3</ele>
        <time>2022-05-07T14:13:09Z</time>
      </trkpt>
      <trkpt lat="44.49938" lon="1.66521">
        <ele>285.4</ele>
        <time>2022-05-07T14:13:10Z</time>
      </trkpt>
      <trkpt lat="44.49937" lon="1.66522">
        <ele>285.6</ele>
        <time>2022-05-07T14:13:11Z</time>
      </trkpt>
      <trkpt lat="44.49936" lon="1.66523">
        <ele>285.7</ele>
        <time>2022-05-07T14:13:12Z</time>
      </trkpt>
      <trkpt lat="44.49936" lon="1.66524">
        <ele>285.9</ele>
        <time>2022-05-07T14:13:13Z</time>
      </trkpt>
      <trkpt lat="44.49936" lon="1.66525">
        <ele>286</ele>
        <time>2022-05-07T14:13:14Z</time>
      </trkpt>
      <trkpt lat="44.49935" lon="1.66527">
        <ele>286.1</ele>
        <time>2022-05-07T14:13:15Z</time>
      </trkpt>
      <trkpt lat="44.49935" lon="1.66528">
        <ele>286.3</ele>
        <time>2022-05-07T14:13:16Z</time>
      </trkpt>
      <trkpt lat="44.49935" lon="1.66529">
        <ele>286.4</ele>
        <time>2022-05-07T14:13:17Z</time>
      </trkpt>
      <trkpt lat="44.49934" lon="1.66532">
        <ele>286.7</ele>
        <time>2022-05-07T14:13:18Z</time>
      </trkpt>
      <trkpt lat="44.49933" lon="1.66533">
        <ele>286.8</ele>
        <time>2022-05-07T14:13:19Z</time>
      </trkpt>
      <trkpt lat="44.49932" lon="1.66533">
        <ele>286.9</ele>
        <time>2022-05-07T14:13:20Z</time>
      </trkpt>
      <trkpt lat="44.49932" lon="1.66535">
        <ele>287.1</ele>
        <time>2022-05-07T14:13:21Z</time>
      </trkpt>
      <trkpt lat="44.49931" lon="1.66536">
        <ele>287.2</ele>
        <time>2022-05-07T14:13:22Z</time>
      </trkpt>
      <trkpt lat="44.4993" lon="1.66537">
        <ele>287.4</ele>
        <time>2022-05-07T14:13:23Z</time>
      </trkpt>
      <trkpt lat="44.49929" lon="1.66538">
        <ele>287.5</ele>
        <time>2022-05-07T14:13:24Z</time>
      </trkpt>
      <trkpt lat="44.49929" lon="1.6654">
        <ele>287.7</ele>
        <time>2022-05-07T14:13:25Z</time>
      </trkpt>
      <trkpt lat="44.49928" lon="1.66541">
        <ele>287.8</ele>
        <time>2022-05-07T14:13:26Z</time>
      </trkpt>
      <trkpt lat="44.49928" lon="1.66543">
        <ele>288</ele>
        <time>2022-05-07T14:13:27Z</time>
      </trkpt>
      <trkpt lat="44.49927" lon="1.66544">
        <ele>288.1</ele>
        <time>2022-05-07T14:13:28Z</time>
      </trkpt>
      <trkpt lat="44.49926" lon="1.66544">
        <ele>288.2</ele>
        <time>2022-05-07T14:13:29Z</time>
      </trkpt>
      <trkpt lat="44.49925" lon="1.66545">
        <ele>288.3</ele>
        <time>2022-05-07T14:13:30Z</time>
      </trkpt>
      <trkpt lat="44.49923" lon="1.66548">
        <ele>288.6</ele>
        <time>2022-05-07T14:13:32Z</time>
      </trkpt>
      <trkpt lat="44.49922" lon="1.6655">
        <ele>288.8</ele>
        <time>2022-05-07T14:13:33Z</time>
      </trkpt>
      <trkpt lat="44.49921" lon="1.66551">
        <ele>288.9</ele>
        <time>2022-05-07T14:13:34Z</time>
      </trkpt>
      <trkpt lat="44.4992" lon="1.66552">
        <ele>289</ele>
        <time>2022-05-07T14:13:35Z</time>
      </trkpt>
      <trkpt lat="44.49919" lon="1.66553">
        <ele>289.1</ele>
        <time>2022-05-07T14:13:36Z</time>
      </trkpt>
      <trkpt lat="44.49919" lon="1.66554">
        <ele>289.2</ele>
        <time>2022-05-07T14:13:37Z</time>
      </trkpt>
      <trkpt lat="44.49918" lon="1.66555">
        <ele>289.3</ele>
        <time>2022-05-07T14:13:38Z</time>
      </trkpt>
      <trkpt lat="44.49917" lon="1.66556">
        <ele>289.4</ele>
        <time>2022-05-07T14:13:39Z</time>
      </trkpt>
      <trkpt lat="44.49915" lon="1.66559">
        <ele>289.6</ele>
        <time>2022-05-07T14:13:41Z</time>
      </trkpt>
      <trkpt lat="44.49914" lon="1.66561">
        <ele>289.7</ele>
        <time>2022-05-07T14:13:42Z</time>
      </trkpt>
      <trkpt lat="44.49913" lon="1.66562">
        <ele>289.8</ele>
        <time>2022-05-07T14:13:43Z</time>
      </trkpt>
      <trkpt lat="44.49912" lon="1.66563">
        <ele>289.9</ele>
        <time>2022-05-07T14:13:44Z</time>
      </trkpt>
      <trkpt lat="44.4991" lon="1.66565">
        <ele>290.1</ele>
        <time>2022-05-07T14:13:46Z</time>
      </trkpt>
      <trkpt lat="44.49909" lon="1.66567">
        <ele>290.2</ele>
        <time>2022-05-07T14:13:47Z</time>
      </trkpt>
      <trkpt lat="44.49908" lon="1.66569">
        <ele>290.4</ele>
        <time>2022-05-07T14:13:48Z</time>
      </trkpt>
      <trkpt lat="44.49907" lon="1.6657">
        <ele>290.5</ele>
        <time>2022-05-07T14:13:49Z</time>
      </trkpt>
      <trkpt lat="44.49906" lon="1.66572">
        <ele>290.6</ele>
        <time>2022-05-07T14:13:50Z</time>
      </trkpt>
      <trkpt lat="44.49905" lon="1.66573">
        <ele>290.7</ele>
        <time>2022-05-07T14:13:51Z</time>
      </trkpt>
      <trkpt lat="44.49904" lon="1.66575">
        <ele>290.7</ele>
        <time>2022-05-07T14:13:52Z</time>
      </trkpt>
      <trkpt lat="44.49903" lon="1.66577">
        <ele>290.9</ele>
        <time>2022-05-07T14:13:53Z</time>
      </trkpt>
      <trkpt lat="44.49903" lon="1.66579">
        <ele>290.9</ele>
        <time>2022-05-07T14:13:54Z</time>
      </trkpt>
      <trkpt lat="44.49902" lon="1.6658">
        <ele>291</ele>
        <time>2022-05-07T14:13:55Z</time>
      </trkpt>
      <trkpt lat="44.49902" lon="1.66582">
        <ele>291.1</ele>
        <time>2022-05-07T14:13:57Z</time>
      </trkpt>
      <trkpt lat="44.499" lon="1.66587">
        <ele>291.4</ele>
        <time>2022-05-07T14:13:59Z</time>
      </trkpt>
      <trkpt lat="44.49899" lon="1.66589">
        <ele>291.5</ele>
        <time>2022-05-07T14:14:00Z</time>
      </trkpt>
      <trkpt lat="44.49898" lon="1.6659">
        <ele>291.5</ele>
        <time>2022-05-07T14:14:01Z</time>
      </trkpt>
      <trkpt lat="44.49897" lon="1.66592">
        <ele>291.6</ele>
        <time>2022-05-07T14:14:02Z</time>
      </trkpt>
      <trkpt lat="44.49897" lon="1.66594">
        <ele>291.7</ele>
        <time>2022-05-07T14:14:03Z</time>
      </trkpt>
      <trkpt lat="44.49895" lon="1.66598">
        <ele>291.8</ele>
        <time>2022-05-07T14:14:05Z</time>
      </trkpt>
      <trkpt lat="44.49895" lon="1.666">
        <ele>291.9</ele>
        <time>2022-05-07T14:14:06Z</time>
      </trkpt>
      <trkpt lat="44.49894" lon="1.66601">
        <ele>292</ele>
        <time>2022-05-07T14:14:07Z</time>
      </trkpt>
      <trkpt lat="44.49893" lon="1.66602">
        <ele>292</ele>
        <time>2022-05-07T14:14:08Z</time>
      </trkpt>
      <trkpt lat="44.49891" lon="1.66604">
        <ele>292.2</ele>
        <time>2022-05-07T14:14:10Z</time>
      </trkpt>
      <trkpt lat="44.4989" lon="1.66606">
        <ele>292.2</ele>
        <time>2022-05-07T14:14:11Z</time>
      </trkpt>
      <trkpt lat="44.49889" lon="1.66608">
        <ele>292.3</ele>
        <time>2022-05-07T14:14:12Z</time>
      </trkpt>
      <trkpt lat="44.49889" lon="1.6661">
        <ele>292.4</ele>
        <time>2022-05-07T14:14:13Z</time>
      </trkpt>
      <trkpt lat="44.49888" lon="1.66612">
        <ele>292.4</ele>
        <time>2022-05-07T14:14:14Z</time>
      </trkpt>
      <trkpt lat="44.49887" lon="1.66614">
        <ele>292.5</ele>
        <time>2022-05-07T14:14:15Z</time>
      </trkpt>
      <trkpt lat="44.49886" lon="1.66615">
        <ele>292.5</ele>
        <time>2022-05-07T14:14:16Z</time>
      </trkpt>
      <trkpt lat="44.49886" lon="1.66617">
        <ele>292.6</ele>
        <time>2022-05-07T14:14:17Z</time>
      </trkpt>
      <trkpt lat="44.49885" lon="1.66619">
        <ele>292.6</ele>
        <time>2022-05-07T14:14:18Z</time>
      </trkpt>
      <trkpt lat="44.49884" lon="1.66621">
        <ele>292.7</ele>
        <time>2022-05-07T14:14:19Z</time>
      </trkpt>
      <trkpt lat="44.49883" lon="1.66622">
        <ele>292.7</ele>
        <time>2022-05-07T14:14:20Z</time>
      </trkpt>
      <trkpt lat="44.49883" lon="1.66623">
        <ele>292.7</ele>
        <time>2022-05-07T14:14:21Z</time>
      </trkpt>
      <trkpt lat="44.4988" lon="1.66624">
        <ele>292.8</ele>
        <time>2022-05-07T14:14:22Z</time>
      </trkpt>
      <trkpt lat="44.49879" lon="1.66624">
        <ele>292.6</ele>
        <time>2022-05-07T14:14:23Z</time>
      </trkpt>
      <trkpt lat="44.49878" lon="1.66624">
        <ele>292.6</ele>
        <time>2022-05-07T14:14:24Z</time>
      </trkpt>
      <trkpt lat="44.49877" lon="1.66623">
        <ele>292.6</ele>
        <time>2022-05-07T14:14:25Z</time>
      </trkpt>
      <trkpt lat="44.49876" lon="1.66622">
        <ele>292.5</ele>
        <time>2022-05-07T14:14:26Z</time>
      </trkpt>
      <trkpt lat="44.49875" lon="1.66619">
        <ele>292.5</ele>
        <time>2022-05-07T14:14:27Z</time>
      </trkpt>
      <trkpt lat="44.49874" lon="1.66618">
        <ele>292.4</ele>
        <time>2022-05-07T14:14:28Z</time>
      </trkpt>
      <trkpt lat="44.49874" lon="1.66617">
        <ele>292.4</ele>
        <time>2022-05-07T14:14:29Z</time>
      </trkpt>
      <trkpt lat="44.49872" lon="1.66614">
        <ele>292.3</ele>
        <time>2022-05-07T14:14:30Z</time>
      </trkpt>
      <trkpt lat="44.49872" lon="1.66613">
        <ele>292.3</ele>
        <time>2022-05-07T14:14:31Z</time>
      </trkpt>
      <trkpt lat="44.49871" lon="1.66608">
        <ele>292.2</ele>
        <time>2022-05-07T14:14:32Z</time>
      </trkpt>
      <trkpt lat="44.4987" lon="1.66606">
        <ele>292.2</ele>
        <time>2022-05-07T14:14:33Z</time>
      </trkpt>
      <trkpt lat="44.49869" lon="1.66602">
        <ele>292.1</ele>
        <time>2022-05-07T14:14:34Z</time>
      </trkpt>
      <trkpt lat="44.49869" lon="1.66601">
        <ele>292.1</ele>
        <time>2022-05-07T14:14:35Z</time>
      </trkpt>
      <trkpt lat="44.49868" lon="1.66597">
        <ele>292.1</ele>
        <time>2022-05-07T14:14:36Z</time>
      </trkpt>
      <trkpt lat="44.49867" lon="1.66593">
        <ele>292.1</ele>
        <time>2022-05-07T14:14:37Z</time>
      </trkpt>
      <trkpt lat="44.49866" lon="1.66589">
        <ele>292.2</ele>
        <time>2022-05-07T14:14:38Z</time>
      </trkpt>
      <trkpt lat="44.49865" lon="1.66586">
        <ele>292.3</ele>
        <time>2022-05-07T14:14:39Z</time>
      </trkpt>
      <trkpt lat="44.49864" lon="1.66582">
        <ele>292.3</ele>
        <time>2022-05-07T14:14:40Z</time>
      </trkpt>
      <trkpt lat="44.49862" lon="1.66577">
        <ele>292.5</ele>
        <time>2022-05-07T14:14:41Z</time>
      </trkpt>
      <trkpt lat="44.49861" lon="1.66575">
        <ele>292.5</ele>
        <time>2022-05-07T14:14:42Z</time>
      </trkpt>
      <trkpt lat="44.4986" lon="1.6657">
        <ele>292.8</ele>
        <time>2022-05-07T14:14:43Z</time>
      </trkpt>
      <trkpt lat="44.49859" lon="1.66568">
        <ele>292.9</ele>
        <time>2022-05-07T14:14:44Z</time>
      </trkpt>
      <trkpt lat="44.49858" lon="1.66564">
        <ele>293.1</ele>
        <time>2022-05-07T14:14:45Z</time>
      </trkpt>
      <trkpt lat="44.49858" lon="1.66563">
        <ele>293.2</ele>
        <time>2022-05-07T14:14:46Z</time>
      </trkpt>
      <trkpt lat="44.49856" lon="1.66558">
        <ele>293.5</ele>
        <time>2022-05-07T14:14:47Z</time>
      </trkpt>
      <trkpt lat="44.49856" lon="1.66556">
        <ele>293.6</ele>
        <time>2022-05-07T14:14:48Z</time>
      </trkpt>
      <trkpt lat="44.49855" lon="1.66552">
        <ele>294</ele>
        <time>2022-05-07T14:14:49Z</time>
      </trkpt>
      <trkpt lat="44.49854" lon="1.6655">
        <ele>294.1</ele>
        <time>2022-05-07T14:14:50Z</time>
      </trkpt>
      <trkpt lat="44.49853" lon="1.66547">
        <ele>294.4</ele>
        <time>2022-05-07T14:14:51Z</time>
      </trkpt>
      <trkpt lat="44.49853" lon="1.66545">
        <ele>294.5</ele>
        <time>2022-05-07T14:14:52Z</time>
      </trkpt>
      <trkpt lat="44.49852" lon="1.66543">
        <ele>294.8</ele>
        <time>2022-05-07T14:14:53Z</time>
      </trkpt>
      <trkpt lat="44.49851" lon="1.66541">
        <ele>295</ele>
        <time>2022-05-07T14:14:54Z</time>
      </trkpt>
      <trkpt lat="44.4985" lon="1.66537">
        <ele>295.4</ele>
        <time>2022-05-07T14:14:55Z</time>
      </trkpt>
      <trkpt lat="44.4985" lon="1.66535">
        <ele>295.5</ele>
        <time>2022-05-07T14:14:56Z</time>
      </trkpt>
      <trkpt lat="44.49849" lon="1.66533">
        <ele>295.7</ele>
        <time>2022-05-07T14:14:57Z</time>
      </trkpt>
      <trkpt lat="44.49849" lon="1.66531">
        <ele>295.9</ele>
        <time>2022-05-07T14:14:58Z</time>
      </trkpt>
      <trkpt lat="44.49848" lon="1.66529">
        <ele>296.1</ele>
        <time>2022-05-07T14:14:59Z</time>
      </trkpt>
      <trkpt lat="44.49848" lon="1.66526">
        <ele>296.3</ele>
        <time>2022-05-07T14:15:00Z</time>
      </trkpt>
      <trkpt lat="44.49847" lon="1.66524">
        <ele>296.6</ele>
        <time>2022-05-07T14:15:01Z</time>
      </trkpt>
      <trkpt lat="44.49847" lon="1.66522">
        <ele>296.8</ele>
        <time>2022-05-07T14:15:02Z</time>
      </trkpt>
      <trkpt lat="44.49846" lon="1.66518">
        <ele>297.1</ele>
        <time>2022-05-07T14:15:03Z</time>
      </trkpt>
      <trkpt lat="44.49846" lon="1.66517">
        <ele>297.2</ele>
        <time>2022-05-07T14:15:04Z</time>
      </trkpt>
      <trkpt lat="44.49845" lon="1.66514">
        <ele>297.5</ele>
        <time>2022-05-07T14:15:05Z</time>
      </trkpt>
      <trkpt lat="44.49845" lon="1.66513">
        <ele>297.7</ele>
        <time>2022-05-07T14:15:06Z</time>
      </trkpt>
      <trkpt lat="44.49843" lon="1.66509">
        <ele>298.1</ele>
        <time>2022-05-07T14:15:07Z</time>
      </trkpt>
      <trkpt lat="44.49843" lon="1.66508">
        <ele>298.2</ele>
        <time>2022-05-07T14:15:08Z</time>
      </trkpt>
      <trkpt lat="44.49842" lon="1.66506">
        <ele>298.5</ele>
        <time>2022-05-07T14:15:09Z</time>
      </trkpt>
      <trkpt lat="44.49841" lon="1.66504">
        <ele>298.6</ele>
        <time>2022-05-07T14:15:10Z</time>
      </trkpt>
      <trkpt lat="44.49841" lon="1.66503">
        <ele>298.7</ele>
        <time>2022-05-07T14:15:11Z</time>
      </trkpt>
      <trkpt lat="44.4984" lon="1.66501">
        <ele>299</ele>
        <time>2022-05-07T14:15:12Z</time>
      </trkpt>
      <trkpt lat="44.4984" lon="1.66499">
        <ele>299.1</ele>
        <time>2022-05-07T14:15:13Z</time>
      </trkpt>
      <trkpt lat="44.49839" lon="1.66498">
        <ele>299.3</ele>
        <time>2022-05-07T14:15:14Z</time>
      </trkpt>
      <trkpt lat="44.49839" lon="1.66496">
        <ele>299.5</ele>
        <time>2022-05-07T14:15:15Z</time>
      </trkpt>
      <trkpt lat="44.49838" lon="1.66495">
        <ele>299.7</ele>
        <time>2022-05-07T14:15:16Z</time>
      </trkpt>
      <trkpt lat="44.49838" lon="1.66493">
        <ele>299.9</ele>
        <time>2022-05-07T14:15:17Z</time>
      </trkpt>
      <trkpt lat="44.49837" lon="1.66491">
        <ele>300.1</ele>
        <time>2022-05-07T14:15:18Z</time>
      </trkpt>
      <trkpt lat="44.49836" lon="1.66487">
        <ele>300.6</ele>
        <time>2022-05-07T14:15:20Z</time>
      </trkpt>
      <trkpt lat="44.49836" lon="1.66485">
        <ele>300.7</ele>
        <time>2022-05-07T14:15:21Z</time>
      </trkpt>
      <trkpt lat="44.49835" lon="1.66484">
        <ele>300.9</ele>
        <time>2022-05-07T14:15:22Z</time>
      </trkpt>
      <trkpt lat="44.49834" lon="1.66481">
        <ele>301.2</ele>
        <time>2022-05-07T14:15:23Z</time>
      </trkpt>
      <trkpt lat="44.49833" lon="1.6648">
        <ele>301.4</ele>
        <time>2022-05-07T14:15:24Z</time>
      </trkpt>
      <trkpt lat="44.49832" lon="1.66478">
        <ele>301.6</ele>
        <time>2022-05-07T14:15:25Z</time>
      </trkpt>
      <trkpt lat="44.49832" lon="1.66475">
        <ele>301.9</ele>
        <time>2022-05-07T14:15:26Z</time>
      </trkpt>
      <trkpt lat="44.49832" lon="1.66474">
        <ele>302</ele>
        <time>2022-05-07T14:15:27Z</time>
      </trkpt>
      <trkpt lat="44.49831" lon="1.66471">
        <ele>302.2</ele>
        <time>2022-05-07T14:15:28Z</time>
      </trkpt>
      <trkpt lat="44.4983" lon="1.66469">
        <ele>302.4</ele>
        <time>2022-05-07T14:15:29Z</time>
      </trkpt>
      <trkpt lat="44.4983" lon="1.66467">
        <ele>302.6</ele>
        <time>2022-05-07T14:15:30Z</time>
      </trkpt>
      <trkpt lat="44.49829" lon="1.66465">
        <ele>302.8</ele>
        <time>2022-05-07T14:15:31Z</time>
      </trkpt>
      <trkpt lat="44.49828" lon="1.66464">
        <ele>303</ele>
        <time>2022-05-07T14:15:32Z</time>
      </trkpt>
      <trkpt lat="44.49828" lon="1.66462">
        <ele>303.2</ele>
        <time>2022-05-07T14:15:33Z</time>
      </trkpt>
      <trkpt lat="44.49827" lon="1.6646">
        <ele>303.4</ele>
        <time>2022-05-07T14:15:34Z</time>
      </trkpt>
      <trkpt lat="44.49827" lon="1.66458">
        <ele>303.5</ele>
        <time>2022-05-07T14:15:35Z</time>
      </trkpt>
      <trkpt lat="44.49826" lon="1.66456">
        <ele>303.7</ele>
        <time>2022-05-07T14:15:36Z</time>
      </trkpt>
      <trkpt lat="44.49826" lon="1.66454">
        <ele>303.9</ele>
        <time>2022-05-07T14:15:37Z</time>
      </trkpt>
      <trkpt lat="44.49826" lon="1.6645">
        <ele>304.2</ele>
        <time>2022-05-07T14:15:38Z</time>
      </trkpt>
      <trkpt lat="44.49825" lon="1.66448">
        <ele>304.4</ele>
        <time>2022-05-07T14:15:40Z</time>
      </trkpt>
      <trkpt lat="44.49824" lon="1.66447">
        <ele>304.5</ele>
        <time>2022-05-07T14:15:41Z</time>
      </trkpt>
      <trkpt lat="44.49824" lon="1.66445">
        <ele>304.7</ele>
        <time>2022-05-07T14:15:42Z</time>
      </trkpt>
      <trkpt lat="44.49823" lon="1.66443">
        <ele>304.9</ele>
        <time>2022-05-07T14:15:43Z</time>
      </trkpt>
      <trkpt lat="44.49823" lon="1.66441">
        <ele>305</ele>
        <time>2022-05-07T14:15:44Z</time>
      </trkpt>
      <trkpt lat="44.49822" lon="1.66437">
        <ele>305.4</ele>
        <time>2022-05-07T14:15:46Z</time>
      </trkpt>
      <trkpt lat="44.49821" lon="1.66435">
        <ele>305.5</ele>
        <time>2022-05-07T14:15:47Z</time>
      </trkpt>
      <trkpt lat="44.49821" lon="1.66434">
        <ele>305.7</ele>
        <time>2022-05-07T14:15:48Z</time>
      </trkpt>
      <trkpt lat="44.4982" lon="1.66432">
        <ele>305.8</ele>
        <time>2022-05-07T14:15:49Z</time>
      </trkpt>
      <trkpt lat="44.49819" lon="1.6643">
        <ele>306</ele>
        <time>2022-05-07T14:15:50Z</time>
      </trkpt>
      <trkpt lat="44.49818" lon="1.66427">
        <ele>306.2</ele>
        <time>2022-05-07T14:15:52Z</time>
      </trkpt>
      <trkpt lat="44.49817" lon="1.66425">
        <ele>306.4</ele>
        <time>2022-05-07T14:15:53Z</time>
      </trkpt>
      <trkpt lat="44.49817" lon="1.66424">
        <ele>306.6</ele>
        <time>2022-05-07T14:15:54Z</time>
      </trkpt>
      <trkpt lat="44.49816" lon="1.66422">
        <ele>306.7</ele>
        <time>2022-05-07T14:15:55Z</time>
      </trkpt>
      <trkpt lat="44.49815" lon="1.6642">
        <ele>306.8</ele>
        <time>2022-05-07T14:15:56Z</time>
      </trkpt>
      <trkpt lat="44.49815" lon="1.66418">
        <ele>307</ele>
        <time>2022-05-07T14:15:58Z</time>
      </trkpt>
      <trkpt lat="44.49815" lon="1.66415">
        <ele>307.1</ele>
        <time>2022-05-07T14:15:59Z</time>
      </trkpt>
      <trkpt lat="44.49813" lon="1.66412">
        <ele>307.3</ele>
        <time>2022-05-07T14:16:00Z</time>
      </trkpt>
      <trkpt lat="44.49813" lon="1.66411">
        <ele>307.4</ele>
        <time>2022-05-07T14:16:01Z</time>
      </trkpt>
      <trkpt lat="44.49812" lon="1.66409">
        <ele>307.5</ele>
        <time>2022-05-07T14:16:02Z</time>
      </trkpt>
      <trkpt lat="44.49812" lon="1.66408">
        <ele>307.6</ele>
        <time>2022-05-07T14:16:03Z</time>
      </trkpt>
      <trkpt lat="44.49812" lon="1.66406">
        <ele>307.6</ele>
        <time>2022-05-07T14:16:04Z</time>
      </trkpt>
      <trkpt lat="44.49811" lon="1.66404">
        <ele>307.7</ele>
        <time>2022-05-07T14:16:05Z</time>
      </trkpt>
      <trkpt lat="44.49811" lon="1.66402">
        <ele>307.8</ele>
        <time>2022-05-07T14:16:06Z</time>
      </trkpt>
      <trkpt lat="44.4981" lon="1.664">
        <ele>307.9</ele>
        <time>2022-05-07T14:16:07Z</time>
      </trkpt>
      <trkpt lat="44.49809" lon="1.66398">
        <ele>308</ele>
        <time>2022-05-07T14:16:08Z</time>
      </trkpt>
      <trkpt lat="44.49809" lon="1.66397">
        <ele>308</ele>
        <time>2022-05-07T14:16:09Z</time>
      </trkpt>
      <trkpt lat="44.49808" lon="1.66393">
        <ele>308.1</ele>
        <time>2022-05-07T14:16:11Z</time>
      </trkpt>
      <trkpt lat="44.49807" lon="1.66392">
        <ele>308.2</ele>
        <time>2022-05-07T14:16:12Z</time>
      </trkpt>
      <trkpt lat="44.49806" lon="1.6639">
        <ele>308.3</ele>
        <time>2022-05-07T14:16:14Z</time>
      </trkpt>
      <trkpt lat="44.49804" lon="1.66389">
        <ele>308.4</ele>
        <time>2022-05-07T14:16:15Z</time>
      </trkpt>
      <trkpt lat="44.49804" lon="1.66388">
        <ele>308.4</ele>
        <time>2022-05-07T14:16:16Z</time>
      </trkpt>
      <trkpt lat="44.49804" lon="1.66388">
        <ele>308.4</ele>
        <time>2022-05-07T14:16:18Z</time>
      </trkpt>
      <trkpt lat="44.49804" lon="1.66388">
        <ele>308.5</ele>
        <time>2022-05-07T14:16:19Z</time>
      </trkpt>
      <trkpt lat="44.49803" lon="1.66388">
        <ele>308.5</ele>
        <time>2022-05-07T14:16:20Z</time>
      </trkpt>
      <trkpt lat="44.49803" lon="1.66388">
        <ele>308.5</ele>
        <time>2022-05-07T14:16:21Z</time>
      </trkpt>
      <trkpt lat="44.49803" lon="1.66388">
        <ele>308.5</ele>
        <time>2022-05-07T14:16:22Z</time>
      </trkpt>
      <trkpt lat="44.49803" lon="1.66388">
        <ele>308.5</ele>
        <time>2022-05-07T14:16:23Z</time>
      </trkpt>
      <trkpt lat="44.49803" lon="1.66388">
        <ele>308.5</ele>
        <time>2022-05-07T14:16:24Z</time>
      </trkpt>
      <trkpt lat="44.49803" lon="1.66388">
        <ele>308.5</ele>
        <time>2022-05-07T14:16:25Z</time>
      </trkpt>
      <trkpt lat="44.49806" lon="1.66393">
        <ele>308.7</ele>
        <time>2022-05-07T14:19:18Z</time>
      </trkpt>
      <trkpt lat="44.49806" lon="1.66393">
        <ele>308.7</ele>
        <time>2022-05-07T14:19:19Z</time>
      </trkpt>
      <trkpt lat="44.49806" lon="1.66393">
        <ele>308.7</ele>
        <time>2022-05-07T14:19:20Z</time>
      </trkpt>
      <trkpt lat="44.49806" lon="1.66393">
        <ele>308.7</ele>
        <time>2022-05-07T14:19:21Z</time>
      </trkpt>
      <trkpt lat="44.49806" lon="1.66393">
        <ele>308.7</ele>
        <time>2022-05-07T14:19:22Z</time>
      </trkpt>
      <trkpt lat="44.49806" lon="1.66394">
        <ele>308.7</ele>
        <time>2022-05-07T14:19:23Z</time>
      </trkpt>
      <trkpt lat="44.49806" lon="1.66394">
        <ele>308.7</ele>
        <time>2022-05-07T14:19:24Z</time>
      </trkpt>
      <trkpt lat="44.49806" lon="1.66394">
        <ele>308.7</ele>
        <time>2022-05-07T14:19:25Z</time>
      </trkpt>
      <trkpt lat="44.49806" lon="1.66394">
        <ele>308.7</ele>
        <time>2022-05-07T14:19:26Z</time>
      </trkpt>
      <trkpt lat="44.49806" lon="1.66394">
        <ele>308.7</ele>
        <time>2022-05-07T14:19:27Z</time>
      </trkpt>
      <trkpt lat="44.49806" lon="1.66394">
        <ele>308.7</ele>
        <time>2022-05-07T14:19:28Z</time>
      </trkpt>
      <trkpt lat="44.49806" lon="1.66381">
        <ele>308.9</ele>
        <time>2022-05-07T14:24:56Z</time>
      </trkpt>
      <trkpt lat="44.49808" lon="1.66375">
        <ele>309</ele>
        <time>2022-05-07T14:24:58Z</time>
      </trkpt>
      <trkpt lat="44.49807" lon="1.66371">
        <ele>309</ele>
        <time>2022-05-07T14:24:59Z</time>
      </trkpt>
      <trkpt lat="44.49807" lon="1.66365">
        <ele>309.1</ele>
        <time>2022-05-07T14:25:00Z</time>
      </trkpt>
      <trkpt lat="44.49807" lon="1.66359">
        <ele>309.1</ele>
        <time>2022-05-07T14:25:01Z</time>
      </trkpt>
      <trkpt lat="44.49807" lon="1.66355">
        <ele>309.1</ele>
        <time>2022-05-07T14:25:02Z</time>
      </trkpt>
      <trkpt lat="44.49808" lon="1.66348">
        <ele>309</ele>
        <time>2022-05-07T14:25:04Z</time>
      </trkpt>
      <trkpt lat="44.49808" lon="1.66342">
        <ele>309</ele>
        <time>2022-05-07T14:25:05Z</time>
      </trkpt>
      <trkpt lat="44.49808" lon="1.66335">
        <ele>309</ele>
        <time>2022-05-07T14:25:06Z</time>
      </trkpt>
      <trkpt lat="44.49808" lon="1.6633">
        <ele>309</ele>
        <time>2022-05-07T14:25:07Z</time>
      </trkpt>
      <trkpt lat="44.49808" lon="1.66326">
        <ele>309</ele>
        <time>2022-05-07T14:25:08Z</time>
      </trkpt>
      <trkpt lat="44.49809" lon="1.66322">
        <ele>308.9</ele>
        <time>2022-05-07T14:25:09Z</time>
      </trkpt>
      <trkpt lat="44.49809" lon="1.66318">
        <ele>308.9</ele>
        <time>2022-05-07T14:25:10Z</time>
      </trkpt>
      <trkpt lat="44.4981" lon="1.66314">
        <ele>308.8</ele>
        <time>2022-05-07T14:25:11Z</time>
      </trkpt>
      <trkpt lat="44.4981" lon="1.66309">
        <ele>308.8</ele>
        <time>2022-05-07T14:25:12Z</time>
      </trkpt>
      <trkpt lat="44.4981" lon="1.66305">
        <ele>308.7</ele>
        <time>2022-05-07T14:25:13Z</time>
      </trkpt>
      <trkpt lat="44.4981" lon="1.66301">
        <ele>308.7</ele>
        <time>2022-05-07T14:25:14Z</time>
      </trkpt>
      <trkpt lat="44.49811" lon="1.66297">
        <ele>308.7</ele>
        <time>2022-05-07T14:25:16Z</time>
      </trkpt>
      <trkpt lat="44.49811" lon="1.66292">
        <ele>308.7</ele>
        <time>2022-05-07T14:25:17Z</time>
      </trkpt>
      <trkpt lat="44.49811" lon="1.66289">
        <ele>308.6</ele>
        <time>2022-05-07T14:25:18Z</time>
      </trkpt>
      <trkpt lat="44.49811" lon="1.66282">
        <ele>308.6</ele>
        <time>2022-05-07T14:25:19Z</time>
      </trkpt>
      <trkpt lat="44.49812" lon="1.66277">
        <ele>308.5</ele>
        <time>2022-05-07T14:25:20Z</time>
      </trkpt>
      <trkpt lat="44.49811" lon="1.66272">
        <ele>308.4</ele>
        <time>2022-05-07T14:25:22Z</time>
      </trkpt>
      <trkpt lat="44.49811" lon="1.66266">
        <ele>308.4</ele>
        <time>2022-05-07T14:25:23Z</time>
      </trkpt>
      <trkpt lat="44.49811" lon="1.66261">
        <ele>308.3</ele>
        <time>2022-05-07T14:25:24Z</time>
      </trkpt>
      <trkpt lat="44.49811" lon="1.66255">
        <ele>308.3</ele>
        <time>2022-05-07T14:25:26Z</time>
      </trkpt>
      <trkpt lat="44.49811" lon="1.66251">
        <ele>308.3</ele>
        <time>2022-05-07T14:25:27Z</time>
      </trkpt>
      <trkpt lat="44.49812" lon="1.66246">
        <ele>308.2</ele>
        <time>2022-05-07T14:25:28Z</time>
      </trkpt>
      <trkpt lat="44.49812" lon="1.66244">
        <ele>308.2</ele>
        <time>2022-05-07T14:25:29Z</time>
      </trkpt>
      <trkpt lat="44.49812" lon="1.66237">
        <ele>308.2</ele>
        <time>2022-05-07T14:25:31Z</time>
      </trkpt>
      <trkpt lat="44.49811" lon="1.66232">
        <ele>308.2</ele>
        <time>2022-05-07T14:25:32Z</time>
      </trkpt>
      <trkpt lat="44.49812" lon="1.66228">
        <ele>308.1</ele>
        <time>2022-05-07T14:25:33Z</time>
      </trkpt>
      <trkpt lat="44.49813" lon="1.66224">
        <ele>308.1</ele>
        <time>2022-05-07T14:25:35Z</time>
      </trkpt>
      <trkpt lat="44.49813" lon="1.6622">
        <ele>308.1</ele>
        <time>2022-05-07T14:25:36Z</time>
      </trkpt>
      <trkpt lat="44.49813" lon="1.66215">
        <ele>308.1</ele>
        <time>2022-05-07T14:25:37Z</time>
      </trkpt>
      <trkpt lat="44.49813" lon="1.66211">
        <ele>308</ele>
        <time>2022-05-07T14:25:38Z</time>
      </trkpt>
      <trkpt lat="44.49814" lon="1.66207">
        <ele>308</ele>
        <time>2022-05-07T14:25:39Z</time>
      </trkpt>
      <trkpt lat="44.49814" lon="1.66203">
        <ele>308</ele>
        <time>2022-05-07T14:25:40Z</time>
      </trkpt>
      <trkpt lat="44.49814" lon="1.66196">
        <ele>307.9</ele>
        <time>2022-05-07T14:25:42Z</time>
      </trkpt>
      <trkpt lat="44.49814" lon="1.6619">
        <ele>307.9</ele>
        <time>2022-05-07T14:25:43Z</time>
      </trkpt>
      <trkpt lat="44.49814" lon="1.66185">
        <ele>307.9</ele>
        <time>2022-05-07T14:25:44Z</time>
      </trkpt>
      <trkpt lat="44.49814" lon="1.6618">
        <ele>307.9</ele>
        <time>2022-05-07T14:25:45Z</time>
      </trkpt>
      <trkpt lat="44.49815" lon="1.66175">
        <ele>307.9</ele>
        <time>2022-05-07T14:25:46Z</time>
      </trkpt>
      <trkpt lat="44.49815" lon="1.66172">
        <ele>308</ele>
        <time>2022-05-07T14:25:47Z</time>
      </trkpt>
      <trkpt lat="44.49815" lon="1.66168">
        <ele>308</ele>
        <time>2022-05-07T14:25:48Z</time>
      </trkpt>
      <trkpt lat="44.49816" lon="1.66162">
        <ele>308</ele>
        <time>2022-05-07T14:25:49Z</time>
      </trkpt>
      <trkpt lat="44.49816" lon="1.66154">
        <ele>308</ele>
        <time>2022-05-07T14:25:51Z</time>
      </trkpt>
      <trkpt lat="44.49816" lon="1.66148">
        <ele>308.1</ele>
        <time>2022-05-07T14:25:52Z</time>
      </trkpt>
      <trkpt lat="44.49817" lon="1.66143">
        <ele>308.1</ele>
        <time>2022-05-07T14:25:53Z</time>
      </trkpt>
      <trkpt lat="44.49817" lon="1.66138">
        <ele>308.1</ele>
        <time>2022-05-07T14:25:54Z</time>
      </trkpt>
      <trkpt lat="44.49817" lon="1.66134">
        <ele>308.1</ele>
        <time>2022-05-07T14:25:55Z</time>
      </trkpt>
      <trkpt lat="44.49817" lon="1.66128">
        <ele>308.2</ele>
        <time>2022-05-07T14:25:56Z</time>
      </trkpt>
      <trkpt lat="44.49818" lon="1.66123">
        <ele>308.2</ele>
        <time>2022-05-07T14:25:57Z</time>
      </trkpt>
      <trkpt lat="44.49818" lon="1.66118">
        <ele>308.2</ele>
        <time>2022-05-07T14:25:58Z</time>
      </trkpt>
      <trkpt lat="44.49819" lon="1.66113">
        <ele>308.3</ele>
        <time>2022-05-07T14:25:59Z</time>
      </trkpt>
      <trkpt lat="44.49819" lon="1.66108">
        <ele>308.3</ele>
        <time>2022-05-07T14:26:00Z</time>
      </trkpt>
      <trkpt lat="44.4982" lon="1.66105">
        <ele>308.3</ele>
        <time>2022-05-07T14:26:01Z</time>
      </trkpt>
      <trkpt lat="44.4982" lon="1.66101">
        <ele>308.3</ele>
        <time>2022-05-07T14:26:02Z</time>
      </trkpt>
      <trkpt lat="44.4982" lon="1.66096">
        <ele>308.3</ele>
        <time>2022-05-07T14:26:03Z</time>
      </trkpt>
      <trkpt lat="44.4982" lon="1.66092">
        <ele>308.3</ele>
        <time>2022-05-07T14:26:04Z</time>
      </trkpt>
      <trkpt lat="44.4982" lon="1.66087">
        <ele>308.2</ele>
        <time>2022-05-07T14:26:05Z</time>
      </trkpt>
      <trkpt lat="44.49818" lon="1.66081">
        <ele>308.2</ele>
        <time>2022-05-07T14:26:07Z</time>
      </trkpt>
      <trkpt lat="44.49818" lon="1.66079">
        <ele>308.2</ele>
        <time>2022-05-07T14:26:08Z</time>
      </trkpt>
      <trkpt lat="44.49818" lon="1.66075">
        <ele>308.1</ele>
        <time>2022-05-07T14:26:09Z</time>
      </trkpt>
      <trkpt lat="44.49817" lon="1.6607">
        <ele>308.1</ele>
        <time>2022-05-07T14:26:10Z</time>
      </trkpt>
      <trkpt lat="44.49814" lon="1.66062">
        <ele>308</ele>
        <time>2022-05-07T14:26:11Z</time>
      </trkpt>
      <trkpt lat="44.49812" lon="1.66059">
        <ele>308</ele>
        <time>2022-05-07T14:26:12Z</time>
      </trkpt>
      <trkpt lat="44.49808" lon="1.66057">
        <ele>307.9</ele>
        <time>2022-05-07T14:26:13Z</time>
      </trkpt>
      <trkpt lat="44.49805" lon="1.66057">
        <ele>307.9</ele>
        <time>2022-05-07T14:26:14Z</time>
      </trkpt>
      <trkpt lat="44.49799" lon="1.66057">
        <ele>307.8</ele>
        <time>2022-05-07T14:26:16Z</time>
      </trkpt>
      <trkpt lat="44.49793" lon="1.66056">
        <ele>307.7</ele>
        <time>2022-05-07T14:26:17Z</time>
      </trkpt>
      <trkpt lat="44.49791" lon="1.66057">
        <ele>307.7</ele>
        <time>2022-05-07T14:26:18Z</time>
      </trkpt>
      <trkpt lat="44.49787" lon="1.66056">
        <ele>307.6</ele>
        <time>2022-05-07T14:26:20Z</time>
      </trkpt>
      <trkpt lat="44.49783" lon="1.66057">
        <ele>307.5</ele>
        <time>2022-05-07T14:26:21Z</time>
      </trkpt>
      <trkpt lat="44.49779" lon="1.66058">
        <ele>307.4</ele>
        <time>2022-05-07T14:26:22Z</time>
      </trkpt>
      <trkpt lat="44.49774" lon="1.6606">
        <ele>307.3</ele>
        <time>2022-05-07T14:26:23Z</time>
      </trkpt>
      <trkpt lat="44.4977" lon="1.66059">
        <ele>307.2</ele>
        <time>2022-05-07T14:26:24Z</time>
      </trkpt>
      <trkpt lat="44.49766" lon="1.6606">
        <ele>307.1</ele>
        <time>2022-05-07T14:26:26Z</time>
      </trkpt>
      <trkpt lat="44.4976" lon="1.66061">
        <ele>306.8</ele>
        <time>2022-05-07T14:26:27Z</time>
      </trkpt>
      <trkpt lat="44.49756" lon="1.66061">
        <ele>306.6</ele>
        <time>2022-05-07T14:26:28Z</time>
      </trkpt>
      <trkpt lat="44.49751" lon="1.66061">
        <ele>306.4</ele>
        <time>2022-05-07T14:26:29Z</time>
      </trkpt>
      <trkpt lat="44.49747" lon="1.66061">
        <ele>306.3</ele>
        <time>2022-05-07T14:26:30Z</time>
      </trkpt>
      <trkpt lat="44.49742" lon="1.6606">
        <ele>306.2</ele>
        <time>2022-05-07T14:26:32Z</time>
      </trkpt>
      <trkpt lat="44.49736" lon="1.6606">
        <ele>306</ele>
        <time>2022-05-07T14:26:33Z</time>
      </trkpt>
      <trkpt lat="44.49731" lon="1.6606">
        <ele>305.9</ele>
        <time>2022-05-07T14:26:34Z</time>
      </trkpt>
      <trkpt lat="44.49727" lon="1.6606">
        <ele>305.8</ele>
        <time>2022-05-07T14:26:35Z</time>
      </trkpt>
      <trkpt lat="44.49724" lon="1.66061">
        <ele>305.8</ele>
        <time>2022-05-07T14:26:36Z</time>
      </trkpt>
      <trkpt lat="44.49719" lon="1.6606">
        <ele>305.7</ele>
        <time>2022-05-07T14:26:37Z</time>
      </trkpt>
      <trkpt lat="44.49714" lon="1.6606">
        <ele>305.7</ele>
        <time>2022-05-07T14:26:39Z</time>
      </trkpt>
      <trkpt lat="44.4971" lon="1.6606">
        <ele>305.8</ele>
        <time>2022-05-07T14:26:40Z</time>
      </trkpt>
      <trkpt lat="44.49705" lon="1.6606">
        <ele>305.9</ele>
        <time>2022-05-07T14:26:41Z</time>
      </trkpt>
      <trkpt lat="44.49701" lon="1.6606">
        <ele>306</ele>
        <time>2022-05-07T14:26:42Z</time>
      </trkpt>
      <trkpt lat="44.49696" lon="1.66059">
        <ele>306.2</ele>
        <time>2022-05-07T14:26:43Z</time>
      </trkpt>
      <trkpt lat="44.49694" lon="1.66059">
        <ele>306.3</ele>
        <time>2022-05-07T14:26:44Z</time>
      </trkpt>
      <trkpt lat="44.49692" lon="1.6606">
        <ele>306.4</ele>
        <time>2022-05-07T14:26:45Z</time>
      </trkpt>
      <trkpt lat="44.49687" lon="1.6606">
        <ele>306.5</ele>
        <time>2022-05-07T14:26:47Z</time>
      </trkpt>
      <trkpt lat="44.49684" lon="1.6606">
        <ele>306.6</ele>
        <time>2022-05-07T14:26:48Z</time>
      </trkpt>
      <trkpt lat="44.49679" lon="1.6606">
        <ele>306.7</ele>
        <time>2022-05-07T14:26:49Z</time>
      </trkpt>
      <trkpt lat="44.49677" lon="1.6606">
        <ele>306.7</ele>
        <time>2022-05-07T14:26:50Z</time>
      </trkpt>
      <trkpt lat="44.4967" lon="1.6606">
        <ele>306.8</ele>
        <time>2022-05-07T14:26:52Z</time>
      </trkpt>
      <trkpt lat="44.49665" lon="1.66059">
        <ele>306.8</ele>
        <time>2022-05-07T14:26:53Z</time>
      </trkpt>
      <trkpt lat="44.49662" lon="1.66059">
        <ele>306.9</ele>
        <time>2022-05-07T14:26:54Z</time>
      </trkpt>
      <trkpt lat="44.49658" lon="1.66059">
        <ele>307</ele>
        <time>2022-05-07T14:26:55Z</time>
      </trkpt>
      <trkpt lat="44.49655" lon="1.66059">
        <ele>307.1</ele>
        <time>2022-05-07T14:26:56Z</time>
      </trkpt>
      <trkpt lat="44.49652" lon="1.66059">
        <ele>307.2</ele>
        <time>2022-05-07T14:26:57Z</time>
      </trkpt>
      <trkpt lat="44.49647" lon="1.6606">
        <ele>307.3</ele>
        <time>2022-05-07T14:26:59Z</time>
      </trkpt>
      <trkpt lat="44.49641" lon="1.66059">
        <ele>307.5</ele>
        <time>2022-05-07T14:27:00Z</time>
      </trkpt>
      <trkpt lat="44.49638" lon="1.6606">
        <ele>307.6</ele>
        <time>2022-05-07T14:27:01Z</time>
      </trkpt>
      <trkpt lat="44.49635" lon="1.6606">
        <ele>307.7</ele>
        <time>2022-05-07T14:27:02Z</time>
      </trkpt>
      <trkpt lat="44.49631" lon="1.6606">
        <ele>307.9</ele>
        <time>2022-05-07T14:27:04Z</time>
      </trkpt>
      <trkpt lat="44.49629" lon="1.6606">
        <ele>307.9</ele>
        <time>2022-05-07T14:27:05Z</time>
      </trkpt>
      <trkpt lat="44.49625" lon="1.6606">
        <ele>308</ele>
        <time>2022-05-07T14:27:06Z</time>
      </trkpt>
      <trkpt lat="44.49622" lon="1.66061">
        <ele>308.1</ele>
        <time>2022-05-07T14:27:07Z</time>
      </trkpt>
      <trkpt lat="44.49617" lon="1.6606">
        <ele>308.2</ele>
        <time>2022-05-07T14:27:08Z</time>
      </trkpt>
      <trkpt lat="44.49616" lon="1.6606">
        <ele>308.2</ele>
        <time>2022-05-07T14:27:09Z</time>
      </trkpt>
      <trkpt lat="44.49612" lon="1.66061">
        <ele>308.3</ele>
        <time>2022-05-07T14:27:11Z</time>
      </trkpt>
      <trkpt lat="44.49608" lon="1.6606">
        <ele>308.3</ele>
        <time>2022-05-07T14:27:12Z</time>
      </trkpt>
      <trkpt lat="44.49603" lon="1.66061">
        <ele>308.3</ele>
        <time>2022-05-07T14:27:13Z</time>
      </trkpt>
      <trkpt lat="44.496" lon="1.66061">
        <ele>308.2</ele>
        <time>2022-05-07T14:27:14Z</time>
      </trkpt>
      <trkpt lat="44.49597" lon="1.66061">
        <ele>308.2</ele>
        <time>2022-05-07T14:27:15Z</time>
      </trkpt>
      <trkpt lat="44.49594" lon="1.66061">
        <ele>308.1</ele>
        <time>2022-05-07T14:27:17Z</time>
      </trkpt>
      <trkpt lat="44.49591" lon="1.66061">
        <ele>307.9</ele>
        <time>2022-05-07T14:27:18Z</time>
      </trkpt>
      <trkpt lat="44.49586" lon="1.66061">
        <ele>307.7</ele>
        <time>2022-05-07T14:27:19Z</time>
      </trkpt>
      <trkpt lat="44.49583" lon="1.66062">
        <ele>307.5</ele>
        <time>2022-05-07T14:27:20Z</time>
      </trkpt>
      <trkpt lat="44.49577" lon="1.66063">
        <ele>307.1</ele>
        <time>2022-05-07T14:27:22Z</time>
      </trkpt>
      <trkpt lat="44.49573" lon="1.66062">
        <ele>306.9</ele>
        <time>2022-05-07T14:27:24Z</time>
      </trkpt>
      <trkpt lat="44.49569" lon="1.66061">
        <ele>306.7</ele>
        <time>2022-05-07T14:27:25Z</time>
      </trkpt>
      <trkpt lat="44.49565" lon="1.66061">
        <ele>306.6</ele>
        <time>2022-05-07T14:27:26Z</time>
      </trkpt>
      <trkpt lat="44.49559" lon="1.66061">
        <ele>306.4</ele>
        <time>2022-05-07T14:27:27Z</time>
      </trkpt>
      <trkpt lat="44.49554" lon="1.66062">
        <ele>306.2</ele>
        <time>2022-05-07T14:27:28Z</time>
      </trkpt>
      <trkpt lat="44.4955" lon="1.66061">
        <ele>306.1</ele>
        <time>2022-05-07T14:27:30Z</time>
      </trkpt>
      <trkpt lat="44.49543" lon="1.6606">
        <ele>305.8</ele>
        <time>2022-05-07T14:27:31Z</time>
      </trkpt>
      <trkpt lat="44.49532" lon="1.66059">
        <ele>305.3</ele>
        <time>2022-05-07T14:27:33Z</time>
      </trkpt>
      <trkpt lat="44.49527" lon="1.6606">
        <ele>305</ele>
        <time>2022-05-07T14:27:34Z</time>
      </trkpt>
      <trkpt lat="44.49523" lon="1.6606">
        <ele>304.8</ele>
        <time>2022-05-07T14:27:35Z</time>
      </trkpt>
      <trkpt lat="44.49518" lon="1.6606">
        <ele>304.5</ele>
        <time>2022-05-07T14:27:36Z</time>
      </trkpt>
      <trkpt lat="44.49513" lon="1.6606">
        <ele>304.1</ele>
        <time>2022-05-07T14:27:37Z</time>
      </trkpt>
      <trkpt lat="44.49508" lon="1.6606">
        <ele>303.7</ele>
        <time>2022-05-07T14:27:38Z</time>
      </trkpt>
      <trkpt lat="44.49503" lon="1.6606">
        <ele>303.5</ele>
        <time>2022-05-07T14:27:39Z</time>
      </trkpt>
      <trkpt lat="44.49498" lon="1.66059">
        <ele>303.2</ele>
        <time>2022-05-07T14:27:40Z</time>
      </trkpt>
      <trkpt lat="44.49493" lon="1.66059">
        <ele>303.1</ele>
        <time>2022-05-07T14:27:41Z</time>
      </trkpt>
      <trkpt lat="44.49488" lon="1.66059">
        <ele>302.9</ele>
        <time>2022-05-07T14:27:42Z</time>
      </trkpt>
      <trkpt lat="44.49482" lon="1.6606">
        <ele>302.7</ele>
        <time>2022-05-07T14:27:43Z</time>
      </trkpt>
      <trkpt lat="44.49476" lon="1.6606">
        <ele>302.5</ele>
        <time>2022-05-07T14:27:44Z</time>
      </trkpt>
      <trkpt lat="44.49471" lon="1.66061">
        <ele>302.4</ele>
        <time>2022-05-07T14:27:45Z</time>
      </trkpt>
      <trkpt lat="44.49465" lon="1.66061">
        <ele>302.4</ele>
        <time>2022-05-07T14:27:46Z</time>
      </trkpt>
      <trkpt lat="44.4946" lon="1.66061">
        <ele>302.5</ele>
        <time>2022-05-07T14:27:47Z</time>
      </trkpt>
      <trkpt lat="44.49454" lon="1.66061">
        <ele>302.5</ele>
        <time>2022-05-07T14:27:48Z</time>
      </trkpt>
      <trkpt lat="44.49449" lon="1.66061">
        <ele>302.6</ele>
        <time>2022-05-07T14:27:49Z</time>
      </trkpt>
      <trkpt lat="44.49444" lon="1.66061">
        <ele>302.6</ele>
        <time>2022-05-07T14:27:50Z</time>
      </trkpt>
      <trkpt lat="44.49439" lon="1.66061">
        <ele>302.6</ele>
        <time>2022-05-07T14:27:51Z</time>
      </trkpt>
      <trkpt lat="44.49435" lon="1.66061">
        <ele>302.6</ele>
        <time>2022-05-07T14:27:52Z</time>
      </trkpt>
      <trkpt lat="44.49431" lon="1.66061">
        <ele>302.7</ele>
        <time>2022-05-07T14:27:53Z</time>
      </trkpt>
      <trkpt lat="44.49429" lon="1.66061">
        <ele>302.7</ele>
        <time>2022-05-07T14:27:54Z</time>
      </trkpt>
      <trkpt lat="44.49425" lon="1.66062">
        <ele>302.8</ele>
        <time>2022-05-07T14:27:55Z</time>
      </trkpt>
      <trkpt lat="44.4942" lon="1.66062">
        <ele>302.9</ele>
        <time>2022-05-07T14:27:56Z</time>
      </trkpt>
      <trkpt lat="44.49415" lon="1.66062">
        <ele>303.1</ele>
        <time>2022-05-07T14:27:57Z</time>
      </trkpt>
      <trkpt lat="44.49412" lon="1.66062">
        <ele>303.2</ele>
        <time>2022-05-07T14:27:58Z</time>
      </trkpt>
      <trkpt lat="44.49409" lon="1.66061">
        <ele>303.3</ele>
        <time>2022-05-07T14:27:59Z</time>
      </trkpt>
      <trkpt lat="44.49405" lon="1.66061">
        <ele>303.5</ele>
        <time>2022-05-07T14:28:00Z</time>
      </trkpt>
      <trkpt lat="44.49399" lon="1.66062">
        <ele>303.8</ele>
        <time>2022-05-07T14:28:02Z</time>
      </trkpt>
      <trkpt lat="44.49393" lon="1.66063">
        <ele>304.1</ele>
        <time>2022-05-07T14:28:03Z</time>
      </trkpt>
      <trkpt lat="44.4939" lon="1.66063">
        <ele>304.2</ele>
        <time>2022-05-07T14:28:04Z</time>
      </trkpt>
      <trkpt lat="44.49385" lon="1.66063">
        <ele>304.4</ele>
        <time>2022-05-07T14:28:06Z</time>
      </trkpt>
      <trkpt lat="44.4938" lon="1.66063">
        <ele>304.5</ele>
        <time>2022-05-07T14:28:07Z</time>
      </trkpt>
      <trkpt lat="44.49376" lon="1.66063">
        <ele>304.6</ele>
        <time>2022-05-07T14:28:08Z</time>
      </trkpt>
      <trkpt lat="44.49373" lon="1.66063">
        <ele>304.8</ele>
        <time>2022-05-07T14:28:09Z</time>
      </trkpt>
      <trkpt lat="44.49369" lon="1.66063">
        <ele>304.9</ele>
        <time>2022-05-07T14:28:10Z</time>
      </trkpt>
      <trkpt lat="44.49365" lon="1.66062">
        <ele>305.1</ele>
        <time>2022-05-07T14:28:11Z</time>
      </trkpt>
      <trkpt lat="44.49363" lon="1.66062">
        <ele>305.2</ele>
        <time>2022-05-07T14:28:12Z</time>
      </trkpt>
      <trkpt lat="44.4936" lon="1.66062">
        <ele>305.4</ele>
        <time>2022-05-07T14:28:13Z</time>
      </trkpt>
      <trkpt lat="44.49357" lon="1.66062">
        <ele>305.5</ele>
        <time>2022-05-07T14:28:14Z</time>
      </trkpt>
      <trkpt lat="44.49354" lon="1.66062">
        <ele>305.6</ele>
        <time>2022-05-07T14:28:15Z</time>
      </trkpt>
      <trkpt lat="44.4935" lon="1.66062">
        <ele>305.8</ele>
        <time>2022-05-07T14:28:16Z</time>
      </trkpt>
      <trkpt lat="44.49349" lon="1.66062">
        <ele>305.8</ele>
        <time>2022-05-07T14:28:17Z</time>
      </trkpt>
      <trkpt lat="44.49345" lon="1.6606">
        <ele>306</ele>
        <time>2022-05-07T14:28:19Z</time>
      </trkpt>
      <trkpt lat="44.49344" lon="1.6606">
        <ele>306</ele>
        <time>2022-05-07T14:28:20Z</time>
      </trkpt>
      <trkpt lat="44.49342" lon="1.6606">
        <ele>306</ele>
        <time>2022-05-07T14:28:21Z</time>
      </trkpt>
      <trkpt lat="44.49338" lon="1.6606">
        <ele>306.1</ele>
        <time>2022-05-07T14:28:22Z</time>
      </trkpt>
      <trkpt lat="44.49337" lon="1.6606">
        <ele>306.1</ele>
        <time>2022-05-07T14:28:23Z</time>
      </trkpt>
      <trkpt lat="44.49334" lon="1.6606">
        <ele>306.1</ele>
        <time>2022-05-07T14:28:25Z</time>
      </trkpt>
      <trkpt lat="44.4933" lon="1.66061">
        <ele>306.1</ele>
        <time>2022-05-07T14:28:26Z</time>
      </trkpt>
      <trkpt lat="44.49326" lon="1.66061">
        <ele>306.1</ele>
        <time>2022-05-07T14:28:27Z</time>
      </trkpt>
      <trkpt lat="44.49323" lon="1.66062">
        <ele>306.1</ele>
        <time>2022-05-07T14:28:29Z</time>
      </trkpt>
      <trkpt lat="44.49319" lon="1.66061">
        <ele>306.1</ele>
        <time>2022-05-07T14:28:30Z</time>
      </trkpt>
      <trkpt lat="44.49316" lon="1.66061">
        <ele>306.2</ele>
        <time>2022-05-07T14:28:32Z</time>
      </trkpt>
      <trkpt lat="44.49315" lon="1.66061">
        <ele>306.2</ele>
        <time>2022-05-07T14:28:33Z</time>
      </trkpt>
      <trkpt lat="44.49311" lon="1.66062">
        <ele>306.3</ele>
        <time>2022-05-07T14:28:34Z</time>
      </trkpt>
      <trkpt lat="44.49309" lon="1.66063">
        <ele>306.3</ele>
        <time>2022-05-07T14:28:35Z</time>
      </trkpt>
      <trkpt lat="44.49307" lon="1.66062">
        <ele>306.4</ele>
        <time>2022-05-07T14:28:36Z</time>
      </trkpt>
      <trkpt lat="44.49305" lon="1.66063">
        <ele>306.4</ele>
        <time>2022-05-07T14:28:37Z</time>
      </trkpt>
      <trkpt lat="44.49303" lon="1.66066">
        <ele>306.4</ele>
        <time>2022-05-07T14:28:39Z</time>
      </trkpt>
      <trkpt lat="44.493" lon="1.66068">
        <ele>306.5</ele>
        <time>2022-05-07T14:28:40Z</time>
      </trkpt>
      <trkpt lat="44.49297" lon="1.66071">
        <ele>306.6</ele>
        <time>2022-05-07T14:28:41Z</time>
      </trkpt>
      <trkpt lat="44.49296" lon="1.66072">
        <ele>306.6</ele>
        <time>2022-05-07T14:28:42Z</time>
      </trkpt>
      <trkpt lat="44.49294" lon="1.66075">
        <ele>306.6</ele>
        <time>2022-05-07T14:28:44Z</time>
      </trkpt>
      <trkpt lat="44.49293" lon="1.66077">
        <ele>306.6</ele>
        <time>2022-05-07T14:28:45Z</time>
      </trkpt>
      <trkpt lat="44.49291" lon="1.6608">
        <ele>306.7</ele>
        <time>2022-05-07T14:28:46Z</time>
      </trkpt>
      <trkpt lat="44.4929" lon="1.66081">
        <ele>306.7</ele>
        <time>2022-05-07T14:28:47Z</time>
      </trkpt>
      <trkpt lat="44.49289" lon="1.66085">
        <ele>306.7</ele>
        <time>2022-05-07T14:28:48Z</time>
      </trkpt>
      <trkpt lat="44.49288" lon="1.66089">
        <ele>306.7</ele>
        <time>2022-05-07T14:28:49Z</time>
      </trkpt>
      <trkpt lat="44.49287" lon="1.6609">
        <ele>306.7</ele>
        <time>2022-05-07T14:28:50Z</time>
      </trkpt>
      <trkpt lat="44.49286" lon="1.66094">
        <ele>306.7</ele>
        <time>2022-05-07T14:28:51Z</time>
      </trkpt>
      <trkpt lat="44.49286" lon="1.66096">
        <ele>306.7</ele>
        <time>2022-05-07T14:28:52Z</time>
      </trkpt>
      <trkpt lat="44.49285" lon="1.661">
        <ele>306.7</ele>
        <time>2022-05-07T14:28:53Z</time>
      </trkpt>
      <trkpt lat="44.49285" lon="1.66102">
        <ele>306.7</ele>
        <time>2022-05-07T14:28:54Z</time>
      </trkpt>
      <trkpt lat="44.49284" lon="1.66105">
        <ele>306.6</ele>
        <time>2022-05-07T14:28:55Z</time>
      </trkpt>
      <trkpt lat="44.49283" lon="1.6611">
        <ele>306.6</ele>
        <time>2022-05-07T14:28:57Z</time>
      </trkpt>
      <trkpt lat="44.49282" lon="1.66115">
        <ele>306.6</ele>
        <time>2022-05-07T14:28:58Z</time>
      </trkpt>
      <trkpt lat="44.49282" lon="1.66117">
        <ele>306.6</ele>
        <time>2022-05-07T14:28:59Z</time>
      </trkpt>
      <trkpt lat="44.49281" lon="1.66121">
        <ele>306.6</ele>
        <time>2022-05-07T14:29:00Z</time>
      </trkpt>
      <trkpt lat="44.4928" lon="1.66125">
        <ele>306.6</ele>
        <time>2022-05-07T14:29:01Z</time>
      </trkpt>
      <trkpt lat="44.4928" lon="1.66127">
        <ele>306.6</ele>
        <time>2022-05-07T14:29:02Z</time>
      </trkpt>
      <trkpt lat="44.4928" lon="1.66129">
        <ele>306.6</ele>
        <time>2022-05-07T14:29:03Z</time>
      </trkpt>
      <trkpt lat="44.49279" lon="1.66134">
        <ele>306.6</ele>
        <time>2022-05-07T14:29:05Z</time>
      </trkpt>
      <trkpt lat="44.49278" lon="1.66139">
        <ele>306.5</ele>
        <time>2022-05-07T14:29:06Z</time>
      </trkpt>
      <trkpt lat="44.49276" lon="1.66144">
        <ele>306.4</ele>
        <time>2022-05-07T14:29:07Z</time>
      </trkpt>
      <trkpt lat="44.49275" lon="1.66148">
        <ele>306.3</ele>
        <time>2022-05-07T14:29:08Z</time>
      </trkpt>
      <trkpt lat="44.49274" lon="1.66152">
        <ele>306.2</ele>
        <time>2022-05-07T14:29:10Z</time>
      </trkpt>
      <trkpt lat="44.49272" lon="1.66158">
        <ele>306.1</ele>
        <time>2022-05-07T14:29:11Z</time>
      </trkpt>
      <trkpt lat="44.4927" lon="1.66161">
        <ele>305.9</ele>
        <time>2022-05-07T14:29:12Z</time>
      </trkpt>
      <trkpt lat="44.49267" lon="1.66163">
        <ele>305.8</ele>
        <time>2022-05-07T14:29:13Z</time>
      </trkpt>
      <trkpt lat="44.49264" lon="1.66163">
        <ele>305.6</ele>
        <time>2022-05-07T14:29:14Z</time>
      </trkpt>
      <trkpt lat="44.49261" lon="1.66164">
        <ele>305.5</ele>
        <time>2022-05-07T14:29:15Z</time>
      </trkpt>
      <trkpt lat="44.49255" lon="1.66164">
        <ele>305.1</ele>
        <time>2022-05-07T14:29:17Z</time>
      </trkpt>
      <trkpt lat="44.49252" lon="1.66164">
        <ele>304.9</ele>
        <time>2022-05-07T14:29:18Z</time>
      </trkpt>
      <trkpt lat="44.49247" lon="1.66162">
        <ele>304.6</ele>
        <time>2022-05-07T14:29:19Z</time>
      </trkpt>
      <trkpt lat="44.49243" lon="1.66162">
        <ele>304.3</ele>
        <time>2022-05-07T14:29:20Z</time>
      </trkpt>
      <trkpt lat="44.49239" lon="1.66161">
        <ele>304</ele>
        <time>2022-05-07T14:29:21Z</time>
      </trkpt>
      <trkpt lat="44.49232" lon="1.66161">
        <ele>303.4</ele>
        <time>2022-05-07T14:29:23Z</time>
      </trkpt>
      <trkpt lat="44.49224" lon="1.6616">
        <ele>302.8</ele>
        <time>2022-05-07T14:29:24Z</time>
      </trkpt>
      <trkpt lat="44.4922" lon="1.66159">
        <ele>302.5</ele>
        <time>2022-05-07T14:29:25Z</time>
      </trkpt>
      <trkpt lat="44.49215" lon="1.66158">
        <ele>302.2</ele>
        <time>2022-05-07T14:29:26Z</time>
      </trkpt>
      <trkpt lat="44.4921" lon="1.66157">
        <ele>301.8</ele>
        <time>2022-05-07T14:29:27Z</time>
      </trkpt>
      <trkpt lat="44.49205" lon="1.66156">
        <ele>301.5</ele>
        <time>2022-05-07T14:29:28Z</time>
      </trkpt>
      <trkpt lat="44.49199" lon="1.66156">
        <ele>301.2</ele>
        <time>2022-05-07T14:29:29Z</time>
      </trkpt>
      <trkpt lat="44.49193" lon="1.66157">
        <ele>300.8</ele>
        <time>2022-05-07T14:29:30Z</time>
      </trkpt>
      <trkpt lat="44.49187" lon="1.66158">
        <ele>300.5</ele>
        <time>2022-05-07T14:29:31Z</time>
      </trkpt>
      <trkpt lat="44.49181" lon="1.66162">
        <ele>300.2</ele>
        <time>2022-05-07T14:29:32Z</time>
      </trkpt>
      <trkpt lat="44.49176" lon="1.66167">
        <ele>299.9</ele>
        <time>2022-05-07T14:29:33Z</time>
      </trkpt>
      <trkpt lat="44.49171" lon="1.66173">
        <ele>299.6</ele>
        <time>2022-05-07T14:29:34Z</time>
      </trkpt>
      <trkpt lat="44.49165" lon="1.66177">
        <ele>299.2</ele>
        <time>2022-05-07T14:29:35Z</time>
      </trkpt>
      <trkpt lat="44.49158" lon="1.6618">
        <ele>298.9</ele>
        <time>2022-05-07T14:29:36Z</time>
      </trkpt>
      <trkpt lat="44.49151" lon="1.6618">
        <ele>298.7</ele>
        <time>2022-05-07T14:29:37Z</time>
      </trkpt>
      <trkpt lat="44.49144" lon="1.66178">
        <ele>298.3</ele>
        <time>2022-05-07T14:29:38Z</time>
      </trkpt>
      <trkpt lat="44.49137" lon="1.66173">
        <ele>297.7</ele>
        <time>2022-05-07T14:29:39Z</time>
      </trkpt>
      <trkpt lat="44.49131" lon="1.66167">
        <ele>297.1</ele>
        <time>2022-05-07T14:29:40Z</time>
      </trkpt>
      <trkpt lat="44.49124" lon="1.66162">
        <ele>296.5</ele>
        <time>2022-05-07T14:29:41Z</time>
      </trkpt>
      <trkpt lat="44.49118" lon="1.66156">
        <ele>296.1</ele>
        <time>2022-05-07T14:29:42Z</time>
      </trkpt>
      <trkpt lat="44.49111" lon="1.66152">
        <ele>295.8</ele>
        <time>2022-05-07T14:29:43Z</time>
      </trkpt>
      <trkpt lat="44.49105" lon="1.66147">
        <ele>295.7</ele>
        <time>2022-05-07T14:29:44Z</time>
      </trkpt>
      <trkpt lat="44.49098" lon="1.66141">
        <ele>295.6</ele>
        <time>2022-05-07T14:29:45Z</time>
      </trkpt>
      <trkpt lat="44.49092" lon="1.66136">
        <ele>295.5</ele>
        <time>2022-05-07T14:29:46Z</time>
      </trkpt>
      <trkpt lat="44.49087" lon="1.66129">
        <ele>295.5</ele>
        <time>2022-05-07T14:29:47Z</time>
      </trkpt>
      <trkpt lat="44.49082" lon="1.66121">
        <ele>295.4</ele>
        <time>2022-05-07T14:29:48Z</time>
      </trkpt>
      <trkpt lat="44.49078" lon="1.66114">
        <ele>295.4</ele>
        <time>2022-05-07T14:29:49Z</time>
      </trkpt>
      <trkpt lat="44.49073" lon="1.66107">
        <ele>295.4</ele>
        <time>2022-05-07T14:29:50Z</time>
      </trkpt>
      <trkpt lat="44.49067" lon="1.66101">
        <ele>295.4</ele>
        <time>2022-05-07T14:29:51Z</time>
      </trkpt>
      <trkpt lat="44.49061" lon="1.66097">
        <ele>295.6</ele>
        <time>2022-05-07T14:29:52Z</time>
      </trkpt>
      <trkpt lat="44.49055" lon="1.66095">
        <ele>295.8</ele>
        <time>2022-05-07T14:29:53Z</time>
      </trkpt>
      <trkpt lat="44.49048" lon="1.66091">
        <ele>296.1</ele>
        <time>2022-05-07T14:29:54Z</time>
      </trkpt>
      <trkpt lat="44.49042" lon="1.66088">
        <ele>296.3</ele>
        <time>2022-05-07T14:29:55Z</time>
      </trkpt>
      <trkpt lat="44.49037" lon="1.66085">
        <ele>296.6</ele>
        <time>2022-05-07T14:29:56Z</time>
      </trkpt>
      <trkpt lat="44.49032" lon="1.66082">
        <ele>296.8</ele>
        <time>2022-05-07T14:29:57Z</time>
      </trkpt>
      <trkpt lat="44.49028" lon="1.66078">
        <ele>297</ele>
        <time>2022-05-07T14:29:58Z</time>
      </trkpt>
      <trkpt lat="44.49024" lon="1.66075">
        <ele>297.2</ele>
        <time>2022-05-07T14:29:59Z</time>
      </trkpt>
      <trkpt lat="44.49022" lon="1.66073">
        <ele>297.3</ele>
        <time>2022-05-07T14:30:00Z</time>
      </trkpt>
      <trkpt lat="44.49019" lon="1.66071">
        <ele>297.4</ele>
        <time>2022-05-07T14:30:01Z</time>
      </trkpt>
      <trkpt lat="44.49017" lon="1.66068">
        <ele>297.6</ele>
        <time>2022-05-07T14:30:02Z</time>
      </trkpt>
      <trkpt lat="44.49015" lon="1.66065">
        <ele>297.7</ele>
        <time>2022-05-07T14:30:03Z</time>
      </trkpt>
      <trkpt lat="44.49013" lon="1.66062">
        <ele>297.9</ele>
        <time>2022-05-07T14:30:04Z</time>
      </trkpt>
      <trkpt lat="44.49011" lon="1.66058">
        <ele>298.1</ele>
        <time>2022-05-07T14:30:05Z</time>
      </trkpt>
      <trkpt lat="44.49011" lon="1.66056">
        <ele>298.2</ele>
        <time>2022-05-07T14:30:06Z</time>
      </trkpt>
      <trkpt lat="44.49009" lon="1.66051">
        <ele>298.5</ele>
        <time>2022-05-07T14:30:07Z</time>
      </trkpt>
      <trkpt lat="44.49008" lon="1.66049">
        <ele>298.7</ele>
        <time>2022-05-07T14:30:08Z</time>
      </trkpt>
      <trkpt lat="44.49006" lon="1.66044">
        <ele>298.9</ele>
        <time>2022-05-07T14:30:09Z</time>
      </trkpt>
      <trkpt lat="44.49004" lon="1.66038">
        <ele>299.3</ele>
        <time>2022-05-07T14:30:11Z</time>
      </trkpt>
      <trkpt lat="44.49002" lon="1.66035">
        <ele>299.5</ele>
        <time>2022-05-07T14:30:12Z</time>
      </trkpt>
      <trkpt lat="44.49" lon="1.66034">
        <ele>299.7</ele>
        <time>2022-05-07T14:30:13Z</time>
      </trkpt>
      <trkpt lat="44.48999" lon="1.66033">
        <ele>299.8</ele>
        <time>2022-05-07T14:30:14Z</time>
      </trkpt>
      <trkpt lat="44.48998" lon="1.66033">
        <ele>299.8</ele>
        <time>2022-05-07T14:30:15Z</time>
      </trkpt>
      <trkpt lat="44.48998" lon="1.66033">
        <ele>299.9</ele>
        <time>2022-05-07T14:30:16Z</time>
      </trkpt>
      <trkpt lat="44.48996" lon="1.66028">
        <ele>300.1</ele>
        <time>2022-05-07T14:30:17Z</time>
      </trkpt>
      <trkpt lat="44.48995" lon="1.66027">
        <ele>300.2</ele>
        <time>2022-05-07T14:30:18Z</time>
      </trkpt>
      <trkpt lat="44.48993" lon="1.66026">
        <ele>300.4</ele>
        <time>2022-05-07T14:30:19Z</time>
      </trkpt>
      <trkpt lat="44.4899" lon="1.66024">
        <ele>300.6</ele>
        <time>2022-05-07T14:30:21Z</time>
      </trkpt>
      <trkpt lat="44.48987" lon="1.66021">
        <ele>300.8</ele>
        <time>2022-05-07T14:30:22Z</time>
      </trkpt>
      <trkpt lat="44.48984" lon="1.66019">
        <ele>301</ele>
        <time>2022-05-07T14:30:23Z</time>
      </trkpt>
      <trkpt lat="44.48981" lon="1.66016">
        <ele>301.2</ele>
        <time>2022-05-07T14:30:24Z</time>
      </trkpt>
      <trkpt lat="44.48979" lon="1.66014">
        <ele>301.3</ele>
        <time>2022-05-07T14:30:25Z</time>
      </trkpt>
      <trkpt lat="44.48976" lon="1.66012">
        <ele>301.4</ele>
        <time>2022-05-07T14:30:26Z</time>
      </trkpt>
      <trkpt lat="44.48973" lon="1.66009">
        <ele>301.5</ele>
        <time>2022-05-07T14:30:27Z</time>
      </trkpt>
      <trkpt lat="44.48972" lon="1.66007">
        <ele>301.6</ele>
        <time>2022-05-07T14:30:28Z</time>
      </trkpt>
      <trkpt lat="44.4897" lon="1.66005">
        <ele>301.6</ele>
        <time>2022-05-07T14:30:29Z</time>
      </trkpt>
      <trkpt lat="44.48967" lon="1.66002">
        <ele>301.7</ele>
        <time>2022-05-07T14:30:30Z</time>
      </trkpt>
      <trkpt lat="44.48964" lon="1.65999">
        <ele>301.8</ele>
        <time>2022-05-07T14:30:31Z</time>
      </trkpt>
      <trkpt lat="44.4896" lon="1.65996">
        <ele>301.8</ele>
        <time>2022-05-07T14:30:32Z</time>
      </trkpt>
      <trkpt lat="44.48957" lon="1.65993">
        <ele>301.9</ele>
        <time>2022-05-07T14:30:34Z</time>
      </trkpt>
      <trkpt lat="44.48953" lon="1.65993">
        <ele>301.9</ele>
        <time>2022-05-07T14:30:35Z</time>
      </trkpt>
      <trkpt lat="44.48949" lon="1.65992">
        <ele>302</ele>
        <time>2022-05-07T14:30:36Z</time>
      </trkpt>
      <trkpt lat="44.48948" lon="1.65992">
        <ele>302</ele>
        <time>2022-05-07T14:30:37Z</time>
      </trkpt>
      <trkpt lat="44.48945" lon="1.65991">
        <ele>302.1</ele>
        <time>2022-05-07T14:30:38Z</time>
      </trkpt>
      <trkpt lat="44.48941" lon="1.65991">
        <ele>302.2</ele>
        <time>2022-05-07T14:30:39Z</time>
      </trkpt>
      <trkpt lat="44.48938" lon="1.65993">
        <ele>302.3</ele>
        <time>2022-05-07T14:30:41Z</time>
      </trkpt>
      <trkpt lat="44.48934" lon="1.65995">
        <ele>302.4</ele>
        <time>2022-05-07T14:30:42Z</time>
      </trkpt>
      <trkpt lat="44.48931" lon="1.65998">
        <ele>302.4</ele>
        <time>2022-05-07T14:30:43Z</time>
      </trkpt>
      <trkpt lat="44.48929" lon="1.65999">
        <ele>302.5</ele>
        <time>2022-05-07T14:30:44Z</time>
      </trkpt>
      <trkpt lat="44.48927" lon="1.66001">
        <ele>302.5</ele>
        <time>2022-05-07T14:30:45Z</time>
      </trkpt>
      <trkpt lat="44.48925" lon="1.66004">
        <ele>302.5</ele>
        <time>2022-05-07T14:30:47Z</time>
      </trkpt>
      <trkpt lat="44.48923" lon="1.66007">
        <ele>302.5</ele>
        <time>2022-05-07T14:30:48Z</time>
      </trkpt>
      <trkpt lat="44.4892" lon="1.6601">
        <ele>302.5</ele>
        <time>2022-05-07T14:30:49Z</time>
      </trkpt>
      <trkpt lat="44.48919" lon="1.66013">
        <ele>302.5</ele>
        <time>2022-05-07T14:30:50Z</time>
      </trkpt>
      <trkpt lat="44.48916" lon="1.66016">
        <ele>302.5</ele>
        <time>2022-05-07T14:30:51Z</time>
      </trkpt>
      <trkpt lat="44.48914" lon="1.66019">
        <ele>302.5</ele>
        <time>2022-05-07T14:30:52Z</time>
      </trkpt>
      <trkpt lat="44.48912" lon="1.66022">
        <ele>302.4</ele>
        <time>2022-05-07T14:30:53Z</time>
      </trkpt>
      <trkpt lat="44.48907" lon="1.66026">
        <ele>302.3</ele>
        <time>2022-05-07T14:30:55Z</time>
      </trkpt>
      <trkpt lat="44.48902" lon="1.66029">
        <ele>302.3</ele>
        <time>2022-05-07T14:30:56Z</time>
      </trkpt>
      <trkpt lat="44.48898" lon="1.66032">
        <ele>302.1</ele>
        <time>2022-05-07T14:30:57Z</time>
      </trkpt>
      <trkpt lat="44.48893" lon="1.66035">
        <ele>301.9</ele>
        <time>2022-05-07T14:30:58Z</time>
      </trkpt>
      <trkpt lat="44.48888" lon="1.66038">
        <ele>301.6</ele>
        <time>2022-05-07T14:30:59Z</time>
      </trkpt>
      <trkpt lat="44.48886" lon="1.6604">
        <ele>301.4</ele>
        <time>2022-05-07T14:31:00Z</time>
      </trkpt>
      <trkpt lat="44.48883" lon="1.66043">
        <ele>301.1</ele>
        <time>2022-05-07T14:31:01Z</time>
      </trkpt>
      <trkpt lat="44.48875" lon="1.66044">
        <ele>300.5</ele>
        <time>2022-05-07T14:31:02Z</time>
      </trkpt>
      <trkpt lat="44.48869" lon="1.66046">
        <ele>300.1</ele>
        <time>2022-05-07T14:31:03Z</time>
      </trkpt>
      <trkpt lat="44.48864" lon="1.66048">
        <ele>299.7</ele>
        <time>2022-05-07T14:31:04Z</time>
      </trkpt>
      <trkpt lat="44.48858" lon="1.66051">
        <ele>299.2</ele>
        <time>2022-05-07T14:31:05Z</time>
      </trkpt>
      <trkpt lat="44.48852" lon="1.66055">
        <ele>298.8</ele>
        <time>2022-05-07T14:31:06Z</time>
      </trkpt>
      <trkpt lat="44.48846" lon="1.66059">
        <ele>298.4</ele>
        <time>2022-05-07T14:31:07Z</time>
      </trkpt>
      <trkpt lat="44.4884" lon="1.66063">
        <ele>297.9</ele>
        <time>2022-05-07T14:31:08Z</time>
      </trkpt>
      <trkpt lat="44.48833" lon="1.66067">
        <ele>297.4</ele>
        <time>2022-05-07T14:31:09Z</time>
      </trkpt>
      <trkpt lat="44.48825" lon="1.6607">
        <ele>296.8</ele>
        <time>2022-05-07T14:31:10Z</time>
      </trkpt>
      <trkpt lat="44.48817" lon="1.66073">
        <ele>296.2</ele>
        <time>2022-05-07T14:31:11Z</time>
      </trkpt>
      <trkpt lat="44.48808" lon="1.66074">
        <ele>295.6</ele>
        <time>2022-05-07T14:31:12Z</time>
      </trkpt>
      <trkpt lat="44.48799" lon="1.66074">
        <ele>294.9</ele>
        <time>2022-05-07T14:31:13Z</time>
      </trkpt>
      <trkpt lat="44.4879" lon="1.66072">
        <ele>294.1</ele>
        <time>2022-05-07T14:31:14Z</time>
      </trkpt>
      <trkpt lat="44.48781" lon="1.66068">
        <ele>293.2</ele>
        <time>2022-05-07T14:31:15Z</time>
      </trkpt>
      <trkpt lat="44.48773" lon="1.66063">
        <ele>292.3</ele>
        <time>2022-05-07T14:31:16Z</time>
      </trkpt>
      <trkpt lat="44.48764" lon="1.6606">
        <ele>291.5</ele>
        <time>2022-05-07T14:31:17Z</time>
      </trkpt>
      <trkpt lat="44.48755" lon="1.66058">
        <ele>290.6</ele>
        <time>2022-05-07T14:31:18Z</time>
      </trkpt>
      <trkpt lat="44.48746" lon="1.66057">
        <ele>289.7</ele>
        <time>2022-05-07T14:31:19Z</time>
      </trkpt>
      <trkpt lat="44.48737" lon="1.66059">
        <ele>288.7</ele>
        <time>2022-05-07T14:31:20Z</time>
      </trkpt>
      <trkpt lat="44.48728" lon="1.66064">
        <ele>287.7</ele>
        <time>2022-05-07T14:31:21Z</time>
      </trkpt>
      <trkpt lat="44.48719" lon="1.66068">
        <ele>286.7</ele>
        <time>2022-05-07T14:31:22Z</time>
      </trkpt>
      <trkpt lat="44.48709" lon="1.66072">
        <ele>285.8</ele>
        <time>2022-05-07T14:31:23Z</time>
      </trkpt>
      <trkpt lat="44.48701" lon="1.66075">
        <ele>285</ele>
        <time>2022-05-07T14:31:24Z</time>
      </trkpt>
      <trkpt lat="44.48693" lon="1.66075">
        <ele>284.1</ele>
        <time>2022-05-07T14:31:25Z</time>
      </trkpt>
      <trkpt lat="44.48685" lon="1.66073">
        <ele>283.1</ele>
        <time>2022-05-07T14:31:26Z</time>
      </trkpt>
      <trkpt lat="44.48677" lon="1.66069">
        <ele>282.3</ele>
        <time>2022-05-07T14:31:27Z</time>
      </trkpt>
      <trkpt lat="44.48668" lon="1.66065">
        <ele>281.4</ele>
        <time>2022-05-07T14:31:28Z</time>
      </trkpt>
      <trkpt lat="44.4866" lon="1.66062">
        <ele>280.6</ele>
        <time>2022-05-07T14:31:29Z</time>
      </trkpt>
      <trkpt lat="44.48651" lon="1.66058">
        <ele>279.9</ele>
        <time>2022-05-07T14:31:30Z</time>
      </trkpt>
      <trkpt lat="44.48642" lon="1.66054">
        <ele>279</ele>
        <time>2022-05-07T14:31:31Z</time>
      </trkpt>
      <trkpt lat="44.48637" lon="1.66052">
        <ele>278</ele>
        <time>2022-05-07T14:31:32Z</time>
      </trkpt>
      <trkpt lat="44.48632" lon="1.66053">
        <ele>277.2</ele>
        <time>2022-05-07T14:31:33Z</time>
      </trkpt>
      <trkpt lat="44.48627" lon="1.66058">
        <ele>276.4</ele>
        <time>2022-05-07T14:31:34Z</time>
      </trkpt>
      <trkpt lat="44.48623" lon="1.66067">
        <ele>275.4</ele>
        <time>2022-05-07T14:31:35Z</time>
      </trkpt>
      <trkpt lat="44.48619" lon="1.66077">
        <ele>274.6</ele>
        <time>2022-05-07T14:31:36Z</time>
      </trkpt>
      <trkpt lat="44.48615" lon="1.66087">
        <ele>274</ele>
        <time>2022-05-07T14:31:37Z</time>
      </trkpt>
      <trkpt lat="44.48612" lon="1.66096">
        <ele>273.4</ele>
        <time>2022-05-07T14:31:38Z</time>
      </trkpt>
      <trkpt lat="44.48609" lon="1.66103">
        <ele>273</ele>
        <time>2022-05-07T14:31:39Z</time>
      </trkpt>
      <trkpt lat="44.48606" lon="1.66108">
        <ele>272.5</ele>
        <time>2022-05-07T14:31:40Z</time>
      </trkpt>
      <trkpt lat="44.48602" lon="1.6611">
        <ele>272</ele>
        <time>2022-05-07T14:31:41Z</time>
      </trkpt>
      <trkpt lat="44.486" lon="1.66111">
        <ele>271.8</ele>
        <time>2022-05-07T14:31:42Z</time>
      </trkpt>
      <trkpt lat="44.48593" lon="1.66111">
        <ele>271</ele>
        <time>2022-05-07T14:31:43Z</time>
      </trkpt>
      <trkpt lat="44.48586" lon="1.66111">
        <ele>270.1</ele>
        <time>2022-05-07T14:31:44Z</time>
      </trkpt>
      <trkpt lat="44.48578" lon="1.66112">
        <ele>269.2</ele>
        <time>2022-05-07T14:31:45Z</time>
      </trkpt>
      <trkpt lat="44.4857" lon="1.66113">
        <ele>268.3</ele>
        <time>2022-05-07T14:31:46Z</time>
      </trkpt>
      <trkpt lat="44.48562" lon="1.66112">
        <ele>267.4</ele>
        <time>2022-05-07T14:31:47Z</time>
      </trkpt>
      <trkpt lat="44.48554" lon="1.66111">
        <ele>266.6</ele>
        <time>2022-05-07T14:31:48Z</time>
      </trkpt>
      <trkpt lat="44.48546" lon="1.6611">
        <ele>265.6</ele>
        <time>2022-05-07T14:31:49Z</time>
      </trkpt>
      <trkpt lat="44.48537" lon="1.66108">
        <ele>264.6</ele>
        <time>2022-05-07T14:31:50Z</time>
      </trkpt>
      <trkpt lat="44.48529" lon="1.66104">
        <ele>263.5</ele>
        <time>2022-05-07T14:31:51Z</time>
      </trkpt>
      <trkpt lat="44.48521" lon="1.66098">
        <ele>262.4</ele>
        <time>2022-05-07T14:31:52Z</time>
      </trkpt>
      <trkpt lat="44.48515" lon="1.66092">
        <ele>261.4</ele>
        <time>2022-05-07T14:31:53Z</time>
      </trkpt>
      <trkpt lat="44.4851" lon="1.66082">
        <ele>260.1</ele>
        <time>2022-05-07T14:31:54Z</time>
      </trkpt>
      <trkpt lat="44.48507" lon="1.66071">
        <ele>258.9</ele>
        <time>2022-05-07T14:31:55Z</time>
      </trkpt>
      <trkpt lat="44.48505" lon="1.66058">
        <ele>257.6</ele>
        <time>2022-05-07T14:31:56Z</time>
      </trkpt>
      <trkpt lat="44.48504" lon="1.66045">
        <ele>256.4</ele>
        <time>2022-05-07T14:31:57Z</time>
      </trkpt>
      <trkpt lat="44.48504" lon="1.66032">
        <ele>255.3</ele>
        <time>2022-05-07T14:31:58Z</time>
      </trkpt>
      <trkpt lat="44.48503" lon="1.66019">
        <ele>254.2</ele>
        <time>2022-05-07T14:31:59Z</time>
      </trkpt>
      <trkpt lat="44.48503" lon="1.66005">
        <ele>253</ele>
        <time>2022-05-07T14:32:00Z</time>
      </trkpt>
      <trkpt lat="44.48504" lon="1.65991">
        <ele>252</ele>
        <time>2022-05-07T14:32:01Z</time>
      </trkpt>
      <trkpt lat="44.48506" lon="1.65977">
        <ele>251.1</ele>
        <time>2022-05-07T14:32:02Z</time>
      </trkpt>
      <trkpt lat="44.48508" lon="1.65963">
        <ele>250.1</ele>
        <time>2022-05-07T14:32:03Z</time>
      </trkpt>
      <trkpt lat="44.48512" lon="1.6595">
        <ele>249.3</ele>
        <time>2022-05-07T14:32:04Z</time>
      </trkpt>
      <trkpt lat="44.48516" lon="1.65937">
        <ele>248.5</ele>
        <time>2022-05-07T14:32:05Z</time>
      </trkpt>
      <trkpt lat="44.4852" lon="1.65924">
        <ele>247.7</ele>
        <time>2022-05-07T14:32:06Z</time>
      </trkpt>
      <trkpt lat="44.48523" lon="1.65911">
        <ele>247.1</ele>
        <time>2022-05-07T14:32:07Z</time>
      </trkpt>
      <trkpt lat="44.48526" lon="1.65897">
        <ele>246.6</ele>
        <time>2022-05-07T14:32:08Z</time>
      </trkpt>
      <trkpt lat="44.4853" lon="1.65885">
        <ele>246.3</ele>
        <time>2022-05-07T14:32:09Z</time>
      </trkpt>
      <trkpt lat="44.48533" lon="1.65875">
        <ele>246</ele>
        <time>2022-05-07T14:32:10Z</time>
      </trkpt>
      <trkpt lat="44.48536" lon="1.65866">
        <ele>245.5</ele>
        <time>2022-05-07T14:32:11Z</time>
      </trkpt>
      <trkpt lat="44.48536" lon="1.6586">
        <ele>244.9</ele>
        <time>2022-05-07T14:32:12Z</time>
      </trkpt>
      <trkpt lat="44.48534" lon="1.65857">
        <ele>244.5</ele>
        <time>2022-05-07T14:32:13Z</time>
      </trkpt>
      <trkpt lat="44.48534" lon="1.65857">
        <ele>244.4</ele>
        <time>2022-05-07T14:32:14Z</time>
      </trkpt>
      <trkpt lat="44.48532" lon="1.65856">
        <ele>244.1</ele>
        <time>2022-05-07T14:32:15Z</time>
      </trkpt>
      <trkpt lat="44.48532" lon="1.65856">
        <ele>244.1</ele>
        <time>2022-05-07T14:32:16Z</time>
      </trkpt>
      <trkpt lat="44.48531" lon="1.65856">
        <ele>244</ele>
        <time>2022-05-07T14:32:17Z</time>
      </trkpt>
      <trkpt lat="44.48531" lon="1.65856">
        <ele>243.9</ele>
        <time>2022-05-07T14:32:18Z</time>
      </trkpt>
      <trkpt lat="44.48531" lon="1.65856">
        <ele>243.9</ele>
        <time>2022-05-07T14:32:19Z</time>
      </trkpt>
      <trkpt lat="44.48521" lon="1.65857">
        <ele>242.2</ele>
        <time>2022-05-07T14:32:21Z</time>
      </trkpt>
      <trkpt lat="44.48513" lon="1.65858">
        <ele>240.9</ele>
        <time>2022-05-07T14:32:22Z</time>
      </trkpt>
      <trkpt lat="44.48504" lon="1.6586">
        <ele>239.8</ele>
        <time>2022-05-07T14:32:23Z</time>
      </trkpt>
      <trkpt lat="44.48496" lon="1.65863">
        <ele>238.9</ele>
        <time>2022-05-07T14:32:24Z</time>
      </trkpt>
      <trkpt lat="44.48487" lon="1.65866">
        <ele>238</ele>
        <time>2022-05-07T14:32:25Z</time>
      </trkpt>
      <trkpt lat="44.48478" lon="1.65869">
        <ele>237.1</ele>
        <time>2022-05-07T14:32:26Z</time>
      </trkpt>
      <trkpt lat="44.48469" lon="1.65871">
        <ele>236.2</ele>
        <time>2022-05-07T14:32:27Z</time>
      </trkpt>
      <trkpt lat="44.48459" lon="1.65872">
        <ele>235.1</ele>
        <time>2022-05-07T14:32:28Z</time>
      </trkpt>
      <trkpt lat="44.48449" lon="1.65871">
        <ele>233.6</ele>
        <time>2022-05-07T14:32:29Z</time>
      </trkpt>
      <trkpt lat="44.48438" lon="1.65871">
        <ele>232</ele>
        <time>2022-05-07T14:32:30Z</time>
      </trkpt>
      <trkpt lat="44.48427" lon="1.65871">
        <ele>230.4</ele>
        <time>2022-05-07T14:32:31Z</time>
      </trkpt>
      <trkpt lat="44.48418" lon="1.65871">
        <ele>229.4</ele>
        <time>2022-05-07T14:32:32Z</time>
      </trkpt>
      <trkpt lat="44.4841" lon="1.65871">
        <ele>228.5</ele>
        <time>2022-05-07T14:32:33Z</time>
      </trkpt>
      <trkpt lat="44.48403" lon="1.6587">
        <ele>227.7</ele>
        <time>2022-05-07T14:32:34Z</time>
      </trkpt>
      <trkpt lat="44.48395" lon="1.65868">
        <ele>227</ele>
        <time>2022-05-07T14:32:35Z</time>
      </trkpt>
      <trkpt lat="44.48387" lon="1.65865">
        <ele>226.1</ele>
        <time>2022-05-07T14:32:36Z</time>
      </trkpt>
      <trkpt lat="44.48379" lon="1.65863">
        <ele>225.3</ele>
        <time>2022-05-07T14:32:37Z</time>
      </trkpt>
      <trkpt lat="44.48371" lon="1.65861">
        <ele>224.4</ele>
        <time>2022-05-07T14:32:38Z</time>
      </trkpt>
      <trkpt lat="44.48362" lon="1.6586">
        <ele>223.6</ele>
        <time>2022-05-07T14:32:39Z</time>
      </trkpt>
      <trkpt lat="44.48354" lon="1.6586">
        <ele>222.7</ele>
        <time>2022-05-07T14:32:40Z</time>
      </trkpt>
      <trkpt lat="44.48347" lon="1.65859">
        <ele>222</ele>
        <time>2022-05-07T14:32:41Z</time>
      </trkpt>
      <trkpt lat="44.48339" lon="1.65855">
        <ele>221.4</ele>
        <time>2022-05-07T14:32:42Z</time>
      </trkpt>
      <trkpt lat="44.48331" lon="1.65851">
        <ele>220.7</ele>
        <time>2022-05-07T14:32:43Z</time>
      </trkpt>
      <trkpt lat="44.48323" lon="1.65849">
        <ele>220</ele>
        <time>2022-05-07T14:32:44Z</time>
      </trkpt>
      <trkpt lat="44.48316" lon="1.6585">
        <ele>219.4</ele>
        <time>2022-05-07T14:32:45Z</time>
      </trkpt>
      <trkpt lat="44.48308" lon="1.65853">
        <ele>218.8</ele>
        <time>2022-05-07T14:32:46Z</time>
      </trkpt>
      <trkpt lat="44.483" lon="1.65856">
        <ele>218.4</ele>
        <time>2022-05-07T14:32:47Z</time>
      </trkpt>
      <trkpt lat="44.48294" lon="1.65859">
        <ele>218</ele>
        <time>2022-05-07T14:32:48Z</time>
      </trkpt>
      <trkpt lat="44.48288" lon="1.65864">
        <ele>217.7</ele>
        <time>2022-05-07T14:32:49Z</time>
      </trkpt>
      <trkpt lat="44.48284" lon="1.65867">
        <ele>217.2</ele>
        <time>2022-05-07T14:32:50Z</time>
      </trkpt>
      <trkpt lat="44.4828" lon="1.65869">
        <ele>216.7</ele>
        <time>2022-05-07T14:32:51Z</time>
      </trkpt>
      <trkpt lat="44.48279" lon="1.65868">
        <ele>216.6</ele>
        <time>2022-05-07T14:32:52Z</time>
      </trkpt>
      <trkpt lat="44.48277" lon="1.65868">
        <ele>216.4</ele>
        <time>2022-05-07T14:32:53Z</time>
      </trkpt>
      <trkpt lat="44.48277" lon="1.65867">
        <ele>216.4</ele>
        <time>2022-05-07T14:32:54Z</time>
      </trkpt>
      <trkpt lat="44.48277" lon="1.65868">
        <ele>216.3</ele>
        <time>2022-05-07T14:32:55Z</time>
      </trkpt>
      <trkpt lat="44.48277" lon="1.65869">
        <ele>216.2</ele>
        <time>2022-05-07T14:32:56Z</time>
      </trkpt>
      <trkpt lat="44.48277" lon="1.6587">
        <ele>216.1</ele>
        <time>2022-05-07T14:32:57Z</time>
      </trkpt>
      <trkpt lat="44.48277" lon="1.65871">
        <ele>216</ele>
        <time>2022-05-07T14:32:58Z</time>
      </trkpt>
      <trkpt lat="44.48278" lon="1.65872">
        <ele>216</ele>
        <time>2022-05-07T14:32:59Z</time>
      </trkpt>
      <trkpt lat="44.48278" lon="1.65873">
        <ele>215.9</ele>
        <time>2022-05-07T14:33:00Z</time>
      </trkpt>
      <trkpt lat="44.48278" lon="1.65874">
        <ele>215.8</ele>
        <time>2022-05-07T14:33:01Z</time>
      </trkpt>
      <trkpt lat="44.48278" lon="1.65875">
        <ele>215.7</ele>
        <time>2022-05-07T14:33:02Z</time>
      </trkpt>
      <trkpt lat="44.48278" lon="1.65876">
        <ele>215.6</ele>
        <time>2022-05-07T14:33:30Z</time>
      </trkpt>
      <trkpt lat="44.48278" lon="1.65877">
        <ele>215.6</ele>
        <time>2022-05-07T14:33:31Z</time>
      </trkpt>
      <trkpt lat="44.48278" lon="1.65877">
        <ele>215.5</ele>
        <time>2022-05-07T14:33:32Z</time>
      </trkpt>
      <trkpt lat="44.48278" lon="1.65883">
        <ele>215.1</ele>
        <time>2022-05-07T14:33:33Z</time>
      </trkpt>
      <trkpt lat="44.48278" lon="1.65885">
        <ele>215</ele>
        <time>2022-05-07T14:33:34Z</time>
      </trkpt>
      <trkpt lat="44.48277" lon="1.65892">
        <ele>214.7</ele>
        <time>2022-05-07T14:33:36Z</time>
      </trkpt>
      <trkpt lat="44.48277" lon="1.65897">
        <ele>214.4</ele>
        <time>2022-05-07T14:33:37Z</time>
      </trkpt>
      <trkpt lat="44.48276" lon="1.65902">
        <ele>214.1</ele>
        <time>2022-05-07T14:33:38Z</time>
      </trkpt>
      <trkpt lat="44.48276" lon="1.65906">
        <ele>213.8</ele>
        <time>2022-05-07T14:33:39Z</time>
      </trkpt>
      <trkpt lat="44.48275" lon="1.65908">
        <ele>213.7</ele>
        <time>2022-05-07T14:33:40Z</time>
      </trkpt>
      <trkpt lat="44.48274" lon="1.65912">
        <ele>213.4</ele>
        <time>2022-05-07T14:33:41Z</time>
      </trkpt>
      <trkpt lat="44.48273" lon="1.65917">
        <ele>213.1</ele>
        <time>2022-05-07T14:33:42Z</time>
      </trkpt>
      <trkpt lat="44.4827" lon="1.65924">
        <ele>212.6</ele>
        <time>2022-05-07T14:33:43Z</time>
      </trkpt>
      <trkpt lat="44.48267" lon="1.6593">
        <ele>212.1</ele>
        <time>2022-05-07T14:33:44Z</time>
      </trkpt>
      <trkpt lat="44.48262" lon="1.65934">
        <ele>211.6</ele>
        <time>2022-05-07T14:33:45Z</time>
      </trkpt>
      <trkpt lat="44.48257" lon="1.65936">
        <ele>211.2</ele>
        <time>2022-05-07T14:33:46Z</time>
      </trkpt>
      <trkpt lat="44.4825" lon="1.65936">
        <ele>210.7</ele>
        <time>2022-05-07T14:33:47Z</time>
      </trkpt>
      <trkpt lat="44.48244" lon="1.65936">
        <ele>210.2</ele>
        <time>2022-05-07T14:33:48Z</time>
      </trkpt>
      <trkpt lat="44.48238" lon="1.65936">
        <ele>209.7</ele>
        <time>2022-05-07T14:33:49Z</time>
      </trkpt>
      <trkpt lat="44.48231" lon="1.65937">
        <ele>209.2</ele>
        <time>2022-05-07T14:33:50Z</time>
      </trkpt>
      <trkpt lat="44.48225" lon="1.65937">
        <ele>208.6</ele>
        <time>2022-05-07T14:33:51Z</time>
      </trkpt>
      <trkpt lat="44.48218" lon="1.65938">
        <ele>208</ele>
        <time>2022-05-07T14:33:52Z</time>
      </trkpt>
      <trkpt lat="44.48212" lon="1.65941">
        <ele>207.3</ele>
        <time>2022-05-07T14:33:53Z</time>
      </trkpt>
      <trkpt lat="44.48206" lon="1.65944">
        <ele>206.5</ele>
        <time>2022-05-07T14:33:54Z</time>
      </trkpt>
      <trkpt lat="44.482" lon="1.65947">
        <ele>205.7</ele>
        <time>2022-05-07T14:33:55Z</time>
      </trkpt>
      <trkpt lat="44.48193" lon="1.6595">
        <ele>204.8</ele>
        <time>2022-05-07T14:33:56Z</time>
      </trkpt>
      <trkpt lat="44.48185" lon="1.65952">
        <ele>203.9</ele>
        <time>2022-05-07T14:33:57Z</time>
      </trkpt>
      <trkpt lat="44.48177" lon="1.65955">
        <ele>202.9</ele>
        <time>2022-05-07T14:33:58Z</time>
      </trkpt>
      <trkpt lat="44.48168" lon="1.65958">
        <ele>201.8</ele>
        <time>2022-05-07T14:33:59Z</time>
      </trkpt>
      <trkpt lat="44.48158" lon="1.65961">
        <ele>200.7</ele>
        <time>2022-05-07T14:34:00Z</time>
      </trkpt>
      <trkpt lat="44.48149" lon="1.65965">
        <ele>199.4</ele>
        <time>2022-05-07T14:34:01Z</time>
      </trkpt>
      <trkpt lat="44.48139" lon="1.65968">
        <ele>198</ele>
        <time>2022-05-07T14:34:02Z</time>
      </trkpt>
      <trkpt lat="44.4813" lon="1.65971">
        <ele>196.8</ele>
        <time>2022-05-07T14:34:03Z</time>
      </trkpt>
      <trkpt lat="44.48121" lon="1.65974">
        <ele>195.5</ele>
        <time>2022-05-07T14:34:04Z</time>
      </trkpt>
      <trkpt lat="44.48112" lon="1.65979">
        <ele>194.1</ele>
        <time>2022-05-07T14:34:05Z</time>
      </trkpt>
      <trkpt lat="44.48102" lon="1.65985">
        <ele>192.6</ele>
        <time>2022-05-07T14:34:06Z</time>
      </trkpt>
      <trkpt lat="44.48092" lon="1.65992">
        <ele>191.3</ele>
        <time>2022-05-07T14:34:07Z</time>
      </trkpt>
      <trkpt lat="44.48082" lon="1.66">
        <ele>190.1</ele>
        <time>2022-05-07T14:34:08Z</time>
      </trkpt>
      <trkpt lat="44.48072" lon="1.66008">
        <ele>189</ele>
        <time>2022-05-07T14:34:09Z</time>
      </trkpt>
      <trkpt lat="44.48062" lon="1.66019">
        <ele>187.9</ele>
        <time>2022-05-07T14:34:10Z</time>
      </trkpt>
      <trkpt lat="44.48053" lon="1.6603">
        <ele>186.7</ele>
        <time>2022-05-07T14:34:11Z</time>
      </trkpt>
      <trkpt lat="44.48045" lon="1.66039">
        <ele>185.7</ele>
        <time>2022-05-07T14:34:12Z</time>
      </trkpt>
      <trkpt lat="44.48039" lon="1.66046">
        <ele>185</ele>
        <time>2022-05-07T14:34:13Z</time>
      </trkpt>
      <trkpt lat="44.48035" lon="1.66052">
        <ele>184.6</ele>
        <time>2022-05-07T14:34:14Z</time>
      </trkpt>
      <trkpt lat="44.4803" lon="1.66056">
        <ele>184.3</ele>
        <time>2022-05-07T14:34:15Z</time>
      </trkpt>
      <trkpt lat="44.48026" lon="1.66058">
        <ele>184.2</ele>
        <time>2022-05-07T14:34:16Z</time>
      </trkpt>
      <trkpt lat="44.48021" lon="1.66058">
        <ele>184</ele>
        <time>2022-05-07T14:34:17Z</time>
      </trkpt>
      <trkpt lat="44.48017" lon="1.66055">
        <ele>183.9</ele>
        <time>2022-05-07T14:34:18Z</time>
      </trkpt>
      <trkpt lat="44.48012" lon="1.66053">
        <ele>183.7</ele>
        <time>2022-05-07T14:34:19Z</time>
      </trkpt>
      <trkpt lat="44.48009" lon="1.66051">
        <ele>183.6</ele>
        <time>2022-05-07T14:34:20Z</time>
      </trkpt>
      <trkpt lat="44.48005" lon="1.66049">
        <ele>183.5</ele>
        <time>2022-05-07T14:34:21Z</time>
      </trkpt>
      <trkpt lat="44.48002" lon="1.66047">
        <ele>183.3</ele>
        <time>2022-05-07T14:34:22Z</time>
      </trkpt>
      <trkpt lat="44.47999" lon="1.66046">
        <ele>183.2</ele>
        <time>2022-05-07T14:34:23Z</time>
      </trkpt>
      <trkpt lat="44.47998" lon="1.66046">
        <ele>183.2</ele>
        <time>2022-05-07T14:34:24Z</time>
      </trkpt>
      <trkpt lat="44.47994" lon="1.66045">
        <ele>183.1</ele>
        <time>2022-05-07T14:34:25Z</time>
      </trkpt>
      <trkpt lat="44.47993" lon="1.66045">
        <ele>183</ele>
        <time>2022-05-07T14:34:26Z</time>
      </trkpt>
      <trkpt lat="44.47989" lon="1.66045">
        <ele>182.9</ele>
        <time>2022-05-07T14:34:28Z</time>
      </trkpt>
      <trkpt lat="44.47986" lon="1.66045">
        <ele>182.8</ele>
        <time>2022-05-07T14:34:29Z</time>
      </trkpt>
      <trkpt lat="44.47981" lon="1.66044">
        <ele>182.6</ele>
        <time>2022-05-07T14:34:30Z</time>
      </trkpt>
      <trkpt lat="44.47977" lon="1.66043">
        <ele>182.4</ele>
        <time>2022-05-07T14:34:31Z</time>
      </trkpt>
      <trkpt lat="44.47972" lon="1.6604">
        <ele>182.1</ele>
        <time>2022-05-07T14:34:32Z</time>
      </trkpt>
      <trkpt lat="44.47967" lon="1.66036">
        <ele>181.8</ele>
        <time>2022-05-07T14:34:33Z</time>
      </trkpt>
      <trkpt lat="44.47962" lon="1.66032">
        <ele>181.5</ele>
        <time>2022-05-07T14:34:34Z</time>
      </trkpt>
      <trkpt lat="44.47959" lon="1.66027">
        <ele>181.2</ele>
        <time>2022-05-07T14:34:35Z</time>
      </trkpt>
      <trkpt lat="44.47956" lon="1.66022">
        <ele>180.8</ele>
        <time>2022-05-07T14:34:36Z</time>
      </trkpt>
      <trkpt lat="44.47953" lon="1.66016">
        <ele>180.4</ele>
        <time>2022-05-07T14:34:37Z</time>
      </trkpt>
      <trkpt lat="44.47951" lon="1.66009">
        <ele>179.9</ele>
        <time>2022-05-07T14:34:38Z</time>
      </trkpt>
      <trkpt lat="44.47947" lon="1.66003">
        <ele>179.4</ele>
        <time>2022-05-07T14:34:39Z</time>
      </trkpt>
      <trkpt lat="44.47942" lon="1.65997">
        <ele>178.8</ele>
        <time>2022-05-07T14:34:40Z</time>
      </trkpt>
      <trkpt lat="44.47936" lon="1.65993">
        <ele>178</ele>
        <time>2022-05-07T14:34:41Z</time>
      </trkpt>
      <trkpt lat="44.4793" lon="1.65989">
        <ele>176.9</ele>
        <time>2022-05-07T14:34:42Z</time>
      </trkpt>
      <trkpt lat="44.47922" lon="1.65984">
        <ele>175.7</ele>
        <time>2022-05-07T14:34:43Z</time>
      </trkpt>
      <trkpt lat="44.47915" lon="1.65977">
        <ele>174.5</ele>
        <time>2022-05-07T14:34:44Z</time>
      </trkpt>
      <trkpt lat="44.47908" lon="1.65969">
        <ele>173.3</ele>
        <time>2022-05-07T14:34:45Z</time>
      </trkpt>
      <trkpt lat="44.47903" lon="1.65957">
        <ele>172.1</ele>
        <time>2022-05-07T14:34:46Z</time>
      </trkpt>
      <trkpt lat="44.47898" lon="1.65944">
        <ele>171</ele>
        <time>2022-05-07T14:34:47Z</time>
      </trkpt>
      <trkpt lat="44.47894" lon="1.65931">
        <ele>170</ele>
        <time>2022-05-07T14:34:48Z</time>
      </trkpt>
      <trkpt lat="44.47889" lon="1.65918">
        <ele>168.9</ele>
        <time>2022-05-07T14:34:49Z</time>
      </trkpt>
      <trkpt lat="44.47884" lon="1.65905">
        <ele>167.9</ele>
        <time>2022-05-07T14:34:50Z</time>
      </trkpt>
      <trkpt lat="44.47877" lon="1.65893">
        <ele>167</ele>
        <time>2022-05-07T14:34:51Z</time>
      </trkpt>
      <trkpt lat="44.4787" lon="1.65882">
        <ele>166.1</ele>
        <time>2022-05-07T14:34:52Z</time>
      </trkpt>
      <trkpt lat="44.47861" lon="1.65873">
        <ele>165.2</ele>
        <time>2022-05-07T14:34:53Z</time>
      </trkpt>
      <trkpt lat="44.47853" lon="1.65865">
        <ele>164.4</ele>
        <time>2022-05-07T14:34:54Z</time>
      </trkpt>
      <trkpt lat="44.47844" lon="1.65855">
        <ele>163.8</ele>
        <time>2022-05-07T14:34:55Z</time>
      </trkpt>
      <trkpt lat="44.47837" lon="1.65844">
        <ele>163.2</ele>
        <time>2022-05-07T14:34:56Z</time>
      </trkpt>
      <trkpt lat="44.47831" lon="1.65831">
        <ele>162.7</ele>
        <time>2022-05-07T14:34:57Z</time>
      </trkpt>
      <trkpt lat="44.47826" lon="1.65819">
        <ele>161.9</ele>
        <time>2022-05-07T14:34:58Z</time>
      </trkpt>
      <trkpt lat="44.47819" lon="1.65806">
        <ele>161.1</ele>
        <time>2022-05-07T14:34:59Z</time>
      </trkpt>
      <trkpt lat="44.47813" lon="1.65794">
        <ele>160.1</ele>
        <time>2022-05-07T14:35:00Z</time>
      </trkpt>
      <trkpt lat="44.47807" lon="1.65782">
        <ele>159.3</ele>
        <time>2022-05-07T14:35:01Z</time>
      </trkpt>
      <trkpt lat="44.47802" lon="1.65768">
        <ele>158.7</ele>
        <time>2022-05-07T14:35:02Z</time>
      </trkpt>
      <trkpt lat="44.47797" lon="1.65754">
        <ele>157.9</ele>
        <time>2022-05-07T14:35:03Z</time>
      </trkpt>
      <trkpt lat="44.47794" lon="1.65739">
        <ele>157.2</ele>
        <time>2022-05-07T14:35:04Z</time>
      </trkpt>
      <trkpt lat="44.47791" lon="1.65725">
        <ele>156.5</ele>
        <time>2022-05-07T14:35:05Z</time>
      </trkpt>
      <trkpt lat="44.47788" lon="1.65711">
        <ele>155.9</ele>
        <time>2022-05-07T14:35:06Z</time>
      </trkpt>
      <trkpt lat="44.47786" lon="1.65697">
        <ele>155.3</ele>
        <time>2022-05-07T14:35:07Z</time>
      </trkpt>
      <trkpt lat="44.47783" lon="1.65683">
        <ele>154.7</ele>
        <time>2022-05-07T14:35:08Z</time>
      </trkpt>
      <trkpt lat="44.47781" lon="1.65669">
        <ele>154.2</ele>
        <time>2022-05-07T14:35:09Z</time>
      </trkpt>
      <trkpt lat="44.4778" lon="1.65656">
        <ele>153.7</ele>
        <time>2022-05-07T14:35:10Z</time>
      </trkpt>
      <trkpt lat="44.4778" lon="1.65643">
        <ele>153.1</ele>
        <time>2022-05-07T14:35:11Z</time>
      </trkpt>
      <trkpt lat="44.47779" lon="1.6563">
        <ele>152.4</ele>
        <time>2022-05-07T14:35:12Z</time>
      </trkpt>
      <trkpt lat="44.47779" lon="1.65618">
        <ele>151.8</ele>
        <time>2022-05-07T14:35:13Z</time>
      </trkpt>
      <trkpt lat="44.47778" lon="1.65605">
        <ele>151.3</ele>
        <time>2022-05-07T14:35:14Z</time>
      </trkpt>
      <trkpt lat="44.47777" lon="1.65593">
        <ele>150.7</ele>
        <time>2022-05-07T14:35:15Z</time>
      </trkpt>
      <trkpt lat="44.47777" lon="1.65581">
        <ele>150.2</ele>
        <time>2022-05-07T14:35:16Z</time>
      </trkpt>
      <trkpt lat="44.47777" lon="1.65569">
        <ele>149.7</ele>
        <time>2022-05-07T14:35:17Z</time>
      </trkpt>
      <trkpt lat="44.47778" lon="1.65557">
        <ele>149.2</ele>
        <time>2022-05-07T14:35:18Z</time>
      </trkpt>
      <trkpt lat="44.47779" lon="1.65545">
        <ele>148.7</ele>
        <time>2022-05-07T14:35:19Z</time>
      </trkpt>
      <trkpt lat="44.47781" lon="1.65534">
        <ele>148.2</ele>
        <time>2022-05-07T14:35:20Z</time>
      </trkpt>
      <trkpt lat="44.47783" lon="1.65523">
        <ele>147.7</ele>
        <time>2022-05-07T14:35:21Z</time>
      </trkpt>
      <trkpt lat="44.47785" lon="1.65512">
        <ele>147.1</ele>
        <time>2022-05-07T14:35:22Z</time>
      </trkpt>
      <trkpt lat="44.47787" lon="1.65502">
        <ele>146.5</ele>
        <time>2022-05-07T14:35:23Z</time>
      </trkpt>
      <trkpt lat="44.47788" lon="1.65494">
        <ele>145.9</ele>
        <time>2022-05-07T14:35:24Z</time>
      </trkpt>
      <trkpt lat="44.47789" lon="1.65487">
        <ele>145.3</ele>
        <time>2022-05-07T14:35:25Z</time>
      </trkpt>
      <trkpt lat="44.4779" lon="1.65481">
        <ele>144.8</ele>
        <time>2022-05-07T14:35:26Z</time>
      </trkpt>
      <trkpt lat="44.47791" lon="1.65477">
        <ele>144.4</ele>
        <time>2022-05-07T14:35:27Z</time>
      </trkpt>
      <trkpt lat="44.47791" lon="1.65472">
        <ele>144</ele>
        <time>2022-05-07T14:35:28Z</time>
      </trkpt>
      <trkpt lat="44.4779" lon="1.65468">
        <ele>143.7</ele>
        <time>2022-05-07T14:35:29Z</time>
      </trkpt>
      <trkpt lat="44.4779" lon="1.65466">
        <ele>143.5</ele>
        <time>2022-05-07T14:35:30Z</time>
      </trkpt>
      <trkpt lat="44.4779" lon="1.65464">
        <ele>143.4</ele>
        <time>2022-05-07T14:35:31Z</time>
      </trkpt>
      <trkpt lat="44.47789" lon="1.65462">
        <ele>143.2</ele>
        <time>2022-05-07T14:35:32Z</time>
      </trkpt>
      <trkpt lat="44.47789" lon="1.65461">
        <ele>143.1</ele>
        <time>2022-05-07T14:35:33Z</time>
      </trkpt>
      <trkpt lat="44.47789" lon="1.65459">
        <ele>143</ele>
        <time>2022-05-07T14:35:35Z</time>
      </trkpt>
      <trkpt lat="44.47789" lon="1.65458">
        <ele>142.9</ele>
        <time>2022-05-07T14:35:36Z</time>
      </trkpt>
      <trkpt lat="44.47789" lon="1.65456">
        <ele>142.8</ele>
        <time>2022-05-07T14:35:37Z</time>
      </trkpt>
      <trkpt lat="44.47789" lon="1.65454">
        <ele>142.7</ele>
        <time>2022-05-07T14:35:38Z</time>
      </trkpt>
      <trkpt lat="44.47789" lon="1.65453">
        <ele>142.6</ele>
        <time>2022-05-07T14:35:40Z</time>
      </trkpt>
      <trkpt lat="44.47789" lon="1.65451">
        <ele>142.5</ele>
        <time>2022-05-07T14:36:35Z</time>
      </trkpt>
      <trkpt lat="44.47789" lon="1.65449">
        <ele>142.4</ele>
        <time>2022-05-07T14:36:36Z</time>
      </trkpt>
      <trkpt lat="44.47791" lon="1.65445">
        <ele>142.1</ele>
        <time>2022-05-07T14:36:37Z</time>
      </trkpt>
      <trkpt lat="44.47792" lon="1.65441">
        <ele>141.8</ele>
        <time>2022-05-07T14:36:38Z</time>
      </trkpt>
      <trkpt lat="44.47791" lon="1.65436">
        <ele>141.3</ele>
        <time>2022-05-07T14:36:39Z</time>
      </trkpt>
      <trkpt lat="44.47791" lon="1.65435">
        <ele>141.3</ele>
        <time>2022-05-07T14:36:40Z</time>
      </trkpt>
      <trkpt lat="44.4779" lon="1.65435">
        <ele>141.2</ele>
        <time>2022-05-07T14:36:41Z</time>
      </trkpt>
      <trkpt lat="44.47787" lon="1.65431">
        <ele>140.9</ele>
        <time>2022-05-07T14:36:43Z</time>
      </trkpt>
      <trkpt lat="44.47783" lon="1.65428">
        <ele>140.7</ele>
        <time>2022-05-07T14:36:44Z</time>
      </trkpt>
      <trkpt lat="44.4778" lon="1.65426">
        <ele>140.5</ele>
        <time>2022-05-07T14:36:45Z</time>
      </trkpt>
      <trkpt lat="44.47777" lon="1.65423">
        <ele>140.3</ele>
        <time>2022-05-07T14:36:46Z</time>
      </trkpt>
      <trkpt lat="44.47772" lon="1.65423">
        <ele>140.2</ele>
        <time>2022-05-07T14:36:47Z</time>
      </trkpt>
      <trkpt lat="44.47768" lon="1.65422">
        <ele>140</ele>
        <time>2022-05-07T14:36:48Z</time>
      </trkpt>
      <trkpt lat="44.47765" lon="1.65421">
        <ele>139.9</ele>
        <time>2022-05-07T14:36:49Z</time>
      </trkpt>
      <trkpt lat="44.47762" lon="1.6542">
        <ele>139.8</ele>
        <time>2022-05-07T14:36:50Z</time>
      </trkpt>
      <trkpt lat="44.47759" lon="1.65418">
        <ele>139.7</ele>
        <time>2022-05-07T14:36:51Z</time>
      </trkpt>
      <trkpt lat="44.47756" lon="1.65417">
        <ele>139.6</ele>
        <time>2022-05-07T14:36:52Z</time>
      </trkpt>
      <trkpt lat="44.47752" lon="1.65416">
        <ele>139.5</ele>
        <time>2022-05-07T14:36:53Z</time>
      </trkpt>
      <trkpt lat="44.47751" lon="1.65415">
        <ele>139.5</ele>
        <time>2022-05-07T14:36:54Z</time>
      </trkpt>
      <trkpt lat="44.47749" lon="1.65414">
        <ele>139.4</ele>
        <time>2022-05-07T14:36:55Z</time>
      </trkpt>
      <trkpt lat="44.47745" lon="1.65413">
        <ele>139.4</ele>
        <time>2022-05-07T14:36:56Z</time>
      </trkpt>
      <trkpt lat="44.47744" lon="1.65413">
        <ele>139.3</ele>
        <time>2022-05-07T14:36:57Z</time>
      </trkpt>
      <trkpt lat="44.47741" lon="1.65412">
        <ele>139.3</ele>
        <time>2022-05-07T14:36:58Z</time>
      </trkpt>
      <trkpt lat="44.47741" lon="1.65412">
        <ele>139.3</ele>
        <time>2022-05-07T14:36:59Z</time>
      </trkpt>
      <trkpt lat="44.4774" lon="1.65412">
        <ele>139.3</ele>
        <time>2022-05-07T14:37:01Z</time>
      </trkpt>
      <trkpt lat="44.47739" lon="1.65411">
        <ele>139.3</ele>
        <time>2022-05-07T14:37:02Z</time>
      </trkpt>
      <trkpt lat="44.47738" lon="1.65411">
        <ele>139.3</ele>
        <time>2022-05-07T14:37:03Z</time>
      </trkpt>
      <trkpt lat="44.47737" lon="1.65411">
        <ele>139.3</ele>
        <time>2022-05-07T14:37:04Z</time>
      </trkpt>
      <trkpt lat="44.47735" lon="1.6541">
        <ele>139.2</ele>
        <time>2022-05-07T14:37:05Z</time>
      </trkpt>
      <trkpt lat="44.47731" lon="1.65409">
        <ele>139.2</ele>
        <time>2022-05-07T14:37:07Z</time>
      </trkpt>
      <trkpt lat="44.47728" lon="1.65407">
        <ele>139.2</ele>
        <time>2022-05-07T14:37:08Z</time>
      </trkpt>
      <trkpt lat="44.47727" lon="1.65406">
        <ele>139.2</ele>
        <time>2022-05-07T14:37:09Z</time>
      </trkpt>
      <trkpt lat="44.47723" lon="1.65404">
        <ele>139.2</ele>
        <time>2022-05-07T14:37:10Z</time>
      </trkpt>
      <trkpt lat="44.47721" lon="1.65404">
        <ele>139.2</ele>
        <time>2022-05-07T14:37:11Z</time>
      </trkpt>
      <trkpt lat="44.47719" lon="1.65403">
        <ele>139.2</ele>
        <time>2022-05-07T14:37:12Z</time>
      </trkpt>
      <trkpt lat="44.47715" lon="1.65402">
        <ele>139.3</ele>
        <time>2022-05-07T14:37:14Z</time>
      </trkpt>
      <trkpt lat="44.47711" lon="1.65401">
        <ele>139.3</ele>
        <time>2022-05-07T14:37:15Z</time>
      </trkpt>
      <trkpt lat="44.47707" lon="1.654">
        <ele>139.3</ele>
        <time>2022-05-07T14:37:16Z</time>
      </trkpt>
      <trkpt lat="44.47705" lon="1.65398">
        <ele>139.3</ele>
        <time>2022-05-07T14:37:17Z</time>
      </trkpt>
      <trkpt lat="44.47704" lon="1.65396">
        <ele>139.3</ele>
        <time>2022-05-07T14:37:18Z</time>
      </trkpt>
      <trkpt lat="44.47701" lon="1.65395">
        <ele>139.3</ele>
        <time>2022-05-07T14:37:20Z</time>
      </trkpt>
      <trkpt lat="44.477" lon="1.65394">
        <ele>139.3</ele>
        <time>2022-05-07T14:37:21Z</time>
      </trkpt>
      <trkpt lat="44.47699" lon="1.65394">
        <ele>139.3</ele>
        <time>2022-05-07T14:37:22Z</time>
      </trkpt>
      <trkpt lat="44.47698" lon="1.65394">
        <ele>139.3</ele>
        <time>2022-05-07T14:37:23Z</time>
      </trkpt>
      <trkpt lat="44.47696" lon="1.65394">
        <ele>139.3</ele>
        <time>2022-05-07T14:37:24Z</time>
      </trkpt>
      <trkpt lat="44.47695" lon="1.65394">
        <ele>139.3</ele>
        <time>2022-05-07T14:37:25Z</time>
      </trkpt>
      <trkpt lat="44.47694" lon="1.65394">
        <ele>139.3</ele>
        <time>2022-05-07T14:37:26Z</time>
      </trkpt>
      <trkpt lat="44.47692" lon="1.65395">
        <ele>139.3</ele>
        <time>2022-05-07T14:37:27Z</time>
      </trkpt>
      <trkpt lat="44.47691" lon="1.65395">
        <ele>139.3</ele>
        <time>2022-05-07T14:37:28Z</time>
      </trkpt>
      <trkpt lat="44.4769" lon="1.65395">
        <ele>139.3</ele>
        <time>2022-05-07T14:37:29Z</time>
      </trkpt>
      <trkpt lat="44.47688" lon="1.65395">
        <ele>139.3</ele>
        <time>2022-05-07T14:37:30Z</time>
      </trkpt>
      <trkpt lat="44.47687" lon="1.65395">
        <ele>139.3</ele>
        <time>2022-05-07T14:37:31Z</time>
      </trkpt>
      <trkpt lat="44.47686" lon="1.65395">
        <ele>139.2</ele>
        <time>2022-05-07T14:38:08Z</time>
      </trkpt>
      <trkpt lat="44.47684" lon="1.65396">
        <ele>139.2</ele>
        <time>2022-05-07T14:38:09Z</time>
      </trkpt>
      <trkpt lat="44.47682" lon="1.65394">
        <ele>139.2</ele>
        <time>2022-05-07T14:38:10Z</time>
      </trkpt>
      <trkpt lat="44.47678" lon="1.65391">
        <ele>139.2</ele>
        <time>2022-05-07T14:38:12Z</time>
      </trkpt>
      <trkpt lat="44.47674" lon="1.65389">
        <ele>139.1</ele>
        <time>2022-05-07T14:38:13Z</time>
      </trkpt>
      <trkpt lat="44.47671" lon="1.65386">
        <ele>139.1</ele>
        <time>2022-05-07T14:38:14Z</time>
      </trkpt>
      <trkpt lat="44.47668" lon="1.65384">
        <ele>139</ele>
        <time>2022-05-07T14:38:15Z</time>
      </trkpt>
      <trkpt lat="44.47664" lon="1.65382">
        <ele>138.9</ele>
        <time>2022-05-07T14:38:17Z</time>
      </trkpt>
      <trkpt lat="44.47662" lon="1.65379">
        <ele>138.8</ele>
        <time>2022-05-07T14:38:18Z</time>
      </trkpt>
      <trkpt lat="44.47661" lon="1.65378">
        <ele>138.7</ele>
        <time>2022-05-07T14:38:19Z</time>
      </trkpt>
      <trkpt lat="44.47658" lon="1.65375">
        <ele>138.6</ele>
        <time>2022-05-07T14:38:20Z</time>
      </trkpt>
      <trkpt lat="44.47656" lon="1.65373">
        <ele>138.5</ele>
        <time>2022-05-07T14:38:21Z</time>
      </trkpt>
      <trkpt lat="44.47653" lon="1.65371">
        <ele>138.3</ele>
        <time>2022-05-07T14:38:23Z</time>
      </trkpt>
      <trkpt lat="44.4765" lon="1.65368">
        <ele>138.1</ele>
        <time>2022-05-07T14:38:24Z</time>
      </trkpt>
      <trkpt lat="44.47646" lon="1.65364">
        <ele>137.8</ele>
        <time>2022-05-07T14:38:25Z</time>
      </trkpt>
      <trkpt lat="44.47641" lon="1.6536">
        <ele>137.5</ele>
        <time>2022-05-07T14:38:26Z</time>
      </trkpt>
      <trkpt lat="44.47637" lon="1.65355">
        <ele>137.2</ele>
        <time>2022-05-07T14:38:27Z</time>
      </trkpt>
      <trkpt lat="44.47633" lon="1.65351">
        <ele>136.9</ele>
        <time>2022-05-07T14:38:28Z</time>
      </trkpt>
      <trkpt lat="44.47629" lon="1.65347">
        <ele>136.7</ele>
        <time>2022-05-07T14:38:29Z</time>
      </trkpt>
      <trkpt lat="44.47626" lon="1.65342">
        <ele>136.4</ele>
        <time>2022-05-07T14:38:30Z</time>
      </trkpt>
      <trkpt lat="44.47621" lon="1.65338">
        <ele>136.2</ele>
        <time>2022-05-07T14:38:31Z</time>
      </trkpt>
      <trkpt lat="44.47617" lon="1.65333">
        <ele>136.1</ele>
        <time>2022-05-07T14:38:32Z</time>
      </trkpt>
      <trkpt lat="44.47612" lon="1.65329">
        <ele>136.1</ele>
        <time>2022-05-07T14:38:33Z</time>
      </trkpt>
      <trkpt lat="44.47608" lon="1.65326">
        <ele>136.2</ele>
        <time>2022-05-07T14:38:34Z</time>
      </trkpt>
      <trkpt lat="44.47606" lon="1.65325">
        <ele>136.3</ele>
        <time>2022-05-07T14:38:35Z</time>
      </trkpt>
      <trkpt lat="44.47602" lon="1.65322">
        <ele>136.4</ele>
        <time>2022-05-07T14:38:37Z</time>
      </trkpt>
      <trkpt lat="44.47599" lon="1.6532">
        <ele>136.6</ele>
        <time>2022-05-07T14:38:38Z</time>
      </trkpt>
      <trkpt lat="44.47596" lon="1.65319">
        <ele>136.8</ele>
        <time>2022-05-07T14:38:39Z</time>
      </trkpt>
      <trkpt lat="44.47593" lon="1.65318">
        <ele>137</ele>
        <time>2022-05-07T14:38:40Z</time>
      </trkpt>
      <trkpt lat="44.47592" lon="1.65318">
        <ele>137.1</ele>
        <time>2022-05-07T14:38:41Z</time>
      </trkpt>
      <trkpt lat="44.47588" lon="1.65317">
        <ele>137.4</ele>
        <time>2022-05-07T14:38:43Z</time>
      </trkpt>
      <trkpt lat="44.47586" lon="1.65316">
        <ele>137.5</ele>
        <time>2022-05-07T14:38:44Z</time>
      </trkpt>
      <trkpt lat="44.47585" lon="1.65316">
        <ele>137.6</ele>
        <time>2022-05-07T14:38:45Z</time>
      </trkpt>
      <trkpt lat="44.47584" lon="1.65316">
        <ele>137.7</ele>
        <time>2022-05-07T14:38:46Z</time>
      </trkpt>
      <trkpt lat="44.47582" lon="1.65316">
        <ele>137.8</ele>
        <time>2022-05-07T14:38:47Z</time>
      </trkpt>
      <trkpt lat="44.4758" lon="1.65315">
        <ele>138</ele>
        <time>2022-05-07T14:38:48Z</time>
      </trkpt>
      <trkpt lat="44.47579" lon="1.65314">
        <ele>138.1</ele>
        <time>2022-05-07T14:38:49Z</time>
      </trkpt>
      <trkpt lat="44.47578" lon="1.65314">
        <ele>138.2</ele>
        <time>2022-05-07T14:38:50Z</time>
      </trkpt>
      <trkpt lat="44.47577" lon="1.65313">
        <ele>138.3</ele>
        <time>2022-05-07T14:38:51Z</time>
      </trkpt>
      <trkpt lat="44.47576" lon="1.6531">
        <ele>138.5</ele>
        <time>2022-05-07T14:38:52Z</time>
      </trkpt>
      <trkpt lat="44.47575" lon="1.65308">
        <ele>138.6</ele>
        <time>2022-05-07T14:38:53Z</time>
      </trkpt>
      <trkpt lat="44.47574" lon="1.65307">
        <ele>138.7</ele>
        <time>2022-05-07T14:38:54Z</time>
      </trkpt>
      <trkpt lat="44.47573" lon="1.65305">
        <ele>138.9</ele>
        <time>2022-05-07T14:38:55Z</time>
      </trkpt>
      <trkpt lat="44.47572" lon="1.65304">
        <ele>139</ele>
        <time>2022-05-07T14:38:56Z</time>
      </trkpt>
      <trkpt lat="44.47571" lon="1.65304">
        <ele>139</ele>
        <time>2022-05-07T14:38:57Z</time>
      </trkpt>
      <trkpt lat="44.47571" lon="1.65303">
        <ele>139.1</ele>
        <time>2022-05-07T14:38:58Z</time>
      </trkpt>
      <trkpt lat="44.47571" lon="1.65302">
        <ele>139.1</ele>
        <time>2022-05-07T14:38:59Z</time>
      </trkpt>
      <trkpt lat="44.47571" lon="1.65301">
        <ele>139.1</ele>
        <time>2022-05-07T14:39:00Z</time>
      </trkpt>
      <trkpt lat="44.47571" lon="1.65301">
        <ele>139.2</ele>
        <time>2022-05-07T14:39:01Z</time>
      </trkpt>
      <trkpt lat="44.47571" lon="1.65301">
        <ele>139.2</ele>
        <time>2022-05-07T14:39:02Z</time>
      </trkpt>
      <trkpt lat="44.47571" lon="1.65301">
        <ele>139.2</ele>
        <time>2022-05-07T14:39:03Z</time>
      </trkpt>
      <trkpt lat="44.47571" lon="1.653">
        <ele>139.2</ele>
        <time>2022-05-07T14:39:04Z</time>
      </trkpt>
      <trkpt lat="44.47571" lon="1.653">
        <ele>139.2</ele>
        <time>2022-05-07T14:39:05Z</time>
      </trkpt>
      <trkpt lat="44.4757" lon="1.653">
        <ele>139.2</ele>
        <time>2022-05-07T14:39:06Z</time>
      </trkpt>
      <trkpt lat="44.4757" lon="1.653">
        <ele>139.2</ele>
        <time>2022-05-07T14:39:07Z</time>
      </trkpt>
      <trkpt lat="44.4757" lon="1.65296">
        <ele>139.5</ele>
        <time>2022-05-07T14:40:36Z</time>
      </trkpt>
      <trkpt lat="44.47569" lon="1.65292">
        <ele>139.5</ele>
        <time>2022-05-07T14:40:37Z</time>
      </trkpt>
      <trkpt lat="44.47567" lon="1.6529">
        <ele>139.4</ele>
        <time>2022-05-07T14:40:38Z</time>
      </trkpt>
      <trkpt lat="44.47567" lon="1.6529">
        <ele>139.3</ele>
        <time>2022-05-07T14:40:40Z</time>
      </trkpt>
      <trkpt lat="44.47566" lon="1.6529">
        <ele>139.3</ele>
        <time>2022-05-07T14:40:41Z</time>
      </trkpt>
      <trkpt lat="44.47565" lon="1.65289">
        <ele>139.2</ele>
        <time>2022-05-07T14:40:42Z</time>
      </trkpt>
      <trkpt lat="44.47565" lon="1.65289">
        <ele>139.2</ele>
        <time>2022-05-07T14:40:43Z</time>
      </trkpt>
      <trkpt lat="44.47564" lon="1.65289">
        <ele>139.2</ele>
        <time>2022-05-07T14:40:44Z</time>
      </trkpt>
      <trkpt lat="44.47564" lon="1.65288">
        <ele>139.1</ele>
        <time>2022-05-07T14:40:45Z</time>
      </trkpt>
      <trkpt lat="44.47563" lon="1.65288">
        <ele>139.1</ele>
        <time>2022-05-07T14:40:46Z</time>
      </trkpt>
      <trkpt lat="44.47563" lon="1.65288">
        <ele>139</ele>
        <time>2022-05-07T14:40:48Z</time>
      </trkpt>
      <trkpt lat="44.47562" lon="1.65287">
        <ele>139</ele>
        <time>2022-05-07T14:40:49Z</time>
      </trkpt>
      <trkpt lat="44.4756" lon="1.65283">
        <ele>138.7</ele>
        <time>2022-05-07T14:40:50Z</time>
      </trkpt>
      <trkpt lat="44.47558" lon="1.65275">
        <ele>138.4</ele>
        <time>2022-05-07T14:40:52Z</time>
      </trkpt>
      <trkpt lat="44.47556" lon="1.6527">
        <ele>138.1</ele>
        <time>2022-05-07T14:40:54Z</time>
      </trkpt>
      <trkpt lat="44.47554" lon="1.65267">
        <ele>137.9</ele>
        <time>2022-05-07T14:40:55Z</time>
      </trkpt>
      <trkpt lat="44.47552" lon="1.65263">
        <ele>137.6</ele>
        <time>2022-05-07T14:40:56Z</time>
      </trkpt>
      <trkpt lat="44.47551" lon="1.65261">
        <ele>137.6</ele>
        <time>2022-05-07T14:40:57Z</time>
      </trkpt>
      <trkpt lat="44.47548" lon="1.65257">
        <ele>137.3</ele>
        <time>2022-05-07T14:40:58Z</time>
      </trkpt>
      <trkpt lat="44.47547" lon="1.65256">
        <ele>137.2</ele>
        <time>2022-05-07T14:40:59Z</time>
      </trkpt>
      <trkpt lat="44.47545" lon="1.65253">
        <ele>137</ele>
        <time>2022-05-07T14:41:00Z</time>
      </trkpt>
      <trkpt lat="44.47543" lon="1.6525">
        <ele>136.9</ele>
        <time>2022-05-07T14:41:01Z</time>
      </trkpt>
      <trkpt lat="44.47541" lon="1.65247">
        <ele>136.6</ele>
        <time>2022-05-07T14:41:02Z</time>
      </trkpt>
      <trkpt lat="44.47538" lon="1.65241">
        <ele>136.3</ele>
        <time>2022-05-07T14:41:04Z</time>
      </trkpt>
      <trkpt lat="44.47535" lon="1.65233">
        <ele>135.8</ele>
        <time>2022-05-07T14:41:06Z</time>
      </trkpt>
      <trkpt lat="44.47533" lon="1.6523">
        <ele>135.6</ele>
        <time>2022-05-07T14:41:07Z</time>
      </trkpt>
      <trkpt lat="44.47531" lon="1.65226">
        <ele>135.4</ele>
        <time>2022-05-07T14:41:08Z</time>
      </trkpt>
      <trkpt lat="44.47529" lon="1.65222">
        <ele>135.1</ele>
        <time>2022-05-07T14:41:09Z</time>
      </trkpt>
      <trkpt lat="44.47528" lon="1.65218">
        <ele>134.9</ele>
        <time>2022-05-07T14:41:10Z</time>
      </trkpt>
      <trkpt lat="44.47526" lon="1.65215">
        <ele>134.7</ele>
        <time>2022-05-07T14:41:11Z</time>
      </trkpt>
      <trkpt lat="44.47524" lon="1.6521">
        <ele>134.5</ele>
        <time>2022-05-07T14:41:13Z</time>
      </trkpt>
      <trkpt lat="44.47522" lon="1.65206">
        <ele>134.2</ele>
        <time>2022-05-07T14:41:14Z</time>
      </trkpt>
      <trkpt lat="44.47519" lon="1.652">
        <ele>134</ele>
        <time>2022-05-07T14:41:15Z</time>
      </trkpt>
      <trkpt lat="44.47517" lon="1.65197">
        <ele>133.8</ele>
        <time>2022-05-07T14:41:16Z</time>
      </trkpt>
      <trkpt lat="44.47514" lon="1.65192">
        <ele>133.6</ele>
        <time>2022-05-07T14:41:18Z</time>
      </trkpt>
      <trkpt lat="44.47512" lon="1.65188">
        <ele>133.4</ele>
        <time>2022-05-07T14:41:19Z</time>
      </trkpt>
      <trkpt lat="44.4751" lon="1.65183">
        <ele>133.2</ele>
        <time>2022-05-07T14:41:21Z</time>
      </trkpt>
      <trkpt lat="44.47508" lon="1.65179">
        <ele>133.1</ele>
        <time>2022-05-07T14:41:22Z</time>
      </trkpt>
      <trkpt lat="44.47505" lon="1.65176">
        <ele>133</ele>
        <time>2022-05-07T14:41:23Z</time>
      </trkpt>
      <trkpt lat="44.47503" lon="1.65173">
        <ele>132.9</ele>
        <time>2022-05-07T14:41:24Z</time>
      </trkpt>
      <trkpt lat="44.47502" lon="1.65172">
        <ele>132.9</ele>
        <time>2022-05-07T14:41:25Z</time>
      </trkpt>
      <trkpt lat="44.475" lon="1.65168">
        <ele>132.8</ele>
        <time>2022-05-07T14:41:26Z</time>
      </trkpt>
      <trkpt lat="44.47499" lon="1.65164">
        <ele>132.7</ele>
        <time>2022-05-07T14:41:27Z</time>
      </trkpt>
      <trkpt lat="44.47496" lon="1.65158">
        <ele>132.7</ele>
        <time>2022-05-07T14:41:29Z</time>
      </trkpt>
      <trkpt lat="44.47496" lon="1.65154">
        <ele>132.6</ele>
        <time>2022-05-07T14:41:30Z</time>
      </trkpt>
      <trkpt lat="44.47493" lon="1.65149">
        <ele>132.6</ele>
        <time>2022-05-07T14:41:32Z</time>
      </trkpt>
      <trkpt lat="44.47492" lon="1.65146">
        <ele>132.6</ele>
        <time>2022-05-07T14:41:33Z</time>
      </trkpt>
      <trkpt lat="44.47489" lon="1.65144">
        <ele>132.6</ele>
        <time>2022-05-07T14:41:34Z</time>
      </trkpt>
      <trkpt lat="44.47488" lon="1.65145">
        <ele>132.7</ele>
        <time>2022-05-07T14:41:35Z</time>
      </trkpt>
      <trkpt lat="44.47487" lon="1.65144">
        <ele>132.7</ele>
        <time>2022-05-07T14:41:36Z</time>
      </trkpt>
      <trkpt lat="44.47487" lon="1.65145">
        <ele>132.7</ele>
        <time>2022-05-07T14:41:37Z</time>
      </trkpt>
      <trkpt lat="44.47487" lon="1.65145">
        <ele>132.7</ele>
        <time>2022-05-07T14:41:38Z</time>
      </trkpt>
      <trkpt lat="44.47487" lon="1.65145">
        <ele>132.7</ele>
        <time>2022-05-07T14:41:39Z</time>
      </trkpt>
      <trkpt lat="44.47487" lon="1.65145">
        <ele>132.7</ele>
        <time>2022-05-07T14:41:40Z</time>
      </trkpt>
      <trkpt lat="44.47487" lon="1.65145">
        <ele>132.7</ele>
        <time>2022-05-07T14:41:41Z</time>
      </trkpt>
      <trkpt lat="44.47487" lon="1.65145">
        <ele>132.8</ele>
        <time>2022-05-07T14:41:42Z</time>
      </trkpt>
      <trkpt lat="44.47487" lon="1.65145">
        <ele>132.8</ele>
        <time>2022-05-07T14:41:44Z</time>
      </trkpt>
      <trkpt lat="44.47487" lon="1.65145">
        <ele>132.8</ele>
        <time>2022-05-07T14:41:45Z</time>
      </trkpt>
      <trkpt lat="44.47486" lon="1.65144">
        <ele>132.8</ele>
        <time>2022-05-07T14:41:48Z</time>
      </trkpt>
      <trkpt lat="44.47483" lon="1.65133">
        <ele>133.3</ele>
        <time>2022-05-07T14:41:50Z</time>
      </trkpt>
      <trkpt lat="44.47481" lon="1.65127">
        <ele>133.7</ele>
        <time>2022-05-07T14:41:51Z</time>
      </trkpt>
      <trkpt lat="44.47479" lon="1.65123">
        <ele>134</ele>
        <time>2022-05-07T14:41:52Z</time>
      </trkpt>
      <trkpt lat="44.47478" lon="1.65118">
        <ele>134.4</ele>
        <time>2022-05-07T14:41:53Z</time>
      </trkpt>
      <trkpt lat="44.47478" lon="1.65117">
        <ele>134.5</ele>
        <time>2022-05-07T14:41:54Z</time>
      </trkpt>
      <trkpt lat="44.47476" lon="1.65115">
        <ele>134.6</ele>
        <time>2022-05-07T14:41:55Z</time>
      </trkpt>
      <trkpt lat="44.47475" lon="1.65114">
        <ele>134.8</ele>
        <time>2022-05-07T14:41:57Z</time>
      </trkpt>
      <trkpt lat="44.47472" lon="1.65112">
        <ele>135.1</ele>
        <time>2022-05-07T14:41:58Z</time>
      </trkpt>
      <trkpt lat="44.47469" lon="1.65109">
        <ele>135.4</ele>
        <time>2022-05-07T14:41:59Z</time>
      </trkpt>
      <trkpt lat="44.47467" lon="1.65105">
        <ele>135.7</ele>
        <time>2022-05-07T14:42:01Z</time>
      </trkpt>
      <trkpt lat="44.47465" lon="1.651">
        <ele>136</ele>
        <time>2022-05-07T14:42:02Z</time>
      </trkpt>
      <trkpt lat="44.47462" lon="1.65096">
        <ele>136.3</ele>
        <time>2022-05-07T14:42:04Z</time>
      </trkpt>
      <trkpt lat="44.4746" lon="1.65094">
        <ele>136.4</ele>
        <time>2022-05-07T14:42:05Z</time>
      </trkpt>
      <trkpt lat="44.47459" lon="1.6509">
        <ele>136.5</ele>
        <time>2022-05-07T14:42:06Z</time>
      </trkpt>
      <trkpt lat="44.47456" lon="1.65086">
        <ele>136.7</ele>
        <time>2022-05-07T14:42:08Z</time>
      </trkpt>
      <trkpt lat="44.47454" lon="1.65083">
        <ele>136.8</ele>
        <time>2022-05-07T14:42:09Z</time>
      </trkpt>
      <trkpt lat="44.4745" lon="1.65081">
        <ele>137</ele>
        <time>2022-05-07T14:42:11Z</time>
      </trkpt>
      <trkpt lat="44.47449" lon="1.6508">
        <ele>137.1</ele>
        <time>2022-05-07T14:42:12Z</time>
      </trkpt>
      <trkpt lat="44.47448" lon="1.65078">
        <ele>137.1</ele>
        <time>2022-05-07T14:42:13Z</time>
      </trkpt>
      <trkpt lat="44.47445" lon="1.65075">
        <ele>137.2</ele>
        <time>2022-05-07T14:42:14Z</time>
      </trkpt>
      <trkpt lat="44.47443" lon="1.65072">
        <ele>137.3</ele>
        <time>2022-05-07T14:42:15Z</time>
      </trkpt>
      <trkpt lat="44.47442" lon="1.65071">
        <ele>137.3</ele>
        <time>2022-05-07T14:42:16Z</time>
      </trkpt>
      <trkpt lat="44.47441" lon="1.6507">
        <ele>137.4</ele>
        <time>2022-05-07T14:42:18Z</time>
      </trkpt>
      <trkpt lat="44.47439" lon="1.65069">
        <ele>137.5</ele>
        <time>2022-05-07T14:42:19Z</time>
      </trkpt>
      <trkpt lat="44.47438" lon="1.6507">
        <ele>137.6</ele>
        <time>2022-05-07T14:42:20Z</time>
      </trkpt>
      <trkpt lat="44.47438" lon="1.6507">
        <ele>137.6</ele>
        <time>2022-05-07T14:42:21Z</time>
      </trkpt>
      <trkpt lat="44.47437" lon="1.65071">
        <ele>137.7</ele>
        <time>2022-05-07T14:42:22Z</time>
      </trkpt>
      <trkpt lat="44.47437" lon="1.65071">
        <ele>137.8</ele>
        <time>2022-05-07T14:42:23Z</time>
      </trkpt>
      <trkpt lat="44.47436" lon="1.65071">
        <ele>137.8</ele>
        <time>2022-05-07T14:42:24Z</time>
      </trkpt>
      <trkpt lat="44.47436" lon="1.65072">
        <ele>137.9</ele>
        <time>2022-05-07T14:42:25Z</time>
      </trkpt>
      <trkpt lat="44.47435" lon="1.65072">
        <ele>138</ele>
        <time>2022-05-07T14:42:26Z</time>
      </trkpt>
      <trkpt lat="44.47435" lon="1.65073">
        <ele>138</ele>
        <time>2022-05-07T14:42:28Z</time>
      </trkpt>
      <trkpt lat="44.47435" lon="1.65073">
        <ele>138.1</ele>
        <time>2022-05-07T14:42:30Z</time>
      </trkpt>
      <trkpt lat="44.47434" lon="1.65073">
        <ele>138.2</ele>
        <time>2022-05-07T14:42:31Z</time>
      </trkpt>
      <trkpt lat="44.47432" lon="1.65074">
        <ele>138.4</ele>
        <time>2022-05-07T14:42:32Z</time>
      </trkpt>
      <trkpt lat="44.47431" lon="1.65075">
        <ele>138.6</ele>
        <time>2022-05-07T14:42:33Z</time>
      </trkpt>
      <trkpt lat="44.4743" lon="1.65077">
        <ele>138.8</ele>
        <time>2022-05-07T14:42:34Z</time>
      </trkpt>
      <trkpt lat="44.47429" lon="1.65078">
        <ele>138.9</ele>
        <time>2022-05-07T14:42:36Z</time>
      </trkpt>
      <trkpt lat="44.47429" lon="1.65079">
        <ele>139</ele>
        <time>2022-05-07T14:42:37Z</time>
      </trkpt>
      <trkpt lat="44.47429" lon="1.65079">
        <ele>139</ele>
        <time>2022-05-07T14:42:38Z</time>
      </trkpt>
      <trkpt lat="44.47429" lon="1.65079">
        <ele>139</ele>
        <time>2022-05-07T14:42:39Z</time>
      </trkpt>
      <trkpt lat="44.47429" lon="1.6508">
        <ele>139.1</ele>
        <time>2022-05-07T14:42:40Z</time>
      </trkpt>
      <trkpt lat="44.47428" lon="1.65081">
        <ele>139.3</ele>
        <time>2022-05-07T14:42:41Z</time>
      </trkpt>
      <trkpt lat="44.47427" lon="1.65081">
        <ele>139.4</ele>
        <time>2022-05-07T14:42:42Z</time>
      </trkpt>
      <trkpt lat="44.47415" lon="1.65091">
        <ele>140.9</ele>
        <time>2022-05-07T14:43:14Z</time>
      </trkpt>
      <trkpt lat="44.47413" lon="1.65092">
        <ele>141.2</ele>
        <time>2022-05-07T14:43:15Z</time>
      </trkpt>
      <trkpt lat="44.47411" lon="1.65093">
        <ele>141.3</ele>
        <time>2022-05-07T14:43:16Z</time>
      </trkpt>
      <trkpt lat="44.4741" lon="1.65094">
        <ele>141.4</ele>
        <time>2022-05-07T14:43:17Z</time>
      </trkpt>
      <trkpt lat="44.4741" lon="1.65095">
        <ele>141.5</ele>
        <time>2022-05-07T14:43:18Z</time>
      </trkpt>
      <trkpt lat="44.4741" lon="1.65096">
        <ele>141.5</ele>
        <time>2022-05-07T14:43:19Z</time>
      </trkpt>
      <trkpt lat="44.4741" lon="1.65097">
        <ele>141.6</ele>
        <time>2022-05-07T14:43:20Z</time>
      </trkpt>
      <trkpt lat="44.47411" lon="1.65097">
        <ele>141.7</ele>
        <time>2022-05-07T14:43:21Z</time>
      </trkpt>
      <trkpt lat="44.47411" lon="1.65098">
        <ele>141.7</ele>
        <time>2022-05-07T14:43:22Z</time>
      </trkpt>
      <trkpt lat="44.47411" lon="1.65099">
        <ele>141.8</ele>
        <time>2022-05-07T14:43:23Z</time>
      </trkpt>
      <trkpt lat="44.47412" lon="1.651">
        <ele>141.8</ele>
        <time>2022-05-07T14:43:24Z</time>
      </trkpt>
      <trkpt lat="44.47412" lon="1.65101">
        <ele>141.9</ele>
        <time>2022-05-07T14:43:25Z</time>
      </trkpt>
      <trkpt lat="44.47412" lon="1.65102">
        <ele>141.9</ele>
        <time>2022-05-07T14:43:26Z</time>
      </trkpt>
      <trkpt lat="44.47412" lon="1.65103">
        <ele>142</ele>
        <time>2022-05-07T14:44:04Z</time>
      </trkpt>
      <trkpt lat="44.47413" lon="1.65104">
        <ele>142</ele>
        <time>2022-05-07T14:44:05Z</time>
      </trkpt>
      <trkpt lat="44.47413" lon="1.65105">
        <ele>142.1</ele>
        <time>2022-05-07T14:44:06Z</time>
      </trkpt>
      <trkpt lat="44.47413" lon="1.6511">
        <ele>142.3</ele>
        <time>2022-05-07T14:44:07Z</time>
      </trkpt>
      <trkpt lat="44.47412" lon="1.65112">
        <ele>142.4</ele>
        <time>2022-05-07T14:44:08Z</time>
      </trkpt>
      <trkpt lat="44.47412" lon="1.65117">
        <ele>142.7</ele>
        <time>2022-05-07T14:44:09Z</time>
      </trkpt>
      <trkpt lat="44.47412" lon="1.65119">
        <ele>142.8</ele>
        <time>2022-05-07T14:44:10Z</time>
      </trkpt>
      <trkpt lat="44.47411" lon="1.65124">
        <ele>143</ele>
        <time>2022-05-07T14:44:11Z</time>
      </trkpt>
      <trkpt lat="44.47411" lon="1.65129">
        <ele>143.3</ele>
        <time>2022-05-07T14:44:12Z</time>
      </trkpt>
      <trkpt lat="44.47411" lon="1.65135">
        <ele>143.7</ele>
        <time>2022-05-07T14:44:13Z</time>
      </trkpt>
      <trkpt lat="44.47411" lon="1.65137">
        <ele>143.9</ele>
        <time>2022-05-07T14:44:14Z</time>
      </trkpt>
      <trkpt lat="44.4741" lon="1.65141">
        <ele>144.2</ele>
        <time>2022-05-07T14:44:15Z</time>
      </trkpt>
      <trkpt lat="44.4741" lon="1.65142">
        <ele>144.3</ele>
        <time>2022-05-07T14:44:16Z</time>
      </trkpt>
      <trkpt lat="44.47409" lon="1.65148">
        <ele>144.8</ele>
        <time>2022-05-07T14:44:17Z</time>
      </trkpt>
      <trkpt lat="44.47409" lon="1.6515">
        <ele>145</ele>
        <time>2022-05-07T14:44:18Z</time>
      </trkpt>
      <trkpt lat="44.47409" lon="1.65155">
        <ele>145.4</ele>
        <time>2022-05-07T14:44:19Z</time>
      </trkpt>
      <trkpt lat="44.47409" lon="1.65156">
        <ele>145.5</ele>
        <time>2022-05-07T14:44:20Z</time>
      </trkpt>
      <trkpt lat="44.47409" lon="1.65161">
        <ele>145.8</ele>
        <time>2022-05-07T14:44:21Z</time>
      </trkpt>
      <trkpt lat="44.47409" lon="1.65163">
        <ele>146</ele>
        <time>2022-05-07T14:44:22Z</time>
      </trkpt>
      <trkpt lat="44.47409" lon="1.65168">
        <ele>146.3</ele>
        <time>2022-05-07T14:44:23Z</time>
      </trkpt>
      <trkpt lat="44.47409" lon="1.6517">
        <ele>146.4</ele>
        <time>2022-05-07T14:44:24Z</time>
      </trkpt>
      <trkpt lat="44.47409" lon="1.65172">
        <ele>146.5</ele>
        <time>2022-05-07T14:44:25Z</time>
      </trkpt>
      <trkpt lat="44.4741" lon="1.65174">
        <ele>146.6</ele>
        <time>2022-05-07T14:44:26Z</time>
      </trkpt>
      <trkpt lat="44.4741" lon="1.6518">
        <ele>146.9</ele>
        <time>2022-05-07T14:44:28Z</time>
      </trkpt>
      <trkpt lat="44.4741" lon="1.65182">
        <ele>147</ele>
        <time>2022-05-07T14:44:29Z</time>
      </trkpt>
      <trkpt lat="44.47411" lon="1.65187">
        <ele>147.2</ele>
        <time>2022-05-07T14:44:30Z</time>
      </trkpt>
      <trkpt lat="44.47411" lon="1.65191">
        <ele>147.4</ele>
        <time>2022-05-07T14:44:31Z</time>
      </trkpt>
      <trkpt lat="44.47412" lon="1.65196">
        <ele>147.6</ele>
        <time>2022-05-07T14:44:32Z</time>
      </trkpt>
      <trkpt lat="44.47412" lon="1.65198">
        <ele>147.7</ele>
        <time>2022-05-07T14:44:33Z</time>
      </trkpt>
      <trkpt lat="44.47413" lon="1.65203">
        <ele>148</ele>
        <time>2022-05-07T14:44:35Z</time>
      </trkpt>
      <trkpt lat="44.47413" lon="1.65207">
        <ele>148.2</ele>
        <time>2022-05-07T14:44:36Z</time>
      </trkpt>
      <trkpt lat="44.47414" lon="1.6521">
        <ele>148.3</ele>
        <time>2022-05-07T14:44:37Z</time>
      </trkpt>
      <trkpt lat="44.47414" lon="1.65212">
        <ele>148.4</ele>
        <time>2022-05-07T14:44:38Z</time>
      </trkpt>
      <trkpt lat="44.47414" lon="1.65215">
        <ele>148.6</ele>
        <time>2022-05-07T14:44:40Z</time>
      </trkpt>
      <trkpt lat="44.47414" lon="1.65215">
        <ele>148.6</ele>
        <time>2022-05-07T14:44:41Z</time>
      </trkpt>
      <trkpt lat="44.47414" lon="1.65216">
        <ele>148.6</ele>
        <time>2022-05-07T14:44:42Z</time>
      </trkpt>
      <trkpt lat="44.47414" lon="1.65216">
        <ele>148.6</ele>
        <time>2022-05-07T14:44:43Z</time>
      </trkpt>
      <trkpt lat="44.47414" lon="1.65218">
        <ele>148.7</ele>
        <time>2022-05-07T14:44:44Z</time>
      </trkpt>
      <trkpt lat="44.47414" lon="1.6522">
        <ele>148.8</ele>
        <time>2022-05-07T14:44:45Z</time>
      </trkpt>
      <trkpt lat="44.47415" lon="1.65221">
        <ele>148.9</ele>
        <time>2022-05-07T14:44:46Z</time>
      </trkpt>
      <trkpt lat="44.47415" lon="1.65223">
        <ele>148.9</ele>
        <time>2022-05-07T14:44:47Z</time>
      </trkpt>
      <trkpt lat="44.47415" lon="1.65225">
        <ele>149</ele>
        <time>2022-05-07T14:44:48Z</time>
      </trkpt>
      <trkpt lat="44.47415" lon="1.65226">
        <ele>149.1</ele>
        <time>2022-05-07T14:45:17Z</time>
      </trkpt>
      <trkpt lat="44.47415" lon="1.65228">
        <ele>149.2</ele>
        <time>2022-05-07T14:45:18Z</time>
      </trkpt>
      <trkpt lat="44.47416" lon="1.65231">
        <ele>149.4</ele>
        <time>2022-05-07T14:45:19Z</time>
      </trkpt>
      <trkpt lat="44.47415" lon="1.65232">
        <ele>149.4</ele>
        <time>2022-05-07T14:45:20Z</time>
      </trkpt>
      <trkpt lat="44.47416" lon="1.65236">
        <ele>149.7</ele>
        <time>2022-05-07T14:45:22Z</time>
      </trkpt>
      <trkpt lat="44.47416" lon="1.65242">
        <ele>150.1</ele>
        <time>2022-05-07T14:45:23Z</time>
      </trkpt>
      <trkpt lat="44.47416" lon="1.65248">
        <ele>150.5</ele>
        <time>2022-05-07T14:45:24Z</time>
      </trkpt>
      <trkpt lat="44.47416" lon="1.65253">
        <ele>151</ele>
        <time>2022-05-07T14:45:25Z</time>
      </trkpt>
      <trkpt lat="44.47416" lon="1.65257">
        <ele>151.4</ele>
        <time>2022-05-07T14:45:26Z</time>
      </trkpt>
      <trkpt lat="44.47416" lon="1.65261">
        <ele>151.8</ele>
        <time>2022-05-07T14:45:27Z</time>
      </trkpt>
      <trkpt lat="44.47416" lon="1.65265">
        <ele>152.2</ele>
        <time>2022-05-07T14:45:28Z</time>
      </trkpt>
      <trkpt lat="44.47416" lon="1.65269">
        <ele>152.6</ele>
        <time>2022-05-07T14:45:29Z</time>
      </trkpt>
      <trkpt lat="44.47418" lon="1.65273">
        <ele>153</ele>
        <time>2022-05-07T14:45:30Z</time>
      </trkpt>
      <trkpt lat="44.47418" lon="1.65276">
        <ele>153.2</ele>
        <time>2022-05-07T14:45:31Z</time>
      </trkpt>
      <trkpt lat="44.47418" lon="1.65283">
        <ele>153.9</ele>
        <time>2022-05-07T14:45:34Z</time>
      </trkpt>
      <trkpt lat="44.47419" lon="1.65287">
        <ele>154.1</ele>
        <time>2022-05-07T14:45:35Z</time>
      </trkpt>
      <trkpt lat="44.47419" lon="1.65291">
        <ele>154.5</ele>
        <time>2022-05-07T14:45:36Z</time>
      </trkpt>
      <trkpt lat="44.47419" lon="1.65293">
        <ele>154.6</ele>
        <time>2022-05-07T14:45:37Z</time>
      </trkpt>
      <trkpt lat="44.47419" lon="1.65297">
        <ele>154.9</ele>
        <time>2022-05-07T14:45:39Z</time>
      </trkpt>
      <trkpt lat="44.47419" lon="1.65298">
        <ele>155.1</ele>
        <time>2022-05-07T14:45:40Z</time>
      </trkpt>
      <trkpt lat="44.47418" lon="1.65303">
        <ele>155.4</ele>
        <time>2022-05-07T14:45:41Z</time>
      </trkpt>
      <trkpt lat="44.47418" lon="1.65305">
        <ele>155.6</ele>
        <time>2022-05-07T14:45:42Z</time>
      </trkpt>
      <trkpt lat="44.47418" lon="1.65308">
        <ele>155.9</ele>
        <time>2022-05-07T14:45:43Z</time>
      </trkpt>
      <trkpt lat="44.47418" lon="1.65312">
        <ele>156.2</ele>
        <time>2022-05-07T14:45:45Z</time>
      </trkpt>
      <trkpt lat="44.47419" lon="1.65316">
        <ele>156.6</ele>
        <time>2022-05-07T14:45:46Z</time>
      </trkpt>
      <trkpt lat="44.47419" lon="1.65318">
        <ele>156.8</ele>
        <time>2022-05-07T14:45:47Z</time>
      </trkpt>
      <trkpt lat="44.4742" lon="1.6532">
        <ele>157.1</ele>
        <time>2022-05-07T14:45:48Z</time>
      </trkpt>
      <trkpt lat="44.47421" lon="1.65322">
        <ele>157.3</ele>
        <time>2022-05-07T14:45:49Z</time>
      </trkpt>
      <trkpt lat="44.47422" lon="1.65323">
        <ele>157.5</ele>
        <time>2022-05-07T14:45:50Z</time>
      </trkpt>
      <trkpt lat="44.47423" lon="1.65323">
        <ele>157.6</ele>
        <time>2022-05-07T14:45:51Z</time>
      </trkpt>
      <trkpt lat="44.47425" lon="1.65322">
        <ele>157.9</ele>
        <time>2022-05-07T14:45:52Z</time>
      </trkpt>
      <trkpt lat="44.47427" lon="1.65321">
        <ele>158.2</ele>
        <time>2022-05-07T14:45:54Z</time>
      </trkpt>
      <trkpt lat="44.4743" lon="1.65322">
        <ele>158.5</ele>
        <time>2022-05-07T14:45:55Z</time>
      </trkpt>
      <trkpt lat="44.47431" lon="1.65323">
        <ele>158.6</ele>
        <time>2022-05-07T14:45:56Z</time>
      </trkpt>
      <trkpt lat="44.47432" lon="1.65323">
        <ele>158.8</ele>
        <time>2022-05-07T14:45:57Z</time>
      </trkpt>
      <trkpt lat="44.47433" lon="1.65324">
        <ele>158.9</ele>
        <time>2022-05-07T14:45:59Z</time>
      </trkpt>
      <trkpt lat="44.47436" lon="1.65324">
        <ele>159.2</ele>
        <time>2022-05-07T14:46:00Z</time>
      </trkpt>
      <trkpt lat="44.47439" lon="1.65324">
        <ele>159.5</ele>
        <time>2022-05-07T14:46:02Z</time>
      </trkpt>
      <trkpt lat="44.47442" lon="1.65325">
        <ele>159.8</ele>
        <time>2022-05-07T14:46:03Z</time>
      </trkpt>
      <trkpt lat="44.47443" lon="1.65325">
        <ele>159.9</ele>
        <time>2022-05-07T14:46:05Z</time>
      </trkpt>
      <trkpt lat="44.47444" lon="1.65326">
        <ele>160.1</ele>
        <time>2022-05-07T14:46:06Z</time>
      </trkpt>
      <trkpt lat="44.47445" lon="1.65326">
        <ele>160.2</ele>
        <time>2022-05-07T14:46:07Z</time>
      </trkpt>
      <trkpt lat="44.47447" lon="1.65326">
        <ele>160.4</ele>
        <time>2022-05-07T14:46:08Z</time>
      </trkpt>
      <trkpt lat="44.47448" lon="1.65326">
        <ele>160.5</ele>
        <time>2022-05-07T14:46:09Z</time>
      </trkpt>
      <trkpt lat="44.4745" lon="1.65326">
        <ele>160.7</ele>
        <time>2022-05-07T14:46:10Z</time>
      </trkpt>
      <trkpt lat="44.4745" lon="1.65327">
        <ele>160.7</ele>
        <time>2022-05-07T14:46:11Z</time>
      </trkpt>
      <trkpt lat="44.47451" lon="1.65327">
        <ele>160.8</ele>
        <time>2022-05-07T14:46:12Z</time>
      </trkpt>
      <trkpt lat="44.47452" lon="1.65327">
        <ele>160.9</ele>
        <time>2022-05-07T14:46:13Z</time>
      </trkpt>
      <trkpt lat="44.47452" lon="1.65328">
        <ele>160.9</ele>
        <time>2022-05-07T14:46:14Z</time>
      </trkpt>
      <trkpt lat="44.47453" lon="1.65328">
        <ele>161</ele>
        <time>2022-05-07T14:46:15Z</time>
      </trkpt>
      <trkpt lat="44.47453" lon="1.65329">
        <ele>161.1</ele>
        <time>2022-05-07T14:46:16Z</time>
      </trkpt>
      <trkpt lat="44.47454" lon="1.65329">
        <ele>161.2</ele>
        <time>2022-05-07T14:46:17Z</time>
      </trkpt>
      <trkpt lat="44.47455" lon="1.65329">
        <ele>161.3</ele>
        <time>2022-05-07T14:46:18Z</time>
      </trkpt>
      <trkpt lat="44.47455" lon="1.6533">
        <ele>161.3</ele>
        <time>2022-05-07T14:46:19Z</time>
      </trkpt>
      <trkpt lat="44.47456" lon="1.6533">
        <ele>161.4</ele>
        <time>2022-05-07T14:47:25Z</time>
      </trkpt>
      <trkpt lat="44.47457" lon="1.65331">
        <ele>161.5</ele>
        <time>2022-05-07T14:47:26Z</time>
      </trkpt>
      <trkpt lat="44.47459" lon="1.65332">
        <ele>161.8</ele>
        <time>2022-05-07T14:47:27Z</time>
      </trkpt>
      <trkpt lat="44.47461" lon="1.65333">
        <ele>161.9</ele>
        <time>2022-05-07T14:47:28Z</time>
      </trkpt>
      <trkpt lat="44.47463" lon="1.65334">
        <ele>162.3</ele>
        <time>2022-05-07T14:47:29Z</time>
      </trkpt>
      <trkpt lat="44.47464" lon="1.65335">
        <ele>162.4</ele>
        <time>2022-05-07T14:47:30Z</time>
      </trkpt>
      <trkpt lat="44.47467" lon="1.65338">
        <ele>162.8</ele>
        <time>2022-05-07T14:47:31Z</time>
      </trkpt>
      <trkpt lat="44.47468" lon="1.65339">
        <ele>162.9</ele>
        <time>2022-05-07T14:47:32Z</time>
      </trkpt>
      <trkpt lat="44.4747" lon="1.65342">
        <ele>163.3</ele>
        <time>2022-05-07T14:47:33Z</time>
      </trkpt>
      <trkpt lat="44.47471" lon="1.65343">
        <ele>163.4</ele>
        <time>2022-05-07T14:47:34Z</time>
      </trkpt>
      <trkpt lat="44.47472" lon="1.65344">
        <ele>163.6</ele>
        <time>2022-05-07T14:47:35Z</time>
      </trkpt>
      <trkpt lat="44.47474" lon="1.65347">
        <ele>164</ele>
        <time>2022-05-07T14:47:37Z</time>
      </trkpt>
      <trkpt lat="44.47476" lon="1.65351">
        <ele>164.4</ele>
        <time>2022-05-07T14:47:38Z</time>
      </trkpt>
      <trkpt lat="44.47477" lon="1.65353">
        <ele>164.6</ele>
        <time>2022-05-07T14:47:39Z</time>
      </trkpt>
      <trkpt lat="44.47479" lon="1.65358">
        <ele>165.1</ele>
        <time>2022-05-07T14:47:41Z</time>
      </trkpt>
      <trkpt lat="44.47481" lon="1.6536">
        <ele>165.5</ele>
        <time>2022-05-07T14:47:43Z</time>
      </trkpt>
      <trkpt lat="44.47482" lon="1.65363">
        <ele>165.8</ele>
        <time>2022-05-07T14:47:44Z</time>
      </trkpt>
      <trkpt lat="44.47483" lon="1.65367">
        <ele>166.2</ele>
        <time>2022-05-07T14:47:45Z</time>
      </trkpt>
      <trkpt lat="44.47485" lon="1.65371">
        <ele>166.7</ele>
        <time>2022-05-07T14:47:46Z</time>
      </trkpt>
      <trkpt lat="44.47486" lon="1.65372">
        <ele>166.8</ele>
        <time>2022-05-07T14:47:47Z</time>
      </trkpt>
      <trkpt lat="44.47488" lon="1.65373">
        <ele>167.1</ele>
        <time>2022-05-07T14:47:48Z</time>
      </trkpt>
      <trkpt lat="44.47489" lon="1.65376">
        <ele>167.5</ele>
        <time>2022-05-07T14:47:50Z</time>
      </trkpt>
      <trkpt lat="44.47491" lon="1.6538">
        <ele>168</ele>
        <time>2022-05-07T14:47:51Z</time>
      </trkpt>
      <trkpt lat="44.47491" lon="1.65384">
        <ele>168.5</ele>
        <time>2022-05-07T14:47:52Z</time>
      </trkpt>
      <trkpt lat="44.47493" lon="1.6539">
        <ele>169.1</ele>
        <time>2022-05-07T14:47:54Z</time>
      </trkpt>
      <trkpt lat="44.47493" lon="1.65393">
        <ele>169.4</ele>
        <time>2022-05-07T14:47:55Z</time>
      </trkpt>
      <trkpt lat="44.47494" lon="1.65397">
        <ele>169.7</ele>
        <time>2022-05-07T14:47:57Z</time>
      </trkpt>
      <trkpt lat="44.47494" lon="1.65401">
        <ele>170.1</ele>
        <time>2022-05-07T14:47:58Z</time>
      </trkpt>
      <trkpt lat="44.47494" lon="1.65402">
        <ele>170.2</ele>
        <time>2022-05-07T14:47:59Z</time>
      </trkpt>
      <trkpt lat="44.47493" lon="1.65404">
        <ele>170.4</ele>
        <time>2022-05-07T14:48:00Z</time>
      </trkpt>
      <trkpt lat="44.47492" lon="1.65405">
        <ele>170.6</ele>
        <time>2022-05-07T14:48:01Z</time>
      </trkpt>
      <trkpt lat="44.47491" lon="1.65407">
        <ele>170.8</ele>
        <time>2022-05-07T14:48:02Z</time>
      </trkpt>
      <trkpt lat="44.47491" lon="1.65408">
        <ele>170.9</ele>
        <time>2022-05-07T14:48:03Z</time>
      </trkpt>
      <trkpt lat="44.4749" lon="1.65409">
        <ele>171</ele>
        <time>2022-05-07T14:48:04Z</time>
      </trkpt>
      <trkpt lat="44.47489" lon="1.6541">
        <ele>171.2</ele>
        <time>2022-05-07T14:48:05Z</time>
      </trkpt>
      <trkpt lat="44.47488" lon="1.65411">
        <ele>171.3</ele>
        <time>2022-05-07T14:48:06Z</time>
      </trkpt>
      <trkpt lat="44.47487" lon="1.65412">
        <ele>171.5</ele>
        <time>2022-05-07T14:48:07Z</time>
      </trkpt>
      <trkpt lat="44.47487" lon="1.65413">
        <ele>171.6</ele>
        <time>2022-05-07T14:48:08Z</time>
      </trkpt>
      <trkpt lat="44.47486" lon="1.65414">
        <ele>171.8</ele>
        <time>2022-05-07T14:48:09Z</time>
      </trkpt>
      <trkpt lat="44.47485" lon="1.65416">
        <ele>172</ele>
        <time>2022-05-07T14:48:10Z</time>
      </trkpt>
      <trkpt lat="44.47483" lon="1.65418">
        <ele>172.3</ele>
        <time>2022-05-07T14:48:12Z</time>
      </trkpt>
      <trkpt lat="44.47481" lon="1.6542">
        <ele>172.8</ele>
        <time>2022-05-07T14:48:13Z</time>
      </trkpt>
      <trkpt lat="44.4748" lon="1.65422">
        <ele>173</ele>
        <time>2022-05-07T14:48:14Z</time>
      </trkpt>
      <trkpt lat="44.47479" lon="1.65423">
        <ele>173.2</ele>
        <time>2022-05-07T14:48:15Z</time>
      </trkpt>
      <trkpt lat="44.47479" lon="1.65423">
        <ele>173.3</ele>
        <time>2022-05-07T14:48:16Z</time>
      </trkpt>
      <trkpt lat="44.47479" lon="1.65423">
        <ele>173.3</ele>
        <time>2022-05-07T14:48:17Z</time>
      </trkpt>
      <trkpt lat="44.47478" lon="1.65423">
        <ele>173.3</ele>
        <time>2022-05-07T14:48:18Z</time>
      </trkpt>
      <trkpt lat="44.47478" lon="1.65423">
        <ele>173.4</ele>
        <time>2022-05-07T14:48:19Z</time>
      </trkpt>
      <trkpt lat="44.47478" lon="1.65423">
        <ele>173.4</ele>
        <time>2022-05-07T14:48:20Z</time>
      </trkpt>
      <trkpt lat="44.47478" lon="1.65423">
        <ele>173.4</ele>
        <time>2022-05-07T14:48:21Z</time>
      </trkpt>
      <trkpt lat="44.47478" lon="1.65423">
        <ele>173.4</ele>
        <time>2022-05-07T14:48:22Z</time>
      </trkpt>
      <trkpt lat="44.47477" lon="1.65424">
        <ele>173.6</ele>
        <time>2022-05-07T14:48:24Z</time>
      </trkpt>
      <trkpt lat="44.47475" lon="1.65426">
        <ele>174</ele>
        <time>2022-05-07T14:48:25Z</time>
      </trkpt>
      <trkpt lat="44.47473" lon="1.6543">
        <ele>174.5</ele>
        <time>2022-05-07T14:48:26Z</time>
      </trkpt>
      <trkpt lat="44.47472" lon="1.65431">
        <ele>174.7</ele>
        <time>2022-05-07T14:48:27Z</time>
      </trkpt>
      <trkpt lat="44.4747" lon="1.65433">
        <ele>175</ele>
        <time>2022-05-07T14:48:28Z</time>
      </trkpt>
      <trkpt lat="44.47469" lon="1.65434">
        <ele>175.2</ele>
        <time>2022-05-07T14:48:29Z</time>
      </trkpt>
      <trkpt lat="44.47466" lon="1.65438">
        <ele>175.6</ele>
        <time>2022-05-07T14:48:30Z</time>
      </trkpt>
      <trkpt lat="44.47466" lon="1.65439">
        <ele>175.7</ele>
        <time>2022-05-07T14:48:31Z</time>
      </trkpt>
      <trkpt lat="44.47463" lon="1.65442">
        <ele>176.1</ele>
        <time>2022-05-07T14:48:32Z</time>
      </trkpt>
      <trkpt lat="44.47462" lon="1.65443">
        <ele>176.2</ele>
        <time>2022-05-07T14:48:33Z</time>
      </trkpt>
      <trkpt lat="44.47461" lon="1.65444">
        <ele>176.4</ele>
        <time>2022-05-07T14:48:34Z</time>
      </trkpt>
      <trkpt lat="44.47458" lon="1.65448">
        <ele>176.9</ele>
        <time>2022-05-07T14:48:36Z</time>
      </trkpt>
      <trkpt lat="44.47456" lon="1.65451">
        <ele>177.3</ele>
        <time>2022-05-07T14:48:37Z</time>
      </trkpt>
      <trkpt lat="44.47455" lon="1.65453">
        <ele>177.4</ele>
        <time>2022-05-07T14:48:38Z</time>
      </trkpt>
      <trkpt lat="44.47454" lon="1.65457">
        <ele>177.8</ele>
        <time>2022-05-07T14:48:39Z</time>
      </trkpt>
      <trkpt lat="44.47453" lon="1.65458">
        <ele>177.9</ele>
        <time>2022-05-07T14:48:40Z</time>
      </trkpt>
      <trkpt lat="44.47453" lon="1.65462">
        <ele>178.2</ele>
        <time>2022-05-07T14:48:41Z</time>
      </trkpt>
      <trkpt lat="44.47453" lon="1.65464">
        <ele>178.4</ele>
        <time>2022-05-07T14:48:42Z</time>
      </trkpt>
      <trkpt lat="44.47453" lon="1.65466">
        <ele>178.5</ele>
        <time>2022-05-07T14:48:43Z</time>
      </trkpt>
      <trkpt lat="44.47453" lon="1.65468">
        <ele>178.7</ele>
        <time>2022-05-07T14:48:44Z</time>
      </trkpt>
      <trkpt lat="44.47455" lon="1.6547">
        <ele>178.9</ele>
        <time>2022-05-07T14:48:45Z</time>
      </trkpt>
      <trkpt lat="44.47456" lon="1.65471">
        <ele>179</ele>
        <time>2022-05-07T14:48:46Z</time>
      </trkpt>
      <trkpt lat="44.47457" lon="1.65472">
        <ele>179.1</ele>
        <time>2022-05-07T14:48:48Z</time>
      </trkpt>
      <trkpt lat="44.47458" lon="1.65473">
        <ele>179.2</ele>
        <time>2022-05-07T14:48:49Z</time>
      </trkpt>
      <trkpt lat="44.47459" lon="1.65474">
        <ele>179.3</ele>
        <time>2022-05-07T14:48:50Z</time>
      </trkpt>
      <trkpt lat="44.4746" lon="1.65475">
        <ele>179.4</ele>
        <time>2022-05-07T14:48:51Z</time>
      </trkpt>
      <trkpt lat="44.47461" lon="1.65476">
        <ele>179.4</ele>
        <time>2022-05-07T14:48:52Z</time>
      </trkpt>
      <trkpt lat="44.47462" lon="1.65476">
        <ele>179.4</ele>
        <time>2022-05-07T14:48:53Z</time>
      </trkpt>
      <trkpt lat="44.47463" lon="1.65476">
        <ele>179.5</ele>
        <time>2022-05-07T14:48:55Z</time>
      </trkpt>
      <trkpt lat="44.47464" lon="1.65476">
        <ele>179.5</ele>
        <time>2022-05-07T14:48:56Z</time>
      </trkpt>
      <trkpt lat="44.47464" lon="1.65476">
        <ele>179.5</ele>
        <time>2022-05-07T14:48:57Z</time>
      </trkpt>
      <trkpt lat="44.47465" lon="1.65475">
        <ele>179.5</ele>
        <time>2022-05-07T14:48:58Z</time>
      </trkpt>
      <trkpt lat="44.47467" lon="1.65475">
        <ele>179.5</ele>
        <time>2022-05-07T14:48:59Z</time>
      </trkpt>
      <trkpt lat="44.47468" lon="1.65475">
        <ele>179.5</ele>
        <time>2022-05-07T14:49:00Z</time>
      </trkpt>
      <trkpt lat="44.47468" lon="1.65474">
        <ele>179.4</ele>
        <time>2022-05-07T14:49:01Z</time>
      </trkpt>
      <trkpt lat="44.47469" lon="1.65474">
        <ele>179.4</ele>
        <time>2022-05-07T14:49:02Z</time>
      </trkpt>
      <trkpt lat="44.47471" lon="1.65473">
        <ele>179.4</ele>
        <time>2022-05-07T14:49:04Z</time>
      </trkpt>
      <trkpt lat="44.47474" lon="1.65472">
        <ele>179.3</ele>
        <time>2022-05-07T14:49:05Z</time>
      </trkpt>
      <trkpt lat="44.47475" lon="1.65472">
        <ele>179.3</ele>
        <time>2022-05-07T14:49:06Z</time>
      </trkpt>
      <trkpt lat="44.47476" lon="1.65472">
        <ele>179.2</ele>
        <time>2022-05-07T14:49:07Z</time>
      </trkpt>
      <trkpt lat="44.47478" lon="1.65472">
        <ele>179.2</ele>
        <time>2022-05-07T14:49:08Z</time>
      </trkpt>
      <trkpt lat="44.47479" lon="1.65472">
        <ele>179.1</ele>
        <time>2022-05-07T14:49:09Z</time>
      </trkpt>
      <trkpt lat="44.47479" lon="1.65472">
        <ele>179.1</ele>
        <time>2022-05-07T14:49:10Z</time>
      </trkpt>
      <trkpt lat="44.4748" lon="1.65473">
        <ele>179.1</ele>
        <time>2022-05-07T14:49:11Z</time>
      </trkpt>
      <trkpt lat="44.4748" lon="1.65473">
        <ele>179.1</ele>
        <time>2022-05-07T14:49:12Z</time>
      </trkpt>
      <trkpt lat="44.4748" lon="1.65473">
        <ele>179.1</ele>
        <time>2022-05-07T14:49:13Z</time>
      </trkpt>
      <trkpt lat="44.4748" lon="1.65473">
        <ele>179.1</ele>
        <time>2022-05-07T14:49:14Z</time>
      </trkpt>
      <trkpt lat="44.4748" lon="1.65473">
        <ele>179.1</ele>
        <time>2022-05-07T14:49:15Z</time>
      </trkpt>
      <trkpt lat="44.4748" lon="1.65473">
        <ele>179.1</ele>
        <time>2022-05-07T14:49:16Z</time>
      </trkpt>
      <trkpt lat="44.4748" lon="1.65474">
        <ele>179.1</ele>
        <time>2022-05-07T14:49:17Z</time>
      </trkpt>
      <trkpt lat="44.4748" lon="1.65474">
        <ele>179.1</ele>
        <time>2022-05-07T14:49:18Z</time>
      </trkpt>
      <trkpt lat="44.47496" lon="1.65487">
        <ele>179</ele>
        <time>2022-05-07T14:49:40Z</time>
      </trkpt>
      <trkpt lat="44.47498" lon="1.65489">
        <ele>179.3</ele>
        <time>2022-05-07T14:49:41Z</time>
      </trkpt>
      <trkpt lat="44.475" lon="1.65493">
        <ele>179.6</ele>
        <time>2022-05-07T14:49:43Z</time>
      </trkpt>
      <trkpt lat="44.47501" lon="1.65495">
        <ele>179.7</ele>
        <time>2022-05-07T14:49:44Z</time>
      </trkpt>
      <trkpt lat="44.47501" lon="1.65496">
        <ele>179.8</ele>
        <time>2022-05-07T14:49:45Z</time>
      </trkpt>
      <trkpt lat="44.47501" lon="1.65497">
        <ele>179.9</ele>
        <time>2022-05-07T14:49:46Z</time>
      </trkpt>
      <trkpt lat="44.47502" lon="1.65502">
        <ele>180.3</ele>
        <time>2022-05-07T14:49:47Z</time>
      </trkpt>
      <trkpt lat="44.47502" lon="1.65505">
        <ele>180.5</ele>
        <time>2022-05-07T14:49:48Z</time>
      </trkpt>
      <trkpt lat="44.47504" lon="1.65511">
        <ele>181</ele>
        <time>2022-05-07T14:49:50Z</time>
      </trkpt>
      <trkpt lat="44.47505" lon="1.65515">
        <ele>181.3</ele>
        <time>2022-05-07T14:49:51Z</time>
      </trkpt>
      <trkpt lat="44.47505" lon="1.65516">
        <ele>181.4</ele>
        <time>2022-05-07T14:49:52Z</time>
      </trkpt>
      <trkpt lat="44.47505" lon="1.65517">
        <ele>181.6</ele>
        <time>2022-05-07T14:49:53Z</time>
      </trkpt>
      <trkpt lat="44.47506" lon="1.6552">
        <ele>181.7</ele>
        <time>2022-05-07T14:49:54Z</time>
      </trkpt>
      <trkpt lat="44.47506" lon="1.65522">
        <ele>182</ele>
        <time>2022-05-07T14:49:56Z</time>
      </trkpt>
      <trkpt lat="44.47505" lon="1.65524">
        <ele>182.1</ele>
        <time>2022-05-07T14:49:57Z</time>
      </trkpt>
      <trkpt lat="44.47505" lon="1.65526">
        <ele>182.3</ele>
        <time>2022-05-07T14:49:58Z</time>
      </trkpt>
      <trkpt lat="44.47506" lon="1.65528">
        <ele>182.4</ele>
        <time>2022-05-07T14:49:59Z</time>
      </trkpt>
      <trkpt lat="44.47506" lon="1.65531">
        <ele>182.6</ele>
        <time>2022-05-07T14:50:00Z</time>
      </trkpt>
      <trkpt lat="44.47506" lon="1.65533">
        <ele>182.8</ele>
        <time>2022-05-07T14:50:01Z</time>
      </trkpt>
      <trkpt lat="44.47506" lon="1.65534">
        <ele>182.9</ele>
        <time>2022-05-07T14:50:02Z</time>
      </trkpt>
      <trkpt lat="44.47507" lon="1.65537">
        <ele>183.1</ele>
        <time>2022-05-07T14:50:04Z</time>
      </trkpt>
      <trkpt lat="44.47507" lon="1.65538">
        <ele>183.2</ele>
        <time>2022-05-07T14:50:05Z</time>
      </trkpt>
      <trkpt lat="44.47507" lon="1.65539">
        <ele>183.3</ele>
        <time>2022-05-07T14:50:06Z</time>
      </trkpt>
      <trkpt lat="44.47508" lon="1.65539">
        <ele>183.3</ele>
        <time>2022-05-07T14:50:07Z</time>
      </trkpt>
      <trkpt lat="44.47508" lon="1.65539">
        <ele>183.3</ele>
        <time>2022-05-07T14:50:09Z</time>
      </trkpt>
      <trkpt lat="44.47508" lon="1.6554">
        <ele>183.3</ele>
        <time>2022-05-07T14:50:10Z</time>
      </trkpt>
      <trkpt lat="44.47508" lon="1.6554">
        <ele>183.4</ele>
        <time>2022-05-07T14:50:11Z</time>
      </trkpt>
      <trkpt lat="44.47508" lon="1.6554">
        <ele>183.4</ele>
        <time>2022-05-07T14:50:12Z</time>
      </trkpt>
      <trkpt lat="44.47508" lon="1.6554">
        <ele>183.4</ele>
        <time>2022-05-07T14:50:13Z</time>
      </trkpt>
      <trkpt lat="44.47508" lon="1.65545">
        <ele>183.7</ele>
        <time>2022-05-07T14:50:14Z</time>
      </trkpt>
      <trkpt lat="44.47508" lon="1.65553">
        <ele>184.1</ele>
        <time>2022-05-07T14:50:16Z</time>
      </trkpt>
      <trkpt lat="44.47507" lon="1.65569">
        <ele>184.8</ele>
        <time>2022-05-07T14:50:24Z</time>
      </trkpt>
      <trkpt lat="44.47507" lon="1.65571">
        <ele>184.9</ele>
        <time>2022-05-07T14:50:25Z</time>
      </trkpt>
      <trkpt lat="44.47507" lon="1.65573">
        <ele>184.9</ele>
        <time>2022-05-07T14:50:26Z</time>
      </trkpt>
      <trkpt lat="44.47507" lon="1.65575">
        <ele>185</ele>
        <time>2022-05-07T14:50:27Z</time>
      </trkpt>
      <trkpt lat="44.47508" lon="1.65577">
        <ele>185</ele>
        <time>2022-05-07T14:50:28Z</time>
      </trkpt>
      <trkpt lat="44.47508" lon="1.65581">
        <ele>185.1</ele>
        <time>2022-05-07T14:50:29Z</time>
      </trkpt>
      <trkpt lat="44.47508" lon="1.65582">
        <ele>185.1</ele>
        <time>2022-05-07T14:50:30Z</time>
      </trkpt>
      <trkpt lat="44.47508" lon="1.65585">
        <ele>185.1</ele>
        <time>2022-05-07T14:50:31Z</time>
      </trkpt>
      <trkpt lat="44.47508" lon="1.65585">
        <ele>185.1</ele>
        <time>2022-05-07T14:50:32Z</time>
      </trkpt>
      <trkpt lat="44.47508" lon="1.65586">
        <ele>185.1</ele>
        <time>2022-05-07T14:50:33Z</time>
      </trkpt>
      <trkpt lat="44.47507" lon="1.65586">
        <ele>185.1</ele>
        <time>2022-05-07T14:50:35Z</time>
      </trkpt>
      <trkpt lat="44.47507" lon="1.65587">
        <ele>185.1</ele>
        <time>2022-05-07T14:50:36Z</time>
      </trkpt>
      <trkpt lat="44.47507" lon="1.6559">
        <ele>185.1</ele>
        <time>2022-05-07T14:50:37Z</time>
      </trkpt>
      <trkpt lat="44.47507" lon="1.65591">
        <ele>185.1</ele>
        <time>2022-05-07T14:50:38Z</time>
      </trkpt>
      <trkpt lat="44.47507" lon="1.65592">
        <ele>185.1</ele>
        <time>2022-05-07T14:50:39Z</time>
      </trkpt>
      <trkpt lat="44.47507" lon="1.65593">
        <ele>185.1</ele>
        <time>2022-05-07T14:50:40Z</time>
      </trkpt>
      <trkpt lat="44.47507" lon="1.65594">
        <ele>185.1</ele>
        <time>2022-05-07T14:50:41Z</time>
      </trkpt>
      <trkpt lat="44.47507" lon="1.65594">
        <ele>185.1</ele>
        <time>2022-05-07T14:50:42Z</time>
      </trkpt>
      <trkpt lat="44.47507" lon="1.65594">
        <ele>185.1</ele>
        <time>2022-05-07T14:50:43Z</time>
      </trkpt>
      <trkpt lat="44.47507" lon="1.65594">
        <ele>185.1</ele>
        <time>2022-05-07T14:50:44Z</time>
      </trkpt>
      <trkpt lat="44.47507" lon="1.65595">
        <ele>185.1</ele>
        <time>2022-05-07T14:50:45Z</time>
      </trkpt>
      <trkpt lat="44.47507" lon="1.65595">
        <ele>185.1</ele>
        <time>2022-05-07T14:50:46Z</time>
      </trkpt>
      <trkpt lat="44.47508" lon="1.65597">
        <ele>185.2</ele>
        <time>2022-05-07T14:50:47Z</time>
      </trkpt>
      <trkpt lat="44.47509" lon="1.656">
        <ele>185.2</ele>
        <time>2022-05-07T14:50:48Z</time>
      </trkpt>
      <trkpt lat="44.4751" lon="1.65602">
        <ele>185.2</ele>
        <time>2022-05-07T14:51:00Z</time>
      </trkpt>
      <trkpt lat="44.47511" lon="1.65605">
        <ele>185.3</ele>
        <time>2022-05-07T14:51:01Z</time>
      </trkpt>
      <trkpt lat="44.47513" lon="1.65612">
        <ele>185.4</ele>
        <time>2022-05-07T14:51:02Z</time>
      </trkpt>
      <trkpt lat="44.47515" lon="1.65616">
        <ele>185.5</ele>
        <time>2022-05-07T14:51:03Z</time>
      </trkpt>
      <trkpt lat="44.47515" lon="1.6562">
        <ele>185.7</ele>
        <time>2022-05-07T14:51:05Z</time>
      </trkpt>
      <trkpt lat="44.47516" lon="1.65625">
        <ele>185.8</ele>
        <time>2022-05-07T14:51:06Z</time>
      </trkpt>
      <trkpt lat="44.47517" lon="1.65627">
        <ele>185.9</ele>
        <time>2022-05-07T14:51:07Z</time>
      </trkpt>
      <trkpt lat="44.47517" lon="1.65629">
        <ele>186</ele>
        <time>2022-05-07T14:51:08Z</time>
      </trkpt>
      <trkpt lat="44.47517" lon="1.65632">
        <ele>186.1</ele>
        <time>2022-05-07T14:51:09Z</time>
      </trkpt>
      <trkpt lat="44.47518" lon="1.65635">
        <ele>186.3</ele>
        <time>2022-05-07T14:51:11Z</time>
      </trkpt>
      <trkpt lat="44.47518" lon="1.65639">
        <ele>186.5</ele>
        <time>2022-05-07T14:51:12Z</time>
      </trkpt>
      <trkpt lat="44.47518" lon="1.65643">
        <ele>186.8</ele>
        <time>2022-05-07T14:51:13Z</time>
      </trkpt>
      <trkpt lat="44.47519" lon="1.6565">
        <ele>187.2</ele>
        <time>2022-05-07T14:51:15Z</time>
      </trkpt>
      <trkpt lat="44.47519" lon="1.65652">
        <ele>187.3</ele>
        <time>2022-05-07T14:51:16Z</time>
      </trkpt>
      <trkpt lat="44.4752" lon="1.65654">
        <ele>187.4</ele>
        <time>2022-05-07T14:51:17Z</time>
      </trkpt>
      <trkpt lat="44.47521" lon="1.65658">
        <ele>187.7</ele>
        <time>2022-05-07T14:51:18Z</time>
      </trkpt>
      <trkpt lat="44.47521" lon="1.65659">
        <ele>187.8</ele>
        <time>2022-05-07T14:51:19Z</time>
      </trkpt>
      <trkpt lat="44.47522" lon="1.65661">
        <ele>187.9</ele>
        <time>2022-05-07T14:51:20Z</time>
      </trkpt>
      <trkpt lat="44.47522" lon="1.65667">
        <ele>188.3</ele>
        <time>2022-05-07T14:51:22Z</time>
      </trkpt>
      <trkpt lat="44.47522" lon="1.65672">
        <ele>188.7</ele>
        <time>2022-05-07T14:51:24Z</time>
      </trkpt>
      <trkpt lat="44.47523" lon="1.65674">
        <ele>188.8</ele>
        <time>2022-05-07T14:51:25Z</time>
      </trkpt>
      <trkpt lat="44.47524" lon="1.65677">
        <ele>189.1</ele>
        <time>2022-05-07T14:51:26Z</time>
      </trkpt>
      <trkpt lat="44.47523" lon="1.65679">
        <ele>189.2</ele>
        <time>2022-05-07T14:51:27Z</time>
      </trkpt>
      <trkpt lat="44.47523" lon="1.65681">
        <ele>189.4</ele>
        <time>2022-05-07T14:51:28Z</time>
      </trkpt>
      <trkpt lat="44.47523" lon="1.65683">
        <ele>189.5</ele>
        <time>2022-05-07T14:51:30Z</time>
      </trkpt>
      <trkpt lat="44.47523" lon="1.65688">
        <ele>189.9</ele>
        <time>2022-05-07T14:51:31Z</time>
      </trkpt>
      <trkpt lat="44.47524" lon="1.6569">
        <ele>190.1</ele>
        <time>2022-05-07T14:51:32Z</time>
      </trkpt>
      <trkpt lat="44.47524" lon="1.65692">
        <ele>190.3</ele>
        <time>2022-05-07T14:51:33Z</time>
      </trkpt>
      <trkpt lat="44.47524" lon="1.65695">
        <ele>190.5</ele>
        <time>2022-05-07T14:51:34Z</time>
      </trkpt>
      <trkpt lat="44.47524" lon="1.65696">
        <ele>190.6</ele>
        <time>2022-05-07T14:51:35Z</time>
      </trkpt>
      <trkpt lat="44.47524" lon="1.65699">
        <ele>190.9</ele>
        <time>2022-05-07T14:51:36Z</time>
      </trkpt>
      <trkpt lat="44.47524" lon="1.65701">
        <ele>191</ele>
        <time>2022-05-07T14:51:37Z</time>
      </trkpt>
      <trkpt lat="44.47524" lon="1.65702">
        <ele>191.2</ele>
        <time>2022-05-07T14:51:38Z</time>
      </trkpt>
      <trkpt lat="44.47524" lon="1.65705">
        <ele>191.5</ele>
        <time>2022-05-07T14:51:39Z</time>
      </trkpt>
      <trkpt lat="44.47525" lon="1.65708">
        <ele>191.8</ele>
        <time>2022-05-07T14:51:41Z</time>
      </trkpt>
      <trkpt lat="44.47525" lon="1.65711">
        <ele>192</ele>
        <time>2022-05-07T14:51:42Z</time>
      </trkpt>
      <trkpt lat="44.47525" lon="1.65713">
        <ele>192.3</ele>
        <time>2022-05-07T14:51:43Z</time>
      </trkpt>
      <trkpt lat="44.47524" lon="1.65717">
        <ele>192.7</ele>
        <time>2022-05-07T14:51:45Z</time>
      </trkpt>
      <trkpt lat="44.47523" lon="1.65719">
        <ele>193</ele>
        <time>2022-05-07T14:51:46Z</time>
      </trkpt>
      <trkpt lat="44.47522" lon="1.65721">
        <ele>193.2</ele>
        <time>2022-05-07T14:51:47Z</time>
      </trkpt>
      <trkpt lat="44.47522" lon="1.65724">
        <ele>193.5</ele>
        <time>2022-05-07T14:51:48Z</time>
      </trkpt>
      <trkpt lat="44.47522" lon="1.65727">
        <ele>193.8</ele>
        <time>2022-05-07T14:51:49Z</time>
      </trkpt>
      <trkpt lat="44.47521" lon="1.65729">
        <ele>194</ele>
        <time>2022-05-07T14:51:51Z</time>
      </trkpt>
      <trkpt lat="44.47521" lon="1.65731">
        <ele>194.3</ele>
        <time>2022-05-07T14:51:52Z</time>
      </trkpt>
      <trkpt lat="44.4752" lon="1.65734">
        <ele>194.5</ele>
        <time>2022-05-07T14:51:53Z</time>
      </trkpt>
      <trkpt lat="44.4752" lon="1.65736">
        <ele>194.8</ele>
        <time>2022-05-07T14:51:54Z</time>
      </trkpt>
      <trkpt lat="44.47519" lon="1.65739">
        <ele>195.1</ele>
        <time>2022-05-07T14:51:55Z</time>
      </trkpt>
      <trkpt lat="44.47519" lon="1.65741">
        <ele>195.3</ele>
        <time>2022-05-07T14:51:56Z</time>
      </trkpt>
      <trkpt lat="44.47518" lon="1.65743">
        <ele>195.6</ele>
        <time>2022-05-07T14:52:24Z</time>
      </trkpt>
      <trkpt lat="44.47518" lon="1.65746">
        <ele>195.8</ele>
        <time>2022-05-07T14:52:25Z</time>
      </trkpt>
      <trkpt lat="44.47516" lon="1.65748">
        <ele>196.2</ele>
        <time>2022-05-07T14:52:26Z</time>
      </trkpt>
      <trkpt lat="44.47515" lon="1.65752">
        <ele>196.6</ele>
        <time>2022-05-07T14:52:28Z</time>
      </trkpt>
      <trkpt lat="44.47515" lon="1.65753">
        <ele>196.7</ele>
        <time>2022-05-07T14:52:29Z</time>
      </trkpt>
      <trkpt lat="44.47515" lon="1.65753">
        <ele>196.8</ele>
        <time>2022-05-07T14:52:30Z</time>
      </trkpt>
      <trkpt lat="44.47514" lon="1.65753">
        <ele>196.8</ele>
        <time>2022-05-07T14:52:31Z</time>
      </trkpt>
      <trkpt lat="44.47514" lon="1.65753">
        <ele>196.9</ele>
        <time>2022-05-07T14:52:32Z</time>
      </trkpt>
      <trkpt lat="44.47513" lon="1.65754">
        <ele>197</ele>
        <time>2022-05-07T14:52:33Z</time>
      </trkpt>
      <trkpt lat="44.47512" lon="1.65755">
        <ele>197.2</ele>
        <time>2022-05-07T14:52:34Z</time>
      </trkpt>
      <trkpt lat="44.47511" lon="1.65757">
        <ele>197.5</ele>
        <time>2022-05-07T14:52:35Z</time>
      </trkpt>
      <trkpt lat="44.47508" lon="1.65761">
        <ele>198</ele>
        <time>2022-05-07T14:52:36Z</time>
      </trkpt>
      <trkpt lat="44.47508" lon="1.65762">
        <ele>198.1</ele>
        <time>2022-05-07T14:52:37Z</time>
      </trkpt>
      <trkpt lat="44.47507" lon="1.65763">
        <ele>198.3</ele>
        <time>2022-05-07T14:52:38Z</time>
      </trkpt>
      <trkpt lat="44.47507" lon="1.65764">
        <ele>198.3</ele>
        <time>2022-05-07T14:52:39Z</time>
      </trkpt>
      <trkpt lat="44.47507" lon="1.65764">
        <ele>198.4</ele>
        <time>2022-05-07T14:52:41Z</time>
      </trkpt>
      <trkpt lat="44.47506" lon="1.65764">
        <ele>198.4</ele>
        <time>2022-05-07T14:52:42Z</time>
      </trkpt>
      <trkpt lat="44.47506" lon="1.65765">
        <ele>198.5</ele>
        <time>2022-05-07T14:52:43Z</time>
      </trkpt>
      <trkpt lat="44.47506" lon="1.65765">
        <ele>198.5</ele>
        <time>2022-05-07T14:52:44Z</time>
      </trkpt>
      <trkpt lat="44.47506" lon="1.65768">
        <ele>198.7</ele>
        <time>2022-05-07T14:52:45Z</time>
      </trkpt>
      <trkpt lat="44.47506" lon="1.65772">
        <ele>199</ele>
        <time>2022-05-07T14:52:47Z</time>
      </trkpt>
      <trkpt lat="44.47507" lon="1.65779">
        <ele>199.3</ele>
        <time>2022-05-07T14:52:49Z</time>
      </trkpt>
      <trkpt lat="44.47507" lon="1.65781">
        <ele>199.4</ele>
        <time>2022-05-07T14:52:50Z</time>
      </trkpt>
      <trkpt lat="44.47508" lon="1.65783">
        <ele>199.4</ele>
        <time>2022-05-07T14:52:51Z</time>
      </trkpt>
      <trkpt lat="44.47508" lon="1.65786">
        <ele>199.5</ele>
        <time>2022-05-07T14:52:52Z</time>
      </trkpt>
      <trkpt lat="44.47508" lon="1.65789">
        <ele>199.5</ele>
        <time>2022-05-07T14:52:54Z</time>
      </trkpt>
      <trkpt lat="44.47508" lon="1.65793">
        <ele>199.6</ele>
        <time>2022-05-07T14:52:55Z</time>
      </trkpt>
      <trkpt lat="44.47509" lon="1.65796">
        <ele>199.7</ele>
        <time>2022-05-07T14:52:56Z</time>
      </trkpt>
      <trkpt lat="44.47508" lon="1.65798">
        <ele>199.7</ele>
        <time>2022-05-07T14:52:57Z</time>
      </trkpt>
      <trkpt lat="44.47508" lon="1.658">
        <ele>199.8</ele>
        <time>2022-05-07T14:52:58Z</time>
      </trkpt>
      <trkpt lat="44.47508" lon="1.65801">
        <ele>199.8</ele>
        <time>2022-05-07T14:53:00Z</time>
      </trkpt>
      <trkpt lat="44.47508" lon="1.65802">
        <ele>199.8</ele>
        <time>2022-05-07T14:53:01Z</time>
      </trkpt>
      <trkpt lat="44.47509" lon="1.65806">
        <ele>199.9</ele>
        <time>2022-05-07T14:53:02Z</time>
      </trkpt>
      <trkpt lat="44.47509" lon="1.65808">
        <ele>200</ele>
        <time>2022-05-07T14:53:03Z</time>
      </trkpt>
      <trkpt lat="44.4751" lon="1.6581">
        <ele>200.1</ele>
        <time>2022-05-07T14:53:04Z</time>
      </trkpt>
      <trkpt lat="44.47511" lon="1.65814">
        <ele>200.3</ele>
        <time>2022-05-07T14:53:06Z</time>
      </trkpt>
      <trkpt lat="44.47511" lon="1.65815">
        <ele>200.3</ele>
        <time>2022-05-07T14:53:07Z</time>
      </trkpt>
      <trkpt lat="44.47511" lon="1.65818">
        <ele>200.5</ele>
        <time>2022-05-07T14:53:09Z</time>
      </trkpt>
      <trkpt lat="44.47511" lon="1.65819">
        <ele>200.6</ele>
        <time>2022-05-07T14:53:10Z</time>
      </trkpt>
      <trkpt lat="44.47511" lon="1.65821">
        <ele>200.7</ele>
        <time>2022-05-07T14:53:11Z</time>
      </trkpt>
      <trkpt lat="44.47511" lon="1.65825">
        <ele>201</ele>
        <time>2022-05-07T14:53:13Z</time>
      </trkpt>
      <trkpt lat="44.47512" lon="1.65829">
        <ele>201.3</ele>
        <time>2022-05-07T14:53:14Z</time>
      </trkpt>
      <trkpt lat="44.47512" lon="1.65831">
        <ele>201.5</ele>
        <time>2022-05-07T14:53:15Z</time>
      </trkpt>
      <trkpt lat="44.47512" lon="1.65833">
        <ele>201.7</ele>
        <time>2022-05-07T14:53:16Z</time>
      </trkpt>
      <trkpt lat="44.47512" lon="1.65834">
        <ele>201.8</ele>
        <time>2022-05-07T14:53:17Z</time>
      </trkpt>
      <trkpt lat="44.47513" lon="1.65834">
        <ele>201.7</ele>
        <time>2022-05-07T14:53:19Z</time>
      </trkpt>
      <trkpt lat="44.47514" lon="1.65836">
        <ele>201.5</ele>
        <time>2022-05-07T14:53:20Z</time>
      </trkpt>
      <trkpt lat="44.47515" lon="1.65839">
        <ele>201.2</ele>
        <time>2022-05-07T14:53:21Z</time>
      </trkpt>
      <trkpt lat="44.47516" lon="1.6584">
        <ele>201.1</ele>
        <time>2022-05-07T14:53:22Z</time>
      </trkpt>
      <trkpt lat="44.47516" lon="1.65842">
        <ele>201</ele>
        <time>2022-05-07T14:53:23Z</time>
      </trkpt>
      <trkpt lat="44.47516" lon="1.65842">
        <ele>200.9</ele>
        <time>2022-05-07T14:53:24Z</time>
      </trkpt>
      <trkpt lat="44.47516" lon="1.65842">
        <ele>200.9</ele>
        <time>2022-05-07T14:53:25Z</time>
      </trkpt>
      <trkpt lat="44.47516" lon="1.65842">
        <ele>200.9</ele>
        <time>2022-05-07T14:53:26Z</time>
      </trkpt>
      <trkpt lat="44.47516" lon="1.65842">
        <ele>200.9</ele>
        <time>2022-05-07T14:53:27Z</time>
      </trkpt>
      <trkpt lat="44.47516" lon="1.65842">
        <ele>200.9</ele>
        <time>2022-05-07T14:53:28Z</time>
      </trkpt>
      <trkpt lat="44.47516" lon="1.65842">
        <ele>200.9</ele>
        <time>2022-05-07T14:53:29Z</time>
      </trkpt>
      <trkpt lat="44.47516" lon="1.65842">
        <ele>200.9</ele>
        <time>2022-05-07T14:53:30Z</time>
      </trkpt>
      <trkpt lat="44.47512" lon="1.65828">
        <ele>200.1</ele>
        <time>2022-05-07T14:55:18Z</time>
      </trkpt>
      <trkpt lat="44.47511" lon="1.65823">
        <ele>199.9</ele>
        <time>2022-05-07T14:55:19Z</time>
      </trkpt>
      <trkpt lat="44.47509" lon="1.65818">
        <ele>199.7</ele>
        <time>2022-05-07T14:55:20Z</time>
      </trkpt>
      <trkpt lat="44.47508" lon="1.65816">
        <ele>199.7</ele>
        <time>2022-05-07T14:55:21Z</time>
      </trkpt>
      <trkpt lat="44.47507" lon="1.65812">
        <ele>199.6</ele>
        <time>2022-05-07T14:55:22Z</time>
      </trkpt>
      <trkpt lat="44.47506" lon="1.65807">
        <ele>199.5</ele>
        <time>2022-05-07T14:55:23Z</time>
      </trkpt>
      <trkpt lat="44.47504" lon="1.65801">
        <ele>199.4</ele>
        <time>2022-05-07T14:55:25Z</time>
      </trkpt>
      <trkpt lat="44.47504" lon="1.65797">
        <ele>199.3</ele>
        <time>2022-05-07T14:55:26Z</time>
      </trkpt>
      <trkpt lat="44.47503" lon="1.65793">
        <ele>199.1</ele>
        <time>2022-05-07T14:55:27Z</time>
      </trkpt>
      <trkpt lat="44.47503" lon="1.65789">
        <ele>198.8</ele>
        <time>2022-05-07T14:55:28Z</time>
      </trkpt>
      <trkpt lat="44.47503" lon="1.65783">
        <ele>198.4</ele>
        <time>2022-05-07T14:55:29Z</time>
      </trkpt>
      <trkpt lat="44.47504" lon="1.65778">
        <ele>198</ele>
        <time>2022-05-07T14:55:30Z</time>
      </trkpt>
      <trkpt lat="44.47506" lon="1.65773">
        <ele>197.4</ele>
        <time>2022-05-07T14:55:31Z</time>
      </trkpt>
      <trkpt lat="44.47508" lon="1.65767">
        <ele>196.7</ele>
        <time>2022-05-07T14:55:32Z</time>
      </trkpt>
      <trkpt lat="44.47512" lon="1.6576">
        <ele>195.8</ele>
        <time>2022-05-07T14:55:33Z</time>
      </trkpt>
      <trkpt lat="44.47516" lon="1.6575">
        <ele>194.7</ele>
        <time>2022-05-07T14:55:34Z</time>
      </trkpt>
      <trkpt lat="44.47521" lon="1.65729">
        <ele>192.4</ele>
        <time>2022-05-07T14:55:36Z</time>
      </trkpt>
      <trkpt lat="44.47522" lon="1.6572">
        <ele>191.5</ele>
        <time>2022-05-07T14:55:37Z</time>
      </trkpt>
      <trkpt lat="44.47523" lon="1.65712">
        <ele>190.7</ele>
        <time>2022-05-07T14:55:38Z</time>
      </trkpt>
      <trkpt lat="44.47524" lon="1.65703">
        <ele>190</ele>
        <time>2022-05-07T14:55:39Z</time>
      </trkpt>
      <trkpt lat="44.47523" lon="1.65693">
        <ele>189.3</ele>
        <time>2022-05-07T14:55:40Z</time>
      </trkpt>
      <trkpt lat="44.4752" lon="1.65671">
        <ele>187.7</ele>
        <time>2022-05-07T14:55:42Z</time>
      </trkpt>
      <trkpt lat="44.47518" lon="1.65659">
        <ele>187</ele>
        <time>2022-05-07T14:55:43Z</time>
      </trkpt>
      <trkpt lat="44.47516" lon="1.65647">
        <ele>186.3</ele>
        <time>2022-05-07T14:55:44Z</time>
      </trkpt>
      <trkpt lat="44.47513" lon="1.65634">
        <ele>185.7</ele>
        <time>2022-05-07T14:55:45Z</time>
      </trkpt>
      <trkpt lat="44.47511" lon="1.65621">
        <ele>185.4</ele>
        <time>2022-05-07T14:55:46Z</time>
      </trkpt>
      <trkpt lat="44.47508" lon="1.6561">
        <ele>185.2</ele>
        <time>2022-05-07T14:55:47Z</time>
      </trkpt>
      <trkpt lat="44.47505" lon="1.65601">
        <ele>185.1</ele>
        <time>2022-05-07T14:55:48Z</time>
      </trkpt>
      <trkpt lat="44.47502" lon="1.65593">
        <ele>185.1</ele>
        <time>2022-05-07T14:55:49Z</time>
      </trkpt>
      <trkpt lat="44.47502" lon="1.65586">
        <ele>185</ele>
        <time>2022-05-07T14:55:50Z</time>
      </trkpt>
      <trkpt lat="44.47503" lon="1.65583">
        <ele>184.9</ele>
        <time>2022-05-07T14:55:51Z</time>
      </trkpt>
      <trkpt lat="44.47504" lon="1.65577">
        <ele>184.8</ele>
        <time>2022-05-07T14:55:53Z</time>
      </trkpt>
      <trkpt lat="44.47504" lon="1.65574">
        <ele>184.6</ele>
        <time>2022-05-07T14:55:54Z</time>
      </trkpt>
      <trkpt lat="44.47504" lon="1.65573">
        <ele>184.6</ele>
        <time>2022-05-07T14:55:55Z</time>
      </trkpt>
      <trkpt lat="44.47504" lon="1.65572">
        <ele>184.6</ele>
        <time>2022-05-07T14:55:56Z</time>
      </trkpt>
      <trkpt lat="44.47504" lon="1.6557">
        <ele>184.5</ele>
        <time>2022-05-07T14:55:59Z</time>
      </trkpt>
      <trkpt lat="44.47504" lon="1.65568">
        <ele>184.4</ele>
        <time>2022-05-07T14:56:00Z</time>
      </trkpt>
      <trkpt lat="44.47504" lon="1.65567">
        <ele>184.3</ele>
        <time>2022-05-07T14:56:01Z</time>
      </trkpt>
      <trkpt lat="44.47504" lon="1.65565">
        <ele>184.2</ele>
        <time>2022-05-07T14:56:02Z</time>
      </trkpt>
      <trkpt lat="44.47504" lon="1.65563">
        <ele>184.1</ele>
        <time>2022-05-07T14:56:03Z</time>
      </trkpt>
      <trkpt lat="44.47504" lon="1.65561">
        <ele>184.1</ele>
        <time>2022-05-07T14:56:04Z</time>
      </trkpt>
      <trkpt lat="44.47504" lon="1.6556">
        <ele>184</ele>
        <time>2022-05-07T14:56:05Z</time>
      </trkpt>
      <trkpt lat="44.47503" lon="1.65558">
        <ele>183.9</ele>
        <time>2022-05-07T14:56:08Z</time>
      </trkpt>
      <trkpt lat="44.47503" lon="1.65556">
        <ele>183.8</ele>
        <time>2022-05-07T14:56:09Z</time>
      </trkpt>
      <trkpt lat="44.47502" lon="1.65542">
        <ele>182.8</ele>
        <time>2022-05-07T14:56:10Z</time>
      </trkpt>
      <trkpt lat="44.475" lon="1.65533">
        <ele>182.1</ele>
        <time>2022-05-07T14:56:11Z</time>
      </trkpt>
      <trkpt lat="44.47499" lon="1.65523">
        <ele>181.4</ele>
        <time>2022-05-07T14:56:12Z</time>
      </trkpt>
      <trkpt lat="44.47497" lon="1.65513">
        <ele>180.5</ele>
        <time>2022-05-07T14:56:13Z</time>
      </trkpt>
      <trkpt lat="44.47495" lon="1.65502">
        <ele>179.7</ele>
        <time>2022-05-07T14:56:14Z</time>
      </trkpt>
      <trkpt lat="44.47492" lon="1.65494">
        <ele>179.2</ele>
        <time>2022-05-07T14:56:15Z</time>
      </trkpt>
      <trkpt lat="44.47492" lon="1.65491">
        <ele>179</ele>
        <time>2022-05-07T14:56:16Z</time>
      </trkpt>
      <trkpt lat="44.47492" lon="1.65489">
        <ele>179</ele>
        <time>2022-05-07T14:56:17Z</time>
      </trkpt>
      <trkpt lat="44.47492" lon="1.65485">
        <ele>178.9</ele>
        <time>2022-05-07T14:56:18Z</time>
      </trkpt>
      <trkpt lat="44.47491" lon="1.65485">
        <ele>178.9</ele>
        <time>2022-05-07T14:56:19Z</time>
      </trkpt>
      <trkpt lat="44.47491" lon="1.65486">
        <ele>178.9</ele>
        <time>2022-05-07T14:56:21Z</time>
      </trkpt>
      <trkpt lat="44.47491" lon="1.65486">
        <ele>178.9</ele>
        <time>2022-05-07T14:56:22Z</time>
      </trkpt>
      <trkpt lat="44.47491" lon="1.65486">
        <ele>178.9</ele>
        <time>2022-05-07T14:56:23Z</time>
      </trkpt>
      <trkpt lat="44.47491" lon="1.65486">
        <ele>178.9</ele>
        <time>2022-05-07T14:56:24Z</time>
      </trkpt>
      <trkpt lat="44.47488" lon="1.65485">
        <ele>178.9</ele>
        <time>2022-05-07T14:56:26Z</time>
      </trkpt>
      <trkpt lat="44.47488" lon="1.65485">
        <ele>178.9</ele>
        <time>2022-05-07T14:56:27Z</time>
      </trkpt>
      <trkpt lat="44.47485" lon="1.65482">
        <ele>178.9</ele>
        <time>2022-05-07T14:56:31Z</time>
      </trkpt>
      <trkpt lat="44.47482" lon="1.6548">
        <ele>179</ele>
        <time>2022-05-07T14:56:32Z</time>
      </trkpt>
      <trkpt lat="44.47479" lon="1.6548">
        <ele>179.1</ele>
        <time>2022-05-07T14:56:33Z</time>
      </trkpt>
      <trkpt lat="44.47476" lon="1.6548">
        <ele>179.2</ele>
        <time>2022-05-07T14:56:34Z</time>
      </trkpt>
      <trkpt lat="44.47475" lon="1.6548">
        <ele>179.3</ele>
        <time>2022-05-07T14:56:35Z</time>
      </trkpt>
      <trkpt lat="44.47472" lon="1.65481">
        <ele>179.3</ele>
        <time>2022-05-07T14:56:37Z</time>
      </trkpt>
      <trkpt lat="44.47471" lon="1.65482">
        <ele>179.4</ele>
        <time>2022-05-07T14:56:38Z</time>
      </trkpt>
      <trkpt lat="44.47468" lon="1.65481">
        <ele>179.4</ele>
        <time>2022-05-07T14:56:39Z</time>
      </trkpt>
      <trkpt lat="44.47467" lon="1.65481">
        <ele>179.5</ele>
        <time>2022-05-07T14:56:40Z</time>
      </trkpt>
      <trkpt lat="44.47463" lon="1.65478">
        <ele>179.5</ele>
        <time>2022-05-07T14:56:41Z</time>
      </trkpt>
      <trkpt lat="44.4746" lon="1.65476">
        <ele>179.4</ele>
        <time>2022-05-07T14:56:42Z</time>
      </trkpt>
      <trkpt lat="44.47455" lon="1.65471">
        <ele>179</ele>
        <time>2022-05-07T14:56:43Z</time>
      </trkpt>
      <trkpt lat="44.47452" lon="1.65464">
        <ele>178.5</ele>
        <time>2022-05-07T14:56:44Z</time>
      </trkpt>
      <trkpt lat="44.47453" lon="1.65457">
        <ele>177.9</ele>
        <time>2022-05-07T14:56:45Z</time>
      </trkpt>
      <trkpt lat="44.47454" lon="1.65451">
        <ele>177.4</ele>
        <time>2022-05-07T14:56:46Z</time>
      </trkpt>
      <trkpt lat="44.47459" lon="1.65445">
        <ele>176.6</ele>
        <time>2022-05-07T14:56:47Z</time>
      </trkpt>
      <trkpt lat="44.47463" lon="1.65442">
        <ele>176.2</ele>
        <time>2022-05-07T14:56:48Z</time>
      </trkpt>
      <trkpt lat="44.47469" lon="1.65436">
        <ele>175.3</ele>
        <time>2022-05-07T14:56:49Z</time>
      </trkpt>
      <trkpt lat="44.47475" lon="1.6543">
        <ele>174.4</ele>
        <time>2022-05-07T14:56:50Z</time>
      </trkpt>
      <trkpt lat="44.47481" lon="1.65423">
        <ele>173.2</ele>
        <time>2022-05-07T14:56:51Z</time>
      </trkpt>
      <trkpt lat="44.47488" lon="1.65415">
        <ele>171.8</ele>
        <time>2022-05-07T14:56:52Z</time>
      </trkpt>
      <trkpt lat="44.47499" lon="1.65398">
        <ele>169.8</ele>
        <time>2022-05-07T14:56:54Z</time>
      </trkpt>
      <trkpt lat="44.47501" lon="1.65389">
        <ele>168.9</ele>
        <time>2022-05-07T14:56:55Z</time>
      </trkpt>
      <trkpt lat="44.47501" lon="1.6538">
        <ele>167.9</ele>
        <time>2022-05-07T14:56:56Z</time>
      </trkpt>
      <trkpt lat="44.47498" lon="1.6537">
        <ele>166.8</ele>
        <time>2022-05-07T14:56:57Z</time>
      </trkpt>
      <trkpt lat="44.47493" lon="1.65359">
        <ele>165.6</ele>
        <time>2022-05-07T14:56:58Z</time>
      </trkpt>
      <trkpt lat="44.4748" lon="1.6534">
        <ele>163.2</ele>
        <time>2022-05-07T14:57:00Z</time>
      </trkpt>
      <trkpt lat="44.47472" lon="1.65333">
        <ele>162.2</ele>
        <time>2022-05-07T14:57:01Z</time>
      </trkpt>
      <trkpt lat="44.47465" lon="1.65328">
        <ele>161.3</ele>
        <time>2022-05-07T14:57:02Z</time>
      </trkpt>
      <trkpt lat="44.47458" lon="1.65324">
        <ele>160.5</ele>
        <time>2022-05-07T14:57:03Z</time>
      </trkpt>
      <trkpt lat="44.47451" lon="1.6532">
        <ele>159.8</ele>
        <time>2022-05-07T14:57:04Z</time>
      </trkpt>
      <trkpt lat="44.47438" lon="1.6532">
        <ele>158.4</ele>
        <time>2022-05-07T14:57:06Z</time>
      </trkpt>
      <trkpt lat="44.4743" lon="1.6532">
        <ele>157.5</ele>
        <time>2022-05-07T14:57:07Z</time>
      </trkpt>
      <trkpt lat="44.47423" lon="1.65318">
        <ele>156.5</ele>
        <time>2022-05-07T14:57:08Z</time>
      </trkpt>
      <trkpt lat="44.47418" lon="1.65315">
        <ele>155.8</ele>
        <time>2022-05-07T14:57:09Z</time>
      </trkpt>
      <trkpt lat="44.47414" lon="1.6531">
        <ele>155.2</ele>
        <time>2022-05-07T14:57:10Z</time>
      </trkpt>
      <trkpt lat="44.47412" lon="1.65296">
        <ele>154.1</ele>
        <time>2022-05-07T14:57:12Z</time>
      </trkpt>
      <trkpt lat="44.47412" lon="1.65287">
        <ele>153.4</ele>
        <time>2022-05-07T14:57:13Z</time>
      </trkpt>
      <trkpt lat="44.47413" lon="1.65278">
        <ele>152.5</ele>
        <time>2022-05-07T14:57:14Z</time>
      </trkpt>
      <trkpt lat="44.47413" lon="1.65268">
        <ele>151.6</ele>
        <time>2022-05-07T14:57:15Z</time>
      </trkpt>
      <trkpt lat="44.47412" lon="1.65258">
        <ele>150.7</ele>
        <time>2022-05-07T14:57:16Z</time>
      </trkpt>
      <trkpt lat="44.47411" lon="1.65238">
        <ele>149.3</ele>
        <time>2022-05-07T14:57:18Z</time>
      </trkpt>
      <trkpt lat="44.4741" lon="1.65227">
        <ele>148.8</ele>
        <time>2022-05-07T14:57:19Z</time>
      </trkpt>
      <trkpt lat="44.47409" lon="1.65216">
        <ele>148.3</ele>
        <time>2022-05-07T14:57:20Z</time>
      </trkpt>
      <trkpt lat="44.47408" lon="1.65205">
        <ele>147.7</ele>
        <time>2022-05-07T14:57:21Z</time>
      </trkpt>
      <trkpt lat="44.47407" lon="1.65194">
        <ele>147.2</ele>
        <time>2022-05-07T14:57:22Z</time>
      </trkpt>
      <trkpt lat="44.47405" lon="1.65172">
        <ele>146.2</ele>
        <time>2022-05-07T14:57:24Z</time>
      </trkpt>
      <trkpt lat="44.47406" lon="1.65161">
        <ele>145.4</ele>
        <time>2022-05-07T14:57:25Z</time>
      </trkpt>
      <trkpt lat="44.47406" lon="1.65149">
        <ele>144.5</ele>
        <time>2022-05-07T14:57:26Z</time>
      </trkpt>
      <trkpt lat="44.47407" lon="1.65136">
        <ele>143.5</ele>
        <time>2022-05-07T14:57:27Z</time>
      </trkpt>
      <trkpt lat="44.47408" lon="1.65124">
        <ele>142.8</ele>
        <time>2022-05-07T14:57:28Z</time>
      </trkpt>
      <trkpt lat="44.47412" lon="1.65101">
        <ele>141.7</ele>
        <time>2022-05-07T14:57:30Z</time>
      </trkpt>
      <trkpt lat="44.47416" lon="1.6509">
        <ele>141</ele>
        <time>2022-05-07T14:57:31Z</time>
      </trkpt>
      <trkpt lat="44.47419" lon="1.65082">
        <ele>140.2</ele>
        <time>2022-05-07T14:57:32Z</time>
      </trkpt>
      <trkpt lat="44.47424" lon="1.65075">
        <ele>139.5</ele>
        <time>2022-05-07T14:57:33Z</time>
      </trkpt>
      <trkpt lat="44.4743" lon="1.65069">
        <ele>138.6</ele>
        <time>2022-05-07T14:57:34Z</time>
      </trkpt>
      <trkpt lat="44.4744" lon="1.65067">
        <ele>137.4</ele>
        <time>2022-05-07T14:57:36Z</time>
      </trkpt>
      <trkpt lat="44.47443" lon="1.65069">
        <ele>137.3</ele>
        <time>2022-05-07T14:57:37Z</time>
      </trkpt>
      <trkpt lat="44.47444" lon="1.65069">
        <ele>137.3</ele>
        <time>2022-05-07T14:57:38Z</time>
      </trkpt>
      <trkpt lat="44.47444" lon="1.65069">
        <ele>137.3</ele>
        <time>2022-05-07T14:57:39Z</time>
      </trkpt>
      <trkpt lat="44.47444" lon="1.65069">
        <ele>137.3</ele>
        <time>2022-05-07T14:57:40Z</time>
      </trkpt>
      <trkpt lat="44.47444" lon="1.65069">
        <ele>137.3</ele>
        <time>2022-05-07T14:57:42Z</time>
      </trkpt>
      <trkpt lat="44.47444" lon="1.65069">
        <ele>137.3</ele>
        <time>2022-05-07T14:57:43Z</time>
      </trkpt>
      <trkpt lat="44.47444" lon="1.65069">
        <ele>137.3</ele>
        <time>2022-05-07T14:57:44Z</time>
      </trkpt>
      <trkpt lat="44.47444" lon="1.65069">
        <ele>137.3</ele>
        <time>2022-05-07T14:57:45Z</time>
      </trkpt>
      <trkpt lat="44.47444" lon="1.65069">
        <ele>137.3</ele>
        <time>2022-05-07T14:57:46Z</time>
      </trkpt>
      <trkpt lat="44.47444" lon="1.65069">
        <ele>137.3</ele>
        <time>2022-05-07T14:57:47Z</time>
      </trkpt>
      <trkpt lat="44.47448" lon="1.65071">
        <ele>137.1</ele>
        <time>2022-05-07T14:58:24Z</time>
      </trkpt>
      <trkpt lat="44.47459" lon="1.65082">
        <ele>136.6</ele>
        <time>2022-05-07T14:58:26Z</time>
      </trkpt>
      <trkpt lat="44.47463" lon="1.65087">
        <ele>136.4</ele>
        <time>2022-05-07T14:58:27Z</time>
      </trkpt>
      <trkpt lat="44.47466" lon="1.6509">
        <ele>136.1</ele>
        <time>2022-05-07T14:58:29Z</time>
      </trkpt>
      <trkpt lat="44.47469" lon="1.65096">
        <ele>135.8</ele>
        <time>2022-05-07T14:58:30Z</time>
      </trkpt>
      <trkpt lat="44.4748" lon="1.65116">
        <ele>134.2</ele>
        <time>2022-05-07T14:58:32Z</time>
      </trkpt>
      <trkpt lat="44.47485" lon="1.65125">
        <ele>133.5</ele>
        <time>2022-05-07T14:58:33Z</time>
      </trkpt>
      <trkpt lat="44.47489" lon="1.65135">
        <ele>132.9</ele>
        <time>2022-05-07T14:58:34Z</time>
      </trkpt>
      <trkpt lat="44.47492" lon="1.65146">
        <ele>132.6</ele>
        <time>2022-05-07T14:58:35Z</time>
      </trkpt>
      <trkpt lat="44.47495" lon="1.65156">
        <ele>132.6</ele>
        <time>2022-05-07T14:58:36Z</time>
      </trkpt>
      <trkpt lat="44.47499" lon="1.65176">
        <ele>132.8</ele>
        <time>2022-05-07T14:58:38Z</time>
      </trkpt>
      <trkpt lat="44.47502" lon="1.65185">
        <ele>133</ele>
        <time>2022-05-07T14:58:39Z</time>
      </trkpt>
      <trkpt lat="44.47505" lon="1.65193">
        <ele>133.2</ele>
        <time>2022-05-07T14:58:40Z</time>
      </trkpt>
      <trkpt lat="44.47508" lon="1.65202">
        <ele>133.5</ele>
        <time>2022-05-07T14:58:41Z</time>
      </trkpt>
      <trkpt lat="44.47512" lon="1.6521">
        <ele>133.8</ele>
        <time>2022-05-07T14:58:42Z</time>
      </trkpt>
      <trkpt lat="44.47519" lon="1.65224">
        <ele>134.6</ele>
        <time>2022-05-07T14:58:44Z</time>
      </trkpt>
      <trkpt lat="44.47523" lon="1.6523">
        <ele>134.9</ele>
        <time>2022-05-07T14:58:45Z</time>
      </trkpt>
      <trkpt lat="44.47526" lon="1.65237">
        <ele>135.3</ele>
        <time>2022-05-07T14:58:46Z</time>
      </trkpt>
      <trkpt lat="44.4753" lon="1.65243">
        <ele>135.7</ele>
        <time>2022-05-07T14:58:47Z</time>
      </trkpt>
      <trkpt lat="44.47533" lon="1.65248">
        <ele>136.1</ele>
        <time>2022-05-07T14:58:48Z</time>
      </trkpt>
      <trkpt lat="44.47537" lon="1.65254">
        <ele>136.4</ele>
        <time>2022-05-07T14:58:50Z</time>
      </trkpt>
      <trkpt lat="44.47542" lon="1.65263">
        <ele>137</ele>
        <time>2022-05-07T14:58:51Z</time>
      </trkpt>
      <trkpt lat="44.47545" lon="1.65267">
        <ele>137.2</ele>
        <time>2022-05-07T14:58:52Z</time>
      </trkpt>
      <trkpt lat="44.47547" lon="1.65272">
        <ele>137.5</ele>
        <time>2022-05-07T14:58:53Z</time>
      </trkpt>
      <trkpt lat="44.4755" lon="1.65276">
        <ele>137.7</ele>
        <time>2022-05-07T14:58:54Z</time>
      </trkpt>
      <trkpt lat="44.47555" lon="1.65283">
        <ele>138.2</ele>
        <time>2022-05-07T14:58:56Z</time>
      </trkpt>
      <trkpt lat="44.47557" lon="1.65288">
        <ele>138.5</ele>
        <time>2022-05-07T14:58:58Z</time>
      </trkpt>
      <trkpt lat="44.47557" lon="1.65293">
        <ele>138.7</ele>
        <time>2022-05-07T14:58:59Z</time>
      </trkpt>
      <trkpt lat="44.47557" lon="1.65294">
        <ele>138.7</ele>
        <time>2022-05-07T14:59:00Z</time>
      </trkpt>
      <trkpt lat="44.47557" lon="1.65294">
        <ele>138.8</ele>
        <time>2022-05-07T14:59:01Z</time>
      </trkpt>
      <trkpt lat="44.47557" lon="1.65294">
        <ele>138.8</ele>
        <time>2022-05-07T14:59:02Z</time>
      </trkpt>
      <trkpt lat="44.47557" lon="1.65295">
        <ele>138.8</ele>
        <time>2022-05-07T14:59:04Z</time>
      </trkpt>
      <trkpt lat="44.47558" lon="1.65296">
        <ele>138.9</ele>
        <time>2022-05-07T14:59:05Z</time>
      </trkpt>
      <trkpt lat="44.47558" lon="1.65297">
        <ele>139</ele>
        <time>2022-05-07T14:59:06Z</time>
      </trkpt>
      <trkpt lat="44.47559" lon="1.65298">
        <ele>139</ele>
        <time>2022-05-07T14:59:07Z</time>
      </trkpt>
      <trkpt lat="44.47559" lon="1.65299">
        <ele>139.1</ele>
        <time>2022-05-07T14:59:08Z</time>
      </trkpt>
      <trkpt lat="44.47559" lon="1.653">
        <ele>139.1</ele>
        <time>2022-05-07T14:59:10Z</time>
      </trkpt>
      <trkpt lat="44.47563" lon="1.65295">
        <ele>139.4</ele>
        <time>2022-05-07T14:59:14Z</time>
      </trkpt>
      <trkpt lat="44.47566" lon="1.65293">
        <ele>139.6</ele>
        <time>2022-05-07T14:59:15Z</time>
      </trkpt>
      <trkpt lat="44.47568" lon="1.65291">
        <ele>139.6</ele>
        <time>2022-05-07T14:59:16Z</time>
      </trkpt>
      <trkpt lat="44.47572" lon="1.65287">
        <ele>139.6</ele>
        <time>2022-05-07T14:59:18Z</time>
      </trkpt>
      <trkpt lat="44.47575" lon="1.65284">
        <ele>139.7</ele>
        <time>2022-05-07T14:59:19Z</time>
      </trkpt>
      <trkpt lat="44.47576" lon="1.65282">
        <ele>139.7</ele>
        <time>2022-05-07T14:59:20Z</time>
      </trkpt>
      <trkpt lat="44.47579" lon="1.6528">
        <ele>139.7</ele>
        <time>2022-05-07T14:59:21Z</time>
      </trkpt>
      <trkpt lat="44.47585" lon="1.65274">
        <ele>139.7</ele>
        <time>2022-05-07T14:59:23Z</time>
      </trkpt>
      <trkpt lat="44.47587" lon="1.65272">
        <ele>139.7</ele>
        <time>2022-05-07T14:59:24Z</time>
      </trkpt>
      <trkpt lat="44.4759" lon="1.6527">
        <ele>139.7</ele>
        <time>2022-05-07T14:59:25Z</time>
      </trkpt>
      <trkpt lat="44.47592" lon="1.65268">
        <ele>139.7</ele>
        <time>2022-05-07T14:59:26Z</time>
      </trkpt>
      <trkpt lat="44.47595" lon="1.65265">
        <ele>139.7</ele>
        <time>2022-05-07T14:59:27Z</time>
      </trkpt>
      <trkpt lat="44.47598" lon="1.65261">
        <ele>139.7</ele>
        <time>2022-05-07T14:59:29Z</time>
      </trkpt>
      <trkpt lat="44.47602" lon="1.65258">
        <ele>139.7</ele>
        <time>2022-05-07T14:59:30Z</time>
      </trkpt>
      <trkpt lat="44.47605" lon="1.65255">
        <ele>139.8</ele>
        <time>2022-05-07T14:59:31Z</time>
      </trkpt>
      <trkpt lat="44.47607" lon="1.65252">
        <ele>139.8</ele>
        <time>2022-05-07T14:59:32Z</time>
      </trkpt>
      <trkpt lat="44.47609" lon="1.6525">
        <ele>139.8</ele>
        <time>2022-05-07T14:59:33Z</time>
      </trkpt>
      <trkpt lat="44.47612" lon="1.65247">
        <ele>139.8</ele>
        <time>2022-05-07T14:59:34Z</time>
      </trkpt>
      <trkpt lat="44.47616" lon="1.65244">
        <ele>139.8</ele>
        <time>2022-05-07T14:59:35Z</time>
      </trkpt>
      <trkpt lat="44.47617" lon="1.65243">
        <ele>139.8</ele>
        <time>2022-05-07T14:59:36Z</time>
      </trkpt>
      <trkpt lat="44.4762" lon="1.65241">
        <ele>139.8</ele>
        <time>2022-05-07T14:59:37Z</time>
      </trkpt>
      <trkpt lat="44.47624" lon="1.65237">
        <ele>139.8</ele>
        <time>2022-05-07T14:59:39Z</time>
      </trkpt>
      <trkpt lat="44.47628" lon="1.65233">
        <ele>139.8</ele>
        <time>2022-05-07T14:59:41Z</time>
      </trkpt>
      <trkpt lat="44.47632" lon="1.65231">
        <ele>139.8</ele>
        <time>2022-05-07T14:59:42Z</time>
      </trkpt>
      <trkpt lat="44.47635" lon="1.65228">
        <ele>139.8</ele>
        <time>2022-05-07T14:59:43Z</time>
      </trkpt>
      <trkpt lat="44.47637" lon="1.65227">
        <ele>139.8</ele>
        <time>2022-05-07T14:59:44Z</time>
      </trkpt>
      <trkpt lat="44.4764" lon="1.65225">
        <ele>139.8</ele>
        <time>2022-05-07T14:59:45Z</time>
      </trkpt>
      <trkpt lat="44.47642" lon="1.65222">
        <ele>139.8</ele>
        <time>2022-05-07T14:59:46Z</time>
      </trkpt>
      <trkpt lat="44.47646" lon="1.65221">
        <ele>139.8</ele>
        <time>2022-05-07T14:59:48Z</time>
      </trkpt>
      <trkpt lat="44.47649" lon="1.6522">
        <ele>139.7</ele>
        <time>2022-05-07T14:59:49Z</time>
      </trkpt>
      <trkpt lat="44.47651" lon="1.6522">
        <ele>139.7</ele>
        <time>2022-05-07T14:59:50Z</time>
      </trkpt>
      <trkpt lat="44.47652" lon="1.65225">
        <ele>139.6</ele>
        <time>2022-05-07T14:59:52Z</time>
      </trkpt>
      <trkpt lat="44.47652" lon="1.65227">
        <ele>139.6</ele>
        <time>2022-05-07T14:59:53Z</time>
      </trkpt>
      <trkpt lat="44.47651" lon="1.65229">
        <ele>139.5</ele>
        <time>2022-05-07T14:59:54Z</time>
      </trkpt>
      <trkpt lat="44.47649" lon="1.65232">
        <ele>139.5</ele>
        <time>2022-05-07T14:59:55Z</time>
      </trkpt>
      <trkpt lat="44.47649" lon="1.65234">
        <ele>139.5</ele>
        <time>2022-05-07T14:59:56Z</time>
      </trkpt>
      <trkpt lat="44.47648" lon="1.65238">
        <ele>139.4</ele>
        <time>2022-05-07T14:59:57Z</time>
      </trkpt>
      <trkpt lat="44.47648" lon="1.6524">
        <ele>139.6</ele>
        <time>2022-05-07T14:59:58Z</time>
      </trkpt>
      <trkpt lat="44.47648" lon="1.65243">
        <ele>139.7</ele>
        <time>2022-05-07T14:59:59Z</time>
      </trkpt>
      <trkpt lat="44.47647" lon="1.65246">
        <ele>139.8</ele>
        <time>2022-05-07T15:00:01Z</time>
      </trkpt>
      <trkpt lat="44.47646" lon="1.6525">
        <ele>139.8</ele>
        <time>2022-05-07T15:00:02Z</time>
      </trkpt>
      <trkpt lat="44.47645" lon="1.65251">
        <ele>140</ele>
        <time>2022-05-07T15:00:03Z</time>
      </trkpt>
      <trkpt lat="44.47645" lon="1.65253">
        <ele>140.4</ele>
        <time>2022-05-07T15:00:04Z</time>
      </trkpt>
      <trkpt lat="44.47644" lon="1.65255">
        <ele>140.8</ele>
        <time>2022-05-07T15:00:05Z</time>
      </trkpt>
      <trkpt lat="44.47643" lon="1.65258">
        <ele>140.8</ele>
        <time>2022-05-07T15:00:06Z</time>
      </trkpt>
      <trkpt lat="44.47642" lon="1.6526">
        <ele>141.3</ele>
        <time>2022-05-07T15:00:08Z</time>
      </trkpt>
      <trkpt lat="44.47642" lon="1.65263">
        <ele>142.4</ele>
        <time>2022-05-07T15:00:09Z</time>
      </trkpt>
      <trkpt lat="44.47641" lon="1.65265">
        <ele>142.4</ele>
        <time>2022-05-07T15:00:10Z</time>
      </trkpt>
      <trkpt lat="44.47639" lon="1.65269">
        <ele>143.1</ele>
        <time>2022-05-07T15:00:11Z</time>
      </trkpt>
      <trkpt lat="44.47639" lon="1.6527">
        <ele>143.7</ele>
        <time>2022-05-07T15:00:12Z</time>
      </trkpt>
      <trkpt lat="44.47638" lon="1.65272">
        <ele>144.4</ele>
        <time>2022-05-07T15:00:13Z</time>
      </trkpt>
      <trkpt lat="44.47638" lon="1.65273">
        <ele>144.4</ele>
        <time>2022-05-07T15:00:14Z</time>
      </trkpt>
      <trkpt lat="44.47637" lon="1.65274">
        <ele>144.4</ele>
        <time>2022-05-07T15:00:15Z</time>
      </trkpt>
      <trkpt lat="44.47637" lon="1.65274">
        <ele>144.4</ele>
        <time>2022-05-07T15:00:16Z</time>
      </trkpt>
      <trkpt lat="44.47637" lon="1.65275">
        <ele>144.4</ele>
        <time>2022-05-07T15:00:17Z</time>
      </trkpt>
      <trkpt lat="44.47636" lon="1.65276">
        <ele>145.1</ele>
        <time>2022-05-07T15:00:18Z</time>
      </trkpt>
      <trkpt lat="44.47636" lon="1.65276">
        <ele>145.7</ele>
        <time>2022-05-07T15:00:19Z</time>
      </trkpt>
      <trkpt lat="44.47636" lon="1.65277">
        <ele>145.7</ele>
        <time>2022-05-07T15:00:20Z</time>
      </trkpt>
      <trkpt lat="44.47635" lon="1.65278">
        <ele>145.7</ele>
        <time>2022-05-07T15:00:21Z</time>
      </trkpt>
      <trkpt lat="44.47635" lon="1.65278">
        <ele>145.7</ele>
        <time>2022-05-07T15:00:22Z</time>
      </trkpt>
      <trkpt lat="44.47635" lon="1.65279">
        <ele>145.7</ele>
        <time>2022-05-07T15:00:23Z</time>
      </trkpt>
      <trkpt lat="44.47634" lon="1.6528">
        <ele>145.7</ele>
        <time>2022-05-07T15:01:01Z</time>
      </trkpt>
      <trkpt lat="44.47634" lon="1.65281">
        <ele>146.4</ele>
        <time>2022-05-07T15:01:02Z</time>
      </trkpt>
      <trkpt lat="44.47634" lon="1.65281">
        <ele>146.4</ele>
        <time>2022-05-07T15:01:03Z</time>
      </trkpt>
      <trkpt lat="44.47632" lon="1.65285">
        <ele>147.6</ele>
        <time>2022-05-07T15:01:04Z</time>
      </trkpt>
      <trkpt lat="44.4763" lon="1.65288">
        <ele>147.6</ele>
        <time>2022-05-07T15:01:05Z</time>
      </trkpt>
      <trkpt lat="44.47628" lon="1.65293">
        <ele>148.7</ele>
        <time>2022-05-07T15:01:06Z</time>
      </trkpt>
      <trkpt lat="44.47627" lon="1.65294">
        <ele>149.4</ele>
        <time>2022-05-07T15:01:07Z</time>
      </trkpt>
      <trkpt lat="44.47625" lon="1.65299">
        <ele>150.6</ele>
        <time>2022-05-07T15:01:09Z</time>
      </trkpt>
      <trkpt lat="44.47625" lon="1.65299">
        <ele>150.6</ele>
        <time>2022-05-07T15:01:11Z</time>
      </trkpt>
      <trkpt lat="44.47625" lon="1.653">
        <ele>150.6</ele>
        <time>2022-05-07T15:01:12Z</time>
      </trkpt>
      <trkpt lat="44.47625" lon="1.65301">
        <ele>150.6</ele>
        <time>2022-05-07T15:01:14Z</time>
      </trkpt>
      <trkpt lat="44.47624" lon="1.65301">
        <ele>150.6</ele>
        <time>2022-05-07T15:01:15Z</time>
      </trkpt>
      <trkpt lat="44.47624" lon="1.65302">
        <ele>151.3</ele>
        <time>2022-05-07T15:01:17Z</time>
      </trkpt>
      <trkpt lat="44.47624" lon="1.65302">
        <ele>151.3</ele>
        <time>2022-05-07T15:01:18Z</time>
      </trkpt>
      <trkpt lat="44.47624" lon="1.65303">
        <ele>151.3</ele>
        <time>2022-05-07T15:01:19Z</time>
      </trkpt>
      <trkpt lat="44.47624" lon="1.65303">
        <ele>151.3</ele>
        <time>2022-05-07T15:01:19Z</time>
      </trkpt>
      <trkpt lat="44.47624" lon="1.65314">
        <ele>152.9</ele>
        <time>2022-05-07T15:01:20Z</time>
      </trkpt>
      <trkpt lat="44.47622" lon="1.65322">
        <ele>155</ele>
        <time>2022-05-07T15:01:21Z</time>
      </trkpt>
      <trkpt lat="44.47619" lon="1.65328">
        <ele>156.9</ele>
        <time>2022-05-07T15:01:22Z</time>
      </trkpt>
      <trkpt lat="44.47618" lon="1.65333">
        <ele>157.6</ele>
        <time>2022-05-07T15:01:23Z</time>
      </trkpt>
      <trkpt lat="44.47616" lon="1.65339">
        <ele>158.8</ele>
        <time>2022-05-07T15:01:25Z</time>
      </trkpt>
      <trkpt lat="44.47615" lon="1.65341">
        <ele>159.5</ele>
        <time>2022-05-07T15:01:26Z</time>
      </trkpt>
      <trkpt lat="44.47615" lon="1.65342">
        <ele>159.5</ele>
        <time>2022-05-07T15:01:27Z</time>
      </trkpt>
      <trkpt lat="44.47612" lon="1.65346">
        <ele>160.6</ele>
        <time>2022-05-07T15:01:28Z</time>
      </trkpt>
      <trkpt lat="44.47611" lon="1.65349">
        <ele>161.9</ele>
        <time>2022-05-07T15:01:29Z</time>
      </trkpt>
      <trkpt lat="44.4761" lon="1.65352">
        <ele>161.9</ele>
        <time>2022-05-07T15:01:30Z</time>
      </trkpt>
      <trkpt lat="44.47611" lon="1.65356">
        <ele>162.7</ele>
        <time>2022-05-07T15:01:32Z</time>
      </trkpt>
      <trkpt lat="44.47613" lon="1.65352">
        <ele>161.4</ele>
        <time>2022-05-07T15:01:34Z</time>
      </trkpt>
      <trkpt lat="44.47614" lon="1.6535">
        <ele>161.4</ele>
        <time>2022-05-07T15:01:35Z</time>
      </trkpt>
      <trkpt lat="44.47615" lon="1.65349">
        <ele>161</ele>
        <time>2022-05-07T15:01:36Z</time>
      </trkpt>
      <trkpt lat="44.47616" lon="1.65347">
        <ele>160.2</ele>
        <time>2022-05-07T15:01:37Z</time>
      </trkpt>
      <trkpt lat="44.47618" lon="1.65344">
        <ele>159</ele>
        <time>2022-05-07T15:01:38Z</time>
      </trkpt>
      <trkpt lat="44.47622" lon="1.65337">
        <ele>157.9</ele>
        <time>2022-05-07T15:01:39Z</time>
      </trkpt>
      <trkpt lat="44.47625" lon="1.65335">
        <ele>156.8</ele>
        <time>2022-05-07T15:01:40Z</time>
      </trkpt>
      <trkpt lat="44.47626" lon="1.65336">
        <ele>157.6</ele>
        <time>2022-05-07T15:01:41Z</time>
      </trkpt>
      <trkpt lat="44.47626" lon="1.65337">
        <ele>157.6</ele>
        <time>2022-05-07T15:01:42Z</time>
      </trkpt>
      <trkpt lat="44.47627" lon="1.65336">
        <ele>157.6</ele>
        <time>2022-05-07T15:01:43Z</time>
      </trkpt>
      <trkpt lat="44.47627" lon="1.65334">
        <ele>156.8</ele>
        <time>2022-05-07T15:01:44Z</time>
      </trkpt>
      <trkpt lat="44.47627" lon="1.65333">
        <ele>156.5</ele>
        <time>2022-05-07T15:01:45Z</time>
      </trkpt>
      <trkpt lat="44.47628" lon="1.65331">
        <ele>155.7</ele>
        <time>2022-05-07T15:01:46Z</time>
      </trkpt>
      <trkpt lat="44.47628" lon="1.65331">
        <ele>155.7</ele>
        <time>2022-05-07T15:01:47Z</time>
      </trkpt>
      <trkpt lat="44.47628" lon="1.65331">
        <ele>155.7</ele>
        <time>2022-05-07T15:01:48Z</time>
      </trkpt>
      <trkpt lat="44.47628" lon="1.6533">
        <ele>155.7</ele>
        <time>2022-05-07T15:01:49Z</time>
      </trkpt>
      <trkpt lat="44.47629" lon="1.65325">
        <ele>154.9</ele>
        <time>2022-05-07T15:01:51Z</time>
      </trkpt>
      <trkpt lat="44.4763" lon="1.65322">
        <ele>153.7</ele>
        <time>2022-05-07T15:01:52Z</time>
      </trkpt>
      <trkpt lat="44.47631" lon="1.65321">
        <ele>153.7</ele>
        <time>2022-05-07T15:01:53Z</time>
      </trkpt>
      <trkpt lat="44.47632" lon="1.65319">
        <ele>153.7</ele>
        <time>2022-05-07T15:01:54Z</time>
      </trkpt>
      <trkpt lat="44.47633" lon="1.65318">
        <ele>152.9</ele>
        <time>2022-05-07T15:01:55Z</time>
      </trkpt>
      <trkpt lat="44.47632" lon="1.65318">
        <ele>152.9</ele>
        <time>2022-05-07T15:01:57Z</time>
      </trkpt>
      <trkpt lat="44.47632" lon="1.65318">
        <ele>152.9</ele>
        <time>2022-05-07T15:01:58Z</time>
      </trkpt>
      <trkpt lat="44.47631" lon="1.65319">
        <ele>153.7</ele>
        <time>2022-05-07T15:01:59Z</time>
      </trkpt>
      <trkpt lat="44.4763" lon="1.65319">
        <ele>153.7</ele>
        <time>2022-05-07T15:02:00Z</time>
      </trkpt>
      <trkpt lat="44.4763" lon="1.65319">
        <ele>154.1</ele>
        <time>2022-05-07T15:02:01Z</time>
      </trkpt>
      <trkpt lat="44.47629" lon="1.65319">
        <ele>154.1</ele>
        <time>2022-05-07T15:02:03Z</time>
      </trkpt>
      <trkpt lat="44.47629" lon="1.65319">
        <ele>154.1</ele>
        <time>2022-05-07T15:02:04Z</time>
      </trkpt>
      <trkpt lat="44.47629" lon="1.65319">
        <ele>154.1</ele>
        <time>2022-05-07T15:02:05Z</time>
      </trkpt>
      <trkpt lat="44.47629" lon="1.65319">
        <ele>154.1</ele>
        <time>2022-05-07T15:02:06Z</time>
      </trkpt>
      <trkpt lat="44.47629" lon="1.65319">
        <ele>154.1</ele>
        <time>2022-05-07T15:02:07Z</time>
      </trkpt>
      <trkpt lat="44.47628" lon="1.65324">
        <ele>154.9</ele>
        <time>2022-05-07T15:05:15Z</time>
      </trkpt>
      <trkpt lat="44.47629" lon="1.65324">
        <ele>154.9</ele>
        <time>2022-05-07T15:05:16Z</time>
      </trkpt>
      <trkpt lat="44.47629" lon="1.65323">
        <ele>154.9</ele>
        <time>2022-05-07T15:05:17Z</time>
      </trkpt>
      <trkpt lat="44.47629" lon="1.65323">
        <ele>154.9</ele>
        <time>2022-05-07T15:05:18Z</time>
      </trkpt>
      <trkpt lat="44.47629" lon="1.65323">
        <ele>154.9</ele>
        <time>2022-05-07T15:05:19Z</time>
      </trkpt>
      <trkpt lat="44.47629" lon="1.65323">
        <ele>154.9</ele>
        <time>2022-05-07T15:05:20Z</time>
      </trkpt>
      <trkpt lat="44.47629" lon="1.65323">
        <ele>154.9</ele>
        <time>2022-05-07T15:05:21Z</time>
      </trkpt>
      <trkpt lat="44.47629" lon="1.65323">
        <ele>154.9</ele>
        <time>2022-05-07T15:05:22Z</time>
      </trkpt>
      <trkpt lat="44.47629" lon="1.65323">
        <ele>154.9</ele>
        <time>2022-05-07T15:05:23Z</time>
      </trkpt>
      <trkpt lat="44.47629" lon="1.65323">
        <ele>154.9</ele>
        <time>2022-05-07T15:05:24Z</time>
      </trkpt>
      <trkpt lat="44.47629" lon="1.65323">
        <ele>154.9</ele>
        <time>2022-05-07T15:05:25Z</time>
      </trkpt>
      <trkpt lat="44.47629" lon="1.65323">
        <ele>154.9</ele>
        <time>2022-05-07T15:05:26Z</time>
      </trkpt>
      <trkpt lat="44.47617" lon="1.65335">
        <ele>158</ele>
        <time>2022-05-07T15:06:47Z</time>
      </trkpt>
      <trkpt lat="44.47615" lon="1.65338">
        <ele>158.7</ele>
        <time>2022-05-07T15:06:48Z</time>
      </trkpt>
      <trkpt lat="44.47614" lon="1.6534">
        <ele>159.2</ele>
        <time>2022-05-07T15:06:50Z</time>
      </trkpt>
      <trkpt lat="44.47614" lon="1.65338">
        <ele>159.2</ele>
        <time>2022-05-07T15:06:51Z</time>
      </trkpt>
      <trkpt lat="44.47615" lon="1.65337">
        <ele>158.7</ele>
        <time>2022-05-07T15:06:52Z</time>
      </trkpt>
      <trkpt lat="44.47616" lon="1.65335">
        <ele>158</ele>
        <time>2022-05-07T15:06:53Z</time>
      </trkpt>
      <trkpt lat="44.47617" lon="1.65333">
        <ele>158</ele>
        <time>2022-05-07T15:06:54Z</time>
      </trkpt>
      <trkpt lat="44.47617" lon="1.65332">
        <ele>158</ele>
        <time>2022-05-07T15:06:55Z</time>
      </trkpt>
      <trkpt lat="44.47618" lon="1.6533">
        <ele>156.9</ele>
        <time>2022-05-07T15:06:56Z</time>
      </trkpt>
      <trkpt lat="44.47619" lon="1.65328">
        <ele>156.9</ele>
        <time>2022-05-07T15:06:57Z</time>
      </trkpt>
      <trkpt lat="44.4762" lon="1.65327">
        <ele>156.1</ele>
        <time>2022-05-07T15:06:58Z</time>
      </trkpt>
      <trkpt lat="44.47621" lon="1.65325">
        <ele>156.1</ele>
        <time>2022-05-07T15:07:00Z</time>
      </trkpt>
      <trkpt lat="44.47621" lon="1.65323">
        <ele>155.7</ele>
        <time>2022-05-07T15:14:07Z</time>
      </trkpt>
      <trkpt lat="44.47622" lon="1.65322">
        <ele>154.9</ele>
        <time>2022-05-07T15:14:08Z</time>
      </trkpt>
      <trkpt lat="44.47623" lon="1.6532">
        <ele>154.9</ele>
        <time>2022-05-07T15:14:09Z</time>
      </trkpt>
      <trkpt lat="44.47625" lon="1.65315">
        <ele>153.7</ele>
        <time>2022-05-07T15:14:10Z</time>
      </trkpt>
      <trkpt lat="44.47626" lon="1.65311">
        <ele>152.9</ele>
        <time>2022-05-07T15:14:11Z</time>
      </trkpt>
      <trkpt lat="44.47628" lon="1.65305">
        <ele>150.8</ele>
        <time>2022-05-07T15:14:13Z</time>
      </trkpt>
      <trkpt lat="44.4763" lon="1.65299">
        <ele>150.1</ele>
        <time>2022-05-07T15:14:14Z</time>
      </trkpt>
      <trkpt lat="44.47633" lon="1.65292">
        <ele>148.2</ele>
        <time>2022-05-07T15:14:16Z</time>
      </trkpt>
      <trkpt lat="44.47634" lon="1.65287">
        <ele>147.1</ele>
        <time>2022-05-07T15:14:17Z</time>
      </trkpt>
      <trkpt lat="44.47636" lon="1.65282">
        <ele>145.8</ele>
        <time>2022-05-07T15:14:18Z</time>
      </trkpt>
      <trkpt lat="44.47638" lon="1.65275">
        <ele>144.3</ele>
        <time>2022-05-07T15:14:20Z</time>
      </trkpt>
      <trkpt lat="44.47638" lon="1.65271">
        <ele>143.6</ele>
        <time>2022-05-07T15:14:21Z</time>
      </trkpt>
      <trkpt lat="44.47639" lon="1.65268">
        <ele>143</ele>
        <time>2022-05-07T15:14:22Z</time>
      </trkpt>
      <trkpt lat="44.47641" lon="1.65264">
        <ele>142.4</ele>
        <time>2022-05-07T15:14:24Z</time>
      </trkpt>
      <trkpt lat="44.47642" lon="1.65262">
        <ele>141.2</ele>
        <time>2022-05-07T15:14:25Z</time>
      </trkpt>
      <trkpt lat="44.47643" lon="1.65261">
        <ele>141.2</ele>
        <time>2022-05-07T15:14:26Z</time>
      </trkpt>
      <trkpt lat="44.47642" lon="1.65259">
        <ele>141.2</ele>
        <time>2022-05-07T15:14:27Z</time>
      </trkpt>
      <trkpt lat="44.47642" lon="1.65258">
        <ele>140.7</ele>
        <time>2022-05-07T15:14:28Z</time>
      </trkpt>
      <trkpt lat="44.47642" lon="1.65258">
        <ele>140.7</ele>
        <time>2022-05-07T15:14:29Z</time>
      </trkpt>
      <trkpt lat="44.47642" lon="1.65257">
        <ele>140.7</ele>
        <time>2022-05-07T15:14:31Z</time>
      </trkpt>
      <trkpt lat="44.47643" lon="1.65257">
        <ele>140.7</ele>
        <time>2022-05-07T15:14:32Z</time>
      </trkpt>
      <trkpt lat="44.47643" lon="1.65256">
        <ele>140.7</ele>
        <time>2022-05-07T15:14:33Z</time>
      </trkpt>
      <trkpt lat="44.47643" lon="1.65256">
        <ele>140.7</ele>
        <time>2022-05-07T15:14:34Z</time>
      </trkpt>
      <trkpt lat="44.47643" lon="1.65256">
        <ele>140.7</ele>
        <time>2022-05-07T15:14:35Z</time>
      </trkpt>
      <trkpt lat="44.47643" lon="1.65256">
        <ele>140.7</ele>
        <time>2022-05-07T15:14:37Z</time>
      </trkpt>
      <trkpt lat="44.47643" lon="1.65256">
        <ele>140.7</ele>
        <time>2022-05-07T15:14:38Z</time>
      </trkpt>
      <trkpt lat="44.47645" lon="1.65246">
        <ele>140</ele>
        <time>2022-05-07T15:14:41Z</time>
      </trkpt>
      <trkpt lat="44.47647" lon="1.6524">
        <ele>139.5</ele>
        <time>2022-05-07T15:14:42Z</time>
      </trkpt>
      <trkpt lat="44.47649" lon="1.65236">
        <ele>139.4</ele>
        <time>2022-05-07T15:14:43Z</time>
      </trkpt>
      <trkpt lat="44.4765" lon="1.6523">
        <ele>139.4</ele>
        <time>2022-05-07T15:14:45Z</time>
      </trkpt>
      <trkpt lat="44.47652" lon="1.65226">
        <ele>139.5</ele>
        <time>2022-05-07T15:14:46Z</time>
      </trkpt>
      <trkpt lat="44.47652" lon="1.65221">
        <ele>139.6</ele>
        <time>2022-05-07T15:14:47Z</time>
      </trkpt>
      <trkpt lat="44.47652" lon="1.65217">
        <ele>139.8</ele>
        <time>2022-05-07T15:14:48Z</time>
      </trkpt>
      <trkpt lat="44.47652" lon="1.65216">
        <ele>139.8</ele>
        <time>2022-05-07T15:14:49Z</time>
      </trkpt>
      <trkpt lat="44.47651" lon="1.65216">
        <ele>139.8</ele>
        <time>2022-05-07T15:14:50Z</time>
      </trkpt>
      <trkpt lat="44.4765" lon="1.65217">
        <ele>139.8</ele>
        <time>2022-05-07T15:14:52Z</time>
      </trkpt>
      <trkpt lat="44.47649" lon="1.65217">
        <ele>139.8</ele>
        <time>2022-05-07T15:14:53Z</time>
      </trkpt>
      <trkpt lat="44.47649" lon="1.65218">
        <ele>139.8</ele>
        <time>2022-05-07T15:14:54Z</time>
      </trkpt>
      <trkpt lat="44.47648" lon="1.65219">
        <ele>139.8</ele>
        <time>2022-05-07T15:14:55Z</time>
      </trkpt>
      <trkpt lat="44.47644" lon="1.65221">
        <ele>139.8</ele>
        <time>2022-05-07T15:14:56Z</time>
      </trkpt>
      <trkpt lat="44.47638" lon="1.65225">
        <ele>139.8</ele>
        <time>2022-05-07T15:14:58Z</time>
      </trkpt>
      <trkpt lat="44.47635" lon="1.65228">
        <ele>139.8</ele>
        <time>2022-05-07T15:14:59Z</time>
      </trkpt>
      <trkpt lat="44.47631" lon="1.6523">
        <ele>139.8</ele>
        <time>2022-05-07T15:15:00Z</time>
      </trkpt>
      <trkpt lat="44.47628" lon="1.65233">
        <ele>139.8</ele>
        <time>2022-05-07T15:15:01Z</time>
      </trkpt>
      <trkpt lat="44.47626" lon="1.65235">
        <ele>139.8</ele>
        <time>2022-05-07T15:15:02Z</time>
      </trkpt>
      <trkpt lat="44.47622" lon="1.65239">
        <ele>139.8</ele>
        <time>2022-05-07T15:15:04Z</time>
      </trkpt>
      <trkpt lat="44.47617" lon="1.65243">
        <ele>139.8</ele>
        <time>2022-05-07T15:15:05Z</time>
      </trkpt>
      <trkpt lat="44.47614" lon="1.65246">
        <ele>139.8</ele>
        <time>2022-05-07T15:15:06Z</time>
      </trkpt>
      <trkpt lat="44.47611" lon="1.65247">
        <ele>139.8</ele>
        <time>2022-05-07T15:15:07Z</time>
      </trkpt>
      <trkpt lat="44.47608" lon="1.65248">
        <ele>139.8</ele>
        <time>2022-05-07T15:15:08Z</time>
      </trkpt>
      <trkpt lat="44.47605" lon="1.65247">
        <ele>139.9</ele>
        <time>2022-05-07T15:15:09Z</time>
      </trkpt>
      <trkpt lat="44.47602" lon="1.65247">
        <ele>139.9</ele>
        <time>2022-05-07T15:15:11Z</time>
      </trkpt>
      <trkpt lat="44.47602" lon="1.65246">
        <ele>139.8</ele>
        <time>2022-05-07T15:15:12Z</time>
      </trkpt>
      <trkpt lat="44.47603" lon="1.65247">
        <ele>139.8</ele>
        <time>2022-05-07T15:15:14Z</time>
      </trkpt>
      <trkpt lat="44.47603" lon="1.65247">
        <ele>139.8</ele>
        <time>2022-05-07T15:15:15Z</time>
      </trkpt>
      <trkpt lat="44.47603" lon="1.65248">
        <ele>139.8</ele>
        <time>2022-05-07T15:15:16Z</time>
      </trkpt>
      <trkpt lat="44.47604" lon="1.65248">
        <ele>139.8</ele>
        <time>2022-05-07T15:15:18Z</time>
      </trkpt>
      <trkpt lat="44.47604" lon="1.65248">
        <ele>139.8</ele>
        <time>2022-05-07T15:15:19Z</time>
      </trkpt>
      <trkpt lat="44.47603" lon="1.65246">
        <ele>139.7</ele>
        <time>2022-05-07T15:15:20Z</time>
      </trkpt>
      <trkpt lat="44.476" lon="1.65242">
        <ele>139.7</ele>
        <time>2022-05-07T15:15:22Z</time>
      </trkpt>
      <trkpt lat="44.47596" lon="1.65238">
        <ele>139.6</ele>
        <time>2022-05-07T15:15:23Z</time>
      </trkpt>
      <trkpt lat="44.47591" lon="1.65232">
        <ele>139.4</ele>
        <time>2022-05-07T15:15:24Z</time>
      </trkpt>
      <trkpt lat="44.47585" lon="1.65222">
        <ele>139.2</ele>
        <time>2022-05-07T15:15:26Z</time>
      </trkpt>
      <trkpt lat="44.47583" lon="1.65215">
        <ele>139.1</ele>
        <time>2022-05-07T15:15:27Z</time>
      </trkpt>
      <trkpt lat="44.4758" lon="1.65206">
        <ele>138.9</ele>
        <time>2022-05-07T15:15:29Z</time>
      </trkpt>
      <trkpt lat="44.47578" lon="1.65202">
        <ele>138.9</ele>
        <time>2022-05-07T15:15:30Z</time>
      </trkpt>
      <trkpt lat="44.47573" lon="1.65193">
        <ele>138.7</ele>
        <time>2022-05-07T15:15:31Z</time>
      </trkpt>
      <trkpt lat="44.4757" lon="1.65186">
        <ele>138.5</ele>
        <time>2022-05-07T15:15:32Z</time>
      </trkpt>
      <trkpt lat="44.47567" lon="1.6518">
        <ele>138.4</ele>
        <time>2022-05-07T15:15:33Z</time>
      </trkpt>
      <trkpt lat="44.47564" lon="1.65174">
        <ele>138.3</ele>
        <time>2022-05-07T15:15:34Z</time>
      </trkpt>
      <trkpt lat="44.47561" lon="1.65168">
        <ele>138.2</ele>
        <time>2022-05-07T15:15:35Z</time>
      </trkpt>
      <trkpt lat="44.47558" lon="1.65161">
        <ele>138.1</ele>
        <time>2022-05-07T15:15:36Z</time>
      </trkpt>
      <trkpt lat="44.47555" lon="1.65156">
        <ele>138</ele>
        <time>2022-05-07T15:15:37Z</time>
      </trkpt>
      <trkpt lat="44.47552" lon="1.6515">
        <ele>137.9</ele>
        <time>2022-05-07T15:15:38Z</time>
      </trkpt>
      <trkpt lat="44.47549" lon="1.65145">
        <ele>137.8</ele>
        <time>2022-05-07T15:15:39Z</time>
      </trkpt>
      <trkpt lat="44.47546" lon="1.65139">
        <ele>137.7</ele>
        <time>2022-05-07T15:15:40Z</time>
      </trkpt>
      <trkpt lat="44.4754" lon="1.65128">
        <ele>137.5</ele>
        <time>2022-05-07T15:15:42Z</time>
      </trkpt>
      <trkpt lat="44.47538" lon="1.65122">
        <ele>137.4</ele>
        <time>2022-05-07T15:15:43Z</time>
      </trkpt>
      <trkpt lat="44.47535" lon="1.65116">
        <ele>137.3</ele>
        <time>2022-05-07T15:15:44Z</time>
      </trkpt>
      <trkpt lat="44.47533" lon="1.6511">
        <ele>137.1</ele>
        <time>2022-05-07T15:15:45Z</time>
      </trkpt>
      <trkpt lat="44.4753" lon="1.65105">
        <ele>137</ele>
        <time>2022-05-07T15:15:46Z</time>
      </trkpt>
      <trkpt lat="44.47525" lon="1.65092">
        <ele>136.8</ele>
        <time>2022-05-07T15:15:48Z</time>
      </trkpt>
      <trkpt lat="44.47523" lon="1.65086">
        <ele>136.7</ele>
        <time>2022-05-07T15:15:49Z</time>
      </trkpt>
      <trkpt lat="44.47522" lon="1.65079">
        <ele>136.6</ele>
        <time>2022-05-07T15:15:50Z</time>
      </trkpt>
      <trkpt lat="44.47521" lon="1.65075">
        <ele>136.5</ele>
        <time>2022-05-07T15:15:51Z</time>
      </trkpt>
      <trkpt lat="44.4752" lon="1.65069">
        <ele>136.4</ele>
        <time>2022-05-07T15:15:52Z</time>
      </trkpt>
      <trkpt lat="44.47517" lon="1.65059">
        <ele>136.3</ele>
        <time>2022-05-07T15:15:54Z</time>
      </trkpt>
      <trkpt lat="44.47516" lon="1.65053">
        <ele>136.2</ele>
        <time>2022-05-07T15:15:55Z</time>
      </trkpt>
      <trkpt lat="44.47514" lon="1.65046">
        <ele>136.1</ele>
        <time>2022-05-07T15:15:56Z</time>
      </trkpt>
      <trkpt lat="44.47513" lon="1.6504">
        <ele>136</ele>
        <time>2022-05-07T15:15:57Z</time>
      </trkpt>
      <trkpt lat="44.47512" lon="1.65033">
        <ele>135.9</ele>
        <time>2022-05-07T15:15:58Z</time>
      </trkpt>
      <trkpt lat="44.47512" lon="1.65025">
        <ele>135.8</ele>
        <time>2022-05-07T15:16:00Z</time>
      </trkpt>
      <trkpt lat="44.47512" lon="1.65019">
        <ele>135.7</ele>
        <time>2022-05-07T15:16:01Z</time>
      </trkpt>
      <trkpt lat="44.47512" lon="1.65013">
        <ele>135.6</ele>
        <time>2022-05-07T15:16:02Z</time>
      </trkpt>
      <trkpt lat="44.47511" lon="1.65007">
        <ele>135.5</ele>
        <time>2022-05-07T15:16:04Z</time>
      </trkpt>
      <trkpt lat="44.47511" lon="1.65002">
        <ele>135.4</ele>
        <time>2022-05-07T15:16:05Z</time>
      </trkpt>
      <trkpt lat="44.4751" lon="1.64992">
        <ele>135.3</ele>
        <time>2022-05-07T15:16:06Z</time>
      </trkpt>
      <trkpt lat="44.4751" lon="1.64986">
        <ele>135.2</ele>
        <time>2022-05-07T15:16:07Z</time>
      </trkpt>
      <trkpt lat="44.4751" lon="1.64982">
        <ele>135.1</ele>
        <time>2022-05-07T15:16:08Z</time>
      </trkpt>
      <trkpt lat="44.4751" lon="1.64977">
        <ele>135</ele>
        <time>2022-05-07T15:16:09Z</time>
      </trkpt>
      <trkpt lat="44.4751" lon="1.64972">
        <ele>134.9</ele>
        <time>2022-05-07T15:16:10Z</time>
      </trkpt>
      <trkpt lat="44.4751" lon="1.64967">
        <ele>134.9</ele>
        <time>2022-05-07T15:16:11Z</time>
      </trkpt>
      <trkpt lat="44.47509" lon="1.64958">
        <ele>134.7</ele>
        <time>2022-05-07T15:16:13Z</time>
      </trkpt>
      <trkpt lat="44.47509" lon="1.64951">
        <ele>134.6</ele>
        <time>2022-05-07T15:16:14Z</time>
      </trkpt>
      <trkpt lat="44.47508" lon="1.64945">
        <ele>134.5</ele>
        <time>2022-05-07T15:16:15Z</time>
      </trkpt>
      <trkpt lat="44.47508" lon="1.64938">
        <ele>134.4</ele>
        <time>2022-05-07T15:16:16Z</time>
      </trkpt>
      <trkpt lat="44.47507" lon="1.64928">
        <ele>134.3</ele>
        <time>2022-05-07T15:16:18Z</time>
      </trkpt>
      <trkpt lat="44.47507" lon="1.64919">
        <ele>134.1</ele>
        <time>2022-05-07T15:16:19Z</time>
      </trkpt>
      <trkpt lat="44.47506" lon="1.64913">
        <ele>134</ele>
        <time>2022-05-07T15:16:20Z</time>
      </trkpt>
      <trkpt lat="44.47504" lon="1.64902">
        <ele>133.9</ele>
        <time>2022-05-07T15:16:22Z</time>
      </trkpt>
      <trkpt lat="44.47502" lon="1.64895">
        <ele>133.7</ele>
        <time>2022-05-07T15:16:24Z</time>
      </trkpt>
      <trkpt lat="44.475" lon="1.64886">
        <ele>133.6</ele>
        <time>2022-05-07T15:16:25Z</time>
      </trkpt>
      <trkpt lat="44.47498" lon="1.64878">
        <ele>133.5</ele>
        <time>2022-05-07T15:16:26Z</time>
      </trkpt>
      <trkpt lat="44.47497" lon="1.64871">
        <ele>133.4</ele>
        <time>2022-05-07T15:16:28Z</time>
      </trkpt>
      <trkpt lat="44.47496" lon="1.64866">
        <ele>133.3</ele>
        <time>2022-05-07T15:16:29Z</time>
      </trkpt>
      <trkpt lat="44.47496" lon="1.64858">
        <ele>133.3</ele>
        <time>2022-05-07T15:16:30Z</time>
      </trkpt>
      <trkpt lat="44.47496" lon="1.6485">
        <ele>133.5</ele>
        <time>2022-05-07T15:16:31Z</time>
      </trkpt>
      <trkpt lat="44.47497" lon="1.64845">
        <ele>133.6</ele>
        <time>2022-05-07T15:16:32Z</time>
      </trkpt>
      <trkpt lat="44.47497" lon="1.64842">
        <ele>133.7</ele>
        <time>2022-05-07T15:16:33Z</time>
      </trkpt>
      <trkpt lat="44.47498" lon="1.64839">
        <ele>133.8</ele>
        <time>2022-05-07T15:16:35Z</time>
      </trkpt>
      <trkpt lat="44.47498" lon="1.64839">
        <ele>133.8</ele>
        <time>2022-05-07T15:16:36Z</time>
      </trkpt>
      <trkpt lat="44.47498" lon="1.64838">
        <ele>133.8</ele>
        <time>2022-05-07T15:16:37Z</time>
      </trkpt>
      <trkpt lat="44.47498" lon="1.64837">
        <ele>133.8</ele>
        <time>2022-05-07T15:16:38Z</time>
      </trkpt>
      <trkpt lat="44.475" lon="1.64835">
        <ele>133.9</ele>
        <time>2022-05-07T15:16:39Z</time>
      </trkpt>
      <trkpt lat="44.47503" lon="1.6483">
        <ele>134</ele>
        <time>2022-05-07T15:16:41Z</time>
      </trkpt>
      <trkpt lat="44.47505" lon="1.64827">
        <ele>134</ele>
        <time>2022-05-07T15:16:42Z</time>
      </trkpt>
      <trkpt lat="44.47507" lon="1.64822">
        <ele>134</ele>
        <time>2022-05-07T15:16:43Z</time>
      </trkpt>
      <trkpt lat="44.47507" lon="1.64821">
        <ele>134</ele>
        <time>2022-05-07T15:16:44Z</time>
      </trkpt>
      <trkpt lat="44.4751" lon="1.64816">
        <ele>134</ele>
        <time>2022-05-07T15:16:45Z</time>
      </trkpt>
      <trkpt lat="44.47512" lon="1.64811">
        <ele>134</ele>
        <time>2022-05-07T15:16:46Z</time>
      </trkpt>
      <trkpt lat="44.47514" lon="1.64805">
        <ele>133.9</ele>
        <time>2022-05-07T15:16:48Z</time>
      </trkpt>
      <trkpt lat="44.47516" lon="1.64801">
        <ele>133.9</ele>
        <time>2022-05-07T15:16:49Z</time>
      </trkpt>
      <trkpt lat="44.47518" lon="1.64797">
        <ele>133.9</ele>
        <time>2022-05-07T15:16:50Z</time>
      </trkpt>
      <trkpt lat="44.47521" lon="1.64793">
        <ele>133.8</ele>
        <time>2022-05-07T15:16:51Z</time>
      </trkpt>
      <trkpt lat="44.47523" lon="1.64789">
        <ele>133.8</ele>
        <time>2022-05-07T15:16:52Z</time>
      </trkpt>
      <trkpt lat="44.47525" lon="1.64785">
        <ele>133.8</ele>
        <time>2022-05-07T15:16:53Z</time>
      </trkpt>
      <trkpt lat="44.47527" lon="1.64782">
        <ele>133.7</ele>
        <time>2022-05-07T15:16:54Z</time>
      </trkpt>
      <trkpt lat="44.47528" lon="1.6478">
        <ele>133.7</ele>
        <time>2022-05-07T15:16:55Z</time>
      </trkpt>
      <trkpt lat="44.47531" lon="1.64777">
        <ele>133.7</ele>
        <time>2022-05-07T15:16:56Z</time>
      </trkpt>
      <trkpt lat="44.47533" lon="1.64774">
        <ele>133.6</ele>
        <time>2022-05-07T15:16:57Z</time>
      </trkpt>
      <trkpt lat="44.47535" lon="1.6477">
        <ele>133.6</ele>
        <time>2022-05-07T15:16:58Z</time>
      </trkpt>
      <trkpt lat="44.47538" lon="1.64767">
        <ele>133.5</ele>
        <time>2022-05-07T15:16:59Z</time>
      </trkpt>
      <trkpt lat="44.4754" lon="1.64765">
        <ele>133.5</ele>
        <time>2022-05-07T15:17:00Z</time>
      </trkpt>
      <trkpt lat="44.47544" lon="1.64761">
        <ele>133.4</ele>
        <time>2022-05-07T15:17:01Z</time>
      </trkpt>
      <trkpt lat="44.47545" lon="1.6476">
        <ele>133.4</ele>
        <time>2022-05-07T15:17:02Z</time>
      </trkpt>
      <trkpt lat="44.47549" lon="1.64757">
        <ele>133.3</ele>
        <time>2022-05-07T15:17:04Z</time>
      </trkpt>
      <trkpt lat="44.47552" lon="1.64752">
        <ele>133.2</ele>
        <time>2022-05-07T15:17:05Z</time>
      </trkpt>
      <trkpt lat="44.47555" lon="1.64751">
        <ele>133.1</ele>
        <time>2022-05-07T15:17:06Z</time>
      </trkpt>
      <trkpt lat="44.47557" lon="1.64749">
        <ele>133.1</ele>
        <time>2022-05-07T15:17:08Z</time>
      </trkpt>
      <trkpt lat="44.47559" lon="1.64746">
        <ele>133.1</ele>
        <time>2022-05-07T15:17:09Z</time>
      </trkpt>
      <trkpt lat="44.47563" lon="1.64742">
        <ele>133</ele>
        <time>2022-05-07T15:17:10Z</time>
      </trkpt>
      <trkpt lat="44.47565" lon="1.6474">
        <ele>133</ele>
        <time>2022-05-07T15:17:11Z</time>
      </trkpt>
      <trkpt lat="44.47568" lon="1.64738">
        <ele>132.9</ele>
        <time>2022-05-07T15:17:12Z</time>
      </trkpt>
      <trkpt lat="44.4757" lon="1.64736">
        <ele>132.9</ele>
        <time>2022-05-07T15:17:13Z</time>
      </trkpt>
      <trkpt lat="44.47573" lon="1.64733">
        <ele>132.9</ele>
        <time>2022-05-07T15:17:15Z</time>
      </trkpt>
      <trkpt lat="44.47575" lon="1.6473">
        <ele>132.8</ele>
        <time>2022-05-07T15:17:16Z</time>
      </trkpt>
      <trkpt lat="44.47579" lon="1.64725">
        <ele>132.8</ele>
        <time>2022-05-07T15:17:17Z</time>
      </trkpt>
      <trkpt lat="44.47581" lon="1.64722">
        <ele>132.8</ele>
        <time>2022-05-07T15:17:18Z</time>
      </trkpt>
      <trkpt lat="44.47583" lon="1.64719">
        <ele>132.8</ele>
        <time>2022-05-07T15:17:19Z</time>
      </trkpt>
      <trkpt lat="44.47586" lon="1.64717">
        <ele>132.8</ele>
        <time>2022-05-07T15:17:20Z</time>
      </trkpt>
      <trkpt lat="44.47589" lon="1.64712">
        <ele>132.8</ele>
        <time>2022-05-07T15:17:22Z</time>
      </trkpt>
      <trkpt lat="44.47592" lon="1.64709">
        <ele>132.8</ele>
        <time>2022-05-07T15:17:23Z</time>
      </trkpt>
      <trkpt lat="44.47596" lon="1.64705">
        <ele>132.7</ele>
        <time>2022-05-07T15:17:25Z</time>
      </trkpt>
      <trkpt lat="44.47598" lon="1.64703">
        <ele>132.7</ele>
        <time>2022-05-07T15:17:27Z</time>
      </trkpt>
      <trkpt lat="44.476" lon="1.647">
        <ele>132.7</ele>
        <time>2022-05-07T15:17:28Z</time>
      </trkpt>
      <trkpt lat="44.47604" lon="1.64698">
        <ele>132.7</ele>
        <time>2022-05-07T15:17:29Z</time>
      </trkpt>
      <trkpt lat="44.47607" lon="1.64696">
        <ele>132.7</ele>
        <time>2022-05-07T15:17:30Z</time>
      </trkpt>
      <trkpt lat="44.4761" lon="1.64694">
        <ele>132.7</ele>
        <time>2022-05-07T15:17:31Z</time>
      </trkpt>
      <trkpt lat="44.47612" lon="1.64692">
        <ele>132.7</ele>
        <time>2022-05-07T15:17:32Z</time>
      </trkpt>
      <trkpt lat="44.47616" lon="1.6469">
        <ele>132.7</ele>
        <time>2022-05-07T15:17:34Z</time>
      </trkpt>
      <trkpt lat="44.47619" lon="1.64688">
        <ele>132.7</ele>
        <time>2022-05-07T15:17:35Z</time>
      </trkpt>
      <trkpt lat="44.47623" lon="1.64686">
        <ele>132.7</ele>
        <time>2022-05-07T15:17:36Z</time>
      </trkpt>
      <trkpt lat="44.47624" lon="1.64686">
        <ele>132.7</ele>
        <time>2022-05-07T15:17:37Z</time>
      </trkpt>
      <trkpt lat="44.47627" lon="1.64684">
        <ele>132.7</ele>
        <time>2022-05-07T15:17:38Z</time>
      </trkpt>
      <trkpt lat="44.47628" lon="1.64684">
        <ele>132.7</ele>
        <time>2022-05-07T15:17:39Z</time>
      </trkpt>
      <trkpt lat="44.47629" lon="1.64683">
        <ele>132.7</ele>
        <time>2022-05-07T15:17:40Z</time>
      </trkpt>
      <trkpt lat="44.47631" lon="1.64683">
        <ele>132.7</ele>
        <time>2022-05-07T15:17:41Z</time>
      </trkpt>
      <trkpt lat="44.47633" lon="1.64682">
        <ele>132.7</ele>
        <time>2022-05-07T15:17:42Z</time>
      </trkpt>
      <trkpt lat="44.47634" lon="1.64682">
        <ele>132.7</ele>
        <time>2022-05-07T15:17:43Z</time>
      </trkpt>
      <trkpt lat="44.47634" lon="1.64682">
        <ele>132.7</ele>
        <time>2022-05-07T15:17:44Z</time>
      </trkpt>
      <trkpt lat="44.47635" lon="1.64682">
        <ele>132.7</ele>
        <time>2022-05-07T15:17:45Z</time>
      </trkpt>
      <trkpt lat="44.47635" lon="1.64682">
        <ele>132.7</ele>
        <time>2022-05-07T15:17:46Z</time>
      </trkpt>
      <trkpt lat="44.47636" lon="1.64682">
        <ele>132.7</ele>
        <time>2022-05-07T15:17:47Z</time>
      </trkpt>
      <trkpt lat="44.47637" lon="1.64682">
        <ele>132.7</ele>
        <time>2022-05-07T15:17:49Z</time>
      </trkpt>
      <trkpt lat="44.47637" lon="1.64682">
        <ele>132.7</ele>
        <time>2022-05-07T15:17:50Z</time>
      </trkpt>
      <trkpt lat="44.47638" lon="1.64682">
        <ele>132.7</ele>
        <time>2022-05-07T15:17:51Z</time>
      </trkpt>
      <trkpt lat="44.47638" lon="1.64682">
        <ele>132.7</ele>
        <time>2022-05-07T15:17:52Z</time>
      </trkpt>
      <trkpt lat="44.47639" lon="1.64682">
        <ele>132.7</ele>
        <time>2022-05-07T15:21:03Z</time>
      </trkpt>
      <trkpt lat="44.4764" lon="1.64682">
        <ele>132.7</ele>
        <time>2022-05-07T15:21:04Z</time>
      </trkpt>
      <trkpt lat="44.47643" lon="1.64681">
        <ele>132.6</ele>
        <time>2022-05-07T15:21:05Z</time>
      </trkpt>
      <trkpt lat="44.47645" lon="1.6468">
        <ele>132.6</ele>
        <time>2022-05-07T15:21:06Z</time>
      </trkpt>
      <trkpt lat="44.47647" lon="1.64679">
        <ele>132.6</ele>
        <time>2022-05-07T15:21:07Z</time>
      </trkpt>
      <trkpt lat="44.47648" lon="1.64679">
        <ele>132.6</ele>
        <time>2022-05-07T15:21:08Z</time>
      </trkpt>
      <trkpt lat="44.47648" lon="1.64679">
        <ele>132.6</ele>
        <time>2022-05-07T15:21:09Z</time>
      </trkpt>
      <trkpt lat="44.47649" lon="1.64679">
        <ele>132.6</ele>
        <time>2022-05-07T15:21:10Z</time>
      </trkpt>
      <trkpt lat="44.47649" lon="1.64679">
        <ele>132.6</ele>
        <time>2022-05-07T15:21:11Z</time>
      </trkpt>
      <trkpt lat="44.47649" lon="1.64679">
        <ele>132.6</ele>
        <time>2022-05-07T15:21:12Z</time>
      </trkpt>
      <trkpt lat="44.4765" lon="1.64679">
        <ele>132.6</ele>
        <time>2022-05-07T15:21:13Z</time>
      </trkpt>
      <trkpt lat="44.4765" lon="1.64679">
        <ele>132.6</ele>
        <time>2022-05-07T15:21:14Z</time>
      </trkpt>
      <trkpt lat="44.47651" lon="1.64679">
        <ele>132.6</ele>
        <time>2022-05-07T15:21:15Z</time>
      </trkpt>
      <trkpt lat="44.47651" lon="1.64678">
        <ele>132.6</ele>
        <time>2022-05-07T15:21:16Z</time>
      </trkpt>
      <trkpt lat="44.47652" lon="1.64678">
        <ele>132.6</ele>
        <time>2022-05-07T15:21:27Z</time>
      </trkpt>
      <trkpt lat="44.47652" lon="1.64678">
        <ele>132.6</ele>
        <time>2022-05-07T15:21:28Z</time>
      </trkpt>
      <trkpt lat="44.47653" lon="1.64678">
        <ele>132.6</ele>
        <time>2022-05-07T15:21:29Z</time>
      </trkpt>
      <trkpt lat="44.47654" lon="1.64678">
        <ele>132.6</ele>
        <time>2022-05-07T15:21:30Z</time>
      </trkpt>
      <trkpt lat="44.47654" lon="1.64677">
        <ele>132.6</ele>
        <time>2022-05-07T15:21:31Z</time>
      </trkpt>
      <trkpt lat="44.47655" lon="1.64677">
        <ele>132.6</ele>
        <time>2022-05-07T15:21:32Z</time>
      </trkpt>
      <trkpt lat="44.47656" lon="1.64677">
        <ele>132.6</ele>
        <time>2022-05-07T15:21:34Z</time>
      </trkpt>
      <trkpt lat="44.47656" lon="1.64677">
        <ele>132.6</ele>
        <time>2022-05-07T15:21:35Z</time>
      </trkpt>
      <trkpt lat="44.47657" lon="1.64677">
        <ele>132.6</ele>
        <time>2022-05-07T15:21:36Z</time>
      </trkpt>
      <trkpt lat="44.47657" lon="1.64676">
        <ele>132.6</ele>
        <time>2022-05-07T15:21:37Z</time>
      </trkpt>
      <trkpt lat="44.47658" lon="1.64676">
        <ele>132.6</ele>
        <time>2022-05-07T15:21:38Z</time>
      </trkpt>
      <trkpt lat="44.47658" lon="1.64676">
        <ele>132.6</ele>
        <time>2022-05-07T15:21:39Z</time>
      </trkpt>
      <trkpt lat="44.47659" lon="1.64676">
        <ele>132.6</ele>
        <time>2022-05-07T15:21:40Z</time>
      </trkpt>
      <trkpt lat="44.4766" lon="1.64675">
        <ele>132.6</ele>
        <time>2022-05-07T15:22:02Z</time>
      </trkpt>
      <trkpt lat="44.4766" lon="1.64675">
        <ele>132.6</ele>
        <time>2022-05-07T15:22:03Z</time>
      </trkpt>
      <trkpt lat="44.47661" lon="1.64675">
        <ele>132.6</ele>
        <time>2022-05-07T15:22:04Z</time>
      </trkpt>
      <trkpt lat="44.47664" lon="1.64674">
        <ele>132.6</ele>
        <time>2022-05-07T15:22:05Z</time>
      </trkpt>
      <trkpt lat="44.47667" lon="1.64673">
        <ele>132.6</ele>
        <time>2022-05-07T15:22:06Z</time>
      </trkpt>
      <trkpt lat="44.47669" lon="1.64672">
        <ele>132.6</ele>
        <time>2022-05-07T15:22:07Z</time>
      </trkpt>
      <trkpt lat="44.47673" lon="1.64672">
        <ele>132.6</ele>
        <time>2022-05-07T15:22:08Z</time>
      </trkpt>
      <trkpt lat="44.47675" lon="1.64671">
        <ele>132.6</ele>
        <time>2022-05-07T15:22:09Z</time>
      </trkpt>
      <trkpt lat="44.47678" lon="1.64671">
        <ele>132.6</ele>
        <time>2022-05-07T15:22:10Z</time>
      </trkpt>
      <trkpt lat="44.47681" lon="1.64671">
        <ele>132.6</ele>
        <time>2022-05-07T15:22:11Z</time>
      </trkpt>
      <trkpt lat="44.47684" lon="1.6467">
        <ele>132.6</ele>
        <time>2022-05-07T15:22:12Z</time>
      </trkpt>
      <trkpt lat="44.47687" lon="1.64669">
        <ele>132.7</ele>
        <time>2022-05-07T15:22:13Z</time>
      </trkpt>
      <trkpt lat="44.4769" lon="1.64669">
        <ele>132.7</ele>
        <time>2022-05-07T15:22:14Z</time>
      </trkpt>
      <trkpt lat="44.47693" lon="1.64668">
        <ele>132.7</ele>
        <time>2022-05-07T15:22:15Z</time>
      </trkpt>
      <trkpt lat="44.47697" lon="1.64668">
        <ele>132.7</ele>
        <time>2022-05-07T15:22:16Z</time>
      </trkpt>
      <trkpt lat="44.47698" lon="1.64668">
        <ele>132.7</ele>
        <time>2022-05-07T15:22:17Z</time>
      </trkpt>
      <trkpt lat="44.47702" lon="1.64667">
        <ele>132.7</ele>
        <time>2022-05-07T15:22:18Z</time>
      </trkpt>
      <trkpt lat="44.47703" lon="1.64667">
        <ele>132.7</ele>
        <time>2022-05-07T15:22:19Z</time>
      </trkpt>
      <trkpt lat="44.47706" lon="1.64667">
        <ele>132.7</ele>
        <time>2022-05-07T15:22:20Z</time>
      </trkpt>
      <trkpt lat="44.47709" lon="1.64666">
        <ele>132.8</ele>
        <time>2022-05-07T15:22:21Z</time>
      </trkpt>
      <trkpt lat="44.47712" lon="1.64665">
        <ele>132.8</ele>
        <time>2022-05-07T15:22:22Z</time>
      </trkpt>
      <trkpt lat="44.47714" lon="1.64665">
        <ele>132.8</ele>
        <time>2022-05-07T15:22:23Z</time>
      </trkpt>
      <trkpt lat="44.47716" lon="1.64665">
        <ele>132.8</ele>
        <time>2022-05-07T15:22:24Z</time>
      </trkpt>
      <trkpt lat="44.47719" lon="1.64664">
        <ele>132.8</ele>
        <time>2022-05-07T15:22:25Z</time>
      </trkpt>
      <trkpt lat="44.47722" lon="1.64664">
        <ele>132.8</ele>
        <time>2022-05-07T15:22:26Z</time>
      </trkpt>
      <trkpt lat="44.47725" lon="1.64664">
        <ele>132.8</ele>
        <time>2022-05-07T15:22:27Z</time>
      </trkpt>
      <trkpt lat="44.47729" lon="1.64665">
        <ele>132.8</ele>
        <time>2022-05-07T15:22:28Z</time>
      </trkpt>
      <trkpt lat="44.47732" lon="1.64665">
        <ele>132.8</ele>
        <time>2022-05-07T15:22:29Z</time>
      </trkpt>
      <trkpt lat="44.47739" lon="1.64665">
        <ele>132.8</ele>
        <time>2022-05-07T15:22:31Z</time>
      </trkpt>
      <trkpt lat="44.47743" lon="1.64666">
        <ele>132.7</ele>
        <time>2022-05-07T15:22:32Z</time>
      </trkpt>
      <trkpt lat="44.47746" lon="1.64666">
        <ele>132.7</ele>
        <time>2022-05-07T15:22:33Z</time>
      </trkpt>
      <trkpt lat="44.47749" lon="1.64666">
        <ele>132.7</ele>
        <time>2022-05-07T15:22:34Z</time>
      </trkpt>
      <trkpt lat="44.47752" lon="1.64666">
        <ele>132.7</ele>
        <time>2022-05-07T15:22:35Z</time>
      </trkpt>
      <trkpt lat="44.47755" lon="1.64666">
        <ele>132.7</ele>
        <time>2022-05-07T15:22:36Z</time>
      </trkpt>
      <trkpt lat="44.47758" lon="1.64667">
        <ele>132.7</ele>
        <time>2022-05-07T15:22:37Z</time>
      </trkpt>
      <trkpt lat="44.47761" lon="1.64667">
        <ele>132.7</ele>
        <time>2022-05-07T15:22:38Z</time>
      </trkpt>
      <trkpt lat="44.47764" lon="1.64667">
        <ele>132.7</ele>
        <time>2022-05-07T15:22:39Z</time>
      </trkpt>
      <trkpt lat="44.47767" lon="1.64667">
        <ele>132.7</ele>
        <time>2022-05-07T15:22:40Z</time>
      </trkpt>
      <trkpt lat="44.4777" lon="1.64668">
        <ele>132.7</ele>
        <time>2022-05-07T15:22:41Z</time>
      </trkpt>
      <trkpt lat="44.47773" lon="1.64668">
        <ele>132.7</ele>
        <time>2022-05-07T15:22:42Z</time>
      </trkpt>
      <trkpt lat="44.47777" lon="1.64669">
        <ele>132.7</ele>
        <time>2022-05-07T15:22:43Z</time>
      </trkpt>
      <trkpt lat="44.47778" lon="1.64669">
        <ele>132.7</ele>
        <time>2022-05-07T15:22:44Z</time>
      </trkpt>
      <trkpt lat="44.47781" lon="1.64669">
        <ele>132.7</ele>
        <time>2022-05-07T15:22:45Z</time>
      </trkpt>
      <trkpt lat="44.47784" lon="1.6467">
        <ele>132.7</ele>
        <time>2022-05-07T15:22:46Z</time>
      </trkpt>
      <trkpt lat="44.47787" lon="1.6467">
        <ele>132.7</ele>
        <time>2022-05-07T15:22:47Z</time>
      </trkpt>
      <trkpt lat="44.4779" lon="1.6467">
        <ele>132.7</ele>
        <time>2022-05-07T15:22:48Z</time>
      </trkpt>
      <trkpt lat="44.47793" lon="1.64671">
        <ele>132.7</ele>
        <time>2022-05-07T15:22:49Z</time>
      </trkpt>
      <trkpt lat="44.47797" lon="1.64671">
        <ele>132.7</ele>
        <time>2022-05-07T15:22:50Z</time>
      </trkpt>
      <trkpt lat="44.478" lon="1.64671">
        <ele>132.7</ele>
        <time>2022-05-07T15:22:51Z</time>
      </trkpt>
      <trkpt lat="44.47803" lon="1.64671">
        <ele>132.7</ele>
        <time>2022-05-07T15:22:52Z</time>
      </trkpt>
      <trkpt lat="44.47806" lon="1.64671">
        <ele>132.7</ele>
        <time>2022-05-07T15:22:53Z</time>
      </trkpt>
      <trkpt lat="44.47809" lon="1.64671">
        <ele>132.7</ele>
        <time>2022-05-07T15:22:54Z</time>
      </trkpt>
      <trkpt lat="44.47811" lon="1.64672">
        <ele>132.6</ele>
        <time>2022-05-07T15:22:55Z</time>
      </trkpt>
      <trkpt lat="44.47815" lon="1.64672">
        <ele>132.6</ele>
        <time>2022-05-07T15:22:56Z</time>
      </trkpt>
      <trkpt lat="44.47817" lon="1.64673">
        <ele>132.6</ele>
        <time>2022-05-07T15:22:57Z</time>
      </trkpt>
      <trkpt lat="44.4782" lon="1.64673">
        <ele>132.6</ele>
        <time>2022-05-07T15:22:58Z</time>
      </trkpt>
      <trkpt lat="44.47824" lon="1.64674">
        <ele>132.5</ele>
        <time>2022-05-07T15:22:59Z</time>
      </trkpt>
      <trkpt lat="44.47827" lon="1.64674">
        <ele>132.5</ele>
        <time>2022-05-07T15:23:00Z</time>
      </trkpt>
      <trkpt lat="44.47831" lon="1.64674">
        <ele>132.4</ele>
        <time>2022-05-07T15:23:01Z</time>
      </trkpt>
      <trkpt lat="44.47834" lon="1.64674">
        <ele>132.4</ele>
        <time>2022-05-07T15:23:02Z</time>
      </trkpt>
      <trkpt lat="44.47837" lon="1.64675">
        <ele>132.3</ele>
        <time>2022-05-07T15:23:03Z</time>
      </trkpt>
      <trkpt lat="44.4784" lon="1.64675">
        <ele>132.2</ele>
        <time>2022-05-07T15:23:04Z</time>
      </trkpt>
      <trkpt lat="44.47843" lon="1.64675">
        <ele>132.2</ele>
        <time>2022-05-07T15:23:05Z</time>
      </trkpt>
      <trkpt lat="44.47846" lon="1.64676">
        <ele>132.1</ele>
        <time>2022-05-07T15:23:06Z</time>
      </trkpt>
      <trkpt lat="44.47849" lon="1.64678">
        <ele>132.1</ele>
        <time>2022-05-07T15:23:07Z</time>
      </trkpt>
      <trkpt lat="44.47851" lon="1.64679">
        <ele>132</ele>
        <time>2022-05-07T15:23:08Z</time>
      </trkpt>
      <trkpt lat="44.47855" lon="1.64679">
        <ele>132</ele>
        <time>2022-05-07T15:23:09Z</time>
      </trkpt>
      <trkpt lat="44.47858" lon="1.6468">
        <ele>131.9</ele>
        <time>2022-05-07T15:23:10Z</time>
      </trkpt>
      <trkpt lat="44.47861" lon="1.6468">
        <ele>131.9</ele>
        <time>2022-05-07T15:23:11Z</time>
      </trkpt>
      <trkpt lat="44.47864" lon="1.64681">
        <ele>131.9</ele>
        <time>2022-05-07T15:23:12Z</time>
      </trkpt>
      <trkpt lat="44.47867" lon="1.64681">
        <ele>131.8</ele>
        <time>2022-05-07T15:23:13Z</time>
      </trkpt>
      <trkpt lat="44.4787" lon="1.64681">
        <ele>131.8</ele>
        <time>2022-05-07T15:23:14Z</time>
      </trkpt>
      <trkpt lat="44.47873" lon="1.64682">
        <ele>131.8</ele>
        <time>2022-05-07T15:23:15Z</time>
      </trkpt>
      <trkpt lat="44.47876" lon="1.64682">
        <ele>131.7</ele>
        <time>2022-05-07T15:23:16Z</time>
      </trkpt>
      <trkpt lat="44.47879" lon="1.64682">
        <ele>131.7</ele>
        <time>2022-05-07T15:23:17Z</time>
      </trkpt>
      <trkpt lat="44.47883" lon="1.64683">
        <ele>131.7</ele>
        <time>2022-05-07T15:23:18Z</time>
      </trkpt>
      <trkpt lat="44.47886" lon="1.64684">
        <ele>131.7</ele>
        <time>2022-05-07T15:23:19Z</time>
      </trkpt>
      <trkpt lat="44.47889" lon="1.64686">
        <ele>131.7</ele>
        <time>2022-05-07T15:23:20Z</time>
      </trkpt>
      <trkpt lat="44.47892" lon="1.64687">
        <ele>131.8</ele>
        <time>2022-05-07T15:23:21Z</time>
      </trkpt>
      <trkpt lat="44.47895" lon="1.64689">
        <ele>131.8</ele>
        <time>2022-05-07T15:23:22Z</time>
      </trkpt>
      <trkpt lat="44.47898" lon="1.6469">
        <ele>131.8</ele>
        <time>2022-05-07T15:23:23Z</time>
      </trkpt>
      <trkpt lat="44.47901" lon="1.64691">
        <ele>131.8</ele>
        <time>2022-05-07T15:23:24Z</time>
      </trkpt>
      <trkpt lat="44.47904" lon="1.64691">
        <ele>131.8</ele>
        <time>2022-05-07T15:23:25Z</time>
      </trkpt>
      <trkpt lat="44.47907" lon="1.64693">
        <ele>131.8</ele>
        <time>2022-05-07T15:23:26Z</time>
      </trkpt>
      <trkpt lat="44.4791" lon="1.64694">
        <ele>131.8</ele>
        <time>2022-05-07T15:23:27Z</time>
      </trkpt>
      <trkpt lat="44.47914" lon="1.64695">
        <ele>131.9</ele>
        <time>2022-05-07T15:23:28Z</time>
      </trkpt>
      <trkpt lat="44.47917" lon="1.64696">
        <ele>131.9</ele>
        <time>2022-05-07T15:23:29Z</time>
      </trkpt>
      <trkpt lat="44.4792" lon="1.64696">
        <ele>131.9</ele>
        <time>2022-05-07T15:23:30Z</time>
      </trkpt>
      <trkpt lat="44.47924" lon="1.64698">
        <ele>131.8</ele>
        <time>2022-05-07T15:23:31Z</time>
      </trkpt>
      <trkpt lat="44.47927" lon="1.64699">
        <ele>131.8</ele>
        <time>2022-05-07T15:23:32Z</time>
      </trkpt>
      <trkpt lat="44.4793" lon="1.647">
        <ele>131.8</ele>
        <time>2022-05-07T15:23:33Z</time>
      </trkpt>
      <trkpt lat="44.47933" lon="1.64701">
        <ele>131.7</ele>
        <time>2022-05-07T15:23:34Z</time>
      </trkpt>
      <trkpt lat="44.47936" lon="1.64702">
        <ele>131.7</ele>
        <time>2022-05-07T15:23:35Z</time>
      </trkpt>
      <trkpt lat="44.47939" lon="1.64704">
        <ele>131.6</ele>
        <time>2022-05-07T15:23:36Z</time>
      </trkpt>
      <trkpt lat="44.47943" lon="1.64706">
        <ele>131.5</ele>
        <time>2022-05-07T15:23:37Z</time>
      </trkpt>
      <trkpt lat="44.47944" lon="1.64707">
        <ele>131.5</ele>
        <time>2022-05-07T15:23:38Z</time>
      </trkpt>
      <trkpt lat="44.47946" lon="1.64709">
        <ele>131.5</ele>
        <time>2022-05-07T15:23:39Z</time>
      </trkpt>
      <trkpt lat="44.47947" lon="1.64709">
        <ele>131.5</ele>
        <time>2022-05-07T15:23:40Z</time>
      </trkpt>
      <trkpt lat="44.47947" lon="1.64709">
        <ele>131.5</ele>
        <time>2022-05-07T15:23:41Z</time>
      </trkpt>
      <trkpt lat="44.47947" lon="1.64709">
        <ele>131.5</ele>
        <time>2022-05-07T15:23:42Z</time>
      </trkpt>
      <trkpt lat="44.47947" lon="1.64709">
        <ele>131.5</ele>
        <time>2022-05-07T15:23:43Z</time>
      </trkpt>
      <trkpt lat="44.47947" lon="1.64709">
        <ele>131.5</ele>
        <time>2022-05-07T15:23:44Z</time>
      </trkpt>
      <trkpt lat="44.47947" lon="1.64709">
        <ele>131.5</ele>
        <time>2022-05-07T15:23:45Z</time>
      </trkpt>
      <trkpt lat="44.47947" lon="1.64709">
        <ele>131.5</ele>
        <time>2022-05-07T15:23:46Z</time>
      </trkpt>
      <trkpt lat="44.47947" lon="1.64709">
        <ele>131.5</ele>
        <time>2022-05-07T15:23:47Z</time>
      </trkpt>
      <trkpt lat="44.47947" lon="1.64709">
        <ele>131.5</ele>
        <time>2022-05-07T15:23:48Z</time>
      </trkpt>
      <trkpt lat="44.47947" lon="1.64709">
        <ele>131.5</ele>
        <time>2022-05-07T15:23:49Z</time>
      </trkpt>
      <trkpt lat="44.47947" lon="1.64709">
        <ele>131.5</ele>
        <time>2022-05-07T15:23:51Z</time>
      </trkpt>
      <trkpt lat="44.4795" lon="1.64706">
        <ele>131.4</ele>
        <time>2022-05-07T15:27:54Z</time>
      </trkpt>
      <trkpt lat="44.47953" lon="1.64705">
        <ele>131.4</ele>
        <time>2022-05-07T15:27:55Z</time>
      </trkpt>
      <trkpt lat="44.47955" lon="1.64703">
        <ele>131.4</ele>
        <time>2022-05-07T15:27:56Z</time>
      </trkpt>
      <trkpt lat="44.47959" lon="1.64703">
        <ele>131.4</ele>
        <time>2022-05-07T15:27:58Z</time>
      </trkpt>
      <trkpt lat="44.47962" lon="1.64703">
        <ele>131.4</ele>
        <time>2022-05-07T15:27:59Z</time>
      </trkpt>
      <trkpt lat="44.47965" lon="1.64704">
        <ele>131.4</ele>
        <time>2022-05-07T15:28:00Z</time>
      </trkpt>
      <trkpt lat="44.47969" lon="1.64705">
        <ele>131.4</ele>
        <time>2022-05-07T15:28:01Z</time>
      </trkpt>
      <trkpt lat="44.4797" lon="1.64705">
        <ele>131.4</ele>
        <time>2022-05-07T15:28:02Z</time>
      </trkpt>
      <trkpt lat="44.47972" lon="1.64703">
        <ele>131.4</ele>
        <time>2022-05-07T15:28:03Z</time>
      </trkpt>
      <trkpt lat="44.47974" lon="1.64705">
        <ele>131.4</ele>
        <time>2022-05-07T15:28:04Z</time>
      </trkpt>
      <trkpt lat="44.47977" lon="1.64705">
        <ele>131.4</ele>
        <time>2022-05-07T15:28:05Z</time>
      </trkpt>
      <trkpt lat="44.47978" lon="1.64705">
        <ele>131.4</ele>
        <time>2022-05-07T15:28:06Z</time>
      </trkpt>
      <trkpt lat="44.47981" lon="1.64705">
        <ele>131.4</ele>
        <time>2022-05-07T15:28:07Z</time>
      </trkpt>
      <trkpt lat="44.47982" lon="1.64705">
        <ele>131.3</ele>
        <time>2022-05-07T15:28:08Z</time>
      </trkpt>
      <trkpt lat="44.47983" lon="1.64704">
        <ele>131.3</ele>
        <time>2022-05-07T15:28:09Z</time>
      </trkpt>
      <trkpt lat="44.47985" lon="1.64704">
        <ele>131.3</ele>
        <time>2022-05-07T15:28:11Z</time>
      </trkpt>
      <trkpt lat="44.4799" lon="1.64703">
        <ele>131.3</ele>
        <time>2022-05-07T15:28:12Z</time>
      </trkpt>
      <trkpt lat="44.47994" lon="1.64703">
        <ele>131.3</ele>
        <time>2022-05-07T15:28:13Z</time>
      </trkpt>
      <trkpt lat="44.47997" lon="1.64702">
        <ele>131.2</ele>
        <time>2022-05-07T15:28:14Z</time>
      </trkpt>
      <trkpt lat="44.48001" lon="1.64701">
        <ele>131.2</ele>
        <time>2022-05-07T15:28:15Z</time>
      </trkpt>
      <trkpt lat="44.48003" lon="1.64699">
        <ele>131.2</ele>
        <time>2022-05-07T15:28:16Z</time>
      </trkpt>
      <trkpt lat="44.48008" lon="1.64697">
        <ele>131.1</ele>
        <time>2022-05-07T15:28:18Z</time>
      </trkpt>
      <trkpt lat="44.48012" lon="1.64696">
        <ele>131.1</ele>
        <time>2022-05-07T15:28:19Z</time>
      </trkpt>
      <trkpt lat="44.48015" lon="1.64697">
        <ele>131</ele>
        <time>2022-05-07T15:28:20Z</time>
      </trkpt>
      <trkpt lat="44.48019" lon="1.647">
        <ele>131</ele>
        <time>2022-05-07T15:28:21Z</time>
      </trkpt>
      <trkpt lat="44.48022" lon="1.64704">
        <ele>131</ele>
        <time>2022-05-07T15:28:22Z</time>
      </trkpt>
      <trkpt lat="44.48024" lon="1.64708">
        <ele>131</ele>
        <time>2022-05-07T15:28:24Z</time>
      </trkpt>
      <trkpt lat="44.48025" lon="1.64711">
        <ele>131</ele>
        <time>2022-05-07T15:28:25Z</time>
      </trkpt>
      <trkpt lat="44.48026" lon="1.64712">
        <ele>131</ele>
        <time>2022-05-07T15:28:26Z</time>
      </trkpt>
      <trkpt lat="44.48026" lon="1.64713">
        <ele>131</ele>
        <time>2022-05-07T15:28:27Z</time>
      </trkpt>
      <trkpt lat="44.48028" lon="1.64714">
        <ele>131</ele>
        <time>2022-05-07T15:28:28Z</time>
      </trkpt>
      <trkpt lat="44.4803" lon="1.64713">
        <ele>131.1</ele>
        <time>2022-05-07T15:28:30Z</time>
      </trkpt>
      <trkpt lat="44.48031" lon="1.64712">
        <ele>131.1</ele>
        <time>2022-05-07T15:28:31Z</time>
      </trkpt>
      <trkpt lat="44.48031" lon="1.64712">
        <ele>131.1</ele>
        <time>2022-05-07T15:28:32Z</time>
      </trkpt>
      <trkpt lat="44.48031" lon="1.64711">
        <ele>131.1</ele>
        <time>2022-05-07T15:28:34Z</time>
      </trkpt>
      <trkpt lat="44.48032" lon="1.64711">
        <ele>131.1</ele>
        <time>2022-05-07T15:28:35Z</time>
      </trkpt>
      <trkpt lat="44.48032" lon="1.64711">
        <ele>131.1</ele>
        <time>2022-05-07T15:28:36Z</time>
      </trkpt>
      <trkpt lat="44.48032" lon="1.64711">
        <ele>131.1</ele>
        <time>2022-05-07T15:28:37Z</time>
      </trkpt>
      <trkpt lat="44.48032" lon="1.64711">
        <ele>131.1</ele>
        <time>2022-05-07T15:28:38Z</time>
      </trkpt>
      <trkpt lat="44.48032" lon="1.64711">
        <ele>131.1</ele>
        <time>2022-05-07T15:28:40Z</time>
      </trkpt>
      <trkpt lat="44.48032" lon="1.64711">
        <ele>131.1</ele>
        <time>2022-05-07T15:28:41Z</time>
      </trkpt>
      <trkpt lat="44.48026" lon="1.64718">
        <ele>131.2</ele>
        <time>2022-05-07T15:28:46Z</time>
      </trkpt>
      <trkpt lat="44.48025" lon="1.64724">
        <ele>131.2</ele>
        <time>2022-05-07T15:28:47Z</time>
      </trkpt>
      <trkpt lat="44.48023" lon="1.64727">
        <ele>131.2</ele>
        <time>2022-05-07T15:28:48Z</time>
      </trkpt>
      <trkpt lat="44.48023" lon="1.64729">
        <ele>131.2</ele>
        <time>2022-05-07T15:28:49Z</time>
      </trkpt>
      <trkpt lat="44.48024" lon="1.64728">
        <ele>131.2</ele>
        <time>2022-05-07T15:28:50Z</time>
      </trkpt>
      <trkpt lat="44.48024" lon="1.64728">
        <ele>131.2</ele>
        <time>2022-05-07T15:28:52Z</time>
      </trkpt>
      <trkpt lat="44.48024" lon="1.64728">
        <ele>131.3</ele>
        <time>2022-05-07T15:28:53Z</time>
      </trkpt>
      <trkpt lat="44.48024" lon="1.64728">
        <ele>131.3</ele>
        <time>2022-05-07T15:28:54Z</time>
      </trkpt>
      <trkpt lat="44.48023" lon="1.64728">
        <ele>131.3</ele>
        <time>2022-05-07T15:28:55Z</time>
      </trkpt>
      <trkpt lat="44.48023" lon="1.64728">
        <ele>131.3</ele>
        <time>2022-05-07T15:28:57Z</time>
      </trkpt>
      <trkpt lat="44.48023" lon="1.64728">
        <ele>131.3</ele>
        <time>2022-05-07T15:28:58Z</time>
      </trkpt>
      <trkpt lat="44.48017" lon="1.64712">
        <ele>131.4</ele>
        <time>2022-05-07T15:30:41Z</time>
      </trkpt>
      <trkpt lat="44.48018" lon="1.64708">
        <ele>130.9</ele>
        <time>2022-05-07T15:30:42Z</time>
      </trkpt>
      <trkpt lat="44.48019" lon="1.64704">
        <ele>130.6</ele>
        <time>2022-05-07T15:30:43Z</time>
      </trkpt>
      <trkpt lat="44.48019" lon="1.64704">
        <ele>130.4</ele>
        <time>2022-05-07T15:30:44Z</time>
      </trkpt>
      <trkpt lat="44.4802" lon="1.64702">
        <ele>130.2</ele>
        <time>2022-05-07T15:30:45Z</time>
      </trkpt>
      <trkpt lat="44.48021" lon="1.64702">
        <ele>130</ele>
        <time>2022-05-07T15:30:46Z</time>
      </trkpt>
      <trkpt lat="44.48021" lon="1.64701">
        <ele>129.8</ele>
        <time>2022-05-07T15:30:47Z</time>
      </trkpt>
      <trkpt lat="44.48022" lon="1.647">
        <ele>129.6</ele>
        <time>2022-05-07T15:30:48Z</time>
      </trkpt>
      <trkpt lat="44.48022" lon="1.64699">
        <ele>129.4</ele>
        <time>2022-05-07T15:30:49Z</time>
      </trkpt>
      <trkpt lat="44.48023" lon="1.64698">
        <ele>129.2</ele>
        <time>2022-05-07T15:30:51Z</time>
      </trkpt>
      <trkpt lat="44.48023" lon="1.64698">
        <ele>129</ele>
        <time>2022-05-07T15:30:52Z</time>
      </trkpt>
      <trkpt lat="44.48024" lon="1.64697">
        <ele>128.8</ele>
        <time>2022-05-07T15:30:53Z</time>
      </trkpt>
      <trkpt lat="44.48024" lon="1.64696">
        <ele>128.7</ele>
        <time>2022-05-07T15:30:54Z</time>
      </trkpt>
      <trkpt lat="44.48025" lon="1.64695">
        <ele>128.5</ele>
        <time>2022-05-07T15:30:55Z</time>
      </trkpt>
      <trkpt lat="44.48029" lon="1.64691">
        <ele>128.4</ele>
        <time>2022-05-07T15:30:56Z</time>
      </trkpt>
      <trkpt lat="44.48031" lon="1.64687">
        <ele>128.3</ele>
        <time>2022-05-07T15:30:57Z</time>
      </trkpt>
      <trkpt lat="44.48034" lon="1.64682">
        <ele>128.2</ele>
        <time>2022-05-07T15:30:58Z</time>
      </trkpt>
      <trkpt lat="44.48038" lon="1.64678">
        <ele>128.1</ele>
        <time>2022-05-07T15:30:59Z</time>
      </trkpt>
      <trkpt lat="44.48047" lon="1.64668">
        <ele>127.9</ele>
        <time>2022-05-07T15:31:02Z</time>
      </trkpt>
      <trkpt lat="44.48048" lon="1.64665">
        <ele>127.7</ele>
        <time>2022-05-07T15:31:03Z</time>
      </trkpt>
      <trkpt lat="44.48051" lon="1.6466">
        <ele>127.5</ele>
        <time>2022-05-07T15:31:05Z</time>
      </trkpt>
      <trkpt lat="44.48054" lon="1.64656">
        <ele>127.2</ele>
        <time>2022-05-07T15:31:06Z</time>
      </trkpt>
      <trkpt lat="44.48056" lon="1.64652">
        <ele>126.9</ele>
        <time>2022-05-07T15:31:07Z</time>
      </trkpt>
      <trkpt lat="44.48059" lon="1.64651">
        <ele>126.7</ele>
        <time>2022-05-07T15:31:08Z</time>
      </trkpt>
      <trkpt lat="44.4806" lon="1.64648">
        <ele>126.2</ele>
        <time>2022-05-07T15:31:09Z</time>
      </trkpt>
      <trkpt lat="44.48062" lon="1.64646">
        <ele>126</ele>
        <time>2022-05-07T15:31:11Z</time>
      </trkpt>
      <trkpt lat="44.48063" lon="1.64644">
        <ele>125.4</ele>
        <time>2022-05-07T15:31:12Z</time>
      </trkpt>
      <trkpt lat="44.48064" lon="1.64642">
        <ele>125.3</ele>
        <time>2022-05-07T15:31:14Z</time>
      </trkpt>
      <trkpt lat="44.48066" lon="1.6464">
        <ele>124.7</ele>
        <time>2022-05-07T15:31:15Z</time>
      </trkpt>
      <trkpt lat="44.48067" lon="1.64638">
        <ele>124.5</ele>
        <time>2022-05-07T15:31:16Z</time>
      </trkpt>
      <trkpt lat="44.48069" lon="1.64635">
        <ele>124.2</ele>
        <time>2022-05-07T15:31:17Z</time>
      </trkpt>
      <trkpt lat="44.4807" lon="1.64633">
        <ele>124</ele>
        <time>2022-05-07T15:31:18Z</time>
      </trkpt>
      <trkpt lat="44.48071" lon="1.64631">
        <ele>124.3</ele>
        <time>2022-05-07T15:31:26Z</time>
      </trkpt>
      <trkpt lat="44.48073" lon="1.64629">
        <ele>124.1</ele>
        <time>2022-05-07T15:31:27Z</time>
      </trkpt>
      <trkpt lat="44.48077" lon="1.64625">
        <ele>125.1</ele>
        <time>2022-05-07T15:31:28Z</time>
      </trkpt>
      <trkpt lat="44.48079" lon="1.64622">
        <ele>126.7</ele>
        <time>2022-05-07T15:31:29Z</time>
      </trkpt>
      <trkpt lat="44.48082" lon="1.64619">
        <ele>128.7</ele>
        <time>2022-05-07T15:31:30Z</time>
      </trkpt>
      <trkpt lat="44.48085" lon="1.64615">
        <ele>130.8</ele>
        <time>2022-05-07T15:31:31Z</time>
      </trkpt>
      <trkpt lat="44.4809" lon="1.64607">
        <ele>132.6</ele>
        <time>2022-05-07T15:31:33Z</time>
      </trkpt>
      <trkpt lat="44.48094" lon="1.64603">
        <ele>134.3</ele>
        <time>2022-05-07T15:31:34Z</time>
      </trkpt>
      <trkpt lat="44.48099" lon="1.64597">
        <ele>134.3</ele>
        <time>2022-05-07T15:31:35Z</time>
      </trkpt>
      <trkpt lat="44.48102" lon="1.64593">
        <ele>134.3</ele>
        <time>2022-05-07T15:31:36Z</time>
      </trkpt>
      <trkpt lat="44.48106" lon="1.64588">
        <ele>134.4</ele>
        <time>2022-05-07T15:31:37Z</time>
      </trkpt>
      <trkpt lat="44.4811" lon="1.64584">
        <ele>134.4</ele>
        <time>2022-05-07T15:31:38Z</time>
      </trkpt>
      <trkpt lat="44.48113" lon="1.64578">
        <ele>134.4</ele>
        <time>2022-05-07T15:31:39Z</time>
      </trkpt>
      <trkpt lat="44.48117" lon="1.64573">
        <ele>134.4</ele>
        <time>2022-05-07T15:31:40Z</time>
      </trkpt>
      <trkpt lat="44.4812" lon="1.6457">
        <ele>134.4</ele>
        <time>2022-05-07T15:31:41Z</time>
      </trkpt>
      <trkpt lat="44.48121" lon="1.64568">
        <ele>134.4</ele>
        <time>2022-05-07T15:31:42Z</time>
      </trkpt>
      <trkpt lat="44.48124" lon="1.64565">
        <ele>134.4</ele>
        <time>2022-05-07T15:31:43Z</time>
      </trkpt>
      <trkpt lat="44.48125" lon="1.64565">
        <ele>134.4</ele>
        <time>2022-05-07T15:31:44Z</time>
      </trkpt>
      <trkpt lat="44.48123" lon="1.64569">
        <ele>134.5</ele>
        <time>2022-05-07T15:31:45Z</time>
      </trkpt>
      <trkpt lat="44.48124" lon="1.64567">
        <ele>134.5</ele>
        <time>2022-05-07T15:31:47Z</time>
      </trkpt>
      <trkpt lat="44.48125" lon="1.64565">
        <ele>134.5</ele>
        <time>2022-05-07T15:31:48Z</time>
      </trkpt>
      <trkpt lat="44.48126" lon="1.64563">
        <ele>134.5</ele>
        <time>2022-05-07T15:31:50Z</time>
      </trkpt>
      <trkpt lat="44.48127" lon="1.64561">
        <ele>134.5</ele>
        <time>2022-05-07T15:31:51Z</time>
      </trkpt>
      <trkpt lat="44.48128" lon="1.64559">
        <ele>134.5</ele>
        <time>2022-05-07T15:31:52Z</time>
      </trkpt>
      <trkpt lat="44.4813" lon="1.64557">
        <ele>134.5</ele>
        <time>2022-05-07T15:31:53Z</time>
      </trkpt>
      <trkpt lat="44.48131" lon="1.64556">
        <ele>134.5</ele>
        <time>2022-05-07T15:33:05Z</time>
      </trkpt>
      <trkpt lat="44.48132" lon="1.64554">
        <ele>134.5</ele>
        <time>2022-05-07T15:33:06Z</time>
      </trkpt>
      <trkpt lat="44.48137" lon="1.64549">
        <ele>134.6</ele>
        <time>2022-05-07T15:33:07Z</time>
      </trkpt>
      <trkpt lat="44.48138" lon="1.64552">
        <ele>134.6</ele>
        <time>2022-05-07T15:33:08Z</time>
      </trkpt>
      <trkpt lat="44.48139" lon="1.64555">
        <ele>134.6</ele>
        <time>2022-05-07T15:33:09Z</time>
      </trkpt>
      <trkpt lat="44.48139" lon="1.64558">
        <ele>134.6</ele>
        <time>2022-05-07T15:33:10Z</time>
      </trkpt>
      <trkpt lat="44.4814" lon="1.64562">
        <ele>134.6</ele>
        <time>2022-05-07T15:33:11Z</time>
      </trkpt>
      <trkpt lat="44.4814" lon="1.64565">
        <ele>134.7</ele>
        <time>2022-05-07T15:33:13Z</time>
      </trkpt>
      <trkpt lat="44.48141" lon="1.64569">
        <ele>134.7</ele>
        <time>2022-05-07T15:33:15Z</time>
      </trkpt>
      <trkpt lat="44.48142" lon="1.64572">
        <ele>134.7</ele>
        <time>2022-05-07T15:33:16Z</time>
      </trkpt>
      <trkpt lat="44.48142" lon="1.64575">
        <ele>134.7</ele>
        <time>2022-05-07T15:33:18Z</time>
      </trkpt>
      <trkpt lat="44.48143" lon="1.64579">
        <ele>134.7</ele>
        <time>2022-05-07T15:33:57Z</time>
      </trkpt>
      <trkpt lat="44.48143" lon="1.64582">
        <ele>134.8</ele>
        <time>2022-05-07T15:33:58Z</time>
      </trkpt>
      <trkpt lat="44.48144" lon="1.64585">
        <ele>134.8</ele>
        <time>2022-05-07T15:33:59Z</time>
      </trkpt>
      <trkpt lat="44.48143" lon="1.64586">
        <ele>134.8</ele>
        <time>2022-05-07T15:34:01Z</time>
      </trkpt>
      <trkpt lat="44.48143" lon="1.64586">
        <ele>134.8</ele>
        <time>2022-05-07T15:34:02Z</time>
      </trkpt>
      <trkpt lat="44.48143" lon="1.64587">
        <ele>134.8</ele>
        <time>2022-05-07T15:34:03Z</time>
      </trkpt>
      <trkpt lat="44.48143" lon="1.64587">
        <ele>134.8</ele>
        <time>2022-05-07T15:34:04Z</time>
      </trkpt>
      <trkpt lat="44.48143" lon="1.64587">
        <ele>134.8</ele>
        <time>2022-05-07T15:34:05Z</time>
      </trkpt>
      <trkpt lat="44.48143" lon="1.64587">
        <ele>134.8</ele>
        <time>2022-05-07T15:34:06Z</time>
      </trkpt>
      <trkpt lat="44.48143" lon="1.64587">
        <ele>134.8</ele>
        <time>2022-05-07T15:34:07Z</time>
      </trkpt>
      <trkpt lat="44.48143" lon="1.64587">
        <ele>134.8</ele>
        <time>2022-05-07T15:34:08Z</time>
      </trkpt>
      <trkpt lat="44.48143" lon="1.64588">
        <ele>134.8</ele>
        <time>2022-05-07T15:34:09Z</time>
      </trkpt>
      <trkpt lat="44.48151" lon="1.64585">
        <ele>134.9</ele>
        <time>2022-05-07T15:34:27Z</time>
      </trkpt>
      <trkpt lat="44.48154" lon="1.64583">
        <ele>134.9</ele>
        <time>2022-05-07T15:34:28Z</time>
      </trkpt>
      <trkpt lat="44.48158" lon="1.64582">
        <ele>135</ele>
        <time>2022-05-07T15:34:29Z</time>
      </trkpt>
      <trkpt lat="44.48161" lon="1.64581">
        <ele>135</ele>
        <time>2022-05-07T15:34:30Z</time>
      </trkpt>
      <trkpt lat="44.48166" lon="1.64581">
        <ele>135</ele>
        <time>2022-05-07T15:34:31Z</time>
      </trkpt>
      <trkpt lat="44.4817" lon="1.6458">
        <ele>135.1</ele>
        <time>2022-05-07T15:34:32Z</time>
      </trkpt>
      <trkpt lat="44.48171" lon="1.6458">
        <ele>135.1</ele>
        <time>2022-05-07T15:34:33Z</time>
      </trkpt>
      <trkpt lat="44.48175" lon="1.6458">
        <ele>135.1</ele>
        <time>2022-05-07T15:34:34Z</time>
      </trkpt>
      <trkpt lat="44.48181" lon="1.6458">
        <ele>135.1</ele>
        <time>2022-05-07T15:34:36Z</time>
      </trkpt>
      <trkpt lat="44.48183" lon="1.64576">
        <ele>135.1</ele>
        <time>2022-05-07T15:34:37Z</time>
      </trkpt>
      <trkpt lat="44.48183" lon="1.64571">
        <ele>135.1</ele>
        <time>2022-05-07T15:34:38Z</time>
      </trkpt>
      <trkpt lat="44.4818" lon="1.64569">
        <ele>135.1</ele>
        <time>2022-05-07T15:34:40Z</time>
      </trkpt>
      <trkpt lat="44.48179" lon="1.64567">
        <ele>135.1</ele>
        <time>2022-05-07T15:34:41Z</time>
      </trkpt>
      <trkpt lat="44.48178" lon="1.64567">
        <ele>135.1</ele>
        <time>2022-05-07T15:34:42Z</time>
      </trkpt>
      <trkpt lat="44.48177" lon="1.64568">
        <ele>135.1</ele>
        <time>2022-05-07T15:34:43Z</time>
      </trkpt>
      <trkpt lat="44.48178" lon="1.64569">
        <ele>135.1</ele>
        <time>2022-05-07T15:34:44Z</time>
      </trkpt>
      <trkpt lat="44.48179" lon="1.6457">
        <ele>135.1</ele>
        <time>2022-05-07T15:34:45Z</time>
      </trkpt>
      <trkpt lat="44.48179" lon="1.6457">
        <ele>135.1</ele>
        <time>2022-05-07T15:34:46Z</time>
      </trkpt>
      <trkpt lat="44.4818" lon="1.64571">
        <ele>135.1</ele>
        <time>2022-05-07T15:34:47Z</time>
      </trkpt>
      <trkpt lat="44.48181" lon="1.64571">
        <ele>135.1</ele>
        <time>2022-05-07T15:34:48Z</time>
      </trkpt>
      <trkpt lat="44.48181" lon="1.64572">
        <ele>135.1</ele>
        <time>2022-05-07T15:34:50Z</time>
      </trkpt>
      <trkpt lat="44.48182" lon="1.64573">
        <ele>135.1</ele>
        <time>2022-05-07T15:34:51Z</time>
      </trkpt>
      <trkpt lat="44.48183" lon="1.64573">
        <ele>135.1</ele>
        <time>2022-05-07T15:34:52Z</time>
      </trkpt>
      <trkpt lat="44.48183" lon="1.64574">
        <ele>135.1</ele>
        <time>2022-05-07T15:35:42Z</time>
      </trkpt>
      <trkpt lat="44.48184" lon="1.64575">
        <ele>135.1</ele>
        <time>2022-05-07T15:35:43Z</time>
      </trkpt>
      <trkpt lat="44.48185" lon="1.64575">
        <ele>135.1</ele>
        <time>2022-05-07T15:35:44Z</time>
      </trkpt>
      <trkpt lat="44.48189" lon="1.64575">
        <ele>135.2</ele>
        <time>2022-05-07T15:35:45Z</time>
      </trkpt>
      <trkpt lat="44.48193" lon="1.64575">
        <ele>135.2</ele>
        <time>2022-05-07T15:35:46Z</time>
      </trkpt>
      <trkpt lat="44.48196" lon="1.64575">
        <ele>135.2</ele>
        <time>2022-05-07T15:35:47Z</time>
      </trkpt>
      <trkpt lat="44.482" lon="1.64577">
        <ele>135.2</ele>
        <time>2022-05-07T15:35:48Z</time>
      </trkpt>
      <trkpt lat="44.48202" lon="1.64577">
        <ele>135.2</ele>
        <time>2022-05-07T15:35:49Z</time>
      </trkpt>
      <trkpt lat="44.48208" lon="1.64577">
        <ele>135.2</ele>
        <time>2022-05-07T15:35:51Z</time>
      </trkpt>
      <trkpt lat="44.48213" lon="1.64576">
        <ele>135.2</ele>
        <time>2022-05-07T15:35:52Z</time>
      </trkpt>
      <trkpt lat="44.48221" lon="1.64576">
        <ele>135.2</ele>
        <time>2022-05-07T15:35:53Z</time>
      </trkpt>
      <trkpt lat="44.48226" lon="1.64575">
        <ele>135.2</ele>
        <time>2022-05-07T15:35:55Z</time>
      </trkpt>
      <trkpt lat="44.48232" lon="1.64575">
        <ele>135.2</ele>
        <time>2022-05-07T15:35:56Z</time>
      </trkpt>
      <trkpt lat="44.48237" lon="1.64573">
        <ele>135.2</ele>
        <time>2022-05-07T15:35:57Z</time>
      </trkpt>
      <trkpt lat="44.48241" lon="1.64571">
        <ele>135.2</ele>
        <time>2022-05-07T15:35:58Z</time>
      </trkpt>
      <trkpt lat="44.48244" lon="1.64569">
        <ele>135.2</ele>
        <time>2022-05-07T15:35:59Z</time>
      </trkpt>
      <trkpt lat="44.48247" lon="1.64569">
        <ele>135.2</ele>
        <time>2022-05-07T15:36:00Z</time>
      </trkpt>
      <trkpt lat="44.4825" lon="1.64568">
        <ele>135.2</ele>
        <time>2022-05-07T15:36:01Z</time>
      </trkpt>
      <trkpt lat="44.48254" lon="1.64568">
        <ele>135.2</ele>
        <time>2022-05-07T15:36:03Z</time>
      </trkpt>
      <trkpt lat="44.48258" lon="1.64567">
        <ele>135.2</ele>
        <time>2022-05-07T15:36:04Z</time>
      </trkpt>
      <trkpt lat="44.48262" lon="1.64567">
        <ele>135.2</ele>
        <time>2022-05-07T15:36:05Z</time>
      </trkpt>
      <trkpt lat="44.48265" lon="1.64567">
        <ele>135.2</ele>
        <time>2022-05-07T15:36:06Z</time>
      </trkpt>
      <trkpt lat="44.48269" lon="1.64567">
        <ele>135.2</ele>
        <time>2022-05-07T15:36:07Z</time>
      </trkpt>
      <trkpt lat="44.48271" lon="1.64567">
        <ele>135.2</ele>
        <time>2022-05-07T15:36:08Z</time>
      </trkpt>
      <trkpt lat="44.48275" lon="1.6457">
        <ele>135.2</ele>
        <time>2022-05-07T15:36:10Z</time>
      </trkpt>
      <trkpt lat="44.48279" lon="1.64576">
        <ele>135.2</ele>
        <time>2022-05-07T15:36:11Z</time>
      </trkpt>
      <trkpt lat="44.48281" lon="1.64581">
        <ele>135.2</ele>
        <time>2022-05-07T15:36:12Z</time>
      </trkpt>
      <trkpt lat="44.48281" lon="1.64587">
        <ele>135.2</ele>
        <time>2022-05-07T15:36:13Z</time>
      </trkpt>
      <trkpt lat="44.48282" lon="1.64593">
        <ele>135.2</ele>
        <time>2022-05-07T15:36:14Z</time>
      </trkpt>
      <trkpt lat="44.48286" lon="1.646">
        <ele>135.2</ele>
        <time>2022-05-07T15:36:16Z</time>
      </trkpt>
      <trkpt lat="44.48287" lon="1.64608">
        <ele>135.2</ele>
        <time>2022-05-07T15:36:17Z</time>
      </trkpt>
      <trkpt lat="44.4829" lon="1.64616">
        <ele>135.2</ele>
        <time>2022-05-07T15:36:18Z</time>
      </trkpt>
      <trkpt lat="44.48293" lon="1.6462">
        <ele>135.2</ele>
        <time>2022-05-07T15:36:19Z</time>
      </trkpt>
      <trkpt lat="44.48295" lon="1.64623">
        <ele>135.2</ele>
        <time>2022-05-07T15:36:20Z</time>
      </trkpt>
      <trkpt lat="44.48296" lon="1.64626">
        <ele>135.2</ele>
        <time>2022-05-07T15:36:21Z</time>
      </trkpt>
      <trkpt lat="44.48297" lon="1.64626">
        <ele>135.2</ele>
        <time>2022-05-07T15:36:23Z</time>
      </trkpt>
      <trkpt lat="44.48298" lon="1.64626">
        <ele>135.2</ele>
        <time>2022-05-07T15:36:24Z</time>
      </trkpt>
      <trkpt lat="44.483" lon="1.64627">
        <ele>135.2</ele>
        <time>2022-05-07T15:36:25Z</time>
      </trkpt>
      <trkpt lat="44.48301" lon="1.64627">
        <ele>135.2</ele>
        <time>2022-05-07T15:36:26Z</time>
      </trkpt>
      <trkpt lat="44.48301" lon="1.64626">
        <ele>135.2</ele>
        <time>2022-05-07T15:36:27Z</time>
      </trkpt>
      <trkpt lat="44.48301" lon="1.64626">
        <ele>135.2</ele>
        <time>2022-05-07T15:36:28Z</time>
      </trkpt>
      <trkpt lat="44.48301" lon="1.64625">
        <ele>135.2</ele>
        <time>2022-05-07T15:36:29Z</time>
      </trkpt>
      <trkpt lat="44.483" lon="1.64625">
        <ele>135.2</ele>
        <time>2022-05-07T15:36:30Z</time>
      </trkpt>
      <trkpt lat="44.483" lon="1.64624">
        <ele>135.2</ele>
        <time>2022-05-07T15:36:31Z</time>
      </trkpt>
      <trkpt lat="44.483" lon="1.64624">
        <ele>135.2</ele>
        <time>2022-05-07T15:36:32Z</time>
      </trkpt>
      <trkpt lat="44.48299" lon="1.64624">
        <ele>135.2</ele>
        <time>2022-05-07T15:36:33Z</time>
      </trkpt>
      <trkpt lat="44.48299" lon="1.64624">
        <ele>135.2</ele>
        <time>2022-05-07T15:36:34Z</time>
      </trkpt>
      <trkpt lat="44.48299" lon="1.64624">
        <ele>135.2</ele>
        <time>2022-05-07T15:36:35Z</time>
      </trkpt>
      <trkpt lat="44.48299" lon="1.64624">
        <ele>135.2</ele>
        <time>2022-05-07T15:36:36Z</time>
      </trkpt>
      <trkpt lat="44.483" lon="1.64617">
        <ele>135.2</ele>
        <time>2022-05-07T15:36:48Z</time>
      </trkpt>
      <trkpt lat="44.48301" lon="1.64613">
        <ele>135.2</ele>
        <time>2022-05-07T15:36:49Z</time>
      </trkpt>
      <trkpt lat="44.48301" lon="1.64612">
        <ele>135.2</ele>
        <time>2022-05-07T15:36:50Z</time>
      </trkpt>
      <trkpt lat="44.48301" lon="1.64612">
        <ele>135.2</ele>
        <time>2022-05-07T15:36:51Z</time>
      </trkpt>
      <trkpt lat="44.48301" lon="1.64612">
        <ele>135.2</ele>
        <time>2022-05-07T15:36:52Z</time>
      </trkpt>
      <trkpt lat="44.48301" lon="1.64612">
        <ele>135.2</ele>
        <time>2022-05-07T15:36:53Z</time>
      </trkpt>
      <trkpt lat="44.48301" lon="1.64611">
        <ele>135.2</ele>
        <time>2022-05-07T15:36:55Z</time>
      </trkpt>
      <trkpt lat="44.48301" lon="1.64611">
        <ele>135.2</ele>
        <time>2022-05-07T15:36:56Z</time>
      </trkpt>
      <trkpt lat="44.48301" lon="1.64611">
        <ele>135.2</ele>
        <time>2022-05-07T15:36:57Z</time>
      </trkpt>
      <trkpt lat="44.48302" lon="1.64611">
        <ele>135.2</ele>
        <time>2022-05-07T15:36:58Z</time>
      </trkpt>
      <trkpt lat="44.48302" lon="1.64611">
        <ele>135.2</ele>
        <time>2022-05-07T15:36:59Z</time>
      </trkpt>
      <trkpt lat="44.48302" lon="1.64604">
        <ele>135.2</ele>
        <time>2022-05-07T15:37:09Z</time>
      </trkpt>
      <trkpt lat="44.48306" lon="1.64594">
        <ele>135.2</ele>
        <time>2022-05-07T15:37:11Z</time>
      </trkpt>
      <trkpt lat="44.48309" lon="1.64587">
        <ele>135.2</ele>
        <time>2022-05-07T15:37:12Z</time>
      </trkpt>
      <trkpt lat="44.48313" lon="1.64583">
        <ele>135.2</ele>
        <time>2022-05-07T15:37:13Z</time>
      </trkpt>
      <trkpt lat="44.48317" lon="1.6458">
        <ele>135.2</ele>
        <time>2022-05-07T15:37:14Z</time>
      </trkpt>
      <trkpt lat="44.4832" lon="1.64577">
        <ele>135.2</ele>
        <time>2022-05-07T15:37:15Z</time>
      </trkpt>
      <trkpt lat="44.48323" lon="1.64574">
        <ele>135.2</ele>
        <time>2022-05-07T15:37:16Z</time>
      </trkpt>
      <trkpt lat="44.4833" lon="1.64568">
        <ele>135.2</ele>
        <time>2022-05-07T15:37:18Z</time>
      </trkpt>
      <trkpt lat="44.48334" lon="1.64564">
        <ele>135.2</ele>
        <time>2022-05-07T15:37:19Z</time>
      </trkpt>
      <trkpt lat="44.48335" lon="1.64561">
        <ele>135.3</ele>
        <time>2022-05-07T15:37:20Z</time>
      </trkpt>
      <trkpt lat="44.48335" lon="1.64557">
        <ele>135.3</ele>
        <time>2022-05-07T15:37:22Z</time>
      </trkpt>
      <trkpt lat="44.48335" lon="1.64553">
        <ele>135.3</ele>
        <time>2022-05-07T15:37:23Z</time>
      </trkpt>
      <trkpt lat="44.48336" lon="1.64545">
        <ele>135.3</ele>
        <time>2022-05-07T15:37:24Z</time>
      </trkpt>
      <trkpt lat="44.48337" lon="1.6454">
        <ele>135.4</ele>
        <time>2022-05-07T15:37:25Z</time>
      </trkpt>
      <trkpt lat="44.48339" lon="1.64538">
        <ele>135.4</ele>
        <time>2022-05-07T15:37:26Z</time>
      </trkpt>
      <trkpt lat="44.48342" lon="1.64537">
        <ele>135.4</ele>
        <time>2022-05-07T15:37:27Z</time>
      </trkpt>
      <trkpt lat="44.48345" lon="1.64535">
        <ele>135.4</ele>
        <time>2022-05-07T15:37:29Z</time>
      </trkpt>
      <trkpt lat="44.48354" lon="1.6453">
        <ele>135.4</ele>
        <time>2022-05-07T15:37:30Z</time>
      </trkpt>
      <trkpt lat="44.48358" lon="1.64526">
        <ele>135.4</ele>
        <time>2022-05-07T15:37:31Z</time>
      </trkpt>
      <trkpt lat="44.48363" lon="1.64523">
        <ele>135.4</ele>
        <time>2022-05-07T15:37:32Z</time>
      </trkpt>
      <trkpt lat="44.48367" lon="1.6452">
        <ele>135.4</ele>
        <time>2022-05-07T15:37:33Z</time>
      </trkpt>
      <trkpt lat="44.48369" lon="1.64518">
        <ele>135.4</ele>
        <time>2022-05-07T15:37:34Z</time>
      </trkpt>
      <trkpt lat="44.48376" lon="1.64509">
        <ele>135.4</ele>
        <time>2022-05-07T15:37:36Z</time>
      </trkpt>
      <trkpt lat="44.48382" lon="1.64503">
        <ele>135.4</ele>
        <time>2022-05-07T15:37:38Z</time>
      </trkpt>
      <trkpt lat="44.48384" lon="1.645">
        <ele>135.4</ele>
        <time>2022-05-07T15:37:39Z</time>
      </trkpt>
      <trkpt lat="44.48388" lon="1.64495">
        <ele>135.4</ele>
        <time>2022-05-07T15:37:40Z</time>
      </trkpt>
      <trkpt lat="44.48392" lon="1.64493">
        <ele>135.4</ele>
        <time>2022-05-07T15:37:42Z</time>
      </trkpt>
      <trkpt lat="44.48394" lon="1.64488">
        <ele>135.4</ele>
        <time>2022-05-07T15:37:43Z</time>
      </trkpt>
      <trkpt lat="44.48397" lon="1.64486">
        <ele>135.4</ele>
        <time>2022-05-07T15:37:44Z</time>
      </trkpt>
      <trkpt lat="44.48399" lon="1.64481">
        <ele>135.4</ele>
        <time>2022-05-07T15:37:45Z</time>
      </trkpt>
      <trkpt lat="44.48402" lon="1.64478">
        <ele>135.4</ele>
        <time>2022-05-07T15:37:46Z</time>
      </trkpt>
      <trkpt lat="44.48405" lon="1.64475">
        <ele>135.4</ele>
        <time>2022-05-07T15:37:47Z</time>
      </trkpt>
      <trkpt lat="44.48408" lon="1.64474">
        <ele>135.3</ele>
        <time>2022-05-07T15:37:48Z</time>
      </trkpt>
      <trkpt lat="44.48414" lon="1.64469">
        <ele>135.3</ele>
        <time>2022-05-07T15:37:50Z</time>
      </trkpt>
      <trkpt lat="44.48417" lon="1.64465">
        <ele>135.3</ele>
        <time>2022-05-07T15:37:52Z</time>
      </trkpt>
      <trkpt lat="44.4842" lon="1.64462">
        <ele>135.3</ele>
        <time>2022-05-07T15:37:53Z</time>
      </trkpt>
      <trkpt lat="44.48422" lon="1.64459">
        <ele>135.3</ele>
        <time>2022-05-07T15:37:54Z</time>
      </trkpt>
      <trkpt lat="44.48425" lon="1.64459">
        <ele>135.2</ele>
        <time>2022-05-07T15:37:56Z</time>
      </trkpt>
      <trkpt lat="44.48425" lon="1.64459">
        <ele>135.2</ele>
        <time>2022-05-07T15:37:57Z</time>
      </trkpt>
      <trkpt lat="44.48425" lon="1.64459">
        <ele>135.2</ele>
        <time>2022-05-07T15:37:58Z</time>
      </trkpt>
      <trkpt lat="44.48425" lon="1.64458">
        <ele>135.2</ele>
        <time>2022-05-07T15:37:59Z</time>
      </trkpt>
      <trkpt lat="44.48425" lon="1.64456">
        <ele>135.2</ele>
        <time>2022-05-07T15:38:00Z</time>
      </trkpt>
      <trkpt lat="44.48429" lon="1.64455">
        <ele>135.1</ele>
        <time>2022-05-07T15:38:02Z</time>
      </trkpt>
      <trkpt lat="44.48436" lon="1.64456">
        <ele>134.9</ele>
        <time>2022-05-07T15:38:03Z</time>
      </trkpt>
      <trkpt lat="44.48439" lon="1.64459">
        <ele>134.9</ele>
        <time>2022-05-07T15:38:04Z</time>
      </trkpt>
      <trkpt lat="44.48441" lon="1.6446">
        <ele>134.8</ele>
        <time>2022-05-07T15:38:05Z</time>
      </trkpt>
      <trkpt lat="44.48444" lon="1.64462">
        <ele>134.7</ele>
        <time>2022-05-07T15:38:06Z</time>
      </trkpt>
      <trkpt lat="44.48445" lon="1.64462">
        <ele>134.7</ele>
        <time>2022-05-07T15:38:07Z</time>
      </trkpt>
      <trkpt lat="44.48449" lon="1.64463">
        <ele>134.6</ele>
        <time>2022-05-07T15:38:08Z</time>
      </trkpt>
      <trkpt lat="44.4845" lon="1.64462">
        <ele>134.6</ele>
        <time>2022-05-07T15:38:09Z</time>
      </trkpt>
      <trkpt lat="44.48453" lon="1.6446">
        <ele>134.5</ele>
        <time>2022-05-07T15:38:10Z</time>
      </trkpt>
      <trkpt lat="44.48457" lon="1.64458">
        <ele>134.4</ele>
        <time>2022-05-07T15:38:11Z</time>
      </trkpt>
      <trkpt lat="44.4846" lon="1.64456">
        <ele>134.4</ele>
        <time>2022-05-07T15:38:12Z</time>
      </trkpt>
      <trkpt lat="44.48464" lon="1.64451">
        <ele>134.4</ele>
        <time>2022-05-07T15:38:14Z</time>
      </trkpt>
      <trkpt lat="44.48466" lon="1.64448">
        <ele>134.3</ele>
        <time>2022-05-07T15:38:15Z</time>
      </trkpt>
      <trkpt lat="44.48469" lon="1.64448">
        <ele>134.3</ele>
        <time>2022-05-07T15:38:16Z</time>
      </trkpt>
      <trkpt lat="44.4847" lon="1.64449">
        <ele>134.3</ele>
        <time>2022-05-07T15:38:17Z</time>
      </trkpt>
      <trkpt lat="44.48471" lon="1.64448">
        <ele>134.3</ele>
        <time>2022-05-07T15:38:18Z</time>
      </trkpt>
      <trkpt lat="44.48471" lon="1.64447">
        <ele>134.3</ele>
        <time>2022-05-07T15:38:19Z</time>
      </trkpt>
      <trkpt lat="44.48472" lon="1.64446">
        <ele>134.3</ele>
        <time>2022-05-07T15:38:20Z</time>
      </trkpt>
      <trkpt lat="44.48472" lon="1.64446">
        <ele>134.3</ele>
        <time>2022-05-07T15:38:22Z</time>
      </trkpt>
      <trkpt lat="44.48473" lon="1.64445">
        <ele>134.3</ele>
        <time>2022-05-07T15:38:23Z</time>
      </trkpt>
      <trkpt lat="44.48473" lon="1.64444">
        <ele>134.2</ele>
        <time>2022-05-07T15:38:24Z</time>
      </trkpt>
      <trkpt lat="44.48474" lon="1.64443">
        <ele>134.2</ele>
        <time>2022-05-07T15:38:25Z</time>
      </trkpt>
      <trkpt lat="44.48474" lon="1.64442">
        <ele>134.2</ele>
        <time>2022-05-07T15:38:26Z</time>
      </trkpt>
      <trkpt lat="44.48475" lon="1.64441">
        <ele>134.2</ele>
        <time>2022-05-07T15:38:28Z</time>
      </trkpt>
      <trkpt lat="44.48475" lon="1.64441">
        <ele>134.2</ele>
        <time>2022-05-07T15:38:29Z</time>
      </trkpt>
      <trkpt lat="44.48478" lon="1.64435">
        <ele>134.2</ele>
        <time>2022-05-07T15:38:30Z</time>
      </trkpt>
      <trkpt lat="44.48481" lon="1.6443">
        <ele>134.1</ele>
        <time>2022-05-07T15:38:31Z</time>
      </trkpt>
      <trkpt lat="44.48483" lon="1.64424">
        <ele>134.1</ele>
        <time>2022-05-07T15:38:32Z</time>
      </trkpt>
      <trkpt lat="44.48487" lon="1.6442">
        <ele>134.1</ele>
        <time>2022-05-07T15:38:33Z</time>
      </trkpt>
      <trkpt lat="44.48489" lon="1.64418">
        <ele>134.1</ele>
        <time>2022-05-07T15:38:34Z</time>
      </trkpt>
      <trkpt lat="44.48491" lon="1.64414">
        <ele>134.1</ele>
        <time>2022-05-07T15:38:35Z</time>
      </trkpt>
      <trkpt lat="44.48493" lon="1.64411">
        <ele>134.2</ele>
        <time>2022-05-07T15:38:36Z</time>
      </trkpt>
      <trkpt lat="44.48495" lon="1.64407">
        <ele>134.2</ele>
        <time>2022-05-07T15:38:37Z</time>
      </trkpt>
      <trkpt lat="44.48496" lon="1.64405">
        <ele>134.2</ele>
        <time>2022-05-07T15:38:38Z</time>
      </trkpt>
      <trkpt lat="44.48499" lon="1.64401">
        <ele>134.2</ele>
        <time>2022-05-07T15:38:40Z</time>
      </trkpt>
      <trkpt lat="44.48501" lon="1.64397">
        <ele>134.2</ele>
        <time>2022-05-07T15:38:42Z</time>
      </trkpt>
      <trkpt lat="44.48503" lon="1.64393">
        <ele>134.2</ele>
        <time>2022-05-07T15:38:43Z</time>
      </trkpt>
      <trkpt lat="44.48505" lon="1.64389">
        <ele>134.3</ele>
        <time>2022-05-07T15:38:44Z</time>
      </trkpt>
      <trkpt lat="44.48506" lon="1.64384">
        <ele>134.3</ele>
        <time>2022-05-07T15:38:45Z</time>
      </trkpt>
      <trkpt lat="44.48507" lon="1.6438">
        <ele>134.3</ele>
        <time>2022-05-07T15:38:46Z</time>
      </trkpt>
      <trkpt lat="44.48509" lon="1.64377">
        <ele>134.3</ele>
        <time>2022-05-07T15:38:47Z</time>
      </trkpt>
      <trkpt lat="44.48511" lon="1.64373">
        <ele>134.3</ele>
        <time>2022-05-07T15:38:48Z</time>
      </trkpt>
      <trkpt lat="44.48512" lon="1.64369">
        <ele>134.3</ele>
        <time>2022-05-07T15:38:49Z</time>
      </trkpt>
      <trkpt lat="44.48514" lon="1.64365">
        <ele>134.3</ele>
        <time>2022-05-07T15:38:50Z</time>
      </trkpt>
      <trkpt lat="44.48516" lon="1.6436">
        <ele>134.3</ele>
        <time>2022-05-07T15:38:51Z</time>
      </trkpt>
      <trkpt lat="44.48516" lon="1.64357">
        <ele>134.3</ele>
        <time>2022-05-07T15:38:52Z</time>
      </trkpt>
      <trkpt lat="44.48518" lon="1.64351">
        <ele>134.3</ele>
        <time>2022-05-07T15:38:54Z</time>
      </trkpt>
      <trkpt lat="44.48521" lon="1.64349">
        <ele>134.3</ele>
        <time>2022-05-07T15:38:55Z</time>
      </trkpt>
      <trkpt lat="44.48522" lon="1.64348">
        <ele>134.3</ele>
        <time>2022-05-07T15:38:56Z</time>
      </trkpt>
      <trkpt lat="44.48522" lon="1.64347">
        <ele>134.3</ele>
        <time>2022-05-07T15:38:57Z</time>
      </trkpt>
      <trkpt lat="44.48522" lon="1.64346">
        <ele>134.3</ele>
        <time>2022-05-07T15:38:58Z</time>
      </trkpt>
      <trkpt lat="44.48524" lon="1.64344">
        <ele>134.3</ele>
        <time>2022-05-07T15:39:00Z</time>
      </trkpt>
      <trkpt lat="44.48526" lon="1.64343">
        <ele>134.3</ele>
        <time>2022-05-07T15:39:01Z</time>
      </trkpt>
      <trkpt lat="44.48527" lon="1.64343">
        <ele>134.3</ele>
        <time>2022-05-07T15:39:02Z</time>
      </trkpt>
      <trkpt lat="44.48527" lon="1.64342">
        <ele>134.3</ele>
        <time>2022-05-07T15:39:03Z</time>
      </trkpt>
      <trkpt lat="44.48526" lon="1.64341">
        <ele>134.3</ele>
        <time>2022-05-07T15:39:04Z</time>
      </trkpt>
      <trkpt lat="44.48526" lon="1.64341">
        <ele>134.3</ele>
        <time>2022-05-07T15:39:05Z</time>
      </trkpt>
      <trkpt lat="44.48526" lon="1.64341">
        <ele>134.3</ele>
        <time>2022-05-07T15:39:06Z</time>
      </trkpt>
      <trkpt lat="44.48526" lon="1.64341">
        <ele>134.3</ele>
        <time>2022-05-07T15:39:07Z</time>
      </trkpt>
      <trkpt lat="44.48526" lon="1.6434">
        <ele>134.3</ele>
        <time>2022-05-07T15:39:09Z</time>
      </trkpt>
      <trkpt lat="44.48526" lon="1.6434">
        <ele>134.3</ele>
        <time>2022-05-07T15:39:10Z</time>
      </trkpt>
      <trkpt lat="44.48526" lon="1.6434">
        <ele>134.3</ele>
        <time>2022-05-07T15:39:11Z</time>
      </trkpt>
      <trkpt lat="44.48526" lon="1.6434">
        <ele>134.3</ele>
        <time>2022-05-07T15:39:13Z</time>
      </trkpt>
      <trkpt lat="44.48523" lon="1.64341">
        <ele>134.3</ele>
        <time>2022-05-07T15:39:30Z</time>
      </trkpt>
      <trkpt lat="44.48522" lon="1.64342">
        <ele>134.3</ele>
        <time>2022-05-07T15:39:31Z</time>
      </trkpt>
      <trkpt lat="44.48521" lon="1.64343">
        <ele>134.3</ele>
        <time>2022-05-07T15:39:32Z</time>
      </trkpt>
      <trkpt lat="44.4852" lon="1.64346">
        <ele>134.3</ele>
        <time>2022-05-07T15:39:34Z</time>
      </trkpt>
      <trkpt lat="44.48519" lon="1.64348">
        <ele>134.3</ele>
        <time>2022-05-07T15:39:35Z</time>
      </trkpt>
      <trkpt lat="44.48519" lon="1.64349">
        <ele>134.3</ele>
        <time>2022-05-07T15:39:36Z</time>
      </trkpt>
      <trkpt lat="44.48519" lon="1.6435">
        <ele>134.3</ele>
        <time>2022-05-07T15:39:37Z</time>
      </trkpt>
      <trkpt lat="44.48518" lon="1.64352">
        <ele>134.3</ele>
        <time>2022-05-07T15:39:38Z</time>
      </trkpt>
      <trkpt lat="44.48518" lon="1.64353">
        <ele>134.3</ele>
        <time>2022-05-07T15:39:39Z</time>
      </trkpt>
      <trkpt lat="44.48517" lon="1.64354">
        <ele>134.3</ele>
        <time>2022-05-07T15:39:40Z</time>
      </trkpt>
      <trkpt lat="44.48517" lon="1.64356">
        <ele>134.3</ele>
        <time>2022-05-07T15:39:41Z</time>
      </trkpt>
      <trkpt lat="44.48517" lon="1.64357">
        <ele>134.3</ele>
        <time>2022-05-07T15:39:42Z</time>
      </trkpt>
      <trkpt lat="44.48516" lon="1.64358">
        <ele>134.3</ele>
        <time>2022-05-07T15:39:43Z</time>
      </trkpt>
      <trkpt lat="44.48516" lon="1.64359">
        <ele>134.3</ele>
        <time>2022-05-07T15:39:44Z</time>
      </trkpt>
      <trkpt lat="44.48516" lon="1.64361">
        <ele>134.3</ele>
        <time>2022-05-07T15:40:21Z</time>
      </trkpt>
      <trkpt lat="44.48515" lon="1.64362">
        <ele>134.3</ele>
        <time>2022-05-07T15:40:23Z</time>
      </trkpt>
      <trkpt lat="44.48515" lon="1.64363">
        <ele>134.3</ele>
        <time>2022-05-07T15:40:24Z</time>
      </trkpt>
      <trkpt lat="44.48513" lon="1.64368">
        <ele>134.3</ele>
        <time>2022-05-07T15:40:25Z</time>
      </trkpt>
      <trkpt lat="44.48511" lon="1.64373">
        <ele>134.3</ele>
        <time>2022-05-07T15:40:26Z</time>
      </trkpt>
      <trkpt lat="44.48509" lon="1.64378">
        <ele>134.3</ele>
        <time>2022-05-07T15:40:27Z</time>
      </trkpt>
      <trkpt lat="44.48507" lon="1.64382">
        <ele>134.3</ele>
        <time>2022-05-07T15:40:28Z</time>
      </trkpt>
      <trkpt lat="44.48506" lon="1.64386">
        <ele>134.3</ele>
        <time>2022-05-07T15:40:29Z</time>
      </trkpt>
      <trkpt lat="44.48505" lon="1.64389">
        <ele>134.3</ele>
        <time>2022-05-07T15:40:30Z</time>
      </trkpt>
      <trkpt lat="44.48502" lon="1.64394">
        <ele>134.2</ele>
        <time>2022-05-07T15:40:32Z</time>
      </trkpt>
      <trkpt lat="44.485" lon="1.64397">
        <ele>134.2</ele>
        <time>2022-05-07T15:40:33Z</time>
      </trkpt>
      <trkpt lat="44.48498" lon="1.64402">
        <ele>134.2</ele>
        <time>2022-05-07T15:40:34Z</time>
      </trkpt>
      <trkpt lat="44.48496" lon="1.64406">
        <ele>134.2</ele>
        <time>2022-05-07T15:40:35Z</time>
      </trkpt>
      <trkpt lat="44.48493" lon="1.64411">
        <ele>134.2</ele>
        <time>2022-05-07T15:40:37Z</time>
      </trkpt>
      <trkpt lat="44.4849" lon="1.64416">
        <ele>134.1</ele>
        <time>2022-05-07T15:40:38Z</time>
      </trkpt>
      <trkpt lat="44.48488" lon="1.64419">
        <ele>134.1</ele>
        <time>2022-05-07T15:40:39Z</time>
      </trkpt>
      <trkpt lat="44.48484" lon="1.64423">
        <ele>134.1</ele>
        <time>2022-05-07T15:40:41Z</time>
      </trkpt>
      <trkpt lat="44.4848" lon="1.64428">
        <ele>134.1</ele>
        <time>2022-05-07T15:40:42Z</time>
      </trkpt>
      <trkpt lat="44.48478" lon="1.64435">
        <ele>134.2</ele>
        <time>2022-05-07T15:40:43Z</time>
      </trkpt>
      <trkpt lat="44.48476" lon="1.64439">
        <ele>134.2</ele>
        <time>2022-05-07T15:40:44Z</time>
      </trkpt>
      <trkpt lat="44.48473" lon="1.64442">
        <ele>134.2</ele>
        <time>2022-05-07T15:40:45Z</time>
      </trkpt>
      <trkpt lat="44.4847" lon="1.64446">
        <ele>134.3</ele>
        <time>2022-05-07T15:40:46Z</time>
      </trkpt>
      <trkpt lat="44.4847" lon="1.64447">
        <ele>134.3</ele>
        <time>2022-05-07T15:40:47Z</time>
      </trkpt>
      <trkpt lat="44.48467" lon="1.64447">
        <ele>134.3</ele>
        <time>2022-05-07T15:40:49Z</time>
      </trkpt>
      <trkpt lat="44.48466" lon="1.64446">
        <ele>134.3</ele>
        <time>2022-05-07T15:40:50Z</time>
      </trkpt>
      <trkpt lat="44.48464" lon="1.64443">
        <ele>134.3</ele>
        <time>2022-05-07T15:40:51Z</time>
      </trkpt>
      <trkpt lat="44.48462" lon="1.64441">
        <ele>134.3</ele>
        <time>2022-05-07T15:40:52Z</time>
      </trkpt>
      <trkpt lat="44.4846" lon="1.64437">
        <ele>134.8</ele>
        <time>2022-05-07T15:40:53Z</time>
      </trkpt>
      <trkpt lat="44.48457" lon="1.64433">
        <ele>134.8</ele>
        <time>2022-05-07T15:40:54Z</time>
      </trkpt>
      <trkpt lat="44.48455" lon="1.64428">
        <ele>134.8</ele>
        <time>2022-05-07T15:40:55Z</time>
      </trkpt>
      <trkpt lat="44.48452" lon="1.64424">
        <ele>134.9</ele>
        <time>2022-05-07T15:40:56Z</time>
      </trkpt>
      <trkpt lat="44.48451" lon="1.64423">
        <ele>134.9</ele>
        <time>2022-05-07T15:40:57Z</time>
      </trkpt>
      <trkpt lat="44.4845" lon="1.64424">
        <ele>134.9</ele>
        <time>2022-05-07T15:40:59Z</time>
      </trkpt>
      <trkpt lat="44.48451" lon="1.64427">
        <ele>134.9</ele>
        <time>2022-05-07T15:41:01Z</time>
      </trkpt>
      <trkpt lat="44.48453" lon="1.6443">
        <ele>135</ele>
        <time>2022-05-07T15:41:02Z</time>
      </trkpt>
      <trkpt lat="44.48456" lon="1.64433">
        <ele>135</ele>
        <time>2022-05-07T15:41:03Z</time>
      </trkpt>
      <trkpt lat="44.48453" lon="1.64437">
        <ele>135</ele>
        <time>2022-05-07T15:41:04Z</time>
      </trkpt>
      <trkpt lat="44.48452" lon="1.64438">
        <ele>135.1</ele>
        <time>2022-05-07T15:41:05Z</time>
      </trkpt>
      <trkpt lat="44.48449" lon="1.64436">
        <ele>135.1</ele>
        <time>2022-05-07T15:41:06Z</time>
      </trkpt>
      <trkpt lat="44.48444" lon="1.64434">
        <ele>135.2</ele>
        <time>2022-05-07T15:41:08Z</time>
      </trkpt>
      <trkpt lat="44.4844" lon="1.64432">
        <ele>135.3</ele>
        <time>2022-05-07T15:41:09Z</time>
      </trkpt>
      <trkpt lat="44.48438" lon="1.64427">
        <ele>135.4</ele>
        <time>2022-05-07T15:41:10Z</time>
      </trkpt>
      <trkpt lat="44.48436" lon="1.64422">
        <ele>135.4</ele>
        <time>2022-05-07T15:41:11Z</time>
      </trkpt>
      <trkpt lat="44.48435" lon="1.64417">
        <ele>135.5</ele>
        <time>2022-05-07T15:41:12Z</time>
      </trkpt>
      <trkpt lat="44.48434" lon="1.64416">
        <ele>135.5</ele>
        <time>2022-05-07T15:41:13Z</time>
      </trkpt>
      <trkpt lat="44.48432" lon="1.64411">
        <ele>135.6</ele>
        <time>2022-05-07T15:41:14Z</time>
      </trkpt>
      <trkpt lat="44.48432" lon="1.6441">
        <ele>135.6</ele>
        <time>2022-05-07T15:41:15Z</time>
      </trkpt>
      <trkpt lat="44.48431" lon="1.64406">
        <ele>135.7</ele>
        <time>2022-05-07T15:41:16Z</time>
      </trkpt>
      <trkpt lat="44.4843" lon="1.64405">
        <ele>135.7</ele>
        <time>2022-05-07T15:41:17Z</time>
      </trkpt>
      <trkpt lat="44.4843" lon="1.64403">
        <ele>135.7</ele>
        <time>2022-05-07T15:41:18Z</time>
      </trkpt>
      <trkpt lat="44.4843" lon="1.644">
        <ele>135.7</ele>
        <time>2022-05-07T15:41:19Z</time>
      </trkpt>
      <trkpt lat="44.48428" lon="1.64401">
        <ele>135.7</ele>
        <time>2022-05-07T15:41:20Z</time>
      </trkpt>
      <trkpt lat="44.48427" lon="1.64403">
        <ele>135.7</ele>
        <time>2022-05-07T15:41:21Z</time>
      </trkpt>
      <trkpt lat="44.48426" lon="1.64404">
        <ele>135.7</ele>
        <time>2022-05-07T15:41:22Z</time>
      </trkpt>
      <trkpt lat="44.48424" lon="1.64406">
        <ele>135.7</ele>
        <time>2022-05-07T15:41:23Z</time>
      </trkpt>
      <trkpt lat="44.48423" lon="1.64405">
        <ele>135.7</ele>
        <time>2022-05-07T15:41:24Z</time>
      </trkpt>
      <trkpt lat="44.48422" lon="1.64404">
        <ele>135.7</ele>
        <time>2022-05-07T15:41:25Z</time>
      </trkpt>
      <trkpt lat="44.48421" lon="1.64404">
        <ele>135.7</ele>
        <time>2022-05-07T15:41:27Z</time>
      </trkpt>
      <trkpt lat="44.4842" lon="1.64405">
        <ele>135.7</ele>
        <time>2022-05-07T15:41:28Z</time>
      </trkpt>
      <trkpt lat="44.48418" lon="1.64408">
        <ele>135.7</ele>
        <time>2022-05-07T15:41:29Z</time>
      </trkpt>
      <trkpt lat="44.48417" lon="1.6441">
        <ele>135.7</ele>
        <time>2022-05-07T15:41:30Z</time>
      </trkpt>
      <trkpt lat="44.48415" lon="1.64413">
        <ele>135.7</ele>
        <time>2022-05-07T15:41:31Z</time>
      </trkpt>
      <trkpt lat="44.48411" lon="1.64416">
        <ele>135.7</ele>
        <time>2022-05-07T15:41:33Z</time>
      </trkpt>
      <trkpt lat="44.48409" lon="1.64416">
        <ele>135.7</ele>
        <time>2022-05-07T15:41:34Z</time>
      </trkpt>
      <trkpt lat="44.48407" lon="1.64416">
        <ele>135.7</ele>
        <time>2022-05-07T15:41:35Z</time>
      </trkpt>
      <trkpt lat="44.48406" lon="1.64412">
        <ele>135.7</ele>
        <time>2022-05-07T15:41:36Z</time>
      </trkpt>
      <trkpt lat="44.48407" lon="1.64409">
        <ele>135.7</ele>
        <time>2022-05-07T15:41:37Z</time>
      </trkpt>
      <trkpt lat="44.48407" lon="1.64403">
        <ele>135.7</ele>
        <time>2022-05-07T15:41:39Z</time>
      </trkpt>
      <trkpt lat="44.48407" lon="1.64399">
        <ele>135.7</ele>
        <time>2022-05-07T15:41:40Z</time>
      </trkpt>
      <trkpt lat="44.48407" lon="1.64395">
        <ele>135.7</ele>
        <time>2022-05-07T15:41:41Z</time>
      </trkpt>
      <trkpt lat="44.48406" lon="1.6439">
        <ele>135.7</ele>
        <time>2022-05-07T15:41:43Z</time>
      </trkpt>
      <trkpt lat="44.48405" lon="1.64388">
        <ele>135.7</ele>
        <time>2022-05-07T15:41:44Z</time>
      </trkpt>
      <trkpt lat="44.48405" lon="1.64387">
        <ele>135.7</ele>
        <time>2022-05-07T15:41:46Z</time>
      </trkpt>
      <trkpt lat="44.48404" lon="1.64386">
        <ele>135.7</ele>
        <time>2022-05-07T15:41:47Z</time>
      </trkpt>
      <trkpt lat="44.48406" lon="1.64382">
        <ele>135.7</ele>
        <time>2022-05-07T15:41:49Z</time>
      </trkpt>
      <trkpt lat="44.48408" lon="1.64378">
        <ele>135.7</ele>
        <time>2022-05-07T15:41:50Z</time>
      </trkpt>
      <trkpt lat="44.48409" lon="1.64378">
        <ele>135.7</ele>
        <time>2022-05-07T15:41:51Z</time>
      </trkpt>
      <trkpt lat="44.48411" lon="1.64376">
        <ele>135.7</ele>
        <time>2022-05-07T15:41:53Z</time>
      </trkpt>
      <trkpt lat="44.48414" lon="1.64373">
        <ele>135.7</ele>
        <time>2022-05-07T15:41:54Z</time>
      </trkpt>
      <trkpt lat="44.48416" lon="1.6437">
        <ele>135.7</ele>
        <time>2022-05-07T15:41:55Z</time>
      </trkpt>
      <trkpt lat="44.48417" lon="1.64369">
        <ele>135.7</ele>
        <time>2022-05-07T15:41:56Z</time>
      </trkpt>
      <trkpt lat="44.48418" lon="1.64365">
        <ele>135.7</ele>
        <time>2022-05-07T15:41:58Z</time>
      </trkpt>
      <trkpt lat="44.4842" lon="1.6436">
        <ele>135.7</ele>
        <time>2022-05-07T15:41:59Z</time>
      </trkpt>
      <trkpt lat="44.48421" lon="1.64358">
        <ele>135.7</ele>
        <time>2022-05-07T15:42:00Z</time>
      </trkpt>
      <trkpt lat="44.4842" lon="1.64356">
        <ele>135.7</ele>
        <time>2022-05-07T15:42:01Z</time>
      </trkpt>
      <trkpt lat="44.48419" lon="1.64357">
        <ele>135.7</ele>
        <time>2022-05-07T15:42:02Z</time>
      </trkpt>
      <trkpt lat="44.48419" lon="1.64357">
        <ele>135.7</ele>
        <time>2022-05-07T15:42:03Z</time>
      </trkpt>
      <trkpt lat="44.48419" lon="1.64358">
        <ele>135.7</ele>
        <time>2022-05-07T15:42:04Z</time>
      </trkpt>
      <trkpt lat="44.48419" lon="1.64358">
        <ele>135.7</ele>
        <time>2022-05-07T15:42:05Z</time>
      </trkpt>
      <trkpt lat="44.48419" lon="1.64358">
        <ele>135.7</ele>
        <time>2022-05-07T15:42:06Z</time>
      </trkpt>
      <trkpt lat="44.48419" lon="1.64358">
        <ele>135.7</ele>
        <time>2022-05-07T15:42:07Z</time>
      </trkpt>
      <trkpt lat="44.48419" lon="1.64358">
        <ele>135.7</ele>
        <time>2022-05-07T15:42:08Z</time>
      </trkpt>
      <trkpt lat="44.48419" lon="1.64358">
        <ele>135.7</ele>
        <time>2022-05-07T15:42:09Z</time>
      </trkpt>
      <trkpt lat="44.48419" lon="1.64358">
        <ele>135.7</ele>
        <time>2022-05-07T15:42:11Z</time>
      </trkpt>
    </trkseg>
  </trk>
</gpx>